<?xml version="1.0" encoding="UTF-8" standalone="no" ?>
<gpx xmlns="http://www.topografix.com/GPX/1/1" xmlns:xsi="http://www.w3.org/2001/XMLSchema-instance" xsi:schemaLocation="http://www.topografix.com/GPX/1/1 http://www.topografix.com/GPX/1/1/gpx.xsd" version="1.1" creator="VisuGPX - https://www.visugpx.com">
  <metadata>
    <name>Bagnols -Pennafort -Fille d'Isnard</name>
    <desc><![CDATA[avec RA]]></desc>
  </metadata>
  <trk>
    <name><![CDATA[Bagnols -Pennafort -Fille d'Isnard_16]]></name>
    <trkseg>
      <trkpt lat="43.55739" lon="6.79722">
        <ele>161.4</ele>
        <time>2025-10-24T06:39:19.000Z</time>
      </trkpt>
      <trkpt lat="43.55737" lon="6.79725">
        <ele>161.7</ele>
        <time>2025-10-24T06:39:20.000Z</time>
      </trkpt>
      <trkpt lat="43.55735" lon="6.79729">
        <ele>162</ele>
        <time>2025-10-24T06:39:21.000Z</time>
      </trkpt>
      <trkpt lat="43.55735" lon="6.79732">
        <ele>162.2</ele>
        <time>2025-10-24T06:39:22.000Z</time>
      </trkpt>
      <trkpt lat="43.55735" lon="6.79735">
        <ele>162.5</ele>
        <time>2025-10-24T06:39:23.000Z</time>
      </trkpt>
      <trkpt lat="43.55735" lon="6.79739">
        <ele>162.7</ele>
        <time>2025-10-24T06:39:24.000Z</time>
      </trkpt>
      <trkpt lat="43.55735" lon="6.79743">
        <ele>162.7</ele>
        <time>2025-10-24T06:39:25.000Z</time>
      </trkpt>
      <trkpt lat="43.55737" lon="6.79748">
        <ele>162.8</ele>
        <time>2025-10-24T06:39:26.000Z</time>
      </trkpt>
      <trkpt lat="43.55738" lon="6.79751">
        <ele>162.9</ele>
        <time>2025-10-24T06:39:27.000Z</time>
      </trkpt>
      <trkpt lat="43.5574" lon="6.79756">
        <ele>162.9</ele>
        <time>2025-10-24T06:39:28.000Z</time>
      </trkpt>
      <trkpt lat="43.55743" lon="6.79759">
        <ele>163</ele>
        <time>2025-10-24T06:39:29.000Z</time>
      </trkpt>
      <trkpt lat="43.55746" lon="6.79762">
        <ele>163</ele>
        <time>2025-10-24T06:39:30.000Z</time>
      </trkpt>
      <trkpt lat="43.55749" lon="6.79765">
        <ele>163</ele>
        <time>2025-10-24T06:39:31.000Z</time>
      </trkpt>
      <trkpt lat="43.55752" lon="6.79768">
        <ele>163.1</ele>
        <time>2025-10-24T06:39:32.000Z</time>
      </trkpt>
      <trkpt lat="43.55756" lon="6.79771">
        <ele>163.1</ele>
        <time>2025-10-24T06:39:33.000Z</time>
      </trkpt>
      <trkpt lat="43.55759" lon="6.79773">
        <ele>163.1</ele>
        <time>2025-10-24T06:39:34.000Z</time>
      </trkpt>
      <trkpt lat="43.55763" lon="6.79776">
        <ele>163.1</ele>
        <time>2025-10-24T06:39:35.000Z</time>
      </trkpt>
      <trkpt lat="43.55767" lon="6.79779">
        <ele>163.1</ele>
        <time>2025-10-24T06:39:36.000Z</time>
      </trkpt>
      <trkpt lat="43.55771" lon="6.79781">
        <ele>163.2</ele>
        <time>2025-10-24T06:39:37.000Z</time>
      </trkpt>
      <trkpt lat="43.55774" lon="6.79784">
        <ele>163.2</ele>
        <time>2025-10-24T06:39:38.000Z</time>
      </trkpt>
      <trkpt lat="43.55778" lon="6.79788">
        <ele>163.2</ele>
        <time>2025-10-24T06:39:39.000Z</time>
      </trkpt>
      <trkpt lat="43.55781" lon="6.79791">
        <ele>163.2</ele>
        <time>2025-10-24T06:39:40.000Z</time>
      </trkpt>
      <trkpt lat="43.55784" lon="6.79795">
        <ele>163.2</ele>
        <time>2025-10-24T06:39:41.000Z</time>
      </trkpt>
      <trkpt lat="43.55787" lon="6.79799">
        <ele>163.2</ele>
        <time>2025-10-24T06:39:42.000Z</time>
      </trkpt>
      <trkpt lat="43.5579" lon="6.79802">
        <ele>163.2</ele>
        <time>2025-10-24T06:39:43.000Z</time>
      </trkpt>
      <trkpt lat="43.55794" lon="6.79804">
        <ele>163.2</ele>
        <time>2025-10-24T06:39:44.000Z</time>
      </trkpt>
      <trkpt lat="43.55797" lon="6.79806">
        <ele>163.2</ele>
        <time>2025-10-24T06:39:45.000Z</time>
      </trkpt>
      <trkpt lat="43.558" lon="6.79807">
        <ele>163.2</ele>
        <time>2025-10-24T06:39:46.000Z</time>
      </trkpt>
      <trkpt lat="43.55803" lon="6.79808">
        <ele>163.1</ele>
        <time>2025-10-24T06:39:47.000Z</time>
      </trkpt>
      <trkpt lat="43.55806" lon="6.7981">
        <ele>163.1</ele>
        <time>2025-10-24T06:39:48.000Z</time>
      </trkpt>
      <trkpt lat="43.55808" lon="6.79811">
        <ele>163</ele>
        <time>2025-10-24T06:39:49.000Z</time>
      </trkpt>
      <trkpt lat="43.5581" lon="6.79812">
        <ele>162.9</ele>
        <time>2025-10-24T06:39:50.000Z</time>
      </trkpt>
      <trkpt lat="43.55812" lon="6.79813">
        <ele>162.8</ele>
        <time>2025-10-24T06:39:51.000Z</time>
      </trkpt>
      <trkpt lat="43.55813" lon="6.79814">
        <ele>162.7</ele>
        <time>2025-10-24T06:39:52.000Z</time>
      </trkpt>
      <trkpt lat="43.55816" lon="6.79816">
        <ele>162.5</ele>
        <time>2025-10-24T06:39:53.000Z</time>
      </trkpt>
      <trkpt lat="43.55817" lon="6.79815">
        <ele>162.4</ele>
        <time>2025-10-24T06:39:54.000Z</time>
      </trkpt>
      <trkpt lat="43.55818" lon="6.79815">
        <ele>162.3</ele>
        <time>2025-10-24T06:39:55.000Z</time>
      </trkpt>
      <trkpt lat="43.55819" lon="6.79815">
        <ele>162.1</ele>
        <time>2025-10-24T06:39:56.000Z</time>
      </trkpt>
      <trkpt lat="43.5582" lon="6.79815">
        <ele>162</ele>
        <time>2025-10-24T06:39:57.000Z</time>
      </trkpt>
      <trkpt lat="43.55821" lon="6.79815">
        <ele>161.9</ele>
        <time>2025-10-24T06:39:58.000Z</time>
      </trkpt>
      <trkpt lat="43.55822" lon="6.79814">
        <ele>161.8</ele>
        <time>2025-10-24T06:39:59.000Z</time>
      </trkpt>
      <trkpt lat="43.55823" lon="6.79814">
        <ele>161.6</ele>
        <time>2025-10-24T06:40:00.000Z</time>
      </trkpt>
      <trkpt lat="43.55824" lon="6.79814">
        <ele>161.5</ele>
        <time>2025-10-24T06:40:01.000Z</time>
      </trkpt>
      <trkpt lat="43.55825" lon="6.79814">
        <ele>161.4</ele>
        <time>2025-10-24T06:40:02.000Z</time>
      </trkpt>
      <trkpt lat="43.55826" lon="6.79814">
        <ele>161.3</ele>
        <time>2025-10-24T06:40:03.000Z</time>
      </trkpt>
      <trkpt lat="43.55827" lon="6.79813">
        <ele>161.1</ele>
        <time>2025-10-24T06:40:04.000Z</time>
      </trkpt>
      <trkpt lat="43.55828" lon="6.79813">
        <ele>161</ele>
        <time>2025-10-24T06:40:05.000Z</time>
      </trkpt>
      <trkpt lat="43.55829" lon="6.79813">
        <ele>160.9</ele>
        <time>2025-10-24T06:40:06.000Z</time>
      </trkpt>
      <trkpt lat="43.5583" lon="6.79813">
        <ele>160.8</ele>
        <time>2025-10-24T06:40:07.000Z</time>
      </trkpt>
      <trkpt lat="43.55831" lon="6.79813">
        <ele>160.7</ele>
        <time>2025-10-24T06:40:08.000Z</time>
      </trkpt>
      <trkpt lat="43.55832" lon="6.79812">
        <ele>160.6</ele>
        <time>2025-10-24T06:40:09.000Z</time>
      </trkpt>
      <trkpt lat="43.55833" lon="6.79812">
        <ele>160.4</ele>
        <time>2025-10-24T06:40:10.000Z</time>
      </trkpt>
      <trkpt lat="43.55834" lon="6.79812">
        <ele>160.4</ele>
        <time>2025-10-24T06:40:11.000Z</time>
      </trkpt>
      <trkpt lat="43.55835" lon="6.79812">
        <ele>160.3</ele>
        <time>2025-10-24T06:40:12.000Z</time>
      </trkpt>
      <trkpt lat="43.55836" lon="6.79812">
        <ele>160.2</ele>
        <time>2025-10-24T06:40:13.000Z</time>
      </trkpt>
      <trkpt lat="43.55837" lon="6.79812">
        <ele>160.1</ele>
        <time>2025-10-24T06:40:14.000Z</time>
      </trkpt>
      <trkpt lat="43.55838" lon="6.79811">
        <ele>160.1</ele>
        <time>2025-10-24T06:40:15.000Z</time>
      </trkpt>
      <trkpt lat="43.55839" lon="6.79811">
        <ele>160</ele>
        <time>2025-10-24T06:40:16.000Z</time>
      </trkpt>
      <trkpt lat="43.5584" lon="6.79811">
        <ele>160</ele>
        <time>2025-10-24T06:40:17.000Z</time>
      </trkpt>
      <trkpt lat="43.55841" lon="6.79811">
        <ele>159.9</ele>
        <time>2025-10-24T06:40:18.000Z</time>
      </trkpt>
      <trkpt lat="43.55842" lon="6.79811">
        <ele>159.9</ele>
        <time>2025-10-24T06:40:19.000Z</time>
      </trkpt>
      <trkpt lat="43.55843" lon="6.7981">
        <ele>159.9</ele>
        <time>2025-10-24T06:40:20.000Z</time>
      </trkpt>
      <trkpt lat="43.55848" lon="6.79808">
        <ele>159.9</ele>
        <time>2025-10-24T06:40:21.000Z</time>
      </trkpt>
      <trkpt lat="43.55853" lon="6.79806">
        <ele>160</ele>
        <time>2025-10-24T06:40:22.000Z</time>
      </trkpt>
      <trkpt lat="43.55858" lon="6.79803">
        <ele>160.2</ele>
        <time>2025-10-24T06:40:23.000Z</time>
      </trkpt>
      <trkpt lat="43.55861" lon="6.79802">
        <ele>160.5</ele>
        <time>2025-10-24T06:40:24.000Z</time>
      </trkpt>
      <trkpt lat="43.55864" lon="6.798">
        <ele>160.7</ele>
        <time>2025-10-24T06:40:25.000Z</time>
      </trkpt>
      <trkpt lat="43.55868" lon="6.79799">
        <ele>160.9</ele>
        <time>2025-10-24T06:40:26.000Z</time>
      </trkpt>
      <trkpt lat="43.55871" lon="6.79798">
        <ele>161.1</ele>
        <time>2025-10-24T06:40:27.000Z</time>
      </trkpt>
      <trkpt lat="43.55874" lon="6.79797">
        <ele>161.3</ele>
        <time>2025-10-24T06:40:28.000Z</time>
      </trkpt>
      <trkpt lat="43.55878" lon="6.79796">
        <ele>161.4</ele>
        <time>2025-10-24T06:40:29.000Z</time>
      </trkpt>
      <trkpt lat="43.55881" lon="6.79795">
        <ele>161.5</ele>
        <time>2025-10-24T06:40:30.000Z</time>
      </trkpt>
      <trkpt lat="43.55884" lon="6.79795">
        <ele>161.5</ele>
        <time>2025-10-24T06:40:31.000Z</time>
      </trkpt>
      <trkpt lat="43.55888" lon="6.79794">
        <ele>161.5</ele>
        <time>2025-10-24T06:40:32.000Z</time>
      </trkpt>
      <trkpt lat="43.55891" lon="6.79793">
        <ele>161.5</ele>
        <time>2025-10-24T06:40:33.000Z</time>
      </trkpt>
      <trkpt lat="43.55895" lon="6.79793">
        <ele>161.5</ele>
        <time>2025-10-24T06:40:34.000Z</time>
      </trkpt>
      <trkpt lat="43.55898" lon="6.79792">
        <ele>161.5</ele>
        <time>2025-10-24T06:40:35.000Z</time>
      </trkpt>
      <trkpt lat="43.55902" lon="6.79792">
        <ele>161.5</ele>
        <time>2025-10-24T06:40:36.000Z</time>
      </trkpt>
      <trkpt lat="43.55905" lon="6.79793">
        <ele>161.5</ele>
        <time>2025-10-24T06:40:37.000Z</time>
      </trkpt>
      <trkpt lat="43.55908" lon="6.79794">
        <ele>161.5</ele>
        <time>2025-10-24T06:40:38.000Z</time>
      </trkpt>
      <trkpt lat="43.55911" lon="6.79794">
        <ele>161.5</ele>
        <time>2025-10-24T06:40:39.000Z</time>
      </trkpt>
      <trkpt lat="43.55913" lon="6.79795">
        <ele>161.5</ele>
        <time>2025-10-24T06:40:40.000Z</time>
      </trkpt>
      <trkpt lat="43.55914" lon="6.79794">
        <ele>161.5</ele>
        <time>2025-10-24T06:40:41.000Z</time>
      </trkpt>
      <trkpt lat="43.55914" lon="6.79795">
        <ele>161.5</ele>
        <time>2025-10-24T06:40:42.000Z</time>
      </trkpt>
      <trkpt lat="43.55914" lon="6.79795">
        <ele>161.5</ele>
        <time>2025-10-24T06:40:43.000Z</time>
      </trkpt>
      <trkpt lat="43.55914" lon="6.79795">
        <ele>161.5</ele>
        <time>2025-10-24T06:40:44.000Z</time>
      </trkpt>
      <trkpt lat="43.55913" lon="6.79795">
        <ele>161.5</ele>
        <time>2025-10-24T06:40:45.000Z</time>
      </trkpt>
      <trkpt lat="43.55914" lon="6.79796">
        <ele>161.5</ele>
        <time>2025-10-24T06:40:46.000Z</time>
      </trkpt>
      <trkpt lat="43.55916" lon="6.79797">
        <ele>161.5</ele>
        <time>2025-10-24T06:40:47.000Z</time>
      </trkpt>
      <trkpt lat="43.55918" lon="6.79798">
        <ele>161.5</ele>
        <time>2025-10-24T06:40:48.000Z</time>
      </trkpt>
      <trkpt lat="43.55921" lon="6.798">
        <ele>161.5</ele>
        <time>2025-10-24T06:40:49.000Z</time>
      </trkpt>
      <trkpt lat="43.55924" lon="6.79801">
        <ele>161.5</ele>
        <time>2025-10-24T06:40:50.000Z</time>
      </trkpt>
      <trkpt lat="43.55927" lon="6.79803">
        <ele>161.5</ele>
        <time>2025-10-24T06:40:51.000Z</time>
      </trkpt>
      <trkpt lat="43.55931" lon="6.79805">
        <ele>161.5</ele>
        <time>2025-10-24T06:40:52.000Z</time>
      </trkpt>
      <trkpt lat="43.55934" lon="6.79808">
        <ele>161.4</ele>
        <time>2025-10-24T06:40:53.000Z</time>
      </trkpt>
      <trkpt lat="43.55937" lon="6.7981">
        <ele>161.4</ele>
        <time>2025-10-24T06:40:54.000Z</time>
      </trkpt>
      <trkpt lat="43.5594" lon="6.79813">
        <ele>161.4</ele>
        <time>2025-10-24T06:40:55.000Z</time>
      </trkpt>
      <trkpt lat="43.55944" lon="6.79815">
        <ele>161.3</ele>
        <time>2025-10-24T06:40:56.000Z</time>
      </trkpt>
      <trkpt lat="43.55947" lon="6.79818">
        <ele>161.2</ele>
        <time>2025-10-24T06:40:57.000Z</time>
      </trkpt>
      <trkpt lat="43.55951" lon="6.7982">
        <ele>161.2</ele>
        <time>2025-10-24T06:40:58.000Z</time>
      </trkpt>
      <trkpt lat="43.55954" lon="6.79823">
        <ele>161.1</ele>
        <time>2025-10-24T06:40:59.000Z</time>
      </trkpt>
      <trkpt lat="43.55957" lon="6.79826">
        <ele>161</ele>
        <time>2025-10-24T06:41:00.000Z</time>
      </trkpt>
      <trkpt lat="43.55961" lon="6.79828">
        <ele>161</ele>
        <time>2025-10-24T06:41:01.000Z</time>
      </trkpt>
      <trkpt lat="43.55965" lon="6.79831">
        <ele>160.9</ele>
        <time>2025-10-24T06:41:02.000Z</time>
      </trkpt>
      <trkpt lat="43.55969" lon="6.79833">
        <ele>160.8</ele>
        <time>2025-10-24T06:41:03.000Z</time>
      </trkpt>
      <trkpt lat="43.55973" lon="6.79836">
        <ele>160.8</ele>
        <time>2025-10-24T06:41:04.000Z</time>
      </trkpt>
      <trkpt lat="43.55977" lon="6.79838">
        <ele>160.8</ele>
        <time>2025-10-24T06:41:05.000Z</time>
      </trkpt>
      <trkpt lat="43.55982" lon="6.7984">
        <ele>160.8</ele>
        <time>2025-10-24T06:41:06.000Z</time>
      </trkpt>
      <trkpt lat="43.55986" lon="6.79841">
        <ele>160.8</ele>
        <time>2025-10-24T06:41:07.000Z</time>
      </trkpt>
      <trkpt lat="43.5599" lon="6.79842">
        <ele>160.9</ele>
        <time>2025-10-24T06:41:08.000Z</time>
      </trkpt>
      <trkpt lat="43.55994" lon="6.79843">
        <ele>161</ele>
        <time>2025-10-24T06:41:09.000Z</time>
      </trkpt>
      <trkpt lat="43.55998" lon="6.79845">
        <ele>161.1</ele>
        <time>2025-10-24T06:41:10.000Z</time>
      </trkpt>
      <trkpt lat="43.56001" lon="6.79846">
        <ele>161.1</ele>
        <time>2025-10-24T06:41:11.000Z</time>
      </trkpt>
      <trkpt lat="43.56005" lon="6.79846">
        <ele>161.2</ele>
        <time>2025-10-24T06:41:12.000Z</time>
      </trkpt>
      <trkpt lat="43.56008" lon="6.79847">
        <ele>161.3</ele>
        <time>2025-10-24T06:41:13.000Z</time>
      </trkpt>
      <trkpt lat="43.56012" lon="6.79848">
        <ele>161.4</ele>
        <time>2025-10-24T06:41:14.000Z</time>
      </trkpt>
      <trkpt lat="43.56015" lon="6.7985">
        <ele>161.4</ele>
        <time>2025-10-24T06:41:15.000Z</time>
      </trkpt>
      <trkpt lat="43.56019" lon="6.79851">
        <ele>161.5</ele>
        <time>2025-10-24T06:41:16.000Z</time>
      </trkpt>
      <trkpt lat="43.56022" lon="6.79853">
        <ele>161.6</ele>
        <time>2025-10-24T06:41:17.000Z</time>
      </trkpt>
      <trkpt lat="43.56026" lon="6.79855">
        <ele>161.6</ele>
        <time>2025-10-24T06:41:18.000Z</time>
      </trkpt>
      <trkpt lat="43.56029" lon="6.79857">
        <ele>161.7</ele>
        <time>2025-10-24T06:41:19.000Z</time>
      </trkpt>
      <trkpt lat="43.56032" lon="6.7986">
        <ele>161.8</ele>
        <time>2025-10-24T06:41:20.000Z</time>
      </trkpt>
      <trkpt lat="43.56035" lon="6.79863">
        <ele>161.8</ele>
        <time>2025-10-24T06:41:21.000Z</time>
      </trkpt>
      <trkpt lat="43.56039" lon="6.79866">
        <ele>162</ele>
        <time>2025-10-24T06:41:22.000Z</time>
      </trkpt>
      <trkpt lat="43.56042" lon="6.79868">
        <ele>162.1</ele>
        <time>2025-10-24T06:41:23.000Z</time>
      </trkpt>
      <trkpt lat="43.56046" lon="6.79871">
        <ele>162.3</ele>
        <time>2025-10-24T06:41:24.000Z</time>
      </trkpt>
      <trkpt lat="43.56049" lon="6.79874">
        <ele>162.5</ele>
        <time>2025-10-24T06:41:25.000Z</time>
      </trkpt>
      <trkpt lat="43.56051" lon="6.79877">
        <ele>162.8</ele>
        <time>2025-10-24T06:41:26.000Z</time>
      </trkpt>
      <trkpt lat="43.56053" lon="6.79881">
        <ele>163</ele>
        <time>2025-10-24T06:41:27.000Z</time>
      </trkpt>
      <trkpt lat="43.56055" lon="6.79884">
        <ele>163.2</ele>
        <time>2025-10-24T06:41:28.000Z</time>
      </trkpt>
      <trkpt lat="43.56056" lon="6.79889">
        <ele>163.4</ele>
        <time>2025-10-24T06:41:29.000Z</time>
      </trkpt>
      <trkpt lat="43.56057" lon="6.79893">
        <ele>163.5</ele>
        <time>2025-10-24T06:41:30.000Z</time>
      </trkpt>
      <trkpt lat="43.56058" lon="6.79897">
        <ele>163.7</ele>
        <time>2025-10-24T06:41:31.000Z</time>
      </trkpt>
      <trkpt lat="43.56059" lon="6.79902">
        <ele>163.8</ele>
        <time>2025-10-24T06:41:32.000Z</time>
      </trkpt>
      <trkpt lat="43.5606" lon="6.79907">
        <ele>163.9</ele>
        <time>2025-10-24T06:41:33.000Z</time>
      </trkpt>
      <trkpt lat="43.56062" lon="6.79911">
        <ele>163.9</ele>
        <time>2025-10-24T06:41:34.000Z</time>
      </trkpt>
      <trkpt lat="43.56062" lon="6.79914">
        <ele>163.9</ele>
        <time>2025-10-24T06:41:35.000Z</time>
      </trkpt>
      <trkpt lat="43.56063" lon="6.79917">
        <ele>164</ele>
        <time>2025-10-24T06:41:36.000Z</time>
      </trkpt>
      <trkpt lat="43.56064" lon="6.79921">
        <ele>164</ele>
        <time>2025-10-24T06:41:37.000Z</time>
      </trkpt>
      <trkpt lat="43.56065" lon="6.79925">
        <ele>164</ele>
        <time>2025-10-24T06:41:38.000Z</time>
      </trkpt>
      <trkpt lat="43.56066" lon="6.79929">
        <ele>164</ele>
        <time>2025-10-24T06:41:39.000Z</time>
      </trkpt>
      <trkpt lat="43.56067" lon="6.79933">
        <ele>164</ele>
        <time>2025-10-24T06:41:40.000Z</time>
      </trkpt>
      <trkpt lat="43.56068" lon="6.79935">
        <ele>164</ele>
        <time>2025-10-24T06:41:41.000Z</time>
      </trkpt>
      <trkpt lat="43.56068" lon="6.79937">
        <ele>164</ele>
        <time>2025-10-24T06:41:42.000Z</time>
      </trkpt>
      <trkpt lat="43.56068" lon="6.7994">
        <ele>163.9</ele>
        <time>2025-10-24T06:41:43.000Z</time>
      </trkpt>
      <trkpt lat="43.56068" lon="6.79941">
        <ele>163.9</ele>
        <time>2025-10-24T06:41:44.000Z</time>
      </trkpt>
      <trkpt lat="43.56069" lon="6.79943">
        <ele>163.9</ele>
        <time>2025-10-24T06:41:45.000Z</time>
      </trkpt>
      <trkpt lat="43.56069" lon="6.79943">
        <ele>163.9</ele>
        <time>2025-10-24T06:41:46.000Z</time>
      </trkpt>
      <trkpt lat="43.56069" lon="6.79943">
        <ele>163.9</ele>
        <time>2025-10-24T06:41:47.000Z</time>
      </trkpt>
      <trkpt lat="43.56069" lon="6.79943">
        <ele>163.9</ele>
        <time>2025-10-24T06:41:48.000Z</time>
      </trkpt>
      <trkpt lat="43.5607" lon="6.79942">
        <ele>163.9</ele>
        <time>2025-10-24T06:41:49.000Z</time>
      </trkpt>
      <trkpt lat="43.5607" lon="6.79941">
        <ele>163.9</ele>
        <time>2025-10-24T06:41:50.000Z</time>
      </trkpt>
      <trkpt lat="43.56071" lon="6.79939">
        <ele>163.9</ele>
        <time>2025-10-24T06:41:51.000Z</time>
      </trkpt>
      <trkpt lat="43.56072" lon="6.79937">
        <ele>163.9</ele>
        <time>2025-10-24T06:41:52.000Z</time>
      </trkpt>
      <trkpt lat="43.56072" lon="6.79935">
        <ele>163.9</ele>
        <time>2025-10-24T06:41:53.000Z</time>
      </trkpt>
      <trkpt lat="43.56072" lon="6.79934">
        <ele>163.9</ele>
        <time>2025-10-24T06:41:54.000Z</time>
      </trkpt>
      <trkpt lat="43.56072" lon="6.79934">
        <ele>163.9</ele>
        <time>2025-10-24T06:41:55.000Z</time>
      </trkpt>
      <trkpt lat="43.56072" lon="6.79933">
        <ele>163.9</ele>
        <time>2025-10-24T06:41:56.000Z</time>
      </trkpt>
      <trkpt lat="43.56072" lon="6.79933">
        <ele>163.9</ele>
        <time>2025-10-24T06:41:57.000Z</time>
      </trkpt>
      <trkpt lat="43.56071" lon="6.79931">
        <ele>163.9</ele>
        <time>2025-10-24T06:41:58.000Z</time>
      </trkpt>
      <trkpt lat="43.56069" lon="6.79931">
        <ele>163.8</ele>
        <time>2025-10-24T06:41:59.000Z</time>
      </trkpt>
      <trkpt lat="43.56067" lon="6.79931">
        <ele>163.8</ele>
        <time>2025-10-24T06:42:00.000Z</time>
      </trkpt>
      <trkpt lat="43.56066" lon="6.79932">
        <ele>163.8</ele>
        <time>2025-10-24T06:42:01.000Z</time>
      </trkpt>
      <trkpt lat="43.56064" lon="6.79934">
        <ele>163.7</ele>
        <time>2025-10-24T06:42:02.000Z</time>
      </trkpt>
      <trkpt lat="43.56063" lon="6.79937">
        <ele>163.6</ele>
        <time>2025-10-24T06:42:03.000Z</time>
      </trkpt>
      <trkpt lat="43.56062" lon="6.7994">
        <ele>163.5</ele>
        <time>2025-10-24T06:42:04.000Z</time>
      </trkpt>
      <trkpt lat="43.56062" lon="6.79943">
        <ele>163.4</ele>
        <time>2025-10-24T06:42:05.000Z</time>
      </trkpt>
      <trkpt lat="43.56062" lon="6.79946">
        <ele>163.3</ele>
        <time>2025-10-24T06:42:06.000Z</time>
      </trkpt>
      <trkpt lat="43.56063" lon="6.7995">
        <ele>163.2</ele>
        <time>2025-10-24T06:42:07.000Z</time>
      </trkpt>
      <trkpt lat="43.56065" lon="6.79953">
        <ele>163.1</ele>
        <time>2025-10-24T06:42:08.000Z</time>
      </trkpt>
      <trkpt lat="43.56067" lon="6.79957">
        <ele>162.9</ele>
        <time>2025-10-24T06:42:09.000Z</time>
      </trkpt>
      <trkpt lat="43.56068" lon="6.7996">
        <ele>162.8</ele>
        <time>2025-10-24T06:42:10.000Z</time>
      </trkpt>
      <trkpt lat="43.5607" lon="6.79964">
        <ele>162.6</ele>
        <time>2025-10-24T06:42:11.000Z</time>
      </trkpt>
      <trkpt lat="43.56071" lon="6.79968">
        <ele>162.5</ele>
        <time>2025-10-24T06:42:12.000Z</time>
      </trkpt>
      <trkpt lat="43.56073" lon="6.79972">
        <ele>162.3</ele>
        <time>2025-10-24T06:42:13.000Z</time>
      </trkpt>
      <trkpt lat="43.56075" lon="6.79975">
        <ele>162.2</ele>
        <time>2025-10-24T06:42:14.000Z</time>
      </trkpt>
      <trkpt lat="43.56077" lon="6.79979">
        <ele>162</ele>
        <time>2025-10-24T06:42:15.000Z</time>
      </trkpt>
      <trkpt lat="43.56079" lon="6.79983">
        <ele>161.9</ele>
        <time>2025-10-24T06:42:16.000Z</time>
      </trkpt>
      <trkpt lat="43.5608" lon="6.79987">
        <ele>161.7</ele>
        <time>2025-10-24T06:42:17.000Z</time>
      </trkpt>
      <trkpt lat="43.56083" lon="6.79991">
        <ele>161.5</ele>
        <time>2025-10-24T06:42:18.000Z</time>
      </trkpt>
      <trkpt lat="43.56085" lon="6.79994">
        <ele>161.4</ele>
        <time>2025-10-24T06:42:19.000Z</time>
      </trkpt>
      <trkpt lat="43.56088" lon="6.79998">
        <ele>161.2</ele>
        <time>2025-10-24T06:42:20.000Z</time>
      </trkpt>
      <trkpt lat="43.56091" lon="6.80001">
        <ele>161</ele>
        <time>2025-10-24T06:42:21.000Z</time>
      </trkpt>
      <trkpt lat="43.56094" lon="6.80005">
        <ele>160.8</ele>
        <time>2025-10-24T06:42:22.000Z</time>
      </trkpt>
      <trkpt lat="43.56097" lon="6.80009">
        <ele>160.6</ele>
        <time>2025-10-24T06:42:23.000Z</time>
      </trkpt>
      <trkpt lat="43.561" lon="6.80013">
        <ele>160.5</ele>
        <time>2025-10-24T06:42:24.000Z</time>
      </trkpt>
      <trkpt lat="43.56103" lon="6.80017">
        <ele>160.3</ele>
        <time>2025-10-24T06:42:25.000Z</time>
      </trkpt>
      <trkpt lat="43.56106" lon="6.80022">
        <ele>160.1</ele>
        <time>2025-10-24T06:42:26.000Z</time>
      </trkpt>
      <trkpt lat="43.56109" lon="6.80027">
        <ele>160</ele>
        <time>2025-10-24T06:42:27.000Z</time>
      </trkpt>
      <trkpt lat="43.56111" lon="6.80033">
        <ele>159.8</ele>
        <time>2025-10-24T06:42:28.000Z</time>
      </trkpt>
      <trkpt lat="43.56113" lon="6.80038">
        <ele>159.7</ele>
        <time>2025-10-24T06:42:29.000Z</time>
      </trkpt>
      <trkpt lat="43.56115" lon="6.80043">
        <ele>159.6</ele>
        <time>2025-10-24T06:42:30.000Z</time>
      </trkpt>
      <trkpt lat="43.56116" lon="6.80048">
        <ele>159.6</ele>
        <time>2025-10-24T06:42:31.000Z</time>
      </trkpt>
      <trkpt lat="43.56117" lon="6.80052">
        <ele>159.4</ele>
        <time>2025-10-24T06:42:32.000Z</time>
      </trkpt>
      <trkpt lat="43.56118" lon="6.80055">
        <ele>159.3</ele>
        <time>2025-10-24T06:42:33.000Z</time>
      </trkpt>
      <trkpt lat="43.56118" lon="6.80058">
        <ele>159.2</ele>
        <time>2025-10-24T06:42:34.000Z</time>
      </trkpt>
      <trkpt lat="43.56119" lon="6.80061">
        <ele>159</ele>
        <time>2025-10-24T06:42:35.000Z</time>
      </trkpt>
      <trkpt lat="43.5612" lon="6.80064">
        <ele>158.9</ele>
        <time>2025-10-24T06:42:36.000Z</time>
      </trkpt>
      <trkpt lat="43.56121" lon="6.80067">
        <ele>158.8</ele>
        <time>2025-10-24T06:42:37.000Z</time>
      </trkpt>
      <trkpt lat="43.56122" lon="6.80071">
        <ele>158.6</ele>
        <time>2025-10-24T06:42:38.000Z</time>
      </trkpt>
      <trkpt lat="43.56123" lon="6.80075">
        <ele>158.5</ele>
        <time>2025-10-24T06:42:39.000Z</time>
      </trkpt>
      <trkpt lat="43.56125" lon="6.80078">
        <ele>158.3</ele>
        <time>2025-10-24T06:42:40.000Z</time>
      </trkpt>
      <trkpt lat="43.56127" lon="6.80082">
        <ele>158.1</ele>
        <time>2025-10-24T06:42:41.000Z</time>
      </trkpt>
      <trkpt lat="43.5613" lon="6.80086">
        <ele>157.9</ele>
        <time>2025-10-24T06:42:42.000Z</time>
      </trkpt>
      <trkpt lat="43.56132" lon="6.8009">
        <ele>157.7</ele>
        <time>2025-10-24T06:42:43.000Z</time>
      </trkpt>
      <trkpt lat="43.56135" lon="6.80093">
        <ele>157.5</ele>
        <time>2025-10-24T06:42:44.000Z</time>
      </trkpt>
      <trkpt lat="43.56139" lon="6.80097">
        <ele>157.3</ele>
        <time>2025-10-24T06:42:45.000Z</time>
      </trkpt>
      <trkpt lat="43.56142" lon="6.801">
        <ele>157.1</ele>
        <time>2025-10-24T06:42:46.000Z</time>
      </trkpt>
      <trkpt lat="43.56146" lon="6.80102">
        <ele>156.8</ele>
        <time>2025-10-24T06:42:47.000Z</time>
      </trkpt>
      <trkpt lat="43.56149" lon="6.80104">
        <ele>156.6</ele>
        <time>2025-10-24T06:42:48.000Z</time>
      </trkpt>
      <trkpt lat="43.56153" lon="6.80105">
        <ele>156.4</ele>
        <time>2025-10-24T06:42:49.000Z</time>
      </trkpt>
      <trkpt lat="43.56157" lon="6.80104">
        <ele>156.1</ele>
        <time>2025-10-24T06:42:50.000Z</time>
      </trkpt>
      <trkpt lat="43.5616" lon="6.80102">
        <ele>155.8</ele>
        <time>2025-10-24T06:42:51.000Z</time>
      </trkpt>
      <trkpt lat="43.56164" lon="6.801">
        <ele>155.5</ele>
        <time>2025-10-24T06:42:52.000Z</time>
      </trkpt>
      <trkpt lat="43.56167" lon="6.80098">
        <ele>155.1</ele>
        <time>2025-10-24T06:42:53.000Z</time>
      </trkpt>
      <trkpt lat="43.5617" lon="6.80097">
        <ele>154.8</ele>
        <time>2025-10-24T06:42:54.000Z</time>
      </trkpt>
      <trkpt lat="43.56174" lon="6.80095">
        <ele>154.3</ele>
        <time>2025-10-24T06:42:55.000Z</time>
      </trkpt>
      <trkpt lat="43.56179" lon="6.80093">
        <ele>153.7</ele>
        <time>2025-10-24T06:42:56.000Z</time>
      </trkpt>
      <trkpt lat="43.56184" lon="6.80091">
        <ele>153</ele>
        <time>2025-10-24T06:42:57.000Z</time>
      </trkpt>
      <trkpt lat="43.56189" lon="6.80088">
        <ele>152.3</ele>
        <time>2025-10-24T06:42:58.000Z</time>
      </trkpt>
      <trkpt lat="43.56193" lon="6.80085">
        <ele>151.8</ele>
        <time>2025-10-24T06:42:59.000Z</time>
      </trkpt>
      <trkpt lat="43.56197" lon="6.80082">
        <ele>151.4</ele>
        <time>2025-10-24T06:43:00.000Z</time>
      </trkpt>
      <trkpt lat="43.562" lon="6.80079">
        <ele>151.1</ele>
        <time>2025-10-24T06:43:01.000Z</time>
      </trkpt>
      <trkpt lat="43.56203" lon="6.80078">
        <ele>150.8</ele>
        <time>2025-10-24T06:43:02.000Z</time>
      </trkpt>
      <trkpt lat="43.56205" lon="6.80078">
        <ele>150.7</ele>
        <time>2025-10-24T06:43:03.000Z</time>
      </trkpt>
      <trkpt lat="43.56207" lon="6.80079">
        <ele>150.5</ele>
        <time>2025-10-24T06:43:04.000Z</time>
      </trkpt>
      <trkpt lat="43.56209" lon="6.8008">
        <ele>150.3</ele>
        <time>2025-10-24T06:43:05.000Z</time>
      </trkpt>
      <trkpt lat="43.56211" lon="6.8008">
        <ele>150.1</ele>
        <time>2025-10-24T06:43:06.000Z</time>
      </trkpt>
      <trkpt lat="43.56213" lon="6.80081">
        <ele>149.9</ele>
        <time>2025-10-24T06:43:07.000Z</time>
      </trkpt>
      <trkpt lat="43.56215" lon="6.80082">
        <ele>149.7</ele>
        <time>2025-10-24T06:43:08.000Z</time>
      </trkpt>
      <trkpt lat="43.56217" lon="6.80084">
        <ele>149.5</ele>
        <time>2025-10-24T06:43:09.000Z</time>
      </trkpt>
      <trkpt lat="43.56218" lon="6.80086">
        <ele>149.3</ele>
        <time>2025-10-24T06:43:10.000Z</time>
      </trkpt>
      <trkpt lat="43.56219" lon="6.80088">
        <ele>149.1</ele>
        <time>2025-10-24T06:43:11.000Z</time>
      </trkpt>
      <trkpt lat="43.5622" lon="6.8009">
        <ele>148.9</ele>
        <time>2025-10-24T06:43:12.000Z</time>
      </trkpt>
      <trkpt lat="43.56221" lon="6.80091">
        <ele>148.8</ele>
        <time>2025-10-24T06:43:13.000Z</time>
      </trkpt>
      <trkpt lat="43.56222" lon="6.80091">
        <ele>148.7</ele>
        <time>2025-10-24T06:43:14.000Z</time>
      </trkpt>
      <trkpt lat="43.56223" lon="6.80091">
        <ele>148.6</ele>
        <time>2025-10-24T06:43:15.000Z</time>
      </trkpt>
      <trkpt lat="43.56223" lon="6.80092">
        <ele>148.6</ele>
        <time>2025-10-24T06:43:16.000Z</time>
      </trkpt>
      <trkpt lat="43.56223" lon="6.80092">
        <ele>148.5</ele>
        <time>2025-10-24T06:43:17.000Z</time>
      </trkpt>
      <trkpt lat="43.56223" lon="6.80092">
        <ele>148.5</ele>
        <time>2025-10-24T06:43:18.000Z</time>
      </trkpt>
      <trkpt lat="43.56224" lon="6.80092">
        <ele>148.5</ele>
        <time>2025-10-24T06:43:19.000Z</time>
      </trkpt>
      <trkpt lat="43.56225" lon="6.80093">
        <ele>148.4</ele>
        <time>2025-10-24T06:43:20.000Z</time>
      </trkpt>
      <trkpt lat="43.56225" lon="6.80093">
        <ele>148.4</ele>
        <time>2025-10-24T06:43:21.000Z</time>
      </trkpt>
      <trkpt lat="43.56224" lon="6.80093">
        <ele>148.3</ele>
        <time>2025-10-24T06:43:22.000Z</time>
      </trkpt>
      <trkpt lat="43.56225" lon="6.80093">
        <ele>148.3</ele>
        <time>2025-10-24T06:43:23.000Z</time>
      </trkpt>
      <trkpt lat="43.56226" lon="6.80094">
        <ele>148.2</ele>
        <time>2025-10-24T06:43:24.000Z</time>
      </trkpt>
      <trkpt lat="43.56226" lon="6.80095">
        <ele>148.2</ele>
        <time>2025-10-24T06:43:25.000Z</time>
      </trkpt>
      <trkpt lat="43.56226" lon="6.80095">
        <ele>148.1</ele>
        <time>2025-10-24T06:43:26.000Z</time>
      </trkpt>
      <trkpt lat="43.56227" lon="6.80096">
        <ele>148</ele>
        <time>2025-10-24T06:43:27.000Z</time>
      </trkpt>
      <trkpt lat="43.56227" lon="6.80096">
        <ele>148</ele>
        <time>2025-10-24T06:43:28.000Z</time>
      </trkpt>
      <trkpt lat="43.56227" lon="6.80096">
        <ele>148</ele>
        <time>2025-10-24T06:43:29.000Z</time>
      </trkpt>
      <trkpt lat="43.56227" lon="6.80096">
        <ele>148</ele>
        <time>2025-10-24T06:43:30.000Z</time>
      </trkpt>
      <trkpt lat="43.56227" lon="6.80095">
        <ele>148</ele>
        <time>2025-10-24T06:43:31.000Z</time>
      </trkpt>
      <trkpt lat="43.56227" lon="6.80095">
        <ele>148</ele>
        <time>2025-10-24T06:43:32.000Z</time>
      </trkpt>
      <trkpt lat="43.56227" lon="6.80096">
        <ele>148</ele>
        <time>2025-10-24T06:43:33.000Z</time>
      </trkpt>
      <trkpt lat="43.56228" lon="6.80096">
        <ele>147.9</ele>
        <time>2025-10-24T06:43:34.000Z</time>
      </trkpt>
      <trkpt lat="43.56228" lon="6.80096">
        <ele>147.9</ele>
        <time>2025-10-24T06:43:35.000Z</time>
      </trkpt>
      <trkpt lat="43.56229" lon="6.80097">
        <ele>147.9</ele>
        <time>2025-10-24T06:43:36.000Z</time>
      </trkpt>
      <trkpt lat="43.56228" lon="6.80097">
        <ele>147.9</ele>
        <time>2025-10-24T06:43:37.000Z</time>
      </trkpt>
      <trkpt lat="43.56228" lon="6.80097">
        <ele>147.9</ele>
        <time>2025-10-24T06:43:38.000Z</time>
      </trkpt>
      <trkpt lat="43.56228" lon="6.80097">
        <ele>147.9</ele>
        <time>2025-10-24T06:43:39.000Z</time>
      </trkpt>
      <trkpt lat="43.56228" lon="6.80097">
        <ele>147.9</ele>
        <time>2025-10-24T06:43:40.000Z</time>
      </trkpt>
      <trkpt lat="43.56228" lon="6.80097">
        <ele>147.9</ele>
        <time>2025-10-24T06:43:41.000Z</time>
      </trkpt>
      <trkpt lat="43.56228" lon="6.80097">
        <ele>147.9</ele>
        <time>2025-10-24T06:43:42.000Z</time>
      </trkpt>
      <trkpt lat="43.56228" lon="6.80097">
        <ele>147.9</ele>
        <time>2025-10-24T06:43:43.000Z</time>
      </trkpt>
      <trkpt lat="43.56228" lon="6.80097">
        <ele>147.9</ele>
        <time>2025-10-24T06:43:44.000Z</time>
      </trkpt>
      <trkpt lat="43.56228" lon="6.80097">
        <ele>147.9</ele>
        <time>2025-10-24T06:43:45.000Z</time>
      </trkpt>
      <trkpt lat="43.56228" lon="6.80097">
        <ele>147.9</ele>
        <time>2025-10-24T06:43:46.000Z</time>
      </trkpt>
      <trkpt lat="43.56228" lon="6.80097">
        <ele>147.9</ele>
        <time>2025-10-24T06:43:47.000Z</time>
      </trkpt>
      <trkpt lat="43.56227" lon="6.80101">
        <ele>147.8</ele>
        <time>2025-10-24T06:43:48.000Z</time>
      </trkpt>
      <trkpt lat="43.56225" lon="6.80105">
        <ele>147.8</ele>
        <time>2025-10-24T06:43:49.000Z</time>
      </trkpt>
      <trkpt lat="43.56224" lon="6.80108">
        <ele>147.9</ele>
        <time>2025-10-24T06:43:50.000Z</time>
      </trkpt>
      <trkpt lat="43.56223" lon="6.80112">
        <ele>148</ele>
        <time>2025-10-24T06:43:51.000Z</time>
      </trkpt>
      <trkpt lat="43.56221" lon="6.80116">
        <ele>148.3</ele>
        <time>2025-10-24T06:43:52.000Z</time>
      </trkpt>
      <trkpt lat="43.56219" lon="6.8012">
        <ele>148.6</ele>
        <time>2025-10-24T06:43:53.000Z</time>
      </trkpt>
      <trkpt lat="43.56218" lon="6.80124">
        <ele>149</ele>
        <time>2025-10-24T06:43:54.000Z</time>
      </trkpt>
      <trkpt lat="43.56217" lon="6.80128">
        <ele>149.3</ele>
        <time>2025-10-24T06:43:55.000Z</time>
      </trkpt>
      <trkpt lat="43.56215" lon="6.80131">
        <ele>149.6</ele>
        <time>2025-10-24T06:43:56.000Z</time>
      </trkpt>
      <trkpt lat="43.56215" lon="6.80133">
        <ele>149.7</ele>
        <time>2025-10-24T06:43:57.000Z</time>
      </trkpt>
      <trkpt lat="43.56214" lon="6.80134">
        <ele>149.8</ele>
        <time>2025-10-24T06:43:58.000Z</time>
      </trkpt>
      <trkpt lat="43.56213" lon="6.80135">
        <ele>150</ele>
        <time>2025-10-24T06:43:59.000Z</time>
      </trkpt>
      <trkpt lat="43.56213" lon="6.80135">
        <ele>150</ele>
        <time>2025-10-24T06:44:00.000Z</time>
      </trkpt>
      <trkpt lat="43.56213" lon="6.80135">
        <ele>150</ele>
        <time>2025-10-24T06:44:01.000Z</time>
      </trkpt>
      <trkpt lat="43.56213" lon="6.80135">
        <ele>150.1</ele>
        <time>2025-10-24T06:44:02.000Z</time>
      </trkpt>
      <trkpt lat="43.56213" lon="6.80137">
        <ele>150</ele>
        <time>2025-10-24T06:44:03.000Z</time>
      </trkpt>
      <trkpt lat="43.56215" lon="6.80139">
        <ele>149.9</ele>
        <time>2025-10-24T06:44:04.000Z</time>
      </trkpt>
      <trkpt lat="43.56216" lon="6.80141">
        <ele>149.8</ele>
        <time>2025-10-24T06:44:05.000Z</time>
      </trkpt>
      <trkpt lat="43.56219" lon="6.80144">
        <ele>149.6</ele>
        <time>2025-10-24T06:44:06.000Z</time>
      </trkpt>
      <trkpt lat="43.56222" lon="6.80147">
        <ele>149.4</ele>
        <time>2025-10-24T06:44:07.000Z</time>
      </trkpt>
      <trkpt lat="43.56225" lon="6.80151">
        <ele>149.2</ele>
        <time>2025-10-24T06:44:08.000Z</time>
      </trkpt>
      <trkpt lat="43.56228" lon="6.80155">
        <ele>149</ele>
        <time>2025-10-24T06:44:09.000Z</time>
      </trkpt>
      <trkpt lat="43.56231" lon="6.8016">
        <ele>148.7</ele>
        <time>2025-10-24T06:44:10.000Z</time>
      </trkpt>
      <trkpt lat="43.56233" lon="6.80166">
        <ele>148.5</ele>
        <time>2025-10-24T06:44:11.000Z</time>
      </trkpt>
      <trkpt lat="43.56235" lon="6.80171">
        <ele>148.3</ele>
        <time>2025-10-24T06:44:12.000Z</time>
      </trkpt>
      <trkpt lat="43.56237" lon="6.80177">
        <ele>148.1</ele>
        <time>2025-10-24T06:44:13.000Z</time>
      </trkpt>
      <trkpt lat="43.56239" lon="6.80182">
        <ele>148</ele>
        <time>2025-10-24T06:44:14.000Z</time>
      </trkpt>
      <trkpt lat="43.5624" lon="6.80187">
        <ele>147.8</ele>
        <time>2025-10-24T06:44:15.000Z</time>
      </trkpt>
      <trkpt lat="43.56241" lon="6.80192">
        <ele>147.7</ele>
        <time>2025-10-24T06:44:16.000Z</time>
      </trkpt>
      <trkpt lat="43.56243" lon="6.80197">
        <ele>147.6</ele>
        <time>2025-10-24T06:44:17.000Z</time>
      </trkpt>
      <trkpt lat="43.56244" lon="6.80202">
        <ele>147.6</ele>
        <time>2025-10-24T06:44:18.000Z</time>
      </trkpt>
      <trkpt lat="43.56244" lon="6.80207">
        <ele>147.6</ele>
        <time>2025-10-24T06:44:19.000Z</time>
      </trkpt>
      <trkpt lat="43.56244" lon="6.80211">
        <ele>147.6</ele>
        <time>2025-10-24T06:44:20.000Z</time>
      </trkpt>
      <trkpt lat="43.56244" lon="6.80216">
        <ele>147.7</ele>
        <time>2025-10-24T06:44:21.000Z</time>
      </trkpt>
      <trkpt lat="43.56243" lon="6.80219">
        <ele>147.8</ele>
        <time>2025-10-24T06:44:22.000Z</time>
      </trkpt>
      <trkpt lat="43.56244" lon="6.80223">
        <ele>147.9</ele>
        <time>2025-10-24T06:44:23.000Z</time>
      </trkpt>
      <trkpt lat="43.56244" lon="6.80227">
        <ele>148</ele>
        <time>2025-10-24T06:44:24.000Z</time>
      </trkpt>
      <trkpt lat="43.56244" lon="6.80231">
        <ele>148.2</ele>
        <time>2025-10-24T06:44:25.000Z</time>
      </trkpt>
      <trkpt lat="43.56244" lon="6.80235">
        <ele>148.4</ele>
        <time>2025-10-24T06:44:26.000Z</time>
      </trkpt>
      <trkpt lat="43.56244" lon="6.80238">
        <ele>148.6</ele>
        <time>2025-10-24T06:44:27.000Z</time>
      </trkpt>
      <trkpt lat="43.56243" lon="6.80242">
        <ele>148.8</ele>
        <time>2025-10-24T06:44:28.000Z</time>
      </trkpt>
      <trkpt lat="43.56243" lon="6.80246">
        <ele>149.1</ele>
        <time>2025-10-24T06:44:29.000Z</time>
      </trkpt>
      <trkpt lat="43.56242" lon="6.80249">
        <ele>149.3</ele>
        <time>2025-10-24T06:44:30.000Z</time>
      </trkpt>
      <trkpt lat="43.56241" lon="6.80253">
        <ele>149.6</ele>
        <time>2025-10-24T06:44:31.000Z</time>
      </trkpt>
      <trkpt lat="43.5624" lon="6.80257">
        <ele>149.9</ele>
        <time>2025-10-24T06:44:32.000Z</time>
      </trkpt>
      <trkpt lat="43.5624" lon="6.8026">
        <ele>150.2</ele>
        <time>2025-10-24T06:44:33.000Z</time>
      </trkpt>
      <trkpt lat="43.56238" lon="6.80264">
        <ele>150.5</ele>
        <time>2025-10-24T06:44:34.000Z</time>
      </trkpt>
      <trkpt lat="43.56237" lon="6.80267">
        <ele>150.8</ele>
        <time>2025-10-24T06:44:35.000Z</time>
      </trkpt>
      <trkpt lat="43.56236" lon="6.80271">
        <ele>151</ele>
        <time>2025-10-24T06:44:36.000Z</time>
      </trkpt>
      <trkpt lat="43.56235" lon="6.80274">
        <ele>151.2</ele>
        <time>2025-10-24T06:44:37.000Z</time>
      </trkpt>
      <trkpt lat="43.56234" lon="6.80275">
        <ele>151.4</ele>
        <time>2025-10-24T06:44:38.000Z</time>
      </trkpt>
      <trkpt lat="43.56234" lon="6.80277">
        <ele>151.5</ele>
        <time>2025-10-24T06:44:39.000Z</time>
      </trkpt>
      <trkpt lat="43.56234" lon="6.80277">
        <ele>151.5</ele>
        <time>2025-10-24T06:44:40.000Z</time>
      </trkpt>
      <trkpt lat="43.56234" lon="6.80277">
        <ele>151.5</ele>
        <time>2025-10-24T06:44:41.000Z</time>
      </trkpt>
      <trkpt lat="43.56234" lon="6.80277">
        <ele>151.5</ele>
        <time>2025-10-24T06:44:42.000Z</time>
      </trkpt>
      <trkpt lat="43.56234" lon="6.80277">
        <ele>151.5</ele>
        <time>2025-10-24T06:44:43.000Z</time>
      </trkpt>
      <trkpt lat="43.56234" lon="6.80277">
        <ele>151.5</ele>
        <time>2025-10-24T06:44:44.000Z</time>
      </trkpt>
      <trkpt lat="43.56234" lon="6.80278">
        <ele>151.6</ele>
        <time>2025-10-24T06:44:45.000Z</time>
      </trkpt>
      <trkpt lat="43.56233" lon="6.80281">
        <ele>151.7</ele>
        <time>2025-10-24T06:44:46.000Z</time>
      </trkpt>
      <trkpt lat="43.56233" lon="6.80283">
        <ele>151.9</ele>
        <time>2025-10-24T06:44:47.000Z</time>
      </trkpt>
      <trkpt lat="43.56232" lon="6.80287">
        <ele>152</ele>
        <time>2025-10-24T06:44:48.000Z</time>
      </trkpt>
      <trkpt lat="43.56232" lon="6.8029">
        <ele>152.2</ele>
        <time>2025-10-24T06:44:49.000Z</time>
      </trkpt>
      <trkpt lat="43.56232" lon="6.80293">
        <ele>152.3</ele>
        <time>2025-10-24T06:44:50.000Z</time>
      </trkpt>
      <trkpt lat="43.56231" lon="6.80296">
        <ele>152.4</ele>
        <time>2025-10-24T06:44:51.000Z</time>
      </trkpt>
      <trkpt lat="43.56231" lon="6.80299">
        <ele>152.5</ele>
        <time>2025-10-24T06:44:52.000Z</time>
      </trkpt>
      <trkpt lat="43.5623" lon="6.80302">
        <ele>152.6</ele>
        <time>2025-10-24T06:44:53.000Z</time>
      </trkpt>
      <trkpt lat="43.56229" lon="6.80305">
        <ele>152.7</ele>
        <time>2025-10-24T06:44:54.000Z</time>
      </trkpt>
      <trkpt lat="43.56228" lon="6.80309">
        <ele>152.8</ele>
        <time>2025-10-24T06:44:55.000Z</time>
      </trkpt>
      <trkpt lat="43.56227" lon="6.80312">
        <ele>152.9</ele>
        <time>2025-10-24T06:44:56.000Z</time>
      </trkpt>
      <trkpt lat="43.56226" lon="6.80316">
        <ele>153</ele>
        <time>2025-10-24T06:44:57.000Z</time>
      </trkpt>
      <trkpt lat="43.56225" lon="6.80319">
        <ele>153.1</ele>
        <time>2025-10-24T06:44:58.000Z</time>
      </trkpt>
      <trkpt lat="43.56224" lon="6.80324">
        <ele>153.2</ele>
        <time>2025-10-24T06:44:59.000Z</time>
      </trkpt>
      <trkpt lat="43.56223" lon="6.80329">
        <ele>153.3</ele>
        <time>2025-10-24T06:45:00.000Z</time>
      </trkpt>
      <trkpt lat="43.56222" lon="6.80333">
        <ele>153.4</ele>
        <time>2025-10-24T06:45:01.000Z</time>
      </trkpt>
      <trkpt lat="43.56221" lon="6.80337">
        <ele>153.5</ele>
        <time>2025-10-24T06:45:02.000Z</time>
      </trkpt>
      <trkpt lat="43.5622" lon="6.80342">
        <ele>153.7</ele>
        <time>2025-10-24T06:45:03.000Z</time>
      </trkpt>
      <trkpt lat="43.56219" lon="6.80347">
        <ele>153.8</ele>
        <time>2025-10-24T06:45:04.000Z</time>
      </trkpt>
      <trkpt lat="43.56218" lon="6.80351">
        <ele>154</ele>
        <time>2025-10-24T06:45:05.000Z</time>
      </trkpt>
      <trkpt lat="43.56217" lon="6.80355">
        <ele>154.1</ele>
        <time>2025-10-24T06:45:06.000Z</time>
      </trkpt>
      <trkpt lat="43.56216" lon="6.8036">
        <ele>154.3</ele>
        <time>2025-10-24T06:45:07.000Z</time>
      </trkpt>
      <trkpt lat="43.56215" lon="6.80363">
        <ele>154.4</ele>
        <time>2025-10-24T06:45:08.000Z</time>
      </trkpt>
      <trkpt lat="43.56215" lon="6.80367">
        <ele>154.5</ele>
        <time>2025-10-24T06:45:09.000Z</time>
      </trkpt>
      <trkpt lat="43.56214" lon="6.80371">
        <ele>154.6</ele>
        <time>2025-10-24T06:45:10.000Z</time>
      </trkpt>
      <trkpt lat="43.56214" lon="6.80374">
        <ele>154.8</ele>
        <time>2025-10-24T06:45:11.000Z</time>
      </trkpt>
      <trkpt lat="43.56213" lon="6.80378">
        <ele>154.9</ele>
        <time>2025-10-24T06:45:12.000Z</time>
      </trkpt>
      <trkpt lat="43.56213" lon="6.80381">
        <ele>155</ele>
        <time>2025-10-24T06:45:13.000Z</time>
      </trkpt>
      <trkpt lat="43.56212" lon="6.80384">
        <ele>155</ele>
        <time>2025-10-24T06:45:14.000Z</time>
      </trkpt>
      <trkpt lat="43.56211" lon="6.80387">
        <ele>155.1</ele>
        <time>2025-10-24T06:45:15.000Z</time>
      </trkpt>
      <trkpt lat="43.56209" lon="6.80389">
        <ele>155.2</ele>
        <time>2025-10-24T06:45:16.000Z</time>
      </trkpt>
      <trkpt lat="43.56208" lon="6.80393">
        <ele>155.2</ele>
        <time>2025-10-24T06:45:17.000Z</time>
      </trkpt>
      <trkpt lat="43.56207" lon="6.80396">
        <ele>155.3</ele>
        <time>2025-10-24T06:45:18.000Z</time>
      </trkpt>
      <trkpt lat="43.56206" lon="6.804">
        <ele>155.3</ele>
        <time>2025-10-24T06:45:19.000Z</time>
      </trkpt>
      <trkpt lat="43.56204" lon="6.80404">
        <ele>155.3</ele>
        <time>2025-10-24T06:45:20.000Z</time>
      </trkpt>
      <trkpt lat="43.56203" lon="6.80408">
        <ele>155.4</ele>
        <time>2025-10-24T06:45:21.000Z</time>
      </trkpt>
      <trkpt lat="43.56202" lon="6.80411">
        <ele>155.4</ele>
        <time>2025-10-24T06:45:22.000Z</time>
      </trkpt>
      <trkpt lat="43.562" lon="6.80415">
        <ele>155.3</ele>
        <time>2025-10-24T06:45:23.000Z</time>
      </trkpt>
      <trkpt lat="43.56199" lon="6.80419">
        <ele>155.3</ele>
        <time>2025-10-24T06:45:24.000Z</time>
      </trkpt>
      <trkpt lat="43.56198" lon="6.80423">
        <ele>155.3</ele>
        <time>2025-10-24T06:45:25.000Z</time>
      </trkpt>
      <trkpt lat="43.56196" lon="6.80427">
        <ele>155.2</ele>
        <time>2025-10-24T06:45:26.000Z</time>
      </trkpt>
      <trkpt lat="43.56195" lon="6.80431">
        <ele>155.2</ele>
        <time>2025-10-24T06:45:27.000Z</time>
      </trkpt>
      <trkpt lat="43.56194" lon="6.80434">
        <ele>155.1</ele>
        <time>2025-10-24T06:45:28.000Z</time>
      </trkpt>
      <trkpt lat="43.56193" lon="6.80438">
        <ele>155</ele>
        <time>2025-10-24T06:45:29.000Z</time>
      </trkpt>
      <trkpt lat="43.56192" lon="6.80441">
        <ele>154.9</ele>
        <time>2025-10-24T06:45:30.000Z</time>
      </trkpt>
      <trkpt lat="43.56191" lon="6.80445">
        <ele>154.8</ele>
        <time>2025-10-24T06:45:31.000Z</time>
      </trkpt>
      <trkpt lat="43.56189" lon="6.80448">
        <ele>154.6</ele>
        <time>2025-10-24T06:45:32.000Z</time>
      </trkpt>
      <trkpt lat="43.56187" lon="6.80452">
        <ele>154.4</ele>
        <time>2025-10-24T06:45:33.000Z</time>
      </trkpt>
      <trkpt lat="43.56184" lon="6.80455">
        <ele>154.3</ele>
        <time>2025-10-24T06:45:34.000Z</time>
      </trkpt>
      <trkpt lat="43.56181" lon="6.80459">
        <ele>154</ele>
        <time>2025-10-24T06:45:35.000Z</time>
      </trkpt>
      <trkpt lat="43.56179" lon="6.80464">
        <ele>153.8</ele>
        <time>2025-10-24T06:45:36.000Z</time>
      </trkpt>
      <trkpt lat="43.56176" lon="6.80469">
        <ele>153.5</ele>
        <time>2025-10-24T06:45:37.000Z</time>
      </trkpt>
      <trkpt lat="43.56174" lon="6.80474">
        <ele>153.4</ele>
        <time>2025-10-24T06:45:38.000Z</time>
      </trkpt>
      <trkpt lat="43.56172" lon="6.80479">
        <ele>153.1</ele>
        <time>2025-10-24T06:45:39.000Z</time>
      </trkpt>
      <trkpt lat="43.5617" lon="6.80483">
        <ele>153</ele>
        <time>2025-10-24T06:45:40.000Z</time>
      </trkpt>
      <trkpt lat="43.56167" lon="6.80487">
        <ele>152.8</ele>
        <time>2025-10-24T06:45:41.000Z</time>
      </trkpt>
      <trkpt lat="43.56164" lon="6.80492">
        <ele>152.7</ele>
        <time>2025-10-24T06:45:42.000Z</time>
      </trkpt>
      <trkpt lat="43.56163" lon="6.80495">
        <ele>152.6</ele>
        <time>2025-10-24T06:45:43.000Z</time>
      </trkpt>
      <trkpt lat="43.56161" lon="6.80499">
        <ele>152.6</ele>
        <time>2025-10-24T06:45:44.000Z</time>
      </trkpt>
      <trkpt lat="43.56158" lon="6.80504">
        <ele>152.5</ele>
        <time>2025-10-24T06:45:45.000Z</time>
      </trkpt>
      <trkpt lat="43.56157" lon="6.80507">
        <ele>152.5</ele>
        <time>2025-10-24T06:45:46.000Z</time>
      </trkpt>
      <trkpt lat="43.56155" lon="6.80509">
        <ele>152.5</ele>
        <time>2025-10-24T06:45:47.000Z</time>
      </trkpt>
      <trkpt lat="43.56155" lon="6.8051">
        <ele>152.5</ele>
        <time>2025-10-24T06:45:48.000Z</time>
      </trkpt>
      <trkpt lat="43.56154" lon="6.80511">
        <ele>152.5</ele>
        <time>2025-10-24T06:45:49.000Z</time>
      </trkpt>
      <trkpt lat="43.56154" lon="6.80511">
        <ele>152.5</ele>
        <time>2025-10-24T06:45:50.000Z</time>
      </trkpt>
      <trkpt lat="43.56154" lon="6.80511">
        <ele>152.5</ele>
        <time>2025-10-24T06:45:51.000Z</time>
      </trkpt>
      <trkpt lat="43.56154" lon="6.80511">
        <ele>152.5</ele>
        <time>2025-10-24T06:45:52.000Z</time>
      </trkpt>
      <trkpt lat="43.56154" lon="6.80511">
        <ele>152.5</ele>
        <time>2025-10-24T06:45:53.000Z</time>
      </trkpt>
      <trkpt lat="43.56153" lon="6.80511">
        <ele>152.5</ele>
        <time>2025-10-24T06:45:54.000Z</time>
      </trkpt>
      <trkpt lat="43.56154" lon="6.80511">
        <ele>152.5</ele>
        <time>2025-10-24T06:45:55.000Z</time>
      </trkpt>
      <trkpt lat="43.56154" lon="6.80511">
        <ele>152.5</ele>
        <time>2025-10-24T06:45:56.000Z</time>
      </trkpt>
      <trkpt lat="43.56154" lon="6.80511">
        <ele>152.5</ele>
        <time>2025-10-24T06:45:57.000Z</time>
      </trkpt>
      <trkpt lat="43.56154" lon="6.80511">
        <ele>152.5</ele>
        <time>2025-10-24T06:45:58.000Z</time>
      </trkpt>
      <trkpt lat="43.56153" lon="6.80512">
        <ele>152.5</ele>
        <time>2025-10-24T06:45:59.000Z</time>
      </trkpt>
      <trkpt lat="43.56153" lon="6.80512">
        <ele>152.5</ele>
        <time>2025-10-24T06:46:00.000Z</time>
      </trkpt>
      <trkpt lat="43.56153" lon="6.80511">
        <ele>152.5</ele>
        <time>2025-10-24T06:46:01.000Z</time>
      </trkpt>
      <trkpt lat="43.56153" lon="6.80511">
        <ele>152.5</ele>
        <time>2025-10-24T06:46:02.000Z</time>
      </trkpt>
      <trkpt lat="43.56153" lon="6.80511">
        <ele>152.5</ele>
        <time>2025-10-24T06:46:03.000Z</time>
      </trkpt>
      <trkpt lat="43.56153" lon="6.80511">
        <ele>152.5</ele>
        <time>2025-10-24T06:46:04.000Z</time>
      </trkpt>
      <trkpt lat="43.56153" lon="6.80511">
        <ele>152.5</ele>
        <time>2025-10-24T06:46:05.000Z</time>
      </trkpt>
      <trkpt lat="43.56152" lon="6.80512">
        <ele>152.6</ele>
        <time>2025-10-24T06:46:06.000Z</time>
      </trkpt>
      <trkpt lat="43.56151" lon="6.80515">
        <ele>152.6</ele>
        <time>2025-10-24T06:46:07.000Z</time>
      </trkpt>
      <trkpt lat="43.5615" lon="6.80518">
        <ele>152.6</ele>
        <time>2025-10-24T06:46:08.000Z</time>
      </trkpt>
      <trkpt lat="43.56149" lon="6.80521">
        <ele>152.7</ele>
        <time>2025-10-24T06:46:09.000Z</time>
      </trkpt>
      <trkpt lat="43.56147" lon="6.80523">
        <ele>152.7</ele>
        <time>2025-10-24T06:46:10.000Z</time>
      </trkpt>
      <trkpt lat="43.56147" lon="6.80526">
        <ele>152.8</ele>
        <time>2025-10-24T06:46:11.000Z</time>
      </trkpt>
      <trkpt lat="43.56146" lon="6.80528">
        <ele>152.8</ele>
        <time>2025-10-24T06:46:12.000Z</time>
      </trkpt>
      <trkpt lat="43.56145" lon="6.80531">
        <ele>152.9</ele>
        <time>2025-10-24T06:46:13.000Z</time>
      </trkpt>
      <trkpt lat="43.56143" lon="6.80534">
        <ele>153</ele>
        <time>2025-10-24T06:46:14.000Z</time>
      </trkpt>
      <trkpt lat="43.56142" lon="6.80537">
        <ele>153.1</ele>
        <time>2025-10-24T06:46:15.000Z</time>
      </trkpt>
      <trkpt lat="43.5614" lon="6.8054">
        <ele>153.1</ele>
        <time>2025-10-24T06:46:16.000Z</time>
      </trkpt>
      <trkpt lat="43.56139" lon="6.80544">
        <ele>153.2</ele>
        <time>2025-10-24T06:46:17.000Z</time>
      </trkpt>
      <trkpt lat="43.56138" lon="6.80548">
        <ele>153.3</ele>
        <time>2025-10-24T06:46:18.000Z</time>
      </trkpt>
      <trkpt lat="43.56137" lon="6.80552">
        <ele>153.5</ele>
        <time>2025-10-24T06:46:19.000Z</time>
      </trkpt>
      <trkpt lat="43.56136" lon="6.80556">
        <ele>153.6</ele>
        <time>2025-10-24T06:46:20.000Z</time>
      </trkpt>
      <trkpt lat="43.56134" lon="6.8056">
        <ele>153.8</ele>
        <time>2025-10-24T06:46:21.000Z</time>
      </trkpt>
      <trkpt lat="43.56133" lon="6.80564">
        <ele>154</ele>
        <time>2025-10-24T06:46:22.000Z</time>
      </trkpt>
      <trkpt lat="43.56132" lon="6.80567">
        <ele>154.1</ele>
        <time>2025-10-24T06:46:23.000Z</time>
      </trkpt>
      <trkpt lat="43.56131" lon="6.8057">
        <ele>154.3</ele>
        <time>2025-10-24T06:46:24.000Z</time>
      </trkpt>
      <trkpt lat="43.5613" lon="6.80574">
        <ele>154.5</ele>
        <time>2025-10-24T06:46:25.000Z</time>
      </trkpt>
      <trkpt lat="43.56129" lon="6.80577">
        <ele>154.6</ele>
        <time>2025-10-24T06:46:26.000Z</time>
      </trkpt>
      <trkpt lat="43.56128" lon="6.80581">
        <ele>154.8</ele>
        <time>2025-10-24T06:46:27.000Z</time>
      </trkpt>
      <trkpt lat="43.56127" lon="6.80585">
        <ele>155</ele>
        <time>2025-10-24T06:46:28.000Z</time>
      </trkpt>
      <trkpt lat="43.56126" lon="6.80588">
        <ele>155.2</ele>
        <time>2025-10-24T06:46:29.000Z</time>
      </trkpt>
      <trkpt lat="43.56125" lon="6.80592">
        <ele>155.4</ele>
        <time>2025-10-24T06:46:30.000Z</time>
      </trkpt>
      <trkpt lat="43.56124" lon="6.80596">
        <ele>155.6</ele>
        <time>2025-10-24T06:46:31.000Z</time>
      </trkpt>
      <trkpt lat="43.56123" lon="6.806">
        <ele>155.8</ele>
        <time>2025-10-24T06:46:32.000Z</time>
      </trkpt>
      <trkpt lat="43.56122" lon="6.80604">
        <ele>156</ele>
        <time>2025-10-24T06:46:33.000Z</time>
      </trkpt>
      <trkpt lat="43.5612" lon="6.80608">
        <ele>156.2</ele>
        <time>2025-10-24T06:46:34.000Z</time>
      </trkpt>
      <trkpt lat="43.56119" lon="6.80612">
        <ele>156.4</ele>
        <time>2025-10-24T06:46:35.000Z</time>
      </trkpt>
      <trkpt lat="43.56118" lon="6.80615">
        <ele>156.5</ele>
        <time>2025-10-24T06:46:36.000Z</time>
      </trkpt>
      <trkpt lat="43.56117" lon="6.80619">
        <ele>156.7</ele>
        <time>2025-10-24T06:46:37.000Z</time>
      </trkpt>
      <trkpt lat="43.56116" lon="6.80622">
        <ele>156.9</ele>
        <time>2025-10-24T06:46:38.000Z</time>
      </trkpt>
      <trkpt lat="43.56115" lon="6.80626">
        <ele>157</ele>
        <time>2025-10-24T06:46:39.000Z</time>
      </trkpt>
      <trkpt lat="43.56113" lon="6.8063">
        <ele>157.2</ele>
        <time>2025-10-24T06:46:40.000Z</time>
      </trkpt>
      <trkpt lat="43.56112" lon="6.80633">
        <ele>157.4</ele>
        <time>2025-10-24T06:46:41.000Z</time>
      </trkpt>
      <trkpt lat="43.5611" lon="6.80637">
        <ele>157.6</ele>
        <time>2025-10-24T06:46:42.000Z</time>
      </trkpt>
      <trkpt lat="43.56109" lon="6.80641">
        <ele>157.8</ele>
        <time>2025-10-24T06:46:43.000Z</time>
      </trkpt>
      <trkpt lat="43.56107" lon="6.80644">
        <ele>157.9</ele>
        <time>2025-10-24T06:46:44.000Z</time>
      </trkpt>
      <trkpt lat="43.56106" lon="6.80648">
        <ele>158.1</ele>
        <time>2025-10-24T06:46:45.000Z</time>
      </trkpt>
      <trkpt lat="43.56104" lon="6.80652">
        <ele>158.2</ele>
        <time>2025-10-24T06:46:46.000Z</time>
      </trkpt>
      <trkpt lat="43.56103" lon="6.80655">
        <ele>158.3</ele>
        <time>2025-10-24T06:46:47.000Z</time>
      </trkpt>
      <trkpt lat="43.56102" lon="6.80659">
        <ele>158.4</ele>
        <time>2025-10-24T06:46:48.000Z</time>
      </trkpt>
      <trkpt lat="43.56101" lon="6.80663">
        <ele>158.4</ele>
        <time>2025-10-24T06:46:49.000Z</time>
      </trkpt>
      <trkpt lat="43.561" lon="6.80666">
        <ele>158.5</ele>
        <time>2025-10-24T06:46:50.000Z</time>
      </trkpt>
      <trkpt lat="43.56099" lon="6.8067">
        <ele>158.5</ele>
        <time>2025-10-24T06:46:51.000Z</time>
      </trkpt>
      <trkpt lat="43.56097" lon="6.80673">
        <ele>158.6</ele>
        <time>2025-10-24T06:46:52.000Z</time>
      </trkpt>
      <trkpt lat="43.56096" lon="6.80676">
        <ele>158.6</ele>
        <time>2025-10-24T06:46:53.000Z</time>
      </trkpt>
      <trkpt lat="43.56094" lon="6.8068">
        <ele>158.7</ele>
        <time>2025-10-24T06:46:54.000Z</time>
      </trkpt>
      <trkpt lat="43.56092" lon="6.80684">
        <ele>158.7</ele>
        <time>2025-10-24T06:46:55.000Z</time>
      </trkpt>
      <trkpt lat="43.5609" lon="6.80688">
        <ele>158.8</ele>
        <time>2025-10-24T06:46:56.000Z</time>
      </trkpt>
      <trkpt lat="43.56088" lon="6.80692">
        <ele>158.9</ele>
        <time>2025-10-24T06:46:57.000Z</time>
      </trkpt>
      <trkpt lat="43.56086" lon="6.80696">
        <ele>159</ele>
        <time>2025-10-24T06:46:58.000Z</time>
      </trkpt>
      <trkpt lat="43.56084" lon="6.80699">
        <ele>159.1</ele>
        <time>2025-10-24T06:46:59.000Z</time>
      </trkpt>
      <trkpt lat="43.56083" lon="6.80702">
        <ele>159.2</ele>
        <time>2025-10-24T06:47:00.000Z</time>
      </trkpt>
      <trkpt lat="43.56081" lon="6.80706">
        <ele>159.3</ele>
        <time>2025-10-24T06:47:01.000Z</time>
      </trkpt>
      <trkpt lat="43.5608" lon="6.80709">
        <ele>159.5</ele>
        <time>2025-10-24T06:47:02.000Z</time>
      </trkpt>
      <trkpt lat="43.56078" lon="6.80711">
        <ele>159.6</ele>
        <time>2025-10-24T06:47:03.000Z</time>
      </trkpt>
      <trkpt lat="43.56077" lon="6.80714">
        <ele>159.7</ele>
        <time>2025-10-24T06:47:04.000Z</time>
      </trkpt>
      <trkpt lat="43.56075" lon="6.80716">
        <ele>159.9</ele>
        <time>2025-10-24T06:47:05.000Z</time>
      </trkpt>
      <trkpt lat="43.56073" lon="6.80719">
        <ele>160.1</ele>
        <time>2025-10-24T06:47:06.000Z</time>
      </trkpt>
      <trkpt lat="43.56071" lon="6.80722">
        <ele>160.2</ele>
        <time>2025-10-24T06:47:07.000Z</time>
      </trkpt>
      <trkpt lat="43.56069" lon="6.80725">
        <ele>160.4</ele>
        <time>2025-10-24T06:47:08.000Z</time>
      </trkpt>
      <trkpt lat="43.56066" lon="6.80727">
        <ele>160.5</ele>
        <time>2025-10-24T06:47:09.000Z</time>
      </trkpt>
      <trkpt lat="43.56064" lon="6.8073">
        <ele>160.6</ele>
        <time>2025-10-24T06:47:10.000Z</time>
      </trkpt>
      <trkpt lat="43.56062" lon="6.80733">
        <ele>160.6</ele>
        <time>2025-10-24T06:47:11.000Z</time>
      </trkpt>
      <trkpt lat="43.56061" lon="6.80736">
        <ele>160.6</ele>
        <time>2025-10-24T06:47:12.000Z</time>
      </trkpt>
      <trkpt lat="43.56059" lon="6.80738">
        <ele>160.6</ele>
        <time>2025-10-24T06:47:13.000Z</time>
      </trkpt>
      <trkpt lat="43.56058" lon="6.80741">
        <ele>160.5</ele>
        <time>2025-10-24T06:47:14.000Z</time>
      </trkpt>
      <trkpt lat="43.56057" lon="6.80744">
        <ele>160.4</ele>
        <time>2025-10-24T06:47:15.000Z</time>
      </trkpt>
      <trkpt lat="43.56055" lon="6.80747">
        <ele>160.3</ele>
        <time>2025-10-24T06:47:16.000Z</time>
      </trkpt>
      <trkpt lat="43.56054" lon="6.80751">
        <ele>160.1</ele>
        <time>2025-10-24T06:47:17.000Z</time>
      </trkpt>
      <trkpt lat="43.56052" lon="6.80754">
        <ele>159.9</ele>
        <time>2025-10-24T06:47:18.000Z</time>
      </trkpt>
      <trkpt lat="43.56051" lon="6.80758">
        <ele>159.7</ele>
        <time>2025-10-24T06:47:19.000Z</time>
      </trkpt>
      <trkpt lat="43.56049" lon="6.80762">
        <ele>159.5</ele>
        <time>2025-10-24T06:47:20.000Z</time>
      </trkpt>
      <trkpt lat="43.56048" lon="6.80765">
        <ele>159.3</ele>
        <time>2025-10-24T06:47:21.000Z</time>
      </trkpt>
      <trkpt lat="43.56046" lon="6.80768">
        <ele>159</ele>
        <time>2025-10-24T06:47:22.000Z</time>
      </trkpt>
      <trkpt lat="43.56045" lon="6.80771">
        <ele>158.8</ele>
        <time>2025-10-24T06:47:23.000Z</time>
      </trkpt>
      <trkpt lat="43.56043" lon="6.80774">
        <ele>158.7</ele>
        <time>2025-10-24T06:47:24.000Z</time>
      </trkpt>
      <trkpt lat="43.56042" lon="6.80777">
        <ele>158.5</ele>
        <time>2025-10-24T06:47:25.000Z</time>
      </trkpt>
      <trkpt lat="43.56041" lon="6.80779">
        <ele>158.3</ele>
        <time>2025-10-24T06:47:26.000Z</time>
      </trkpt>
      <trkpt lat="43.56039" lon="6.80782">
        <ele>158.1</ele>
        <time>2025-10-24T06:47:27.000Z</time>
      </trkpt>
      <trkpt lat="43.56037" lon="6.80786">
        <ele>157.9</ele>
        <time>2025-10-24T06:47:28.000Z</time>
      </trkpt>
      <trkpt lat="43.56035" lon="6.80789">
        <ele>157.8</ele>
        <time>2025-10-24T06:47:29.000Z</time>
      </trkpt>
      <trkpt lat="43.56034" lon="6.80793">
        <ele>157.6</ele>
        <time>2025-10-24T06:47:30.000Z</time>
      </trkpt>
      <trkpt lat="43.56032" lon="6.80796">
        <ele>157.5</ele>
        <time>2025-10-24T06:47:31.000Z</time>
      </trkpt>
      <trkpt lat="43.5603" lon="6.808">
        <ele>157.4</ele>
        <time>2025-10-24T06:47:32.000Z</time>
      </trkpt>
      <trkpt lat="43.56028" lon="6.80804">
        <ele>157.3</ele>
        <time>2025-10-24T06:47:33.000Z</time>
      </trkpt>
      <trkpt lat="43.56026" lon="6.80808">
        <ele>157.2</ele>
        <time>2025-10-24T06:47:34.000Z</time>
      </trkpt>
      <trkpt lat="43.56025" lon="6.80811">
        <ele>157.2</ele>
        <time>2025-10-24T06:47:35.000Z</time>
      </trkpt>
      <trkpt lat="43.56023" lon="6.80815">
        <ele>157.2</ele>
        <time>2025-10-24T06:47:36.000Z</time>
      </trkpt>
      <trkpt lat="43.56022" lon="6.80818">
        <ele>157.2</ele>
        <time>2025-10-24T06:47:37.000Z</time>
      </trkpt>
      <trkpt lat="43.5602" lon="6.80821">
        <ele>157.2</ele>
        <time>2025-10-24T06:47:38.000Z</time>
      </trkpt>
      <trkpt lat="43.56019" lon="6.80824">
        <ele>157.2</ele>
        <time>2025-10-24T06:47:39.000Z</time>
      </trkpt>
      <trkpt lat="43.56018" lon="6.80827">
        <ele>157.2</ele>
        <time>2025-10-24T06:47:40.000Z</time>
      </trkpt>
      <trkpt lat="43.56017" lon="6.8083">
        <ele>157.2</ele>
        <time>2025-10-24T06:47:41.000Z</time>
      </trkpt>
      <trkpt lat="43.56016" lon="6.80833">
        <ele>157.2</ele>
        <time>2025-10-24T06:47:42.000Z</time>
      </trkpt>
      <trkpt lat="43.56016" lon="6.80836">
        <ele>157.2</ele>
        <time>2025-10-24T06:47:43.000Z</time>
      </trkpt>
      <trkpt lat="43.56015" lon="6.80838">
        <ele>157.2</ele>
        <time>2025-10-24T06:47:44.000Z</time>
      </trkpt>
      <trkpt lat="43.56014" lon="6.80841">
        <ele>157.2</ele>
        <time>2025-10-24T06:47:45.000Z</time>
      </trkpt>
      <trkpt lat="43.56014" lon="6.80843">
        <ele>157.2</ele>
        <time>2025-10-24T06:47:46.000Z</time>
      </trkpt>
      <trkpt lat="43.56013" lon="6.80845">
        <ele>157.3</ele>
        <time>2025-10-24T06:47:47.000Z</time>
      </trkpt>
      <trkpt lat="43.56012" lon="6.80848">
        <ele>157.3</ele>
        <time>2025-10-24T06:47:48.000Z</time>
      </trkpt>
      <trkpt lat="43.56012" lon="6.80852">
        <ele>157.3</ele>
        <time>2025-10-24T06:47:49.000Z</time>
      </trkpt>
      <trkpt lat="43.56011" lon="6.80855">
        <ele>157.3</ele>
        <time>2025-10-24T06:47:50.000Z</time>
      </trkpt>
      <trkpt lat="43.5601" lon="6.80859">
        <ele>157.4</ele>
        <time>2025-10-24T06:47:51.000Z</time>
      </trkpt>
      <trkpt lat="43.56008" lon="6.80863">
        <ele>157.4</ele>
        <time>2025-10-24T06:47:52.000Z</time>
      </trkpt>
      <trkpt lat="43.56007" lon="6.80866">
        <ele>157.4</ele>
        <time>2025-10-24T06:47:53.000Z</time>
      </trkpt>
      <trkpt lat="43.56006" lon="6.80869">
        <ele>157.5</ele>
        <time>2025-10-24T06:47:54.000Z</time>
      </trkpt>
      <trkpt lat="43.56005" lon="6.80873">
        <ele>157.5</ele>
        <time>2025-10-24T06:47:55.000Z</time>
      </trkpt>
      <trkpt lat="43.56004" lon="6.80876">
        <ele>157.5</ele>
        <time>2025-10-24T06:47:56.000Z</time>
      </trkpt>
      <trkpt lat="43.56003" lon="6.80879">
        <ele>157.6</ele>
        <time>2025-10-24T06:47:57.000Z</time>
      </trkpt>
      <trkpt lat="43.56002" lon="6.80883">
        <ele>157.6</ele>
        <time>2025-10-24T06:47:58.000Z</time>
      </trkpt>
      <trkpt lat="43.56001" lon="6.80886">
        <ele>157.7</ele>
        <time>2025-10-24T06:47:59.000Z</time>
      </trkpt>
      <trkpt lat="43.56001" lon="6.8089">
        <ele>157.8</ele>
        <time>2025-10-24T06:48:00.000Z</time>
      </trkpt>
      <trkpt lat="43.56" lon="6.80894">
        <ele>157.8</ele>
        <time>2025-10-24T06:48:01.000Z</time>
      </trkpt>
      <trkpt lat="43.55999" lon="6.80898">
        <ele>157.9</ele>
        <time>2025-10-24T06:48:02.000Z</time>
      </trkpt>
      <trkpt lat="43.55999" lon="6.80902">
        <ele>158</ele>
        <time>2025-10-24T06:48:03.000Z</time>
      </trkpt>
      <trkpt lat="43.55998" lon="6.80906">
        <ele>158.1</ele>
        <time>2025-10-24T06:48:04.000Z</time>
      </trkpt>
      <trkpt lat="43.55997" lon="6.8091">
        <ele>158.2</ele>
        <time>2025-10-24T06:48:05.000Z</time>
      </trkpt>
      <trkpt lat="43.55996" lon="6.80914">
        <ele>158.3</ele>
        <time>2025-10-24T06:48:06.000Z</time>
      </trkpt>
      <trkpt lat="43.55995" lon="6.80918">
        <ele>158.4</ele>
        <time>2025-10-24T06:48:07.000Z</time>
      </trkpt>
      <trkpt lat="43.55994" lon="6.80922">
        <ele>158.5</ele>
        <time>2025-10-24T06:48:08.000Z</time>
      </trkpt>
      <trkpt lat="43.55993" lon="6.80926">
        <ele>158.7</ele>
        <time>2025-10-24T06:48:09.000Z</time>
      </trkpt>
      <trkpt lat="43.55992" lon="6.8093">
        <ele>158.9</ele>
        <time>2025-10-24T06:48:10.000Z</time>
      </trkpt>
      <trkpt lat="43.55991" lon="6.80933">
        <ele>159.1</ele>
        <time>2025-10-24T06:48:11.000Z</time>
      </trkpt>
      <trkpt lat="43.55989" lon="6.80937">
        <ele>159.3</ele>
        <time>2025-10-24T06:48:12.000Z</time>
      </trkpt>
      <trkpt lat="43.55988" lon="6.80941">
        <ele>159.5</ele>
        <time>2025-10-24T06:48:13.000Z</time>
      </trkpt>
      <trkpt lat="43.55987" lon="6.80944">
        <ele>159.8</ele>
        <time>2025-10-24T06:48:14.000Z</time>
      </trkpt>
      <trkpt lat="43.55986" lon="6.80946">
        <ele>159.9</ele>
        <time>2025-10-24T06:48:15.000Z</time>
      </trkpt>
      <trkpt lat="43.55985" lon="6.80947">
        <ele>160</ele>
        <time>2025-10-24T06:48:16.000Z</time>
      </trkpt>
      <trkpt lat="43.55985" lon="6.80948">
        <ele>160</ele>
        <time>2025-10-24T06:48:17.000Z</time>
      </trkpt>
      <trkpt lat="43.55985" lon="6.80948">
        <ele>160</ele>
        <time>2025-10-24T06:48:18.000Z</time>
      </trkpt>
      <trkpt lat="43.55985" lon="6.80948">
        <ele>160</ele>
        <time>2025-10-24T06:48:19.000Z</time>
      </trkpt>
      <trkpt lat="43.55985" lon="6.80948">
        <ele>160</ele>
        <time>2025-10-24T06:48:20.000Z</time>
      </trkpt>
      <trkpt lat="43.55985" lon="6.80947">
        <ele>160</ele>
        <time>2025-10-24T06:48:21.000Z</time>
      </trkpt>
      <trkpt lat="43.55984" lon="6.80947">
        <ele>159.9</ele>
        <time>2025-10-24T06:48:22.000Z</time>
      </trkpt>
      <trkpt lat="43.55983" lon="6.80947">
        <ele>159.9</ele>
        <time>2025-10-24T06:48:23.000Z</time>
      </trkpt>
      <trkpt lat="43.55983" lon="6.80946">
        <ele>159.8</ele>
        <time>2025-10-24T06:48:24.000Z</time>
      </trkpt>
      <trkpt lat="43.55982" lon="6.80946">
        <ele>159.7</ele>
        <time>2025-10-24T06:48:25.000Z</time>
      </trkpt>
      <trkpt lat="43.55982" lon="6.80945">
        <ele>159.7</ele>
        <time>2025-10-24T06:48:26.000Z</time>
      </trkpt>
      <trkpt lat="43.55982" lon="6.80945">
        <ele>159.7</ele>
        <time>2025-10-24T06:48:27.000Z</time>
      </trkpt>
      <trkpt lat="43.55983" lon="6.80945">
        <ele>159.7</ele>
        <time>2025-10-24T06:48:28.000Z</time>
      </trkpt>
      <trkpt lat="43.55983" lon="6.80945">
        <ele>159.7</ele>
        <time>2025-10-24T06:48:29.000Z</time>
      </trkpt>
      <trkpt lat="43.55983" lon="6.80944">
        <ele>159.6</ele>
        <time>2025-10-24T06:48:30.000Z</time>
      </trkpt>
      <trkpt lat="43.55983" lon="6.80944">
        <ele>159.6</ele>
        <time>2025-10-24T06:48:31.000Z</time>
      </trkpt>
      <trkpt lat="43.55984" lon="6.80944">
        <ele>159.6</ele>
        <time>2025-10-24T06:48:32.000Z</time>
      </trkpt>
      <trkpt lat="43.55984" lon="6.80944">
        <ele>159.6</ele>
        <time>2025-10-24T06:48:33.000Z</time>
      </trkpt>
      <trkpt lat="43.55984" lon="6.80944">
        <ele>159.6</ele>
        <time>2025-10-24T06:48:34.000Z</time>
      </trkpt>
      <trkpt lat="43.55984" lon="6.80944">
        <ele>159.6</ele>
        <time>2025-10-24T06:48:35.000Z</time>
      </trkpt>
      <trkpt lat="43.55984" lon="6.80944">
        <ele>159.6</ele>
        <time>2025-10-24T06:48:36.000Z</time>
      </trkpt>
      <trkpt lat="43.55984" lon="6.80944">
        <ele>159.6</ele>
        <time>2025-10-24T06:48:37.000Z</time>
      </trkpt>
      <trkpt lat="43.55984" lon="6.80944">
        <ele>159.6</ele>
        <time>2025-10-24T06:48:38.000Z</time>
      </trkpt>
      <trkpt lat="43.55984" lon="6.80944">
        <ele>159.6</ele>
        <time>2025-10-24T06:48:39.000Z</time>
      </trkpt>
      <trkpt lat="43.55984" lon="6.80944">
        <ele>159.6</ele>
        <time>2025-10-24T06:48:40.000Z</time>
      </trkpt>
      <trkpt lat="43.55984" lon="6.80944">
        <ele>159.6</ele>
        <time>2025-10-24T06:48:41.000Z</time>
      </trkpt>
      <trkpt lat="43.55984" lon="6.80944">
        <ele>159.6</ele>
        <time>2025-10-24T06:48:42.000Z</time>
      </trkpt>
      <trkpt lat="43.55984" lon="6.80945">
        <ele>159.6</ele>
        <time>2025-10-24T06:48:43.000Z</time>
      </trkpt>
      <trkpt lat="43.55987" lon="6.80947">
        <ele>159.3</ele>
        <time>2025-10-24T06:48:44.000Z</time>
      </trkpt>
      <trkpt lat="43.5599" lon="6.8095">
        <ele>159</ele>
        <time>2025-10-24T06:48:45.000Z</time>
      </trkpt>
      <trkpt lat="43.55993" lon="6.80954">
        <ele>158.7</ele>
        <time>2025-10-24T06:48:46.000Z</time>
      </trkpt>
      <trkpt lat="43.55994" lon="6.80957">
        <ele>158.5</ele>
        <time>2025-10-24T06:48:47.000Z</time>
      </trkpt>
      <trkpt lat="43.55996" lon="6.80961">
        <ele>158.2</ele>
        <time>2025-10-24T06:48:48.000Z</time>
      </trkpt>
      <trkpt lat="43.55997" lon="6.80965">
        <ele>158</ele>
        <time>2025-10-24T06:48:49.000Z</time>
      </trkpt>
      <trkpt lat="43.55999" lon="6.80968">
        <ele>157.7</ele>
        <time>2025-10-24T06:48:50.000Z</time>
      </trkpt>
      <trkpt lat="43.56002" lon="6.80971">
        <ele>157.5</ele>
        <time>2025-10-24T06:48:51.000Z</time>
      </trkpt>
      <trkpt lat="43.56004" lon="6.80973">
        <ele>157.3</ele>
        <time>2025-10-24T06:48:52.000Z</time>
      </trkpt>
      <trkpt lat="43.56006" lon="6.80974">
        <ele>157.1</ele>
        <time>2025-10-24T06:48:53.000Z</time>
      </trkpt>
      <trkpt lat="43.56007" lon="6.80975">
        <ele>157</ele>
        <time>2025-10-24T06:48:54.000Z</time>
      </trkpt>
      <trkpt lat="43.56009" lon="6.80975">
        <ele>156.9</ele>
        <time>2025-10-24T06:48:55.000Z</time>
      </trkpt>
      <trkpt lat="43.5601" lon="6.80976">
        <ele>156.8</ele>
        <time>2025-10-24T06:48:56.000Z</time>
      </trkpt>
      <trkpt lat="43.56012" lon="6.80978">
        <ele>156.7</ele>
        <time>2025-10-24T06:48:57.000Z</time>
      </trkpt>
      <trkpt lat="43.56013" lon="6.80979">
        <ele>156.6</ele>
        <time>2025-10-24T06:48:58.000Z</time>
      </trkpt>
      <trkpt lat="43.56015" lon="6.80981">
        <ele>156.5</ele>
        <time>2025-10-24T06:48:59.000Z</time>
      </trkpt>
      <trkpt lat="43.56016" lon="6.80982">
        <ele>156.4</ele>
        <time>2025-10-24T06:49:00.000Z</time>
      </trkpt>
      <trkpt lat="43.56018" lon="6.80984">
        <ele>156.4</ele>
        <time>2025-10-24T06:49:01.000Z</time>
      </trkpt>
      <trkpt lat="43.56019" lon="6.80985">
        <ele>156.4</ele>
        <time>2025-10-24T06:49:02.000Z</time>
      </trkpt>
      <trkpt lat="43.56021" lon="6.80987">
        <ele>156.3</ele>
        <time>2025-10-24T06:49:03.000Z</time>
      </trkpt>
      <trkpt lat="43.56023" lon="6.80988">
        <ele>156.4</ele>
        <time>2025-10-24T06:49:04.000Z</time>
      </trkpt>
      <trkpt lat="43.56025" lon="6.80989">
        <ele>156.4</ele>
        <time>2025-10-24T06:49:05.000Z</time>
      </trkpt>
      <trkpt lat="43.56027" lon="6.8099">
        <ele>156.4</ele>
        <time>2025-10-24T06:49:06.000Z</time>
      </trkpt>
      <trkpt lat="43.56029" lon="6.80991">
        <ele>156.5</ele>
        <time>2025-10-24T06:49:07.000Z</time>
      </trkpt>
      <trkpt lat="43.5603" lon="6.80991">
        <ele>156.6</ele>
        <time>2025-10-24T06:49:08.000Z</time>
      </trkpt>
      <trkpt lat="43.5603" lon="6.80992">
        <ele>156.6</ele>
        <time>2025-10-24T06:49:09.000Z</time>
      </trkpt>
      <trkpt lat="43.5603" lon="6.80992">
        <ele>156.6</ele>
        <time>2025-10-24T06:49:10.000Z</time>
      </trkpt>
      <trkpt lat="43.56031" lon="6.80992">
        <ele>156.6</ele>
        <time>2025-10-24T06:49:11.000Z</time>
      </trkpt>
      <trkpt lat="43.5603" lon="6.80992">
        <ele>156.6</ele>
        <time>2025-10-24T06:49:12.000Z</time>
      </trkpt>
      <trkpt lat="43.5603" lon="6.80992">
        <ele>156.6</ele>
        <time>2025-10-24T06:49:13.000Z</time>
      </trkpt>
      <trkpt lat="43.5603" lon="6.80992">
        <ele>156.6</ele>
        <time>2025-10-24T06:49:14.000Z</time>
      </trkpt>
      <trkpt lat="43.5603" lon="6.80992">
        <ele>156.6</ele>
        <time>2025-10-24T06:49:15.000Z</time>
      </trkpt>
      <trkpt lat="43.5603" lon="6.80991">
        <ele>156.7</ele>
        <time>2025-10-24T06:49:16.000Z</time>
      </trkpt>
      <trkpt lat="43.5603" lon="6.80991">
        <ele>156.7</ele>
        <time>2025-10-24T06:49:17.000Z</time>
      </trkpt>
      <trkpt lat="43.5603" lon="6.80991">
        <ele>156.7</ele>
        <time>2025-10-24T06:49:18.000Z</time>
      </trkpt>
      <trkpt lat="43.5603" lon="6.80991">
        <ele>156.7</ele>
        <time>2025-10-24T06:49:19.000Z</time>
      </trkpt>
      <trkpt lat="43.5603" lon="6.80991">
        <ele>156.7</ele>
        <time>2025-10-24T06:49:20.000Z</time>
      </trkpt>
      <trkpt lat="43.5603" lon="6.80991">
        <ele>156.7</ele>
        <time>2025-10-24T06:49:21.000Z</time>
      </trkpt>
      <trkpt lat="43.56029" lon="6.80991">
        <ele>156.7</ele>
        <time>2025-10-24T06:49:22.000Z</time>
      </trkpt>
      <trkpt lat="43.56029" lon="6.80991">
        <ele>156.8</ele>
        <time>2025-10-24T06:49:23.000Z</time>
      </trkpt>
      <trkpt lat="43.56029" lon="6.80991">
        <ele>156.8</ele>
        <time>2025-10-24T06:49:24.000Z</time>
      </trkpt>
      <trkpt lat="43.56029" lon="6.80991">
        <ele>156.8</ele>
        <time>2025-10-24T06:49:25.000Z</time>
      </trkpt>
      <trkpt lat="43.56029" lon="6.80991">
        <ele>156.8</ele>
        <time>2025-10-24T06:49:26.000Z</time>
      </trkpt>
      <trkpt lat="43.56029" lon="6.80991">
        <ele>156.8</ele>
        <time>2025-10-24T06:49:27.000Z</time>
      </trkpt>
      <trkpt lat="43.56029" lon="6.80991">
        <ele>156.8</ele>
        <time>2025-10-24T06:49:28.000Z</time>
      </trkpt>
      <trkpt lat="43.56029" lon="6.80991">
        <ele>156.8</ele>
        <time>2025-10-24T06:49:29.000Z</time>
      </trkpt>
      <trkpt lat="43.56029" lon="6.80991">
        <ele>156.8</ele>
        <time>2025-10-24T06:49:30.000Z</time>
      </trkpt>
      <trkpt lat="43.56029" lon="6.80991">
        <ele>156.8</ele>
        <time>2025-10-24T06:49:31.000Z</time>
      </trkpt>
      <trkpt lat="43.56029" lon="6.80991">
        <ele>156.8</ele>
        <time>2025-10-24T06:49:32.000Z</time>
      </trkpt>
      <trkpt lat="43.5603" lon="6.80991">
        <ele>156.8</ele>
        <time>2025-10-24T06:49:33.000Z</time>
      </trkpt>
      <trkpt lat="43.5603" lon="6.80991">
        <ele>156.8</ele>
        <time>2025-10-24T06:49:34.000Z</time>
      </trkpt>
      <trkpt lat="43.5603" lon="6.80991">
        <ele>156.8</ele>
        <time>2025-10-24T06:49:35.000Z</time>
      </trkpt>
      <trkpt lat="43.56031" lon="6.80991">
        <ele>156.9</ele>
        <time>2025-10-24T06:49:36.000Z</time>
      </trkpt>
      <trkpt lat="43.56032" lon="6.80991">
        <ele>157</ele>
        <time>2025-10-24T06:49:37.000Z</time>
      </trkpt>
      <trkpt lat="43.56034" lon="6.80992">
        <ele>157.2</ele>
        <time>2025-10-24T06:49:38.000Z</time>
      </trkpt>
      <trkpt lat="43.56035" lon="6.80993">
        <ele>157.3</ele>
        <time>2025-10-24T06:49:39.000Z</time>
      </trkpt>
      <trkpt lat="43.56035" lon="6.80993">
        <ele>157.3</ele>
        <time>2025-10-24T06:49:40.000Z</time>
      </trkpt>
      <trkpt lat="43.56035" lon="6.80993">
        <ele>157.3</ele>
        <time>2025-10-24T06:49:41.000Z</time>
      </trkpt>
      <trkpt lat="43.56036" lon="6.80992">
        <ele>157.4</ele>
        <time>2025-10-24T06:49:42.000Z</time>
      </trkpt>
      <trkpt lat="43.56036" lon="6.80992">
        <ele>157.5</ele>
        <time>2025-10-24T06:49:43.000Z</time>
      </trkpt>
      <trkpt lat="43.56037" lon="6.80991">
        <ele>157.6</ele>
        <time>2025-10-24T06:49:44.000Z</time>
      </trkpt>
      <trkpt lat="43.56037" lon="6.80992">
        <ele>157.6</ele>
        <time>2025-10-24T06:49:45.000Z</time>
      </trkpt>
      <trkpt lat="43.56036" lon="6.80992">
        <ele>157.5</ele>
        <time>2025-10-24T06:49:46.000Z</time>
      </trkpt>
      <trkpt lat="43.56036" lon="6.80991">
        <ele>157.5</ele>
        <time>2025-10-24T06:49:47.000Z</time>
      </trkpt>
      <trkpt lat="43.56036" lon="6.80992">
        <ele>157.5</ele>
        <time>2025-10-24T06:49:48.000Z</time>
      </trkpt>
      <trkpt lat="43.56035" lon="6.80992">
        <ele>157.3</ele>
        <time>2025-10-24T06:49:49.000Z</time>
      </trkpt>
      <trkpt lat="43.56034" lon="6.80992">
        <ele>157.3</ele>
        <time>2025-10-24T06:49:50.000Z</time>
      </trkpt>
      <trkpt lat="43.56033" lon="6.80991">
        <ele>157.2</ele>
        <time>2025-10-24T06:49:51.000Z</time>
      </trkpt>
      <trkpt lat="43.56032" lon="6.80991">
        <ele>157.1</ele>
        <time>2025-10-24T06:49:52.000Z</time>
      </trkpt>
      <trkpt lat="43.56032" lon="6.80991">
        <ele>157</ele>
        <time>2025-10-24T06:49:53.000Z</time>
      </trkpt>
      <trkpt lat="43.56032" lon="6.8099">
        <ele>157</ele>
        <time>2025-10-24T06:49:54.000Z</time>
      </trkpt>
      <trkpt lat="43.56031" lon="6.8099">
        <ele>156.9</ele>
        <time>2025-10-24T06:49:55.000Z</time>
      </trkpt>
      <trkpt lat="43.56031" lon="6.8099">
        <ele>156.9</ele>
        <time>2025-10-24T06:49:56.000Z</time>
      </trkpt>
      <trkpt lat="43.5603" lon="6.8099">
        <ele>156.8</ele>
        <time>2025-10-24T06:49:57.000Z</time>
      </trkpt>
      <trkpt lat="43.5603" lon="6.8099">
        <ele>156.8</ele>
        <time>2025-10-24T06:49:58.000Z</time>
      </trkpt>
      <trkpt lat="43.56029" lon="6.80991">
        <ele>156.8</ele>
        <time>2025-10-24T06:49:59.000Z</time>
      </trkpt>
      <trkpt lat="43.56029" lon="6.80991">
        <ele>156.7</ele>
        <time>2025-10-24T06:50:00.000Z</time>
      </trkpt>
      <trkpt lat="43.56029" lon="6.80991">
        <ele>156.7</ele>
        <time>2025-10-24T06:50:01.000Z</time>
      </trkpt>
      <trkpt lat="43.56029" lon="6.80991">
        <ele>156.7</ele>
        <time>2025-10-24T06:50:02.000Z</time>
      </trkpt>
      <trkpt lat="43.56029" lon="6.80991">
        <ele>156.7</ele>
        <time>2025-10-24T06:50:03.000Z</time>
      </trkpt>
      <trkpt lat="43.56029" lon="6.80991">
        <ele>156.7</ele>
        <time>2025-10-24T06:50:04.000Z</time>
      </trkpt>
      <trkpt lat="43.56029" lon="6.80992">
        <ele>156.6</ele>
        <time>2025-10-24T06:50:05.000Z</time>
      </trkpt>
      <trkpt lat="43.5603" lon="6.80992">
        <ele>156.6</ele>
        <time>2025-10-24T06:50:06.000Z</time>
      </trkpt>
      <trkpt lat="43.5603" lon="6.80992">
        <ele>156.6</ele>
        <time>2025-10-24T06:50:07.000Z</time>
      </trkpt>
      <trkpt lat="43.56031" lon="6.80993">
        <ele>156.5</ele>
        <time>2025-10-24T06:50:08.000Z</time>
      </trkpt>
      <trkpt lat="43.56031" lon="6.80993">
        <ele>156.5</ele>
        <time>2025-10-24T06:50:09.000Z</time>
      </trkpt>
      <trkpt lat="43.56032" lon="6.80992">
        <ele>156.5</ele>
        <time>2025-10-24T06:50:10.000Z</time>
      </trkpt>
      <trkpt lat="43.56032" lon="6.80992">
        <ele>156.5</ele>
        <time>2025-10-24T06:50:11.000Z</time>
      </trkpt>
      <trkpt lat="43.56032" lon="6.80992">
        <ele>156.5</ele>
        <time>2025-10-24T06:50:12.000Z</time>
      </trkpt>
      <trkpt lat="43.56032" lon="6.80992">
        <ele>156.5</ele>
        <time>2025-10-24T06:50:13.000Z</time>
      </trkpt>
      <trkpt lat="43.56032" lon="6.80992">
        <ele>156.5</ele>
        <time>2025-10-24T06:50:14.000Z</time>
      </trkpt>
      <trkpt lat="43.56032" lon="6.80992">
        <ele>156.5</ele>
        <time>2025-10-24T06:50:15.000Z</time>
      </trkpt>
      <trkpt lat="43.56032" lon="6.80992">
        <ele>156.5</ele>
        <time>2025-10-24T06:50:16.000Z</time>
      </trkpt>
      <trkpt lat="43.56032" lon="6.80992">
        <ele>156.5</ele>
        <time>2025-10-24T06:50:17.000Z</time>
      </trkpt>
      <trkpt lat="43.56032" lon="6.80992">
        <ele>156.5</ele>
        <time>2025-10-24T06:50:18.000Z</time>
      </trkpt>
      <trkpt lat="43.56032" lon="6.80992">
        <ele>156.5</ele>
        <time>2025-10-24T06:50:19.000Z</time>
      </trkpt>
      <trkpt lat="43.56032" lon="6.80992">
        <ele>156.5</ele>
        <time>2025-10-24T06:50:20.000Z</time>
      </trkpt>
      <trkpt lat="43.56032" lon="6.80992">
        <ele>156.5</ele>
        <time>2025-10-24T06:50:21.000Z</time>
      </trkpt>
      <trkpt lat="43.56032" lon="6.80992">
        <ele>156.5</ele>
        <time>2025-10-24T06:50:22.000Z</time>
      </trkpt>
      <trkpt lat="43.56032" lon="6.80992">
        <ele>156.5</ele>
        <time>2025-10-24T06:50:23.000Z</time>
      </trkpt>
      <trkpt lat="43.56032" lon="6.80992">
        <ele>156.5</ele>
        <time>2025-10-24T06:50:24.000Z</time>
      </trkpt>
      <trkpt lat="43.56031" lon="6.80992">
        <ele>156.4</ele>
        <time>2025-10-24T06:50:25.000Z</time>
      </trkpt>
      <trkpt lat="43.56031" lon="6.80992">
        <ele>156.4</ele>
        <time>2025-10-24T06:50:26.000Z</time>
      </trkpt>
      <trkpt lat="43.56031" lon="6.80992">
        <ele>156.4</ele>
        <time>2025-10-24T06:50:27.000Z</time>
      </trkpt>
      <trkpt lat="43.56031" lon="6.80992">
        <ele>156.4</ele>
        <time>2025-10-24T06:50:28.000Z</time>
      </trkpt>
      <trkpt lat="43.5603" lon="6.80992">
        <ele>156.4</ele>
        <time>2025-10-24T06:50:29.000Z</time>
      </trkpt>
      <trkpt lat="43.5603" lon="6.80992">
        <ele>156.4</ele>
        <time>2025-10-24T06:50:30.000Z</time>
      </trkpt>
      <trkpt lat="43.5603" lon="6.80992">
        <ele>156.4</ele>
        <time>2025-10-24T06:50:31.000Z</time>
      </trkpt>
      <trkpt lat="43.56029" lon="6.80992">
        <ele>156.4</ele>
        <time>2025-10-24T06:50:32.000Z</time>
      </trkpt>
      <trkpt lat="43.56029" lon="6.80992">
        <ele>156.4</ele>
        <time>2025-10-24T06:50:33.000Z</time>
      </trkpt>
      <trkpt lat="43.56029" lon="6.80992">
        <ele>156.4</ele>
        <time>2025-10-24T06:50:34.000Z</time>
      </trkpt>
      <trkpt lat="43.56029" lon="6.80992">
        <ele>156.4</ele>
        <time>2025-10-24T06:50:35.000Z</time>
      </trkpt>
      <trkpt lat="43.56029" lon="6.80992">
        <ele>156.4</ele>
        <time>2025-10-24T06:50:36.000Z</time>
      </trkpt>
      <trkpt lat="43.56028" lon="6.80992">
        <ele>156.4</ele>
        <time>2025-10-24T06:50:37.000Z</time>
      </trkpt>
      <trkpt lat="43.56028" lon="6.80992">
        <ele>156.4</ele>
        <time>2025-10-24T06:50:38.000Z</time>
      </trkpt>
      <trkpt lat="43.56028" lon="6.80992">
        <ele>156.4</ele>
        <time>2025-10-24T06:50:39.000Z</time>
      </trkpt>
      <trkpt lat="43.56028" lon="6.80992">
        <ele>156.4</ele>
        <time>2025-10-24T06:50:40.000Z</time>
      </trkpt>
      <trkpt lat="43.56027" lon="6.80992">
        <ele>156.3</ele>
        <time>2025-10-24T06:50:41.000Z</time>
      </trkpt>
      <trkpt lat="43.56027" lon="6.80992">
        <ele>156.3</ele>
        <time>2025-10-24T06:50:42.000Z</time>
      </trkpt>
      <trkpt lat="43.56027" lon="6.80992">
        <ele>156.3</ele>
        <time>2025-10-24T06:50:43.000Z</time>
      </trkpt>
      <trkpt lat="43.56026" lon="6.80992">
        <ele>156.3</ele>
        <time>2025-10-24T06:50:44.000Z</time>
      </trkpt>
      <trkpt lat="43.56026" lon="6.80992">
        <ele>156.3</ele>
        <time>2025-10-24T06:50:45.000Z</time>
      </trkpt>
      <trkpt lat="43.56026" lon="6.80992">
        <ele>156.3</ele>
        <time>2025-10-24T06:50:46.000Z</time>
      </trkpt>
      <trkpt lat="43.56026" lon="6.80992">
        <ele>156.3</ele>
        <time>2025-10-24T06:50:47.000Z</time>
      </trkpt>
      <trkpt lat="43.56026" lon="6.80992">
        <ele>156.3</ele>
        <time>2025-10-24T06:50:48.000Z</time>
      </trkpt>
      <trkpt lat="43.56026" lon="6.80992">
        <ele>156.3</ele>
        <time>2025-10-24T06:50:49.000Z</time>
      </trkpt>
      <trkpt lat="43.56026" lon="6.80992">
        <ele>156.3</ele>
        <time>2025-10-24T06:50:50.000Z</time>
      </trkpt>
      <trkpt lat="43.56025" lon="6.80992">
        <ele>156.4</ele>
        <time>2025-10-24T06:50:51.000Z</time>
      </trkpt>
      <trkpt lat="43.56024" lon="6.8099">
        <ele>156.4</ele>
        <time>2025-10-24T06:50:52.000Z</time>
      </trkpt>
      <trkpt lat="43.56022" lon="6.80988">
        <ele>156.4</ele>
        <time>2025-10-24T06:50:53.000Z</time>
      </trkpt>
      <trkpt lat="43.5602" lon="6.80987">
        <ele>156.5</ele>
        <time>2025-10-24T06:50:54.000Z</time>
      </trkpt>
      <trkpt lat="43.56018" lon="6.80985">
        <ele>156.6</ele>
        <time>2025-10-24T06:50:55.000Z</time>
      </trkpt>
      <trkpt lat="43.56017" lon="6.80983">
        <ele>156.7</ele>
        <time>2025-10-24T06:50:56.000Z</time>
      </trkpt>
      <trkpt lat="43.56015" lon="6.80981">
        <ele>156.8</ele>
        <time>2025-10-24T06:50:57.000Z</time>
      </trkpt>
      <trkpt lat="43.56013" lon="6.80979">
        <ele>157.1</ele>
        <time>2025-10-24T06:50:58.000Z</time>
      </trkpt>
      <trkpt lat="43.56011" lon="6.80976">
        <ele>157.3</ele>
        <time>2025-10-24T06:50:59.000Z</time>
      </trkpt>
      <trkpt lat="43.56008" lon="6.80974">
        <ele>157.5</ele>
        <time>2025-10-24T06:51:00.000Z</time>
      </trkpt>
      <trkpt lat="43.56006" lon="6.80972">
        <ele>157.7</ele>
        <time>2025-10-24T06:51:01.000Z</time>
      </trkpt>
      <trkpt lat="43.56004" lon="6.80971">
        <ele>157.9</ele>
        <time>2025-10-24T06:51:02.000Z</time>
      </trkpt>
      <trkpt lat="43.56002" lon="6.80969">
        <ele>158.1</ele>
        <time>2025-10-24T06:51:03.000Z</time>
      </trkpt>
      <trkpt lat="43.56001" lon="6.80966">
        <ele>158.3</ele>
        <time>2025-10-24T06:51:04.000Z</time>
      </trkpt>
      <trkpt lat="43.56" lon="6.80963">
        <ele>158.5</ele>
        <time>2025-10-24T06:51:05.000Z</time>
      </trkpt>
      <trkpt lat="43.55999" lon="6.80959">
        <ele>158.7</ele>
        <time>2025-10-24T06:51:06.000Z</time>
      </trkpt>
      <trkpt lat="43.55998" lon="6.80956">
        <ele>159</ele>
        <time>2025-10-24T06:51:07.000Z</time>
      </trkpt>
      <trkpt lat="43.55996" lon="6.80953">
        <ele>159.2</ele>
        <time>2025-10-24T06:51:08.000Z</time>
      </trkpt>
      <trkpt lat="43.55994" lon="6.8095">
        <ele>159.4</ele>
        <time>2025-10-24T06:51:09.000Z</time>
      </trkpt>
      <trkpt lat="43.55992" lon="6.80947">
        <ele>159.6</ele>
        <time>2025-10-24T06:51:10.000Z</time>
      </trkpt>
      <trkpt lat="43.5599" lon="6.80946">
        <ele>159.9</ele>
        <time>2025-10-24T06:51:11.000Z</time>
      </trkpt>
      <trkpt lat="43.55987" lon="6.80945">
        <ele>160.1</ele>
        <time>2025-10-24T06:51:12.000Z</time>
      </trkpt>
      <trkpt lat="43.55985" lon="6.80945">
        <ele>160.2</ele>
        <time>2025-10-24T06:51:13.000Z</time>
      </trkpt>
      <trkpt lat="43.55983" lon="6.80946">
        <ele>160.3</ele>
        <time>2025-10-24T06:51:14.000Z</time>
      </trkpt>
      <trkpt lat="43.55982" lon="6.80947">
        <ele>160.4</ele>
        <time>2025-10-24T06:51:15.000Z</time>
      </trkpt>
      <trkpt lat="43.5598" lon="6.8095">
        <ele>160.6</ele>
        <time>2025-10-24T06:51:16.000Z</time>
      </trkpt>
      <trkpt lat="43.55978" lon="6.80952">
        <ele>160.7</ele>
        <time>2025-10-24T06:51:17.000Z</time>
      </trkpt>
      <trkpt lat="43.55976" lon="6.80953">
        <ele>160.9</ele>
        <time>2025-10-24T06:51:18.000Z</time>
      </trkpt>
      <trkpt lat="43.55975" lon="6.80955">
        <ele>161</ele>
        <time>2025-10-24T06:51:19.000Z</time>
      </trkpt>
      <trkpt lat="43.55973" lon="6.80957">
        <ele>161.2</ele>
        <time>2025-10-24T06:51:20.000Z</time>
      </trkpt>
      <trkpt lat="43.55971" lon="6.80959">
        <ele>161.4</ele>
        <time>2025-10-24T06:51:21.000Z</time>
      </trkpt>
      <trkpt lat="43.55969" lon="6.80961">
        <ele>161.6</ele>
        <time>2025-10-24T06:51:22.000Z</time>
      </trkpt>
      <trkpt lat="43.55968" lon="6.80963">
        <ele>161.7</ele>
        <time>2025-10-24T06:51:23.000Z</time>
      </trkpt>
      <trkpt lat="43.55966" lon="6.80964">
        <ele>161.9</ele>
        <time>2025-10-24T06:51:24.000Z</time>
      </trkpt>
      <trkpt lat="43.55964" lon="6.80966">
        <ele>162.1</ele>
        <time>2025-10-24T06:51:25.000Z</time>
      </trkpt>
      <trkpt lat="43.55962" lon="6.80968">
        <ele>162.2</ele>
        <time>2025-10-24T06:51:26.000Z</time>
      </trkpt>
      <trkpt lat="43.5596" lon="6.80969">
        <ele>162.4</ele>
        <time>2025-10-24T06:51:27.000Z</time>
      </trkpt>
      <trkpt lat="43.55958" lon="6.8097">
        <ele>162.5</ele>
        <time>2025-10-24T06:51:28.000Z</time>
      </trkpt>
      <trkpt lat="43.55956" lon="6.80972">
        <ele>162.6</ele>
        <time>2025-10-24T06:51:29.000Z</time>
      </trkpt>
      <trkpt lat="43.55955" lon="6.80975">
        <ele>162.7</ele>
        <time>2025-10-24T06:51:30.000Z</time>
      </trkpt>
      <trkpt lat="43.55953" lon="6.80979">
        <ele>162.8</ele>
        <time>2025-10-24T06:51:31.000Z</time>
      </trkpt>
      <trkpt lat="43.55952" lon="6.80982">
        <ele>162.8</ele>
        <time>2025-10-24T06:51:32.000Z</time>
      </trkpt>
      <trkpt lat="43.55952" lon="6.80984">
        <ele>162.8</ele>
        <time>2025-10-24T06:51:33.000Z</time>
      </trkpt>
      <trkpt lat="43.55951" lon="6.80987">
        <ele>162.9</ele>
        <time>2025-10-24T06:51:34.000Z</time>
      </trkpt>
      <trkpt lat="43.55951" lon="6.8099">
        <ele>162.9</ele>
        <time>2025-10-24T06:51:35.000Z</time>
      </trkpt>
      <trkpt lat="43.5595" lon="6.80992">
        <ele>162.9</ele>
        <time>2025-10-24T06:51:36.000Z</time>
      </trkpt>
      <trkpt lat="43.55949" lon="6.80994">
        <ele>163</ele>
        <time>2025-10-24T06:51:37.000Z</time>
      </trkpt>
      <trkpt lat="43.55948" lon="6.80996">
        <ele>163</ele>
        <time>2025-10-24T06:51:38.000Z</time>
      </trkpt>
      <trkpt lat="43.55946" lon="6.80999">
        <ele>163</ele>
        <time>2025-10-24T06:51:39.000Z</time>
      </trkpt>
      <trkpt lat="43.55945" lon="6.81001">
        <ele>163.1</ele>
        <time>2025-10-24T06:51:40.000Z</time>
      </trkpt>
      <trkpt lat="43.55943" lon="6.81003">
        <ele>163.1</ele>
        <time>2025-10-24T06:51:41.000Z</time>
      </trkpt>
      <trkpt lat="43.55941" lon="6.81005">
        <ele>163.2</ele>
        <time>2025-10-24T06:51:42.000Z</time>
      </trkpt>
      <trkpt lat="43.5594" lon="6.81007">
        <ele>163.2</ele>
        <time>2025-10-24T06:51:43.000Z</time>
      </trkpt>
      <trkpt lat="43.55938" lon="6.8101">
        <ele>163.3</ele>
        <time>2025-10-24T06:51:44.000Z</time>
      </trkpt>
      <trkpt lat="43.55937" lon="6.81011">
        <ele>163.3</ele>
        <time>2025-10-24T06:51:45.000Z</time>
      </trkpt>
      <trkpt lat="43.55935" lon="6.81013">
        <ele>163.4</ele>
        <time>2025-10-24T06:51:46.000Z</time>
      </trkpt>
      <trkpt lat="43.55933" lon="6.81016">
        <ele>163.4</ele>
        <time>2025-10-24T06:51:47.000Z</time>
      </trkpt>
      <trkpt lat="43.55932" lon="6.81018">
        <ele>163.5</ele>
        <time>2025-10-24T06:51:48.000Z</time>
      </trkpt>
      <trkpt lat="43.5593" lon="6.8102">
        <ele>163.6</ele>
        <time>2025-10-24T06:51:49.000Z</time>
      </trkpt>
      <trkpt lat="43.55929" lon="6.81022">
        <ele>163.6</ele>
        <time>2025-10-24T06:51:50.000Z</time>
      </trkpt>
      <trkpt lat="43.55927" lon="6.81025">
        <ele>163.7</ele>
        <time>2025-10-24T06:51:51.000Z</time>
      </trkpt>
      <trkpt lat="43.55926" lon="6.81027">
        <ele>163.7</ele>
        <time>2025-10-24T06:51:52.000Z</time>
      </trkpt>
      <trkpt lat="43.55924" lon="6.8103">
        <ele>163.8</ele>
        <time>2025-10-24T06:51:53.000Z</time>
      </trkpt>
      <trkpt lat="43.55923" lon="6.81033">
        <ele>163.9</ele>
        <time>2025-10-24T06:51:54.000Z</time>
      </trkpt>
      <trkpt lat="43.55921" lon="6.81036">
        <ele>164</ele>
        <time>2025-10-24T06:51:55.000Z</time>
      </trkpt>
      <trkpt lat="43.55919" lon="6.81039">
        <ele>164.1</ele>
        <time>2025-10-24T06:51:56.000Z</time>
      </trkpt>
      <trkpt lat="43.55917" lon="6.81041">
        <ele>164.1</ele>
        <time>2025-10-24T06:51:57.000Z</time>
      </trkpt>
      <trkpt lat="43.55916" lon="6.81045">
        <ele>164.2</ele>
        <time>2025-10-24T06:51:58.000Z</time>
      </trkpt>
      <trkpt lat="43.55914" lon="6.81048">
        <ele>164.2</ele>
        <time>2025-10-24T06:51:59.000Z</time>
      </trkpt>
      <trkpt lat="43.55913" lon="6.81051">
        <ele>164.3</ele>
        <time>2025-10-24T06:52:00.000Z</time>
      </trkpt>
      <trkpt lat="43.55912" lon="6.81054">
        <ele>164.4</ele>
        <time>2025-10-24T06:52:01.000Z</time>
      </trkpt>
      <trkpt lat="43.5591" lon="6.81058">
        <ele>164.4</ele>
        <time>2025-10-24T06:52:02.000Z</time>
      </trkpt>
      <trkpt lat="43.55908" lon="6.81061">
        <ele>164.5</ele>
        <time>2025-10-24T06:52:03.000Z</time>
      </trkpt>
      <trkpt lat="43.55907" lon="6.81064">
        <ele>164.5</ele>
        <time>2025-10-24T06:52:04.000Z</time>
      </trkpt>
      <trkpt lat="43.55905" lon="6.81067">
        <ele>164.5</ele>
        <time>2025-10-24T06:52:05.000Z</time>
      </trkpt>
      <trkpt lat="43.55904" lon="6.81071">
        <ele>164.5</ele>
        <time>2025-10-24T06:52:06.000Z</time>
      </trkpt>
      <trkpt lat="43.55902" lon="6.81074">
        <ele>164.5</ele>
        <time>2025-10-24T06:52:07.000Z</time>
      </trkpt>
      <trkpt lat="43.55901" lon="6.81077">
        <ele>164.5</ele>
        <time>2025-10-24T06:52:08.000Z</time>
      </trkpt>
      <trkpt lat="43.55899" lon="6.8108">
        <ele>164.5</ele>
        <time>2025-10-24T06:52:09.000Z</time>
      </trkpt>
      <trkpt lat="43.55898" lon="6.81082">
        <ele>164.4</ele>
        <time>2025-10-24T06:52:10.000Z</time>
      </trkpt>
      <trkpt lat="43.55896" lon="6.81085">
        <ele>164.4</ele>
        <time>2025-10-24T06:52:11.000Z</time>
      </trkpt>
      <trkpt lat="43.55894" lon="6.81088">
        <ele>164.4</ele>
        <time>2025-10-24T06:52:12.000Z</time>
      </trkpt>
      <trkpt lat="43.55892" lon="6.81092">
        <ele>164.4</ele>
        <time>2025-10-24T06:52:13.000Z</time>
      </trkpt>
      <trkpt lat="43.55891" lon="6.81095">
        <ele>164.3</ele>
        <time>2025-10-24T06:52:14.000Z</time>
      </trkpt>
      <trkpt lat="43.55889" lon="6.81098">
        <ele>164.3</ele>
        <time>2025-10-24T06:52:15.000Z</time>
      </trkpt>
      <trkpt lat="43.55887" lon="6.81101">
        <ele>164.3</ele>
        <time>2025-10-24T06:52:16.000Z</time>
      </trkpt>
      <trkpt lat="43.55886" lon="6.81105">
        <ele>164.3</ele>
        <time>2025-10-24T06:52:17.000Z</time>
      </trkpt>
      <trkpt lat="43.55884" lon="6.81108">
        <ele>164.3</ele>
        <time>2025-10-24T06:52:18.000Z</time>
      </trkpt>
      <trkpt lat="43.55882" lon="6.81111">
        <ele>164.4</ele>
        <time>2025-10-24T06:52:19.000Z</time>
      </trkpt>
      <trkpt lat="43.5588" lon="6.81115">
        <ele>164.4</ele>
        <time>2025-10-24T06:52:20.000Z</time>
      </trkpt>
      <trkpt lat="43.55879" lon="6.81118">
        <ele>164.5</ele>
        <time>2025-10-24T06:52:21.000Z</time>
      </trkpt>
      <trkpt lat="43.55877" lon="6.81122">
        <ele>164.5</ele>
        <time>2025-10-24T06:52:22.000Z</time>
      </trkpt>
      <trkpt lat="43.55876" lon="6.81126">
        <ele>164.6</ele>
        <time>2025-10-24T06:52:23.000Z</time>
      </trkpt>
      <trkpt lat="43.55875" lon="6.8113">
        <ele>164.7</ele>
        <time>2025-10-24T06:52:24.000Z</time>
      </trkpt>
      <trkpt lat="43.55874" lon="6.81133">
        <ele>164.8</ele>
        <time>2025-10-24T06:52:25.000Z</time>
      </trkpt>
      <trkpt lat="43.55873" lon="6.81137">
        <ele>164.9</ele>
        <time>2025-10-24T06:52:26.000Z</time>
      </trkpt>
      <trkpt lat="43.55872" lon="6.8114">
        <ele>165</ele>
        <time>2025-10-24T06:52:27.000Z</time>
      </trkpt>
      <trkpt lat="43.5587" lon="6.81144">
        <ele>165</ele>
        <time>2025-10-24T06:52:28.000Z</time>
      </trkpt>
      <trkpt lat="43.55869" lon="6.81147">
        <ele>165.1</ele>
        <time>2025-10-24T06:52:29.000Z</time>
      </trkpt>
      <trkpt lat="43.55868" lon="6.81151">
        <ele>165.2</ele>
        <time>2025-10-24T06:52:30.000Z</time>
      </trkpt>
      <trkpt lat="43.55867" lon="6.81154">
        <ele>165.3</ele>
        <time>2025-10-24T06:52:31.000Z</time>
      </trkpt>
      <trkpt lat="43.55866" lon="6.81158">
        <ele>165.4</ele>
        <time>2025-10-24T06:52:32.000Z</time>
      </trkpt>
      <trkpt lat="43.55865" lon="6.81162">
        <ele>165.5</ele>
        <time>2025-10-24T06:52:33.000Z</time>
      </trkpt>
      <trkpt lat="43.55864" lon="6.81165">
        <ele>165.6</ele>
        <time>2025-10-24T06:52:34.000Z</time>
      </trkpt>
      <trkpt lat="43.55863" lon="6.81168">
        <ele>165.7</ele>
        <time>2025-10-24T06:52:35.000Z</time>
      </trkpt>
      <trkpt lat="43.55862" lon="6.81172">
        <ele>165.8</ele>
        <time>2025-10-24T06:52:36.000Z</time>
      </trkpt>
      <trkpt lat="43.55861" lon="6.81176">
        <ele>166</ele>
        <time>2025-10-24T06:52:37.000Z</time>
      </trkpt>
      <trkpt lat="43.5586" lon="6.81179">
        <ele>166.1</ele>
        <time>2025-10-24T06:52:38.000Z</time>
      </trkpt>
      <trkpt lat="43.55859" lon="6.81182">
        <ele>166.2</ele>
        <time>2025-10-24T06:52:39.000Z</time>
      </trkpt>
      <trkpt lat="43.55858" lon="6.81186">
        <ele>166.3</ele>
        <time>2025-10-24T06:52:40.000Z</time>
      </trkpt>
      <trkpt lat="43.55857" lon="6.8119">
        <ele>166.4</ele>
        <time>2025-10-24T06:52:41.000Z</time>
      </trkpt>
      <trkpt lat="43.55856" lon="6.81193">
        <ele>166.6</ele>
        <time>2025-10-24T06:52:42.000Z</time>
      </trkpt>
      <trkpt lat="43.55855" lon="6.81196">
        <ele>166.7</ele>
        <time>2025-10-24T06:52:43.000Z</time>
      </trkpt>
      <trkpt lat="43.55853" lon="6.81199">
        <ele>166.7</ele>
        <time>2025-10-24T06:52:44.000Z</time>
      </trkpt>
      <trkpt lat="43.55852" lon="6.81203">
        <ele>166.8</ele>
        <time>2025-10-24T06:52:45.000Z</time>
      </trkpt>
      <trkpt lat="43.55851" lon="6.81206">
        <ele>166.9</ele>
        <time>2025-10-24T06:52:46.000Z</time>
      </trkpt>
      <trkpt lat="43.55849" lon="6.81209">
        <ele>167</ele>
        <time>2025-10-24T06:52:47.000Z</time>
      </trkpt>
      <trkpt lat="43.55848" lon="6.81213">
        <ele>167</ele>
        <time>2025-10-24T06:52:48.000Z</time>
      </trkpt>
      <trkpt lat="43.55846" lon="6.81216">
        <ele>167</ele>
        <time>2025-10-24T06:52:49.000Z</time>
      </trkpt>
      <trkpt lat="43.55845" lon="6.81219">
        <ele>167</ele>
        <time>2025-10-24T06:52:50.000Z</time>
      </trkpt>
      <trkpt lat="43.55844" lon="6.81223">
        <ele>167</ele>
        <time>2025-10-24T06:52:51.000Z</time>
      </trkpt>
      <trkpt lat="43.55842" lon="6.81225">
        <ele>167</ele>
        <time>2025-10-24T06:52:52.000Z</time>
      </trkpt>
      <trkpt lat="43.55841" lon="6.81229">
        <ele>167</ele>
        <time>2025-10-24T06:52:53.000Z</time>
      </trkpt>
      <trkpt lat="43.5584" lon="6.81232">
        <ele>166.9</ele>
        <time>2025-10-24T06:52:54.000Z</time>
      </trkpt>
      <trkpt lat="43.55839" lon="6.81235">
        <ele>166.8</ele>
        <time>2025-10-24T06:52:55.000Z</time>
      </trkpt>
      <trkpt lat="43.55838" lon="6.81238">
        <ele>166.7</ele>
        <time>2025-10-24T06:52:56.000Z</time>
      </trkpt>
      <trkpt lat="43.55837" lon="6.81242">
        <ele>166.5</ele>
        <time>2025-10-24T06:52:57.000Z</time>
      </trkpt>
      <trkpt lat="43.55835" lon="6.81245">
        <ele>166.3</ele>
        <time>2025-10-24T06:52:58.000Z</time>
      </trkpt>
      <trkpt lat="43.55834" lon="6.81249">
        <ele>166.1</ele>
        <time>2025-10-24T06:52:59.000Z</time>
      </trkpt>
      <trkpt lat="43.55831" lon="6.81252">
        <ele>165.9</ele>
        <time>2025-10-24T06:53:00.000Z</time>
      </trkpt>
      <trkpt lat="43.55829" lon="6.81255">
        <ele>165.6</ele>
        <time>2025-10-24T06:53:01.000Z</time>
      </trkpt>
      <trkpt lat="43.55826" lon="6.81258">
        <ele>165.3</ele>
        <time>2025-10-24T06:53:02.000Z</time>
      </trkpt>
      <trkpt lat="43.55824" lon="6.81261">
        <ele>165.1</ele>
        <time>2025-10-24T06:53:03.000Z</time>
      </trkpt>
      <trkpt lat="43.55821" lon="6.81265">
        <ele>164.9</ele>
        <time>2025-10-24T06:53:04.000Z</time>
      </trkpt>
      <trkpt lat="43.55818" lon="6.81267">
        <ele>164.7</ele>
        <time>2025-10-24T06:53:05.000Z</time>
      </trkpt>
      <trkpt lat="43.55816" lon="6.8127">
        <ele>164.5</ele>
        <time>2025-10-24T06:53:06.000Z</time>
      </trkpt>
      <trkpt lat="43.55813" lon="6.81273">
        <ele>164.4</ele>
        <time>2025-10-24T06:53:07.000Z</time>
      </trkpt>
      <trkpt lat="43.55809" lon="6.81275">
        <ele>164.3</ele>
        <time>2025-10-24T06:53:08.000Z</time>
      </trkpt>
      <trkpt lat="43.55806" lon="6.81278">
        <ele>164.2</ele>
        <time>2025-10-24T06:53:09.000Z</time>
      </trkpt>
      <trkpt lat="43.55803" lon="6.81281">
        <ele>164.2</ele>
        <time>2025-10-24T06:53:10.000Z</time>
      </trkpt>
      <trkpt lat="43.558" lon="6.81285">
        <ele>164.2</ele>
        <time>2025-10-24T06:53:11.000Z</time>
      </trkpt>
      <trkpt lat="43.55797" lon="6.81288">
        <ele>164.2</ele>
        <time>2025-10-24T06:53:12.000Z</time>
      </trkpt>
      <trkpt lat="43.55795" lon="6.8129">
        <ele>164.2</ele>
        <time>2025-10-24T06:53:13.000Z</time>
      </trkpt>
      <trkpt lat="43.55794" lon="6.81293">
        <ele>164.3</ele>
        <time>2025-10-24T06:53:14.000Z</time>
      </trkpt>
      <trkpt lat="43.55792" lon="6.81296">
        <ele>164.3</ele>
        <time>2025-10-24T06:53:15.000Z</time>
      </trkpt>
      <trkpt lat="43.55791" lon="6.81298">
        <ele>164.4</ele>
        <time>2025-10-24T06:53:16.000Z</time>
      </trkpt>
      <trkpt lat="43.55791" lon="6.81299">
        <ele>164.3</ele>
        <time>2025-10-24T06:53:17.000Z</time>
      </trkpt>
      <trkpt lat="43.55791" lon="6.81301">
        <ele>164.2</ele>
        <time>2025-10-24T06:53:18.000Z</time>
      </trkpt>
      <trkpt lat="43.55791" lon="6.81303">
        <ele>164.1</ele>
        <time>2025-10-24T06:53:19.000Z</time>
      </trkpt>
      <trkpt lat="43.55791" lon="6.81306">
        <ele>163.9</ele>
        <time>2025-10-24T06:53:20.000Z</time>
      </trkpt>
      <trkpt lat="43.55792" lon="6.8131">
        <ele>163.8</ele>
        <time>2025-10-24T06:53:21.000Z</time>
      </trkpt>
      <trkpt lat="43.55792" lon="6.81313">
        <ele>163.6</ele>
        <time>2025-10-24T06:53:22.000Z</time>
      </trkpt>
      <trkpt lat="43.55793" lon="6.81316">
        <ele>163.4</ele>
        <time>2025-10-24T06:53:23.000Z</time>
      </trkpt>
      <trkpt lat="43.55794" lon="6.8132">
        <ele>163.2</ele>
        <time>2025-10-24T06:53:24.000Z</time>
      </trkpt>
      <trkpt lat="43.55795" lon="6.81323">
        <ele>163</ele>
        <time>2025-10-24T06:53:25.000Z</time>
      </trkpt>
      <trkpt lat="43.55795" lon="6.81327">
        <ele>162.9</ele>
        <time>2025-10-24T06:53:26.000Z</time>
      </trkpt>
      <trkpt lat="43.55796" lon="6.8133">
        <ele>162.7</ele>
        <time>2025-10-24T06:53:27.000Z</time>
      </trkpt>
      <trkpt lat="43.55796" lon="6.81334">
        <ele>162.5</ele>
        <time>2025-10-24T06:53:28.000Z</time>
      </trkpt>
      <trkpt lat="43.55796" lon="6.81337">
        <ele>162.4</ele>
        <time>2025-10-24T06:53:29.000Z</time>
      </trkpt>
      <trkpt lat="43.55796" lon="6.81341">
        <ele>162.2</ele>
        <time>2025-10-24T06:53:30.000Z</time>
      </trkpt>
      <trkpt lat="43.55796" lon="6.81344">
        <ele>162.1</ele>
        <time>2025-10-24T06:53:31.000Z</time>
      </trkpt>
      <trkpt lat="43.55796" lon="6.81346">
        <ele>162.1</ele>
        <time>2025-10-24T06:53:32.000Z</time>
      </trkpt>
      <trkpt lat="43.55796" lon="6.81348">
        <ele>162</ele>
        <time>2025-10-24T06:53:33.000Z</time>
      </trkpt>
      <trkpt lat="43.55795" lon="6.8135">
        <ele>162</ele>
        <time>2025-10-24T06:53:34.000Z</time>
      </trkpt>
      <trkpt lat="43.55794" lon="6.81353">
        <ele>161.9</ele>
        <time>2025-10-24T06:53:35.000Z</time>
      </trkpt>
      <trkpt lat="43.55793" lon="6.81356">
        <ele>161.9</ele>
        <time>2025-10-24T06:53:36.000Z</time>
      </trkpt>
      <trkpt lat="43.55793" lon="6.81359">
        <ele>161.8</ele>
        <time>2025-10-24T06:53:37.000Z</time>
      </trkpt>
      <trkpt lat="43.55793" lon="6.81362">
        <ele>161.8</ele>
        <time>2025-10-24T06:53:38.000Z</time>
      </trkpt>
      <trkpt lat="43.55792" lon="6.81364">
        <ele>161.8</ele>
        <time>2025-10-24T06:53:39.000Z</time>
      </trkpt>
      <trkpt lat="43.55792" lon="6.81365">
        <ele>161.8</ele>
        <time>2025-10-24T06:53:40.000Z</time>
      </trkpt>
      <trkpt lat="43.55791" lon="6.81367">
        <ele>161.8</ele>
        <time>2025-10-24T06:53:41.000Z</time>
      </trkpt>
      <trkpt lat="43.5579" lon="6.81368">
        <ele>161.8</ele>
        <time>2025-10-24T06:53:42.000Z</time>
      </trkpt>
      <trkpt lat="43.55789" lon="6.81369">
        <ele>161.7</ele>
        <time>2025-10-24T06:53:43.000Z</time>
      </trkpt>
      <trkpt lat="43.55789" lon="6.8137">
        <ele>161.7</ele>
        <time>2025-10-24T06:53:44.000Z</time>
      </trkpt>
      <trkpt lat="43.55788" lon="6.81371">
        <ele>161.7</ele>
        <time>2025-10-24T06:53:45.000Z</time>
      </trkpt>
      <trkpt lat="43.55788" lon="6.81372">
        <ele>161.7</ele>
        <time>2025-10-24T06:53:46.000Z</time>
      </trkpt>
      <trkpt lat="43.55788" lon="6.81372">
        <ele>161.7</ele>
        <time>2025-10-24T06:53:47.000Z</time>
      </trkpt>
      <trkpt lat="43.55788" lon="6.81371">
        <ele>161.7</ele>
        <time>2025-10-24T06:53:48.000Z</time>
      </trkpt>
      <trkpt lat="43.55788" lon="6.81371">
        <ele>161.7</ele>
        <time>2025-10-24T06:53:49.000Z</time>
      </trkpt>
      <trkpt lat="43.55789" lon="6.81371">
        <ele>161.7</ele>
        <time>2025-10-24T06:53:50.000Z</time>
      </trkpt>
      <trkpt lat="43.55789" lon="6.81372">
        <ele>161.7</ele>
        <time>2025-10-24T06:53:51.000Z</time>
      </trkpt>
      <trkpt lat="43.55789" lon="6.81372">
        <ele>161.7</ele>
        <time>2025-10-24T06:53:52.000Z</time>
      </trkpt>
      <trkpt lat="43.55789" lon="6.81372">
        <ele>161.7</ele>
        <time>2025-10-24T06:53:53.000Z</time>
      </trkpt>
      <trkpt lat="43.55789" lon="6.81373">
        <ele>161.7</ele>
        <time>2025-10-24T06:53:54.000Z</time>
      </trkpt>
      <trkpt lat="43.55789" lon="6.81374">
        <ele>161.7</ele>
        <time>2025-10-24T06:53:55.000Z</time>
      </trkpt>
      <trkpt lat="43.55789" lon="6.81375">
        <ele>161.7</ele>
        <time>2025-10-24T06:53:56.000Z</time>
      </trkpt>
      <trkpt lat="43.5579" lon="6.81376">
        <ele>161.7</ele>
        <time>2025-10-24T06:53:57.000Z</time>
      </trkpt>
      <trkpt lat="43.5579" lon="6.81377">
        <ele>161.7</ele>
        <time>2025-10-24T06:53:58.000Z</time>
      </trkpt>
      <trkpt lat="43.5579" lon="6.81377">
        <ele>161.7</ele>
        <time>2025-10-24T06:53:59.000Z</time>
      </trkpt>
      <trkpt lat="43.5579" lon="6.81378">
        <ele>161.7</ele>
        <time>2025-10-24T06:54:00.000Z</time>
      </trkpt>
      <trkpt lat="43.5579" lon="6.81378">
        <ele>161.7</ele>
        <time>2025-10-24T06:54:01.000Z</time>
      </trkpt>
      <trkpt lat="43.55791" lon="6.81378">
        <ele>161.7</ele>
        <time>2025-10-24T06:54:02.000Z</time>
      </trkpt>
      <trkpt lat="43.55791" lon="6.81378">
        <ele>161.7</ele>
        <time>2025-10-24T06:54:03.000Z</time>
      </trkpt>
      <trkpt lat="43.55791" lon="6.81379">
        <ele>161.7</ele>
        <time>2025-10-24T06:54:04.000Z</time>
      </trkpt>
      <trkpt lat="43.55791" lon="6.81379">
        <ele>161.7</ele>
        <time>2025-10-24T06:54:05.000Z</time>
      </trkpt>
      <trkpt lat="43.55791" lon="6.81379">
        <ele>161.7</ele>
        <time>2025-10-24T06:54:06.000Z</time>
      </trkpt>
      <trkpt lat="43.55791" lon="6.8138">
        <ele>161.7</ele>
        <time>2025-10-24T06:54:07.000Z</time>
      </trkpt>
      <trkpt lat="43.55791" lon="6.81381">
        <ele>161.7</ele>
        <time>2025-10-24T06:54:08.000Z</time>
      </trkpt>
      <trkpt lat="43.5579" lon="6.81382">
        <ele>161.7</ele>
        <time>2025-10-24T06:54:09.000Z</time>
      </trkpt>
      <trkpt lat="43.5579" lon="6.81382">
        <ele>161.7</ele>
        <time>2025-10-24T06:54:10.000Z</time>
      </trkpt>
      <trkpt lat="43.5579" lon="6.81383">
        <ele>161.7</ele>
        <time>2025-10-24T06:54:11.000Z</time>
      </trkpt>
      <trkpt lat="43.5579" lon="6.81383">
        <ele>161.7</ele>
        <time>2025-10-24T06:54:12.000Z</time>
      </trkpt>
      <trkpt lat="43.5579" lon="6.81384">
        <ele>161.7</ele>
        <time>2025-10-24T06:54:13.000Z</time>
      </trkpt>
      <trkpt lat="43.55789" lon="6.81385">
        <ele>161.7</ele>
        <time>2025-10-24T06:54:14.000Z</time>
      </trkpt>
      <trkpt lat="43.55788" lon="6.81387">
        <ele>161.7</ele>
        <time>2025-10-24T06:54:15.000Z</time>
      </trkpt>
      <trkpt lat="43.55788" lon="6.81388">
        <ele>161.7</ele>
        <time>2025-10-24T06:54:16.000Z</time>
      </trkpt>
      <trkpt lat="43.55787" lon="6.81389">
        <ele>161.7</ele>
        <time>2025-10-24T06:54:17.000Z</time>
      </trkpt>
      <trkpt lat="43.55787" lon="6.81391">
        <ele>161.7</ele>
        <time>2025-10-24T06:54:18.000Z</time>
      </trkpt>
      <trkpt lat="43.55787" lon="6.81394">
        <ele>161.7</ele>
        <time>2025-10-24T06:54:19.000Z</time>
      </trkpt>
      <trkpt lat="43.55788" lon="6.81396">
        <ele>161.6</ele>
        <time>2025-10-24T06:54:20.000Z</time>
      </trkpt>
      <trkpt lat="43.55788" lon="6.81398">
        <ele>161.6</ele>
        <time>2025-10-24T06:54:21.000Z</time>
      </trkpt>
      <trkpt lat="43.55788" lon="6.814">
        <ele>161.6</ele>
        <time>2025-10-24T06:54:22.000Z</time>
      </trkpt>
      <trkpt lat="43.55787" lon="6.81401">
        <ele>161.6</ele>
        <time>2025-10-24T06:54:23.000Z</time>
      </trkpt>
      <trkpt lat="43.55785" lon="6.81402">
        <ele>161.6</ele>
        <time>2025-10-24T06:54:24.000Z</time>
      </trkpt>
      <trkpt lat="43.55783" lon="6.81403">
        <ele>161.6</ele>
        <time>2025-10-24T06:54:25.000Z</time>
      </trkpt>
      <trkpt lat="43.5578" lon="6.81404">
        <ele>161.6</ele>
        <time>2025-10-24T06:54:26.000Z</time>
      </trkpt>
      <trkpt lat="43.55777" lon="6.81406">
        <ele>161.6</ele>
        <time>2025-10-24T06:54:27.000Z</time>
      </trkpt>
      <trkpt lat="43.55774" lon="6.81407">
        <ele>161.6</ele>
        <time>2025-10-24T06:54:28.000Z</time>
      </trkpt>
      <trkpt lat="43.5577" lon="6.81409">
        <ele>161.6</ele>
        <time>2025-10-24T06:54:29.000Z</time>
      </trkpt>
      <trkpt lat="43.55767" lon="6.8141">
        <ele>161.6</ele>
        <time>2025-10-24T06:54:30.000Z</time>
      </trkpt>
      <trkpt lat="43.55764" lon="6.81411">
        <ele>161.6</ele>
        <time>2025-10-24T06:54:31.000Z</time>
      </trkpt>
      <trkpt lat="43.5576" lon="6.81412">
        <ele>161.6</ele>
        <time>2025-10-24T06:54:32.000Z</time>
      </trkpt>
      <trkpt lat="43.55757" lon="6.81413">
        <ele>161.6</ele>
        <time>2025-10-24T06:54:33.000Z</time>
      </trkpt>
      <trkpt lat="43.55754" lon="6.81415">
        <ele>161.6</ele>
        <time>2025-10-24T06:54:34.000Z</time>
      </trkpt>
      <trkpt lat="43.55751" lon="6.81417">
        <ele>161.7</ele>
        <time>2025-10-24T06:54:35.000Z</time>
      </trkpt>
      <trkpt lat="43.55748" lon="6.81419">
        <ele>161.7</ele>
        <time>2025-10-24T06:54:36.000Z</time>
      </trkpt>
      <trkpt lat="43.55744" lon="6.81421">
        <ele>161.7</ele>
        <time>2025-10-24T06:54:37.000Z</time>
      </trkpt>
      <trkpt lat="43.55741" lon="6.81421">
        <ele>161.7</ele>
        <time>2025-10-24T06:54:38.000Z</time>
      </trkpt>
      <trkpt lat="43.55738" lon="6.81422">
        <ele>161.7</ele>
        <time>2025-10-24T06:54:39.000Z</time>
      </trkpt>
      <trkpt lat="43.55734" lon="6.81421">
        <ele>161.7</ele>
        <time>2025-10-24T06:54:40.000Z</time>
      </trkpt>
      <trkpt lat="43.55731" lon="6.8142">
        <ele>161.8</ele>
        <time>2025-10-24T06:54:41.000Z</time>
      </trkpt>
      <trkpt lat="43.55727" lon="6.81419">
        <ele>161.8</ele>
        <time>2025-10-24T06:54:42.000Z</time>
      </trkpt>
      <trkpt lat="43.55724" lon="6.81419">
        <ele>161.8</ele>
        <time>2025-10-24T06:54:43.000Z</time>
      </trkpt>
      <trkpt lat="43.55721" lon="6.81418">
        <ele>161.9</ele>
        <time>2025-10-24T06:54:44.000Z</time>
      </trkpt>
      <trkpt lat="43.55718" lon="6.81418">
        <ele>161.9</ele>
        <time>2025-10-24T06:54:45.000Z</time>
      </trkpt>
      <trkpt lat="43.55715" lon="6.81418">
        <ele>162</ele>
        <time>2025-10-24T06:54:46.000Z</time>
      </trkpt>
      <trkpt lat="43.55712" lon="6.81419">
        <ele>162</ele>
        <time>2025-10-24T06:54:47.000Z</time>
      </trkpt>
      <trkpt lat="43.55709" lon="6.8142">
        <ele>162.1</ele>
        <time>2025-10-24T06:54:48.000Z</time>
      </trkpt>
      <trkpt lat="43.55705" lon="6.8142">
        <ele>162.1</ele>
        <time>2025-10-24T06:54:49.000Z</time>
      </trkpt>
      <trkpt lat="43.55701" lon="6.81421">
        <ele>162.2</ele>
        <time>2025-10-24T06:54:50.000Z</time>
      </trkpt>
      <trkpt lat="43.55697" lon="6.81422">
        <ele>162.3</ele>
        <time>2025-10-24T06:54:51.000Z</time>
      </trkpt>
      <trkpt lat="43.55693" lon="6.81423">
        <ele>162.3</ele>
        <time>2025-10-24T06:54:52.000Z</time>
      </trkpt>
      <trkpt lat="43.5569" lon="6.81424">
        <ele>162.4</ele>
        <time>2025-10-24T06:54:53.000Z</time>
      </trkpt>
      <trkpt lat="43.55686" lon="6.81426">
        <ele>162.4</ele>
        <time>2025-10-24T06:54:54.000Z</time>
      </trkpt>
      <trkpt lat="43.55681" lon="6.81428">
        <ele>162.5</ele>
        <time>2025-10-24T06:54:55.000Z</time>
      </trkpt>
      <trkpt lat="43.55677" lon="6.8143">
        <ele>162.5</ele>
        <time>2025-10-24T06:54:56.000Z</time>
      </trkpt>
      <trkpt lat="43.55673" lon="6.81432">
        <ele>162.5</ele>
        <time>2025-10-24T06:54:57.000Z</time>
      </trkpt>
      <trkpt lat="43.55669" lon="6.81435">
        <ele>162.5</ele>
        <time>2025-10-24T06:54:58.000Z</time>
      </trkpt>
      <trkpt lat="43.55666" lon="6.81438">
        <ele>162.5</ele>
        <time>2025-10-24T06:54:59.000Z</time>
      </trkpt>
      <trkpt lat="43.55662" lon="6.81441">
        <ele>162.5</ele>
        <time>2025-10-24T06:55:00.000Z</time>
      </trkpt>
      <trkpt lat="43.55658" lon="6.81442">
        <ele>162.5</ele>
        <time>2025-10-24T06:55:01.000Z</time>
      </trkpt>
      <trkpt lat="43.55655" lon="6.81443">
        <ele>162.5</ele>
        <time>2025-10-24T06:55:02.000Z</time>
      </trkpt>
      <trkpt lat="43.55652" lon="6.81444">
        <ele>162.5</ele>
        <time>2025-10-24T06:55:03.000Z</time>
      </trkpt>
      <trkpt lat="43.55649" lon="6.81445">
        <ele>162.5</ele>
        <time>2025-10-24T06:55:04.000Z</time>
      </trkpt>
      <trkpt lat="43.55646" lon="6.81447">
        <ele>162.6</ele>
        <time>2025-10-24T06:55:05.000Z</time>
      </trkpt>
      <trkpt lat="43.55643" lon="6.81448">
        <ele>162.6</ele>
        <time>2025-10-24T06:55:06.000Z</time>
      </trkpt>
      <trkpt lat="43.5564" lon="6.8145">
        <ele>162.6</ele>
        <time>2025-10-24T06:55:07.000Z</time>
      </trkpt>
      <trkpt lat="43.55637" lon="6.81452">
        <ele>162.6</ele>
        <time>2025-10-24T06:55:08.000Z</time>
      </trkpt>
      <trkpt lat="43.55634" lon="6.81454">
        <ele>162.7</ele>
        <time>2025-10-24T06:55:09.000Z</time>
      </trkpt>
      <trkpt lat="43.55632" lon="6.81457">
        <ele>162.7</ele>
        <time>2025-10-24T06:55:10.000Z</time>
      </trkpt>
      <trkpt lat="43.5563" lon="6.8146">
        <ele>162.7</ele>
        <time>2025-10-24T06:55:11.000Z</time>
      </trkpt>
      <trkpt lat="43.55627" lon="6.81462">
        <ele>162.7</ele>
        <time>2025-10-24T06:55:12.000Z</time>
      </trkpt>
      <trkpt lat="43.55625" lon="6.81465">
        <ele>162.8</ele>
        <time>2025-10-24T06:55:13.000Z</time>
      </trkpt>
      <trkpt lat="43.55622" lon="6.81467">
        <ele>162.8</ele>
        <time>2025-10-24T06:55:14.000Z</time>
      </trkpt>
      <trkpt lat="43.55619" lon="6.8147">
        <ele>162.8</ele>
        <time>2025-10-24T06:55:15.000Z</time>
      </trkpt>
      <trkpt lat="43.55616" lon="6.81473">
        <ele>162.9</ele>
        <time>2025-10-24T06:55:16.000Z</time>
      </trkpt>
      <trkpt lat="43.55613" lon="6.81475">
        <ele>162.9</ele>
        <time>2025-10-24T06:55:17.000Z</time>
      </trkpt>
      <trkpt lat="43.5561" lon="6.81477">
        <ele>163</ele>
        <time>2025-10-24T06:55:18.000Z</time>
      </trkpt>
      <trkpt lat="43.55607" lon="6.81481">
        <ele>163</ele>
        <time>2025-10-24T06:55:19.000Z</time>
      </trkpt>
      <trkpt lat="43.55606" lon="6.81483">
        <ele>163.1</ele>
        <time>2025-10-24T06:55:20.000Z</time>
      </trkpt>
      <trkpt lat="43.55603" lon="6.81488">
        <ele>163.1</ele>
        <time>2025-10-24T06:55:21.000Z</time>
      </trkpt>
      <trkpt lat="43.556" lon="6.81492">
        <ele>163.2</ele>
        <time>2025-10-24T06:55:22.000Z</time>
      </trkpt>
      <trkpt lat="43.55598" lon="6.81496">
        <ele>163.3</ele>
        <time>2025-10-24T06:55:23.000Z</time>
      </trkpt>
      <trkpt lat="43.55596" lon="6.81499">
        <ele>163.4</ele>
        <time>2025-10-24T06:55:24.000Z</time>
      </trkpt>
      <trkpt lat="43.55594" lon="6.81505">
        <ele>163.5</ele>
        <time>2025-10-24T06:55:25.000Z</time>
      </trkpt>
      <trkpt lat="43.55592" lon="6.8151">
        <ele>163.6</ele>
        <time>2025-10-24T06:55:26.000Z</time>
      </trkpt>
      <trkpt lat="43.55591" lon="6.81516">
        <ele>163.7</ele>
        <time>2025-10-24T06:55:27.000Z</time>
      </trkpt>
      <trkpt lat="43.5559" lon="6.81521">
        <ele>163.8</ele>
        <time>2025-10-24T06:55:28.000Z</time>
      </trkpt>
      <trkpt lat="43.55589" lon="6.81527">
        <ele>164</ele>
        <time>2025-10-24T06:55:29.000Z</time>
      </trkpt>
      <trkpt lat="43.55588" lon="6.81532">
        <ele>164.2</ele>
        <time>2025-10-24T06:55:30.000Z</time>
      </trkpt>
      <trkpt lat="43.55588" lon="6.81538">
        <ele>164.3</ele>
        <time>2025-10-24T06:55:31.000Z</time>
      </trkpt>
      <trkpt lat="43.55587" lon="6.81544">
        <ele>164.5</ele>
        <time>2025-10-24T06:55:32.000Z</time>
      </trkpt>
      <trkpt lat="43.55586" lon="6.81549">
        <ele>164.7</ele>
        <time>2025-10-24T06:55:33.000Z</time>
      </trkpt>
      <trkpt lat="43.55585" lon="6.81554">
        <ele>164.8</ele>
        <time>2025-10-24T06:55:34.000Z</time>
      </trkpt>
      <trkpt lat="43.55584" lon="6.81559">
        <ele>165</ele>
        <time>2025-10-24T06:55:35.000Z</time>
      </trkpt>
      <trkpt lat="43.55583" lon="6.81565">
        <ele>165.1</ele>
        <time>2025-10-24T06:55:36.000Z</time>
      </trkpt>
      <trkpt lat="43.55581" lon="6.81571">
        <ele>165.3</ele>
        <time>2025-10-24T06:55:37.000Z</time>
      </trkpt>
      <trkpt lat="43.55581" lon="6.81577">
        <ele>165.4</ele>
        <time>2025-10-24T06:55:38.000Z</time>
      </trkpt>
      <trkpt lat="43.5558" lon="6.81581">
        <ele>165.5</ele>
        <time>2025-10-24T06:55:39.000Z</time>
      </trkpt>
      <trkpt lat="43.5558" lon="6.81587">
        <ele>165.7</ele>
        <time>2025-10-24T06:55:40.000Z</time>
      </trkpt>
      <trkpt lat="43.55579" lon="6.81593">
        <ele>165.8</ele>
        <time>2025-10-24T06:55:41.000Z</time>
      </trkpt>
      <trkpt lat="43.55578" lon="6.81598">
        <ele>165.9</ele>
        <time>2025-10-24T06:55:42.000Z</time>
      </trkpt>
      <trkpt lat="43.55577" lon="6.81604">
        <ele>166.1</ele>
        <time>2025-10-24T06:55:43.000Z</time>
      </trkpt>
      <trkpt lat="43.55576" lon="6.81609">
        <ele>166.2</ele>
        <time>2025-10-24T06:55:44.000Z</time>
      </trkpt>
      <trkpt lat="43.55575" lon="6.81614">
        <ele>166.4</ele>
        <time>2025-10-24T06:55:45.000Z</time>
      </trkpt>
      <trkpt lat="43.55575" lon="6.8162">
        <ele>166.5</ele>
        <time>2025-10-24T06:55:46.000Z</time>
      </trkpt>
      <trkpt lat="43.55574" lon="6.81625">
        <ele>166.7</ele>
        <time>2025-10-24T06:55:47.000Z</time>
      </trkpt>
      <trkpt lat="43.55574" lon="6.81631">
        <ele>166.8</ele>
        <time>2025-10-24T06:55:48.000Z</time>
      </trkpt>
      <trkpt lat="43.55574" lon="6.81636">
        <ele>167</ele>
        <time>2025-10-24T06:55:49.000Z</time>
      </trkpt>
      <trkpt lat="43.55574" lon="6.81641">
        <ele>167.1</ele>
        <time>2025-10-24T06:55:50.000Z</time>
      </trkpt>
      <trkpt lat="43.55575" lon="6.81647">
        <ele>167.3</ele>
        <time>2025-10-24T06:55:51.000Z</time>
      </trkpt>
      <trkpt lat="43.55575" lon="6.81653">
        <ele>167.4</ele>
        <time>2025-10-24T06:55:52.000Z</time>
      </trkpt>
      <trkpt lat="43.55576" lon="6.81658">
        <ele>167.5</ele>
        <time>2025-10-24T06:55:53.000Z</time>
      </trkpt>
      <trkpt lat="43.55576" lon="6.81663">
        <ele>167.6</ele>
        <time>2025-10-24T06:55:54.000Z</time>
      </trkpt>
      <trkpt lat="43.55577" lon="6.81667">
        <ele>167.6</ele>
        <time>2025-10-24T06:55:55.000Z</time>
      </trkpt>
      <trkpt lat="43.55577" lon="6.81674">
        <ele>167.7</ele>
        <time>2025-10-24T06:55:56.000Z</time>
      </trkpt>
      <trkpt lat="43.55577" lon="6.81679">
        <ele>167.8</ele>
        <time>2025-10-24T06:55:57.000Z</time>
      </trkpt>
      <trkpt lat="43.55577" lon="6.81685">
        <ele>167.9</ele>
        <time>2025-10-24T06:55:58.000Z</time>
      </trkpt>
      <trkpt lat="43.55577" lon="6.8169">
        <ele>167.9</ele>
        <time>2025-10-24T06:55:59.000Z</time>
      </trkpt>
      <trkpt lat="43.55577" lon="6.81695">
        <ele>168</ele>
        <time>2025-10-24T06:56:00.000Z</time>
      </trkpt>
      <trkpt lat="43.55577" lon="6.81702">
        <ele>168.1</ele>
        <time>2025-10-24T06:56:01.000Z</time>
      </trkpt>
      <trkpt lat="43.55578" lon="6.81707">
        <ele>168.2</ele>
        <time>2025-10-24T06:56:02.000Z</time>
      </trkpt>
      <trkpt lat="43.55578" lon="6.81713">
        <ele>168.3</ele>
        <time>2025-10-24T06:56:03.000Z</time>
      </trkpt>
      <trkpt lat="43.55579" lon="6.81719">
        <ele>168.5</ele>
        <time>2025-10-24T06:56:04.000Z</time>
      </trkpt>
      <trkpt lat="43.55579" lon="6.81723">
        <ele>168.6</ele>
        <time>2025-10-24T06:56:05.000Z</time>
      </trkpt>
      <trkpt lat="43.5558" lon="6.8173">
        <ele>168.8</ele>
        <time>2025-10-24T06:56:06.000Z</time>
      </trkpt>
      <trkpt lat="43.5558" lon="6.81735">
        <ele>168.9</ele>
        <time>2025-10-24T06:56:07.000Z</time>
      </trkpt>
      <trkpt lat="43.55581" lon="6.8174">
        <ele>169.1</ele>
        <time>2025-10-24T06:56:08.000Z</time>
      </trkpt>
      <trkpt lat="43.55582" lon="6.81746">
        <ele>169.2</ele>
        <time>2025-10-24T06:56:09.000Z</time>
      </trkpt>
      <trkpt lat="43.55582" lon="6.8175">
        <ele>169.4</ele>
        <time>2025-10-24T06:56:10.000Z</time>
      </trkpt>
      <trkpt lat="43.55582" lon="6.81756">
        <ele>169.5</ele>
        <time>2025-10-24T06:56:11.000Z</time>
      </trkpt>
      <trkpt lat="43.55583" lon="6.81761">
        <ele>169.6</ele>
        <time>2025-10-24T06:56:12.000Z</time>
      </trkpt>
      <trkpt lat="43.55583" lon="6.81766">
        <ele>169.8</ele>
        <time>2025-10-24T06:56:13.000Z</time>
      </trkpt>
      <trkpt lat="43.55583" lon="6.8177">
        <ele>169.9</ele>
        <time>2025-10-24T06:56:14.000Z</time>
      </trkpt>
      <trkpt lat="43.55583" lon="6.81776">
        <ele>170</ele>
        <time>2025-10-24T06:56:15.000Z</time>
      </trkpt>
      <trkpt lat="43.55583" lon="6.81782">
        <ele>170.1</ele>
        <time>2025-10-24T06:56:16.000Z</time>
      </trkpt>
      <trkpt lat="43.55583" lon="6.81787">
        <ele>170.2</ele>
        <time>2025-10-24T06:56:17.000Z</time>
      </trkpt>
      <trkpt lat="43.55584" lon="6.81792">
        <ele>170.3</ele>
        <time>2025-10-24T06:56:18.000Z</time>
      </trkpt>
      <trkpt lat="43.55584" lon="6.81797">
        <ele>170.4</ele>
        <time>2025-10-24T06:56:19.000Z</time>
      </trkpt>
      <trkpt lat="43.55584" lon="6.81802">
        <ele>170.5</ele>
        <time>2025-10-24T06:56:20.000Z</time>
      </trkpt>
      <trkpt lat="43.55584" lon="6.81809">
        <ele>170.7</ele>
        <time>2025-10-24T06:56:21.000Z</time>
      </trkpt>
      <trkpt lat="43.55584" lon="6.81814">
        <ele>170.8</ele>
        <time>2025-10-24T06:56:22.000Z</time>
      </trkpt>
      <trkpt lat="43.55585" lon="6.8182">
        <ele>170.9</ele>
        <time>2025-10-24T06:56:23.000Z</time>
      </trkpt>
      <trkpt lat="43.55585" lon="6.81825">
        <ele>171</ele>
        <time>2025-10-24T06:56:24.000Z</time>
      </trkpt>
      <trkpt lat="43.55585" lon="6.81831">
        <ele>171.2</ele>
        <time>2025-10-24T06:56:25.000Z</time>
      </trkpt>
      <trkpt lat="43.55586" lon="6.81836">
        <ele>171.4</ele>
        <time>2025-10-24T06:56:26.000Z</time>
      </trkpt>
      <trkpt lat="43.55586" lon="6.81842">
        <ele>171.5</ele>
        <time>2025-10-24T06:56:27.000Z</time>
      </trkpt>
      <trkpt lat="43.55587" lon="6.81848">
        <ele>171.7</ele>
        <time>2025-10-24T06:56:28.000Z</time>
      </trkpt>
      <trkpt lat="43.55588" lon="6.81853">
        <ele>172</ele>
        <time>2025-10-24T06:56:29.000Z</time>
      </trkpt>
      <trkpt lat="43.55588" lon="6.8186">
        <ele>172.2</ele>
        <time>2025-10-24T06:56:30.000Z</time>
      </trkpt>
      <trkpt lat="43.55588" lon="6.81865">
        <ele>172.4</ele>
        <time>2025-10-24T06:56:31.000Z</time>
      </trkpt>
      <trkpt lat="43.55588" lon="6.8187">
        <ele>172.7</ele>
        <time>2025-10-24T06:56:32.000Z</time>
      </trkpt>
      <trkpt lat="43.55587" lon="6.81876">
        <ele>172.9</ele>
        <time>2025-10-24T06:56:33.000Z</time>
      </trkpt>
      <trkpt lat="43.55587" lon="6.81881">
        <ele>173.1</ele>
        <time>2025-10-24T06:56:34.000Z</time>
      </trkpt>
      <trkpt lat="43.55587" lon="6.81887">
        <ele>173.4</ele>
        <time>2025-10-24T06:56:35.000Z</time>
      </trkpt>
      <trkpt lat="43.55588" lon="6.81892">
        <ele>173.6</ele>
        <time>2025-10-24T06:56:36.000Z</time>
      </trkpt>
      <trkpt lat="43.55589" lon="6.81897">
        <ele>173.9</ele>
        <time>2025-10-24T06:56:37.000Z</time>
      </trkpt>
      <trkpt lat="43.5559" lon="6.81902">
        <ele>174.1</ele>
        <time>2025-10-24T06:56:38.000Z</time>
      </trkpt>
      <trkpt lat="43.5559" lon="6.81907">
        <ele>174.3</ele>
        <time>2025-10-24T06:56:39.000Z</time>
      </trkpt>
      <trkpt lat="43.5559" lon="6.81912">
        <ele>174.5</ele>
        <time>2025-10-24T06:56:40.000Z</time>
      </trkpt>
      <trkpt lat="43.55589" lon="6.81917">
        <ele>174.7</ele>
        <time>2025-10-24T06:56:41.000Z</time>
      </trkpt>
      <trkpt lat="43.55588" lon="6.81921">
        <ele>174.9</ele>
        <time>2025-10-24T06:56:42.000Z</time>
      </trkpt>
      <trkpt lat="43.55587" lon="6.81926">
        <ele>175</ele>
        <time>2025-10-24T06:56:43.000Z</time>
      </trkpt>
      <trkpt lat="43.55585" lon="6.81931">
        <ele>175.2</ele>
        <time>2025-10-24T06:56:44.000Z</time>
      </trkpt>
      <trkpt lat="43.55584" lon="6.81934">
        <ele>175.3</ele>
        <time>2025-10-24T06:56:45.000Z</time>
      </trkpt>
      <trkpt lat="43.55581" lon="6.8194">
        <ele>175.5</ele>
        <time>2025-10-24T06:56:46.000Z</time>
      </trkpt>
      <trkpt lat="43.55579" lon="6.81944">
        <ele>175.7</ele>
        <time>2025-10-24T06:56:47.000Z</time>
      </trkpt>
      <trkpt lat="43.55577" lon="6.81949">
        <ele>175.9</ele>
        <time>2025-10-24T06:56:48.000Z</time>
      </trkpt>
      <trkpt lat="43.55575" lon="6.81952">
        <ele>176</ele>
        <time>2025-10-24T06:56:49.000Z</time>
      </trkpt>
      <trkpt lat="43.55572" lon="6.81957">
        <ele>176.2</ele>
        <time>2025-10-24T06:56:50.000Z</time>
      </trkpt>
      <trkpt lat="43.5557" lon="6.81961">
        <ele>176.4</ele>
        <time>2025-10-24T06:56:51.000Z</time>
      </trkpt>
      <trkpt lat="43.55567" lon="6.81965">
        <ele>176.6</ele>
        <time>2025-10-24T06:56:52.000Z</time>
      </trkpt>
      <trkpt lat="43.55565" lon="6.8197">
        <ele>176.7</ele>
        <time>2025-10-24T06:56:53.000Z</time>
      </trkpt>
      <trkpt lat="43.55563" lon="6.81974">
        <ele>176.9</ele>
        <time>2025-10-24T06:56:54.000Z</time>
      </trkpt>
      <trkpt lat="43.55562" lon="6.81979">
        <ele>177.1</ele>
        <time>2025-10-24T06:56:55.000Z</time>
      </trkpt>
      <trkpt lat="43.55561" lon="6.81985">
        <ele>177.2</ele>
        <time>2025-10-24T06:56:56.000Z</time>
      </trkpt>
      <trkpt lat="43.55561" lon="6.8199">
        <ele>177.4</ele>
        <time>2025-10-24T06:56:57.000Z</time>
      </trkpt>
      <trkpt lat="43.5556" lon="6.81996">
        <ele>177.6</ele>
        <time>2025-10-24T06:56:58.000Z</time>
      </trkpt>
      <trkpt lat="43.5556" lon="6.82001">
        <ele>177.8</ele>
        <time>2025-10-24T06:56:59.000Z</time>
      </trkpt>
      <trkpt lat="43.55558" lon="6.82007">
        <ele>178</ele>
        <time>2025-10-24T06:57:00.000Z</time>
      </trkpt>
      <trkpt lat="43.55556" lon="6.82011">
        <ele>178.2</ele>
        <time>2025-10-24T06:57:01.000Z</time>
      </trkpt>
      <trkpt lat="43.55554" lon="6.82016">
        <ele>178.4</ele>
        <time>2025-10-24T06:57:02.000Z</time>
      </trkpt>
      <trkpt lat="43.55552" lon="6.82021">
        <ele>178.6</ele>
        <time>2025-10-24T06:57:03.000Z</time>
      </trkpt>
      <trkpt lat="43.5555" lon="6.82025">
        <ele>178.8</ele>
        <time>2025-10-24T06:57:04.000Z</time>
      </trkpt>
      <trkpt lat="43.55548" lon="6.82029">
        <ele>179</ele>
        <time>2025-10-24T06:57:05.000Z</time>
      </trkpt>
      <trkpt lat="43.55546" lon="6.82033">
        <ele>179.2</ele>
        <time>2025-10-24T06:57:06.000Z</time>
      </trkpt>
      <trkpt lat="43.55543" lon="6.82038">
        <ele>179.3</ele>
        <time>2025-10-24T06:57:07.000Z</time>
      </trkpt>
      <trkpt lat="43.55542" lon="6.82043">
        <ele>179.5</ele>
        <time>2025-10-24T06:57:08.000Z</time>
      </trkpt>
      <trkpt lat="43.55541" lon="6.82048">
        <ele>179.6</ele>
        <time>2025-10-24T06:57:09.000Z</time>
      </trkpt>
      <trkpt lat="43.5554" lon="6.82053">
        <ele>179.8</ele>
        <time>2025-10-24T06:57:10.000Z</time>
      </trkpt>
      <trkpt lat="43.5554" lon="6.82058">
        <ele>179.9</ele>
        <time>2025-10-24T06:57:11.000Z</time>
      </trkpt>
      <trkpt lat="43.5554" lon="6.82064">
        <ele>180</ele>
        <time>2025-10-24T06:57:12.000Z</time>
      </trkpt>
      <trkpt lat="43.55539" lon="6.82069">
        <ele>180.1</ele>
        <time>2025-10-24T06:57:13.000Z</time>
      </trkpt>
      <trkpt lat="43.55538" lon="6.82074">
        <ele>180.2</ele>
        <time>2025-10-24T06:57:14.000Z</time>
      </trkpt>
      <trkpt lat="43.55536" lon="6.82078">
        <ele>180.3</ele>
        <time>2025-10-24T06:57:15.000Z</time>
      </trkpt>
      <trkpt lat="43.55535" lon="6.82083">
        <ele>180.4</ele>
        <time>2025-10-24T06:57:16.000Z</time>
      </trkpt>
      <trkpt lat="43.55533" lon="6.82087">
        <ele>180.4</ele>
        <time>2025-10-24T06:57:17.000Z</time>
      </trkpt>
      <trkpt lat="43.55532" lon="6.82091">
        <ele>180.4</ele>
        <time>2025-10-24T06:57:18.000Z</time>
      </trkpt>
      <trkpt lat="43.55531" lon="6.82096">
        <ele>180.4</ele>
        <time>2025-10-24T06:57:19.000Z</time>
      </trkpt>
      <trkpt lat="43.5553" lon="6.82101">
        <ele>180.5</ele>
        <time>2025-10-24T06:57:20.000Z</time>
      </trkpt>
      <trkpt lat="43.55528" lon="6.82105">
        <ele>180.5</ele>
        <time>2025-10-24T06:57:21.000Z</time>
      </trkpt>
      <trkpt lat="43.55526" lon="6.82109">
        <ele>180.5</ele>
        <time>2025-10-24T06:57:22.000Z</time>
      </trkpt>
      <trkpt lat="43.55523" lon="6.82113">
        <ele>180.4</ele>
        <time>2025-10-24T06:57:23.000Z</time>
      </trkpt>
      <trkpt lat="43.5552" lon="6.82116">
        <ele>180.4</ele>
        <time>2025-10-24T06:57:24.000Z</time>
      </trkpt>
      <trkpt lat="43.55518" lon="6.8212">
        <ele>180.4</ele>
        <time>2025-10-24T06:57:25.000Z</time>
      </trkpt>
      <trkpt lat="43.55515" lon="6.82124">
        <ele>180.4</ele>
        <time>2025-10-24T06:57:26.000Z</time>
      </trkpt>
      <trkpt lat="43.55513" lon="6.82129">
        <ele>180.4</ele>
        <time>2025-10-24T06:57:27.000Z</time>
      </trkpt>
      <trkpt lat="43.55511" lon="6.82134">
        <ele>180.4</ele>
        <time>2025-10-24T06:57:28.000Z</time>
      </trkpt>
      <trkpt lat="43.55509" lon="6.8214">
        <ele>180.5</ele>
        <time>2025-10-24T06:57:29.000Z</time>
      </trkpt>
      <trkpt lat="43.55507" lon="6.82145">
        <ele>180.5</ele>
        <time>2025-10-24T06:57:30.000Z</time>
      </trkpt>
      <trkpt lat="43.55505" lon="6.82149">
        <ele>180.6</ele>
        <time>2025-10-24T06:57:31.000Z</time>
      </trkpt>
      <trkpt lat="43.55503" lon="6.82153">
        <ele>180.6</ele>
        <time>2025-10-24T06:57:32.000Z</time>
      </trkpt>
      <trkpt lat="43.55501" lon="6.82158">
        <ele>180.7</ele>
        <time>2025-10-24T06:57:33.000Z</time>
      </trkpt>
      <trkpt lat="43.555" lon="6.82162">
        <ele>180.7</ele>
        <time>2025-10-24T06:57:34.000Z</time>
      </trkpt>
      <trkpt lat="43.55499" lon="6.82167">
        <ele>180.7</ele>
        <time>2025-10-24T06:57:35.000Z</time>
      </trkpt>
      <trkpt lat="43.55498" lon="6.82172">
        <ele>180.7</ele>
        <time>2025-10-24T06:57:36.000Z</time>
      </trkpt>
      <trkpt lat="43.55496" lon="6.82176">
        <ele>180.7</ele>
        <time>2025-10-24T06:57:37.000Z</time>
      </trkpt>
      <trkpt lat="43.55495" lon="6.82181">
        <ele>180.7</ele>
        <time>2025-10-24T06:57:38.000Z</time>
      </trkpt>
      <trkpt lat="43.55493" lon="6.82185">
        <ele>180.7</ele>
        <time>2025-10-24T06:57:39.000Z</time>
      </trkpt>
      <trkpt lat="43.55491" lon="6.82189">
        <ele>180.7</ele>
        <time>2025-10-24T06:57:40.000Z</time>
      </trkpt>
      <trkpt lat="43.55489" lon="6.82191">
        <ele>180.7</ele>
        <time>2025-10-24T06:57:41.000Z</time>
      </trkpt>
      <trkpt lat="43.55486" lon="6.82192">
        <ele>180.6</ele>
        <time>2025-10-24T06:57:42.000Z</time>
      </trkpt>
      <trkpt lat="43.55483" lon="6.82193">
        <ele>180.6</ele>
        <time>2025-10-24T06:57:43.000Z</time>
      </trkpt>
      <trkpt lat="43.5548" lon="6.82195">
        <ele>180.6</ele>
        <time>2025-10-24T06:57:44.000Z</time>
      </trkpt>
      <trkpt lat="43.55478" lon="6.82198">
        <ele>180.5</ele>
        <time>2025-10-24T06:57:45.000Z</time>
      </trkpt>
      <trkpt lat="43.55476" lon="6.82201">
        <ele>180.5</ele>
        <time>2025-10-24T06:57:46.000Z</time>
      </trkpt>
      <trkpt lat="43.55473" lon="6.82205">
        <ele>180.4</ele>
        <time>2025-10-24T06:57:47.000Z</time>
      </trkpt>
      <trkpt lat="43.55471" lon="6.82209">
        <ele>180.3</ele>
        <time>2025-10-24T06:57:48.000Z</time>
      </trkpt>
      <trkpt lat="43.55469" lon="6.82213">
        <ele>180.3</ele>
        <time>2025-10-24T06:57:49.000Z</time>
      </trkpt>
      <trkpt lat="43.55467" lon="6.82216">
        <ele>180.3</ele>
        <time>2025-10-24T06:57:50.000Z</time>
      </trkpt>
      <trkpt lat="43.55463" lon="6.8222">
        <ele>180.2</ele>
        <time>2025-10-24T06:57:51.000Z</time>
      </trkpt>
      <trkpt lat="43.5546" lon="6.82223">
        <ele>180.2</ele>
        <time>2025-10-24T06:57:52.000Z</time>
      </trkpt>
      <trkpt lat="43.55457" lon="6.82226">
        <ele>180.1</ele>
        <time>2025-10-24T06:57:53.000Z</time>
      </trkpt>
      <trkpt lat="43.55455" lon="6.82229">
        <ele>180.1</ele>
        <time>2025-10-24T06:57:54.000Z</time>
      </trkpt>
      <trkpt lat="43.55452" lon="6.82233">
        <ele>180</ele>
        <time>2025-10-24T06:57:55.000Z</time>
      </trkpt>
      <trkpt lat="43.55449" lon="6.82237">
        <ele>179.9</ele>
        <time>2025-10-24T06:57:56.000Z</time>
      </trkpt>
      <trkpt lat="43.55446" lon="6.82241">
        <ele>179.9</ele>
        <time>2025-10-24T06:57:57.000Z</time>
      </trkpt>
      <trkpt lat="43.55443" lon="6.82244">
        <ele>179.9</ele>
        <time>2025-10-24T06:57:58.000Z</time>
      </trkpt>
      <trkpt lat="43.55441" lon="6.82248">
        <ele>179.9</ele>
        <time>2025-10-24T06:57:59.000Z</time>
      </trkpt>
      <trkpt lat="43.55438" lon="6.82251">
        <ele>179.8</ele>
        <time>2025-10-24T06:58:00.000Z</time>
      </trkpt>
      <trkpt lat="43.55436" lon="6.82255">
        <ele>179.8</ele>
        <time>2025-10-24T06:58:01.000Z</time>
      </trkpt>
      <trkpt lat="43.55433" lon="6.82257">
        <ele>179.8</ele>
        <time>2025-10-24T06:58:02.000Z</time>
      </trkpt>
      <trkpt lat="43.55429" lon="6.8226">
        <ele>179.8</ele>
        <time>2025-10-24T06:58:03.000Z</time>
      </trkpt>
      <trkpt lat="43.55426" lon="6.82261">
        <ele>179.8</ele>
        <time>2025-10-24T06:58:04.000Z</time>
      </trkpt>
      <trkpt lat="43.55423" lon="6.82263">
        <ele>179.8</ele>
        <time>2025-10-24T06:58:05.000Z</time>
      </trkpt>
      <trkpt lat="43.5542" lon="6.82264">
        <ele>179.7</ele>
        <time>2025-10-24T06:58:06.000Z</time>
      </trkpt>
      <trkpt lat="43.55418" lon="6.82265">
        <ele>179.7</ele>
        <time>2025-10-24T06:58:07.000Z</time>
      </trkpt>
      <trkpt lat="43.55416" lon="6.82265">
        <ele>179.7</ele>
        <time>2025-10-24T06:58:08.000Z</time>
      </trkpt>
      <trkpt lat="43.55415" lon="6.82266">
        <ele>179.7</ele>
        <time>2025-10-24T06:58:09.000Z</time>
      </trkpt>
      <trkpt lat="43.55414" lon="6.82266">
        <ele>179.7</ele>
        <time>2025-10-24T06:58:10.000Z</time>
      </trkpt>
      <trkpt lat="43.55413" lon="6.82266">
        <ele>179.7</ele>
        <time>2025-10-24T06:58:11.000Z</time>
      </trkpt>
      <trkpt lat="43.55413" lon="6.82267">
        <ele>179.7</ele>
        <time>2025-10-24T06:58:12.000Z</time>
      </trkpt>
      <trkpt lat="43.55412" lon="6.82267">
        <ele>179.7</ele>
        <time>2025-10-24T06:58:13.000Z</time>
      </trkpt>
      <trkpt lat="43.55411" lon="6.82267">
        <ele>179.6</ele>
        <time>2025-10-24T06:58:14.000Z</time>
      </trkpt>
      <trkpt lat="43.55411" lon="6.82268">
        <ele>179.6</ele>
        <time>2025-10-24T06:58:15.000Z</time>
      </trkpt>
      <trkpt lat="43.5541" lon="6.82268">
        <ele>179.6</ele>
        <time>2025-10-24T06:58:16.000Z</time>
      </trkpt>
      <trkpt lat="43.55409" lon="6.82268">
        <ele>179.6</ele>
        <time>2025-10-24T06:58:17.000Z</time>
      </trkpt>
      <trkpt lat="43.55408" lon="6.82269">
        <ele>179.6</ele>
        <time>2025-10-24T06:58:18.000Z</time>
      </trkpt>
      <trkpt lat="43.55408" lon="6.82269">
        <ele>179.6</ele>
        <time>2025-10-24T06:58:19.000Z</time>
      </trkpt>
      <trkpt lat="43.55407" lon="6.82269">
        <ele>179.6</ele>
        <time>2025-10-24T06:58:20.000Z</time>
      </trkpt>
      <trkpt lat="43.55406" lon="6.82269">
        <ele>179.6</ele>
        <time>2025-10-24T06:58:21.000Z</time>
      </trkpt>
      <trkpt lat="43.55406" lon="6.8227">
        <ele>179.6</ele>
        <time>2025-10-24T06:58:22.000Z</time>
      </trkpt>
      <trkpt lat="43.55405" lon="6.8227">
        <ele>179.6</ele>
        <time>2025-10-24T06:58:23.000Z</time>
      </trkpt>
      <trkpt lat="43.55404" lon="6.8227">
        <ele>179.5</ele>
        <time>2025-10-24T06:58:24.000Z</time>
      </trkpt>
      <trkpt lat="43.55404" lon="6.82271">
        <ele>179.5</ele>
        <time>2025-10-24T06:58:25.000Z</time>
      </trkpt>
      <trkpt lat="43.55403" lon="6.82271">
        <ele>179.5</ele>
        <time>2025-10-24T06:58:26.000Z</time>
      </trkpt>
      <trkpt lat="43.55402" lon="6.82271">
        <ele>179.5</ele>
        <time>2025-10-24T06:58:27.000Z</time>
      </trkpt>
      <trkpt lat="43.55401" lon="6.82272">
        <ele>179.5</ele>
        <time>2025-10-24T06:58:28.000Z</time>
      </trkpt>
      <trkpt lat="43.55401" lon="6.82272">
        <ele>179.5</ele>
        <time>2025-10-24T06:58:29.000Z</time>
      </trkpt>
      <trkpt lat="43.554" lon="6.82272">
        <ele>179.5</ele>
        <time>2025-10-24T06:58:30.000Z</time>
      </trkpt>
      <trkpt lat="43.55399" lon="6.82273">
        <ele>179.5</ele>
        <time>2025-10-24T06:58:31.000Z</time>
      </trkpt>
      <trkpt lat="43.55399" lon="6.82273">
        <ele>179.5</ele>
        <time>2025-10-24T06:58:32.000Z</time>
      </trkpt>
      <trkpt lat="43.55398" lon="6.82273">
        <ele>179.4</ele>
        <time>2025-10-24T06:58:33.000Z</time>
      </trkpt>
      <trkpt lat="43.55397" lon="6.82274">
        <ele>179.4</ele>
        <time>2025-10-24T06:58:34.000Z</time>
      </trkpt>
      <trkpt lat="43.55396" lon="6.82274">
        <ele>179.4</ele>
        <time>2025-10-24T06:58:35.000Z</time>
      </trkpt>
      <trkpt lat="43.55396" lon="6.82274">
        <ele>179.4</ele>
        <time>2025-10-24T06:58:36.000Z</time>
      </trkpt>
      <trkpt lat="43.55395" lon="6.82274">
        <ele>179.4</ele>
        <time>2025-10-24T06:58:37.000Z</time>
      </trkpt>
      <trkpt lat="43.55394" lon="6.82275">
        <ele>179.4</ele>
        <time>2025-10-24T06:58:38.000Z</time>
      </trkpt>
      <trkpt lat="43.55394" lon="6.82275">
        <ele>179.4</ele>
        <time>2025-10-24T06:58:39.000Z</time>
      </trkpt>
      <trkpt lat="43.55393" lon="6.82275">
        <ele>179.4</ele>
        <time>2025-10-24T06:58:40.000Z</time>
      </trkpt>
      <trkpt lat="43.55392" lon="6.82276">
        <ele>179.4</ele>
        <time>2025-10-24T06:58:41.000Z</time>
      </trkpt>
      <trkpt lat="43.55392" lon="6.82276">
        <ele>179.3</ele>
        <time>2025-10-24T06:58:42.000Z</time>
      </trkpt>
      <trkpt lat="43.55391" lon="6.82276">
        <ele>179.3</ele>
        <time>2025-10-24T06:58:43.000Z</time>
      </trkpt>
      <trkpt lat="43.5539" lon="6.82277">
        <ele>179.3</ele>
        <time>2025-10-24T06:58:44.000Z</time>
      </trkpt>
      <trkpt lat="43.55389" lon="6.82277">
        <ele>179.3</ele>
        <time>2025-10-24T06:58:45.000Z</time>
      </trkpt>
      <trkpt lat="43.55389" lon="6.82277">
        <ele>179.3</ele>
        <time>2025-10-24T06:58:46.000Z</time>
      </trkpt>
      <trkpt lat="43.55385" lon="6.82281">
        <ele>179.2</ele>
        <time>2025-10-24T06:58:47.000Z</time>
      </trkpt>
      <trkpt lat="43.55381" lon="6.82284">
        <ele>179.2</ele>
        <time>2025-10-24T06:58:48.000Z</time>
      </trkpt>
      <trkpt lat="43.55377" lon="6.82286">
        <ele>179.1</ele>
        <time>2025-10-24T06:58:49.000Z</time>
      </trkpt>
      <trkpt lat="43.55374" lon="6.82289">
        <ele>179.1</ele>
        <time>2025-10-24T06:58:50.000Z</time>
      </trkpt>
      <trkpt lat="43.5537" lon="6.82292">
        <ele>179</ele>
        <time>2025-10-24T06:58:51.000Z</time>
      </trkpt>
      <trkpt lat="43.55366" lon="6.82295">
        <ele>178.9</ele>
        <time>2025-10-24T06:58:52.000Z</time>
      </trkpt>
      <trkpt lat="43.55363" lon="6.82298">
        <ele>178.8</ele>
        <time>2025-10-24T06:58:53.000Z</time>
      </trkpt>
      <trkpt lat="43.5536" lon="6.82301">
        <ele>178.7</ele>
        <time>2025-10-24T06:58:54.000Z</time>
      </trkpt>
      <trkpt lat="43.55357" lon="6.82305">
        <ele>178.7</ele>
        <time>2025-10-24T06:58:55.000Z</time>
      </trkpt>
      <trkpt lat="43.55354" lon="6.82309">
        <ele>178.6</ele>
        <time>2025-10-24T06:58:56.000Z</time>
      </trkpt>
      <trkpt lat="43.55352" lon="6.82313">
        <ele>178.5</ele>
        <time>2025-10-24T06:58:57.000Z</time>
      </trkpt>
      <trkpt lat="43.55349" lon="6.82318">
        <ele>178.4</ele>
        <time>2025-10-24T06:58:58.000Z</time>
      </trkpt>
      <trkpt lat="43.55347" lon="6.82323">
        <ele>178.3</ele>
        <time>2025-10-24T06:58:59.000Z</time>
      </trkpt>
      <trkpt lat="43.55344" lon="6.82329">
        <ele>178.2</ele>
        <time>2025-10-24T06:59:00.000Z</time>
      </trkpt>
      <trkpt lat="43.55342" lon="6.82334">
        <ele>178.2</ele>
        <time>2025-10-24T06:59:01.000Z</time>
      </trkpt>
      <trkpt lat="43.55339" lon="6.8234">
        <ele>178.1</ele>
        <time>2025-10-24T06:59:02.000Z</time>
      </trkpt>
      <trkpt lat="43.55337" lon="6.82345">
        <ele>178.1</ele>
        <time>2025-10-24T06:59:03.000Z</time>
      </trkpt>
      <trkpt lat="43.55334" lon="6.82351">
        <ele>178</ele>
        <time>2025-10-24T06:59:04.000Z</time>
      </trkpt>
      <trkpt lat="43.55331" lon="6.82357">
        <ele>178</ele>
        <time>2025-10-24T06:59:05.000Z</time>
      </trkpt>
      <trkpt lat="43.55328" lon="6.82362">
        <ele>178</ele>
        <time>2025-10-24T06:59:06.000Z</time>
      </trkpt>
      <trkpt lat="43.55325" lon="6.82368">
        <ele>178</ele>
        <time>2025-10-24T06:59:07.000Z</time>
      </trkpt>
      <trkpt lat="43.55322" lon="6.82373">
        <ele>178</ele>
        <time>2025-10-24T06:59:08.000Z</time>
      </trkpt>
      <trkpt lat="43.55319" lon="6.82378">
        <ele>178</ele>
        <time>2025-10-24T06:59:09.000Z</time>
      </trkpt>
      <trkpt lat="43.55315" lon="6.82384">
        <ele>178</ele>
        <time>2025-10-24T06:59:10.000Z</time>
      </trkpt>
      <trkpt lat="43.55312" lon="6.82389">
        <ele>178</ele>
        <time>2025-10-24T06:59:11.000Z</time>
      </trkpt>
      <trkpt lat="43.55308" lon="6.82394">
        <ele>178.1</ele>
        <time>2025-10-24T06:59:12.000Z</time>
      </trkpt>
      <trkpt lat="43.55305" lon="6.82399">
        <ele>178.1</ele>
        <time>2025-10-24T06:59:13.000Z</time>
      </trkpt>
      <trkpt lat="43.55301" lon="6.82403">
        <ele>178.1</ele>
        <time>2025-10-24T06:59:14.000Z</time>
      </trkpt>
      <trkpt lat="43.55298" lon="6.82407">
        <ele>178.1</ele>
        <time>2025-10-24T06:59:15.000Z</time>
      </trkpt>
      <trkpt lat="43.55295" lon="6.8241">
        <ele>178.2</ele>
        <time>2025-10-24T06:59:16.000Z</time>
      </trkpt>
      <trkpt lat="43.55292" lon="6.82413">
        <ele>178.2</ele>
        <time>2025-10-24T06:59:17.000Z</time>
      </trkpt>
      <trkpt lat="43.55289" lon="6.82417">
        <ele>178.3</ele>
        <time>2025-10-24T06:59:18.000Z</time>
      </trkpt>
      <trkpt lat="43.55286" lon="6.82421">
        <ele>178.3</ele>
        <time>2025-10-24T06:59:19.000Z</time>
      </trkpt>
      <trkpt lat="43.55284" lon="6.82426">
        <ele>178.6</ele>
        <time>2025-10-24T06:59:20.000Z</time>
      </trkpt>
      <trkpt lat="43.55282" lon="6.82431">
        <ele>178.8</ele>
        <time>2025-10-24T06:59:21.000Z</time>
      </trkpt>
      <trkpt lat="43.55281" lon="6.82436">
        <ele>179</ele>
        <time>2025-10-24T06:59:22.000Z</time>
      </trkpt>
      <trkpt lat="43.5528" lon="6.82442">
        <ele>179.2</ele>
        <time>2025-10-24T06:59:23.000Z</time>
      </trkpt>
      <trkpt lat="43.5528" lon="6.82447">
        <ele>179.4</ele>
        <time>2025-10-24T06:59:24.000Z</time>
      </trkpt>
      <trkpt lat="43.5528" lon="6.82452">
        <ele>179.7</ele>
        <time>2025-10-24T06:59:25.000Z</time>
      </trkpt>
      <trkpt lat="43.55281" lon="6.82457">
        <ele>180.1</ele>
        <time>2025-10-24T06:59:26.000Z</time>
      </trkpt>
      <trkpt lat="43.55282" lon="6.82463">
        <ele>180.6</ele>
        <time>2025-10-24T06:59:27.000Z</time>
      </trkpt>
      <trkpt lat="43.55283" lon="6.82468">
        <ele>181</ele>
        <time>2025-10-24T06:59:28.000Z</time>
      </trkpt>
      <trkpt lat="43.55284" lon="6.82472">
        <ele>181.4</ele>
        <time>2025-10-24T06:59:29.000Z</time>
      </trkpt>
      <trkpt lat="43.55285" lon="6.82475">
        <ele>181.7</ele>
        <time>2025-10-24T06:59:30.000Z</time>
      </trkpt>
      <trkpt lat="43.55287" lon="6.8248">
        <ele>182.1</ele>
        <time>2025-10-24T06:59:31.000Z</time>
      </trkpt>
      <trkpt lat="43.55288" lon="6.82484">
        <ele>182.5</ele>
        <time>2025-10-24T06:59:32.000Z</time>
      </trkpt>
      <trkpt lat="43.55289" lon="6.82487">
        <ele>182.7</ele>
        <time>2025-10-24T06:59:33.000Z</time>
      </trkpt>
      <trkpt lat="43.55291" lon="6.82491">
        <ele>183</ele>
        <time>2025-10-24T06:59:34.000Z</time>
      </trkpt>
      <trkpt lat="43.55292" lon="6.82495">
        <ele>183.4</ele>
        <time>2025-10-24T06:59:35.000Z</time>
      </trkpt>
      <trkpt lat="43.55294" lon="6.82499">
        <ele>183.7</ele>
        <time>2025-10-24T06:59:36.000Z</time>
      </trkpt>
      <trkpt lat="43.55296" lon="6.82504">
        <ele>184</ele>
        <time>2025-10-24T06:59:37.000Z</time>
      </trkpt>
      <trkpt lat="43.55298" lon="6.82508">
        <ele>184.3</ele>
        <time>2025-10-24T06:59:38.000Z</time>
      </trkpt>
      <trkpt lat="43.55299" lon="6.82512">
        <ele>184.6</ele>
        <time>2025-10-24T06:59:39.000Z</time>
      </trkpt>
      <trkpt lat="43.55301" lon="6.82516">
        <ele>184.9</ele>
        <time>2025-10-24T06:59:40.000Z</time>
      </trkpt>
      <trkpt lat="43.55304" lon="6.82521">
        <ele>185.2</ele>
        <time>2025-10-24T06:59:41.000Z</time>
      </trkpt>
      <trkpt lat="43.55306" lon="6.82525">
        <ele>185.5</ele>
        <time>2025-10-24T06:59:42.000Z</time>
      </trkpt>
      <trkpt lat="43.55309" lon="6.82528">
        <ele>185.8</ele>
        <time>2025-10-24T06:59:43.000Z</time>
      </trkpt>
      <trkpt lat="43.55311" lon="6.82531">
        <ele>186</ele>
        <time>2025-10-24T06:59:44.000Z</time>
      </trkpt>
      <trkpt lat="43.55314" lon="6.82535">
        <ele>186.3</ele>
        <time>2025-10-24T06:59:45.000Z</time>
      </trkpt>
      <trkpt lat="43.55317" lon="6.82538">
        <ele>186.6</ele>
        <time>2025-10-24T06:59:46.000Z</time>
      </trkpt>
      <trkpt lat="43.5532" lon="6.82543">
        <ele>187</ele>
        <time>2025-10-24T06:59:47.000Z</time>
      </trkpt>
      <trkpt lat="43.55322" lon="6.82546">
        <ele>187.2</ele>
        <time>2025-10-24T06:59:48.000Z</time>
      </trkpt>
      <trkpt lat="43.55325" lon="6.82549">
        <ele>187.6</ele>
        <time>2025-10-24T06:59:49.000Z</time>
      </trkpt>
      <trkpt lat="43.55329" lon="6.82552">
        <ele>187.9</ele>
        <time>2025-10-24T06:59:50.000Z</time>
      </trkpt>
      <trkpt lat="43.55332" lon="6.82555">
        <ele>188.3</ele>
        <time>2025-10-24T06:59:51.000Z</time>
      </trkpt>
      <trkpt lat="43.55335" lon="6.82558">
        <ele>188.6</ele>
        <time>2025-10-24T06:59:52.000Z</time>
      </trkpt>
      <trkpt lat="43.55339" lon="6.82561">
        <ele>189</ele>
        <time>2025-10-24T06:59:53.000Z</time>
      </trkpt>
      <trkpt lat="43.55342" lon="6.82562">
        <ele>189.3</ele>
        <time>2025-10-24T06:59:54.000Z</time>
      </trkpt>
      <trkpt lat="43.55346" lon="6.82564">
        <ele>189.7</ele>
        <time>2025-10-24T06:59:55.000Z</time>
      </trkpt>
      <trkpt lat="43.5535" lon="6.82565">
        <ele>190.1</ele>
        <time>2025-10-24T06:59:56.000Z</time>
      </trkpt>
      <trkpt lat="43.55354" lon="6.82567">
        <ele>190.5</ele>
        <time>2025-10-24T06:59:57.000Z</time>
      </trkpt>
      <trkpt lat="43.55358" lon="6.82568">
        <ele>191</ele>
        <time>2025-10-24T06:59:58.000Z</time>
      </trkpt>
      <trkpt lat="43.55361" lon="6.82569">
        <ele>191.3</ele>
        <time>2025-10-24T06:59:59.000Z</time>
      </trkpt>
      <trkpt lat="43.55365" lon="6.8257">
        <ele>191.7</ele>
        <time>2025-10-24T07:00:00.000Z</time>
      </trkpt>
      <trkpt lat="43.55368" lon="6.82571">
        <ele>192</ele>
        <time>2025-10-24T07:00:01.000Z</time>
      </trkpt>
      <trkpt lat="43.55372" lon="6.82573">
        <ele>192.5</ele>
        <time>2025-10-24T07:00:02.000Z</time>
      </trkpt>
      <trkpt lat="43.55376" lon="6.82574">
        <ele>192.9</ele>
        <time>2025-10-24T07:00:03.000Z</time>
      </trkpt>
      <trkpt lat="43.55379" lon="6.82574">
        <ele>193.2</ele>
        <time>2025-10-24T07:00:04.000Z</time>
      </trkpt>
      <trkpt lat="43.55383" lon="6.82575">
        <ele>193.5</ele>
        <time>2025-10-24T07:00:05.000Z</time>
      </trkpt>
      <trkpt lat="43.55386" lon="6.82575">
        <ele>193.9</ele>
        <time>2025-10-24T07:00:06.000Z</time>
      </trkpt>
      <trkpt lat="43.5539" lon="6.82576">
        <ele>194.2</ele>
        <time>2025-10-24T07:00:07.000Z</time>
      </trkpt>
      <trkpt lat="43.55394" lon="6.82576">
        <ele>194.6</ele>
        <time>2025-10-24T07:00:08.000Z</time>
      </trkpt>
      <trkpt lat="43.55398" lon="6.82576">
        <ele>195</ele>
        <time>2025-10-24T07:00:09.000Z</time>
      </trkpt>
      <trkpt lat="43.55401" lon="6.82576">
        <ele>195.3</ele>
        <time>2025-10-24T07:00:10.000Z</time>
      </trkpt>
      <trkpt lat="43.55405" lon="6.82576">
        <ele>195.7</ele>
        <time>2025-10-24T07:00:11.000Z</time>
      </trkpt>
      <trkpt lat="43.55408" lon="6.82576">
        <ele>196</ele>
        <time>2025-10-24T07:00:12.000Z</time>
      </trkpt>
      <trkpt lat="43.55413" lon="6.82576">
        <ele>196.4</ele>
        <time>2025-10-24T07:00:13.000Z</time>
      </trkpt>
      <trkpt lat="43.55415" lon="6.82576">
        <ele>196.7</ele>
        <time>2025-10-24T07:00:14.000Z</time>
      </trkpt>
      <trkpt lat="43.5542" lon="6.82576">
        <ele>197</ele>
        <time>2025-10-24T07:00:15.000Z</time>
      </trkpt>
      <trkpt lat="43.55423" lon="6.82576">
        <ele>197.2</ele>
        <time>2025-10-24T07:00:16.000Z</time>
      </trkpt>
      <trkpt lat="43.55427" lon="6.82576">
        <ele>197.5</ele>
        <time>2025-10-24T07:00:17.000Z</time>
      </trkpt>
      <trkpt lat="43.55432" lon="6.82575">
        <ele>197.7</ele>
        <time>2025-10-24T07:00:18.000Z</time>
      </trkpt>
      <trkpt lat="43.55435" lon="6.82575">
        <ele>197.9</ele>
        <time>2025-10-24T07:00:19.000Z</time>
      </trkpt>
      <trkpt lat="43.55439" lon="6.82574">
        <ele>198.1</ele>
        <time>2025-10-24T07:00:20.000Z</time>
      </trkpt>
      <trkpt lat="43.55442" lon="6.82573">
        <ele>198.2</ele>
        <time>2025-10-24T07:00:21.000Z</time>
      </trkpt>
      <trkpt lat="43.55445" lon="6.82572">
        <ele>198.3</ele>
        <time>2025-10-24T07:00:22.000Z</time>
      </trkpt>
      <trkpt lat="43.5545" lon="6.82571">
        <ele>198.4</ele>
        <time>2025-10-24T07:00:23.000Z</time>
      </trkpt>
      <trkpt lat="43.55453" lon="6.8257">
        <ele>198.5</ele>
        <time>2025-10-24T07:00:24.000Z</time>
      </trkpt>
      <trkpt lat="43.55456" lon="6.8257">
        <ele>198.5</ele>
        <time>2025-10-24T07:00:25.000Z</time>
      </trkpt>
      <trkpt lat="43.5546" lon="6.8257">
        <ele>198.6</ele>
        <time>2025-10-24T07:00:26.000Z</time>
      </trkpt>
      <trkpt lat="43.55464" lon="6.82571">
        <ele>198.6</ele>
        <time>2025-10-24T07:00:27.000Z</time>
      </trkpt>
      <trkpt lat="43.55468" lon="6.82572">
        <ele>198.6</ele>
        <time>2025-10-24T07:00:28.000Z</time>
      </trkpt>
      <trkpt lat="43.55472" lon="6.82574">
        <ele>198.5</ele>
        <time>2025-10-24T07:00:29.000Z</time>
      </trkpt>
      <trkpt lat="43.55475" lon="6.82575">
        <ele>198.5</ele>
        <time>2025-10-24T07:00:30.000Z</time>
      </trkpt>
      <trkpt lat="43.55479" lon="6.82577">
        <ele>198.5</ele>
        <time>2025-10-24T07:00:31.000Z</time>
      </trkpt>
      <trkpt lat="43.55483" lon="6.82578">
        <ele>198.4</ele>
        <time>2025-10-24T07:00:32.000Z</time>
      </trkpt>
      <trkpt lat="43.55487" lon="6.82579">
        <ele>198.4</ele>
        <time>2025-10-24T07:00:33.000Z</time>
      </trkpt>
      <trkpt lat="43.55492" lon="6.82579">
        <ele>198.4</ele>
        <time>2025-10-24T07:00:34.000Z</time>
      </trkpt>
      <trkpt lat="43.55496" lon="6.82578">
        <ele>198.3</ele>
        <time>2025-10-24T07:00:35.000Z</time>
      </trkpt>
      <trkpt lat="43.555" lon="6.82576">
        <ele>198.3</ele>
        <time>2025-10-24T07:00:36.000Z</time>
      </trkpt>
      <trkpt lat="43.55503" lon="6.82574">
        <ele>198.3</ele>
        <time>2025-10-24T07:00:37.000Z</time>
      </trkpt>
      <trkpt lat="43.55506" lon="6.82572">
        <ele>198.3</ele>
        <time>2025-10-24T07:00:38.000Z</time>
      </trkpt>
      <trkpt lat="43.55511" lon="6.82571">
        <ele>198.3</ele>
        <time>2025-10-24T07:00:39.000Z</time>
      </trkpt>
      <trkpt lat="43.55515" lon="6.8257">
        <ele>198.3</ele>
        <time>2025-10-24T07:00:40.000Z</time>
      </trkpt>
      <trkpt lat="43.55518" lon="6.82571">
        <ele>198.3</ele>
        <time>2025-10-24T07:00:41.000Z</time>
      </trkpt>
      <trkpt lat="43.55522" lon="6.82573">
        <ele>198.3</ele>
        <time>2025-10-24T07:00:42.000Z</time>
      </trkpt>
      <trkpt lat="43.55524" lon="6.82576">
        <ele>198.3</ele>
        <time>2025-10-24T07:00:43.000Z</time>
      </trkpt>
      <trkpt lat="43.55527" lon="6.82581">
        <ele>198.4</ele>
        <time>2025-10-24T07:00:44.000Z</time>
      </trkpt>
      <trkpt lat="43.5553" lon="6.82585">
        <ele>198.4</ele>
        <time>2025-10-24T07:00:45.000Z</time>
      </trkpt>
      <trkpt lat="43.55532" lon="6.8259">
        <ele>198.5</ele>
        <time>2025-10-24T07:00:46.000Z</time>
      </trkpt>
      <trkpt lat="43.55534" lon="6.82594">
        <ele>198.5</ele>
        <time>2025-10-24T07:00:47.000Z</time>
      </trkpt>
      <trkpt lat="43.55537" lon="6.82597">
        <ele>198.6</ele>
        <time>2025-10-24T07:00:48.000Z</time>
      </trkpt>
      <trkpt lat="43.5554" lon="6.82602">
        <ele>198.7</ele>
        <time>2025-10-24T07:00:49.000Z</time>
      </trkpt>
      <trkpt lat="43.55544" lon="6.82605">
        <ele>198.8</ele>
        <time>2025-10-24T07:00:50.000Z</time>
      </trkpt>
      <trkpt lat="43.55546" lon="6.82607">
        <ele>198.9</ele>
        <time>2025-10-24T07:00:51.000Z</time>
      </trkpt>
      <trkpt lat="43.5555" lon="6.82609">
        <ele>199</ele>
        <time>2025-10-24T07:00:52.000Z</time>
      </trkpt>
      <trkpt lat="43.55554" lon="6.82611">
        <ele>199.1</ele>
        <time>2025-10-24T07:00:53.000Z</time>
      </trkpt>
      <trkpt lat="43.55558" lon="6.82612">
        <ele>199.3</ele>
        <time>2025-10-24T07:00:54.000Z</time>
      </trkpt>
      <trkpt lat="43.55562" lon="6.82613">
        <ele>199.4</ele>
        <time>2025-10-24T07:00:55.000Z</time>
      </trkpt>
      <trkpt lat="43.55566" lon="6.82614">
        <ele>199.6</ele>
        <time>2025-10-24T07:00:56.000Z</time>
      </trkpt>
      <trkpt lat="43.5557" lon="6.82614">
        <ele>199.8</ele>
        <time>2025-10-24T07:00:57.000Z</time>
      </trkpt>
      <trkpt lat="43.55573" lon="6.82615">
        <ele>199.9</ele>
        <time>2025-10-24T07:00:58.000Z</time>
      </trkpt>
      <trkpt lat="43.55578" lon="6.82615">
        <ele>200.2</ele>
        <time>2025-10-24T07:00:59.000Z</time>
      </trkpt>
      <trkpt lat="43.55582" lon="6.82614">
        <ele>200.3</ele>
        <time>2025-10-24T07:01:00.000Z</time>
      </trkpt>
      <trkpt lat="43.55586" lon="6.82613">
        <ele>200.5</ele>
        <time>2025-10-24T07:01:01.000Z</time>
      </trkpt>
      <trkpt lat="43.55589" lon="6.82613">
        <ele>200.7</ele>
        <time>2025-10-24T07:01:02.000Z</time>
      </trkpt>
      <trkpt lat="43.55593" lon="6.82612">
        <ele>200.9</ele>
        <time>2025-10-24T07:01:03.000Z</time>
      </trkpt>
      <trkpt lat="43.55596" lon="6.82611">
        <ele>201</ele>
        <time>2025-10-24T07:01:04.000Z</time>
      </trkpt>
      <trkpt lat="43.556" lon="6.82609">
        <ele>201.2</ele>
        <time>2025-10-24T07:01:05.000Z</time>
      </trkpt>
      <trkpt lat="43.55602" lon="6.82608">
        <ele>201.3</ele>
        <time>2025-10-24T07:01:06.000Z</time>
      </trkpt>
      <trkpt lat="43.55605" lon="6.82605">
        <ele>201.5</ele>
        <time>2025-10-24T07:01:07.000Z</time>
      </trkpt>
      <trkpt lat="43.55608" lon="6.82602">
        <ele>201.6</ele>
        <time>2025-10-24T07:01:08.000Z</time>
      </trkpt>
      <trkpt lat="43.55611" lon="6.82599">
        <ele>201.8</ele>
        <time>2025-10-24T07:01:09.000Z</time>
      </trkpt>
      <trkpt lat="43.55614" lon="6.82595">
        <ele>202</ele>
        <time>2025-10-24T07:01:10.000Z</time>
      </trkpt>
      <trkpt lat="43.55617" lon="6.82593">
        <ele>202.1</ele>
        <time>2025-10-24T07:01:11.000Z</time>
      </trkpt>
      <trkpt lat="43.5562" lon="6.8259">
        <ele>202.3</ele>
        <time>2025-10-24T07:01:12.000Z</time>
      </trkpt>
      <trkpt lat="43.55623" lon="6.82588">
        <ele>202.5</ele>
        <time>2025-10-24T07:01:13.000Z</time>
      </trkpt>
      <trkpt lat="43.55627" lon="6.82586">
        <ele>202.7</ele>
        <time>2025-10-24T07:01:14.000Z</time>
      </trkpt>
      <trkpt lat="43.55631" lon="6.82585">
        <ele>202.9</ele>
        <time>2025-10-24T07:01:15.000Z</time>
      </trkpt>
      <trkpt lat="43.55635" lon="6.82586">
        <ele>203.1</ele>
        <time>2025-10-24T07:01:16.000Z</time>
      </trkpt>
      <trkpt lat="43.55637" lon="6.82588">
        <ele>203.3</ele>
        <time>2025-10-24T07:01:17.000Z</time>
      </trkpt>
      <trkpt lat="43.5564" lon="6.82591">
        <ele>203.5</ele>
        <time>2025-10-24T07:01:18.000Z</time>
      </trkpt>
      <trkpt lat="43.55643" lon="6.82594">
        <ele>203.7</ele>
        <time>2025-10-24T07:01:19.000Z</time>
      </trkpt>
      <trkpt lat="43.55646" lon="6.82598">
        <ele>203.9</ele>
        <time>2025-10-24T07:01:20.000Z</time>
      </trkpt>
      <trkpt lat="43.55648" lon="6.82602">
        <ele>204.1</ele>
        <time>2025-10-24T07:01:21.000Z</time>
      </trkpt>
      <trkpt lat="43.55651" lon="6.82606">
        <ele>204.3</ele>
        <time>2025-10-24T07:01:22.000Z</time>
      </trkpt>
      <trkpt lat="43.55653" lon="6.82609">
        <ele>204.5</ele>
        <time>2025-10-24T07:01:23.000Z</time>
      </trkpt>
      <trkpt lat="43.55655" lon="6.82613">
        <ele>204.6</ele>
        <time>2025-10-24T07:01:24.000Z</time>
      </trkpt>
      <trkpt lat="43.55657" lon="6.82619">
        <ele>204.9</ele>
        <time>2025-10-24T07:01:25.000Z</time>
      </trkpt>
      <trkpt lat="43.55657" lon="6.82624">
        <ele>205.1</ele>
        <time>2025-10-24T07:01:26.000Z</time>
      </trkpt>
      <trkpt lat="43.55656" lon="6.82629">
        <ele>205.3</ele>
        <time>2025-10-24T07:01:27.000Z</time>
      </trkpt>
      <trkpt lat="43.55655" lon="6.82632">
        <ele>205.4</ele>
        <time>2025-10-24T07:01:28.000Z</time>
      </trkpt>
      <trkpt lat="43.55654" lon="6.82637">
        <ele>205.6</ele>
        <time>2025-10-24T07:01:29.000Z</time>
      </trkpt>
      <trkpt lat="43.55653" lon="6.82641">
        <ele>205.8</ele>
        <time>2025-10-24T07:01:30.000Z</time>
      </trkpt>
      <trkpt lat="43.55653" lon="6.82647">
        <ele>206.1</ele>
        <time>2025-10-24T07:01:31.000Z</time>
      </trkpt>
      <trkpt lat="43.55654" lon="6.82651">
        <ele>206.3</ele>
        <time>2025-10-24T07:01:32.000Z</time>
      </trkpt>
      <trkpt lat="43.55655" lon="6.82655">
        <ele>206.5</ele>
        <time>2025-10-24T07:01:33.000Z</time>
      </trkpt>
      <trkpt lat="43.55657" lon="6.82659">
        <ele>206.7</ele>
        <time>2025-10-24T07:01:34.000Z</time>
      </trkpt>
      <trkpt lat="43.55659" lon="6.82662">
        <ele>206.9</ele>
        <time>2025-10-24T07:01:35.000Z</time>
      </trkpt>
      <trkpt lat="43.55662" lon="6.82666">
        <ele>207.2</ele>
        <time>2025-10-24T07:01:36.000Z</time>
      </trkpt>
      <trkpt lat="43.55665" lon="6.82668">
        <ele>207.5</ele>
        <time>2025-10-24T07:01:37.000Z</time>
      </trkpt>
      <trkpt lat="43.55668" lon="6.82669">
        <ele>207.7</ele>
        <time>2025-10-24T07:01:38.000Z</time>
      </trkpt>
      <trkpt lat="43.55671" lon="6.8267">
        <ele>208</ele>
        <time>2025-10-24T07:01:39.000Z</time>
      </trkpt>
      <trkpt lat="43.55675" lon="6.82671">
        <ele>208.3</ele>
        <time>2025-10-24T07:01:40.000Z</time>
      </trkpt>
      <trkpt lat="43.55679" lon="6.82671">
        <ele>208.6</ele>
        <time>2025-10-24T07:01:41.000Z</time>
      </trkpt>
      <trkpt lat="43.55682" lon="6.82671">
        <ele>208.9</ele>
        <time>2025-10-24T07:01:42.000Z</time>
      </trkpt>
      <trkpt lat="43.55685" lon="6.82671">
        <ele>209.2</ele>
        <time>2025-10-24T07:01:43.000Z</time>
      </trkpt>
      <trkpt lat="43.55688" lon="6.8267">
        <ele>209.5</ele>
        <time>2025-10-24T07:01:44.000Z</time>
      </trkpt>
      <trkpt lat="43.55691" lon="6.82669">
        <ele>209.8</ele>
        <time>2025-10-24T07:01:45.000Z</time>
      </trkpt>
      <trkpt lat="43.55694" lon="6.82668">
        <ele>210</ele>
        <time>2025-10-24T07:01:46.000Z</time>
      </trkpt>
      <trkpt lat="43.55698" lon="6.82667">
        <ele>210.4</ele>
        <time>2025-10-24T07:01:47.000Z</time>
      </trkpt>
      <trkpt lat="43.55701" lon="6.82666">
        <ele>210.6</ele>
        <time>2025-10-24T07:01:48.000Z</time>
      </trkpt>
      <trkpt lat="43.55704" lon="6.82665">
        <ele>210.9</ele>
        <time>2025-10-24T07:01:49.000Z</time>
      </trkpt>
      <trkpt lat="43.55707" lon="6.82663">
        <ele>211.1</ele>
        <time>2025-10-24T07:01:50.000Z</time>
      </trkpt>
      <trkpt lat="43.5571" lon="6.82661">
        <ele>211.4</ele>
        <time>2025-10-24T07:01:51.000Z</time>
      </trkpt>
      <trkpt lat="43.55712" lon="6.8266">
        <ele>211.6</ele>
        <time>2025-10-24T07:01:52.000Z</time>
      </trkpt>
      <trkpt lat="43.55716" lon="6.82658">
        <ele>211.8</ele>
        <time>2025-10-24T07:01:53.000Z</time>
      </trkpt>
      <trkpt lat="43.55718" lon="6.82655">
        <ele>212.1</ele>
        <time>2025-10-24T07:01:54.000Z</time>
      </trkpt>
      <trkpt lat="43.5572" lon="6.82653">
        <ele>212.3</ele>
        <time>2025-10-24T07:01:55.000Z</time>
      </trkpt>
      <trkpt lat="43.55723" lon="6.82651">
        <ele>212.5</ele>
        <time>2025-10-24T07:01:56.000Z</time>
      </trkpt>
      <trkpt lat="43.55725" lon="6.82648">
        <ele>212.7</ele>
        <time>2025-10-24T07:01:57.000Z</time>
      </trkpt>
      <trkpt lat="43.55727" lon="6.82645">
        <ele>212.9</ele>
        <time>2025-10-24T07:01:58.000Z</time>
      </trkpt>
      <trkpt lat="43.55729" lon="6.82642">
        <ele>213.1</ele>
        <time>2025-10-24T07:01:59.000Z</time>
      </trkpt>
      <trkpt lat="43.55731" lon="6.82637">
        <ele>213.4</ele>
        <time>2025-10-24T07:02:00.000Z</time>
      </trkpt>
      <trkpt lat="43.55732" lon="6.82633">
        <ele>213.6</ele>
        <time>2025-10-24T07:02:01.000Z</time>
      </trkpt>
      <trkpt lat="43.55734" lon="6.82629">
        <ele>213.9</ele>
        <time>2025-10-24T07:02:02.000Z</time>
      </trkpt>
      <trkpt lat="43.55736" lon="6.82624">
        <ele>214.2</ele>
        <time>2025-10-24T07:02:03.000Z</time>
      </trkpt>
      <trkpt lat="43.55738" lon="6.8262">
        <ele>214.5</ele>
        <time>2025-10-24T07:02:04.000Z</time>
      </trkpt>
      <trkpt lat="43.5574" lon="6.82615">
        <ele>214.8</ele>
        <time>2025-10-24T07:02:05.000Z</time>
      </trkpt>
      <trkpt lat="43.55741" lon="6.8261">
        <ele>215.1</ele>
        <time>2025-10-24T07:02:06.000Z</time>
      </trkpt>
      <trkpt lat="43.55743" lon="6.82605">
        <ele>215.4</ele>
        <time>2025-10-24T07:02:07.000Z</time>
      </trkpt>
      <trkpt lat="43.55744" lon="6.826">
        <ele>215.7</ele>
        <time>2025-10-24T07:02:08.000Z</time>
      </trkpt>
      <trkpt lat="43.55745" lon="6.82596">
        <ele>216</ele>
        <time>2025-10-24T07:02:09.000Z</time>
      </trkpt>
      <trkpt lat="43.55746" lon="6.82591">
        <ele>216.3</ele>
        <time>2025-10-24T07:02:10.000Z</time>
      </trkpt>
      <trkpt lat="43.55747" lon="6.82586">
        <ele>216.5</ele>
        <time>2025-10-24T07:02:11.000Z</time>
      </trkpt>
      <trkpt lat="43.55748" lon="6.82582">
        <ele>216.8</ele>
        <time>2025-10-24T07:02:12.000Z</time>
      </trkpt>
      <trkpt lat="43.5575" lon="6.82577">
        <ele>217.1</ele>
        <time>2025-10-24T07:02:13.000Z</time>
      </trkpt>
      <trkpt lat="43.55752" lon="6.82575">
        <ele>217.2</ele>
        <time>2025-10-24T07:02:14.000Z</time>
      </trkpt>
      <trkpt lat="43.55755" lon="6.82572">
        <ele>217.5</ele>
        <time>2025-10-24T07:02:15.000Z</time>
      </trkpt>
      <trkpt lat="43.55758" lon="6.82571">
        <ele>217.7</ele>
        <time>2025-10-24T07:02:16.000Z</time>
      </trkpt>
      <trkpt lat="43.55762" lon="6.8257">
        <ele>217.9</ele>
        <time>2025-10-24T07:02:17.000Z</time>
      </trkpt>
      <trkpt lat="43.55765" lon="6.8257">
        <ele>218</ele>
        <time>2025-10-24T07:02:18.000Z</time>
      </trkpt>
      <trkpt lat="43.55769" lon="6.82572">
        <ele>218.2</ele>
        <time>2025-10-24T07:02:19.000Z</time>
      </trkpt>
      <trkpt lat="43.55771" lon="6.82573">
        <ele>218.4</ele>
        <time>2025-10-24T07:02:20.000Z</time>
      </trkpt>
      <trkpt lat="43.55774" lon="6.82574">
        <ele>218.6</ele>
        <time>2025-10-24T07:02:21.000Z</time>
      </trkpt>
      <trkpt lat="43.55778" lon="6.82575">
        <ele>218.8</ele>
        <time>2025-10-24T07:02:22.000Z</time>
      </trkpt>
      <trkpt lat="43.55781" lon="6.82575">
        <ele>218.9</ele>
        <time>2025-10-24T07:02:23.000Z</time>
      </trkpt>
      <trkpt lat="43.55784" lon="6.82576">
        <ele>219.1</ele>
        <time>2025-10-24T07:02:24.000Z</time>
      </trkpt>
      <trkpt lat="43.55787" lon="6.82576">
        <ele>219.3</ele>
        <time>2025-10-24T07:02:25.000Z</time>
      </trkpt>
      <trkpt lat="43.5579" lon="6.82576">
        <ele>219.5</ele>
        <time>2025-10-24T07:02:26.000Z</time>
      </trkpt>
      <trkpt lat="43.55793" lon="6.82575">
        <ele>219.7</ele>
        <time>2025-10-24T07:02:27.000Z</time>
      </trkpt>
      <trkpt lat="43.55797" lon="6.82575">
        <ele>220</ele>
        <time>2025-10-24T07:02:28.000Z</time>
      </trkpt>
      <trkpt lat="43.55801" lon="6.82574">
        <ele>220.3</ele>
        <time>2025-10-24T07:02:29.000Z</time>
      </trkpt>
      <trkpt lat="43.55803" lon="6.82573">
        <ele>220.5</ele>
        <time>2025-10-24T07:02:30.000Z</time>
      </trkpt>
      <trkpt lat="43.55806" lon="6.82571">
        <ele>220.7</ele>
        <time>2025-10-24T07:02:31.000Z</time>
      </trkpt>
      <trkpt lat="43.55809" lon="6.82569">
        <ele>220.9</ele>
        <time>2025-10-24T07:02:32.000Z</time>
      </trkpt>
      <trkpt lat="43.55811" lon="6.82566">
        <ele>221.2</ele>
        <time>2025-10-24T07:02:33.000Z</time>
      </trkpt>
      <trkpt lat="43.55814" lon="6.82563">
        <ele>221.4</ele>
        <time>2025-10-24T07:02:34.000Z</time>
      </trkpt>
      <trkpt lat="43.55816" lon="6.8256">
        <ele>221.7</ele>
        <time>2025-10-24T07:02:35.000Z</time>
      </trkpt>
      <trkpt lat="43.55818" lon="6.82556">
        <ele>222</ele>
        <time>2025-10-24T07:02:36.000Z</time>
      </trkpt>
      <trkpt lat="43.5582" lon="6.82552">
        <ele>222.2</ele>
        <time>2025-10-24T07:02:37.000Z</time>
      </trkpt>
      <trkpt lat="43.55821" lon="6.82548">
        <ele>222.4</ele>
        <time>2025-10-24T07:02:38.000Z</time>
      </trkpt>
      <trkpt lat="43.55823" lon="6.82544">
        <ele>222.7</ele>
        <time>2025-10-24T07:02:39.000Z</time>
      </trkpt>
      <trkpt lat="43.55826" lon="6.82541">
        <ele>222.9</ele>
        <time>2025-10-24T07:02:40.000Z</time>
      </trkpt>
      <trkpt lat="43.55829" lon="6.82539">
        <ele>223.1</ele>
        <time>2025-10-24T07:02:41.000Z</time>
      </trkpt>
      <trkpt lat="43.55832" lon="6.82537">
        <ele>223.4</ele>
        <time>2025-10-24T07:02:42.000Z</time>
      </trkpt>
      <trkpt lat="43.55836" lon="6.82535">
        <ele>223.7</ele>
        <time>2025-10-24T07:02:43.000Z</time>
      </trkpt>
      <trkpt lat="43.55839" lon="6.82532">
        <ele>223.9</ele>
        <time>2025-10-24T07:02:44.000Z</time>
      </trkpt>
      <trkpt lat="43.55841" lon="6.8253">
        <ele>224.1</ele>
        <time>2025-10-24T07:02:45.000Z</time>
      </trkpt>
      <trkpt lat="43.55843" lon="6.82527">
        <ele>224.3</ele>
        <time>2025-10-24T07:02:46.000Z</time>
      </trkpt>
      <trkpt lat="43.55846" lon="6.82524">
        <ele>224.6</ele>
        <time>2025-10-24T07:02:47.000Z</time>
      </trkpt>
      <trkpt lat="43.55848" lon="6.8252">
        <ele>224.8</ele>
        <time>2025-10-24T07:02:48.000Z</time>
      </trkpt>
      <trkpt lat="43.5585" lon="6.82517">
        <ele>225</ele>
        <time>2025-10-24T07:02:49.000Z</time>
      </trkpt>
      <trkpt lat="43.55852" lon="6.82514">
        <ele>225.3</ele>
        <time>2025-10-24T07:02:50.000Z</time>
      </trkpt>
      <trkpt lat="43.55855" lon="6.82511">
        <ele>225.5</ele>
        <time>2025-10-24T07:02:51.000Z</time>
      </trkpt>
      <trkpt lat="43.55858" lon="6.82509">
        <ele>225.7</ele>
        <time>2025-10-24T07:02:52.000Z</time>
      </trkpt>
      <trkpt lat="43.55861" lon="6.82508">
        <ele>225.9</ele>
        <time>2025-10-24T07:02:53.000Z</time>
      </trkpt>
      <trkpt lat="43.55864" lon="6.82507">
        <ele>226.1</ele>
        <time>2025-10-24T07:02:54.000Z</time>
      </trkpt>
      <trkpt lat="43.55867" lon="6.82507">
        <ele>226.3</ele>
        <time>2025-10-24T07:02:55.000Z</time>
      </trkpt>
      <trkpt lat="43.5587" lon="6.82506">
        <ele>226.5</ele>
        <time>2025-10-24T07:02:56.000Z</time>
      </trkpt>
      <trkpt lat="43.55873" lon="6.82505">
        <ele>226.7</ele>
        <time>2025-10-24T07:02:57.000Z</time>
      </trkpt>
      <trkpt lat="43.55877" lon="6.82505">
        <ele>226.9</ele>
        <time>2025-10-24T07:02:58.000Z</time>
      </trkpt>
      <trkpt lat="43.5588" lon="6.82504">
        <ele>227.1</ele>
        <time>2025-10-24T07:02:59.000Z</time>
      </trkpt>
      <trkpt lat="43.55883" lon="6.82503">
        <ele>227.3</ele>
        <time>2025-10-24T07:03:00.000Z</time>
      </trkpt>
      <trkpt lat="43.55887" lon="6.82503">
        <ele>227.5</ele>
        <time>2025-10-24T07:03:01.000Z</time>
      </trkpt>
      <trkpt lat="43.5589" lon="6.82502">
        <ele>227.7</ele>
        <time>2025-10-24T07:03:02.000Z</time>
      </trkpt>
      <trkpt lat="43.55893" lon="6.82501">
        <ele>227.9</ele>
        <time>2025-10-24T07:03:03.000Z</time>
      </trkpt>
      <trkpt lat="43.55896" lon="6.82501">
        <ele>228.1</ele>
        <time>2025-10-24T07:03:04.000Z</time>
      </trkpt>
      <trkpt lat="43.55899" lon="6.825">
        <ele>228.3</ele>
        <time>2025-10-24T07:03:05.000Z</time>
      </trkpt>
      <trkpt lat="43.55903" lon="6.825">
        <ele>228.6</ele>
        <time>2025-10-24T07:03:06.000Z</time>
      </trkpt>
      <trkpt lat="43.55905" lon="6.82499">
        <ele>228.8</ele>
        <time>2025-10-24T07:03:07.000Z</time>
      </trkpt>
      <trkpt lat="43.55908" lon="6.82498">
        <ele>229</ele>
        <time>2025-10-24T07:03:08.000Z</time>
      </trkpt>
      <trkpt lat="43.55912" lon="6.82497">
        <ele>229.3</ele>
        <time>2025-10-24T07:03:09.000Z</time>
      </trkpt>
      <trkpt lat="43.55915" lon="6.82496">
        <ele>229.5</ele>
        <time>2025-10-24T07:03:10.000Z</time>
      </trkpt>
      <trkpt lat="43.55917" lon="6.82495">
        <ele>229.8</ele>
        <time>2025-10-24T07:03:11.000Z</time>
      </trkpt>
      <trkpt lat="43.5592" lon="6.82494">
        <ele>230</ele>
        <time>2025-10-24T07:03:12.000Z</time>
      </trkpt>
      <trkpt lat="43.55923" lon="6.82493">
        <ele>230.2</ele>
        <time>2025-10-24T07:03:13.000Z</time>
      </trkpt>
      <trkpt lat="43.55926" lon="6.82493">
        <ele>230.5</ele>
        <time>2025-10-24T07:03:14.000Z</time>
      </trkpt>
      <trkpt lat="43.55928" lon="6.82493">
        <ele>230.6</ele>
        <time>2025-10-24T07:03:15.000Z</time>
      </trkpt>
      <trkpt lat="43.55931" lon="6.82492">
        <ele>230.8</ele>
        <time>2025-10-24T07:03:16.000Z</time>
      </trkpt>
      <trkpt lat="43.55933" lon="6.82492">
        <ele>230.9</ele>
        <time>2025-10-24T07:03:17.000Z</time>
      </trkpt>
      <trkpt lat="43.55935" lon="6.82492">
        <ele>231.1</ele>
        <time>2025-10-24T07:03:18.000Z</time>
      </trkpt>
      <trkpt lat="43.55937" lon="6.82492">
        <ele>231.2</ele>
        <time>2025-10-24T07:03:19.000Z</time>
      </trkpt>
      <trkpt lat="43.55938" lon="6.82492">
        <ele>231.3</ele>
        <time>2025-10-24T07:03:20.000Z</time>
      </trkpt>
      <trkpt lat="43.55939" lon="6.82493">
        <ele>231.3</ele>
        <time>2025-10-24T07:03:21.000Z</time>
      </trkpt>
      <trkpt lat="43.55939" lon="6.82492">
        <ele>231.3</ele>
        <time>2025-10-24T07:03:22.000Z</time>
      </trkpt>
      <trkpt lat="43.55939" lon="6.82492">
        <ele>231.3</ele>
        <time>2025-10-24T07:03:23.000Z</time>
      </trkpt>
      <trkpt lat="43.55939" lon="6.82492">
        <ele>231.3</ele>
        <time>2025-10-24T07:03:24.000Z</time>
      </trkpt>
      <trkpt lat="43.55939" lon="6.82492">
        <ele>231.4</ele>
        <time>2025-10-24T07:03:25.000Z</time>
      </trkpt>
      <trkpt lat="43.55939" lon="6.82492">
        <ele>231.4</ele>
        <time>2025-10-24T07:03:26.000Z</time>
      </trkpt>
      <trkpt lat="43.55939" lon="6.82493">
        <ele>231.4</ele>
        <time>2025-10-24T07:03:27.000Z</time>
      </trkpt>
      <trkpt lat="43.5594" lon="6.82492">
        <ele>231.4</ele>
        <time>2025-10-24T07:03:28.000Z</time>
      </trkpt>
      <trkpt lat="43.5594" lon="6.82492">
        <ele>231.4</ele>
        <time>2025-10-24T07:03:29.000Z</time>
      </trkpt>
      <trkpt lat="43.5594" lon="6.82492">
        <ele>231.5</ele>
        <time>2025-10-24T07:03:30.000Z</time>
      </trkpt>
      <trkpt lat="43.55941" lon="6.82492">
        <ele>231.6</ele>
        <time>2025-10-24T07:03:31.000Z</time>
      </trkpt>
      <trkpt lat="43.55943" lon="6.82491">
        <ele>231.7</ele>
        <time>2025-10-24T07:03:32.000Z</time>
      </trkpt>
      <trkpt lat="43.55945" lon="6.82491">
        <ele>231.8</ele>
        <time>2025-10-24T07:03:33.000Z</time>
      </trkpt>
      <trkpt lat="43.55947" lon="6.8249">
        <ele>232</ele>
        <time>2025-10-24T07:03:34.000Z</time>
      </trkpt>
      <trkpt lat="43.55949" lon="6.8249">
        <ele>232.1</ele>
        <time>2025-10-24T07:03:35.000Z</time>
      </trkpt>
      <trkpt lat="43.55951" lon="6.8249">
        <ele>232.3</ele>
        <time>2025-10-24T07:03:36.000Z</time>
      </trkpt>
      <trkpt lat="43.55952" lon="6.82491">
        <ele>232.3</ele>
        <time>2025-10-24T07:03:37.000Z</time>
      </trkpt>
      <trkpt lat="43.55952" lon="6.82491">
        <ele>232.4</ele>
        <time>2025-10-24T07:03:38.000Z</time>
      </trkpt>
      <trkpt lat="43.55953" lon="6.82491">
        <ele>232.4</ele>
        <time>2025-10-24T07:03:39.000Z</time>
      </trkpt>
      <trkpt lat="43.55952" lon="6.82491">
        <ele>232.4</ele>
        <time>2025-10-24T07:03:40.000Z</time>
      </trkpt>
      <trkpt lat="43.55952" lon="6.82492">
        <ele>232.4</ele>
        <time>2025-10-24T07:03:41.000Z</time>
      </trkpt>
      <trkpt lat="43.55952" lon="6.82492">
        <ele>232.5</ele>
        <time>2025-10-24T07:03:42.000Z</time>
      </trkpt>
      <trkpt lat="43.55952" lon="6.82492">
        <ele>232.5</ele>
        <time>2025-10-24T07:03:43.000Z</time>
      </trkpt>
      <trkpt lat="43.55953" lon="6.82492">
        <ele>232.5</ele>
        <time>2025-10-24T07:03:44.000Z</time>
      </trkpt>
      <trkpt lat="43.55953" lon="6.82493">
        <ele>232.6</ele>
        <time>2025-10-24T07:03:45.000Z</time>
      </trkpt>
      <trkpt lat="43.55953" lon="6.82493">
        <ele>232.6</ele>
        <time>2025-10-24T07:03:46.000Z</time>
      </trkpt>
      <trkpt lat="43.55952" lon="6.82493">
        <ele>232.7</ele>
        <time>2025-10-24T07:03:47.000Z</time>
      </trkpt>
      <trkpt lat="43.55952" lon="6.82494">
        <ele>232.7</ele>
        <time>2025-10-24T07:03:48.000Z</time>
      </trkpt>
      <trkpt lat="43.55952" lon="6.82494">
        <ele>232.7</ele>
        <time>2025-10-24T07:03:49.000Z</time>
      </trkpt>
      <trkpt lat="43.55952" lon="6.82494">
        <ele>232.7</ele>
        <time>2025-10-24T07:03:50.000Z</time>
      </trkpt>
      <trkpt lat="43.55952" lon="6.82494">
        <ele>232.7</ele>
        <time>2025-10-24T07:03:51.000Z</time>
      </trkpt>
      <trkpt lat="43.55952" lon="6.82494">
        <ele>232.7</ele>
        <time>2025-10-24T07:03:52.000Z</time>
      </trkpt>
      <trkpt lat="43.55952" lon="6.82494">
        <ele>232.7</ele>
        <time>2025-10-24T07:03:53.000Z</time>
      </trkpt>
      <trkpt lat="43.55952" lon="6.82494">
        <ele>232.7</ele>
        <time>2025-10-24T07:03:54.000Z</time>
      </trkpt>
      <trkpt lat="43.55952" lon="6.82494">
        <ele>232.7</ele>
        <time>2025-10-24T07:03:55.000Z</time>
      </trkpt>
      <trkpt lat="43.55952" lon="6.82494">
        <ele>232.7</ele>
        <time>2025-10-24T07:03:56.000Z</time>
      </trkpt>
      <trkpt lat="43.55952" lon="6.82494">
        <ele>232.7</ele>
        <time>2025-10-24T07:03:57.000Z</time>
      </trkpt>
      <trkpt lat="43.55953" lon="6.82494">
        <ele>232.8</ele>
        <time>2025-10-24T07:03:58.000Z</time>
      </trkpt>
      <trkpt lat="43.55954" lon="6.82496">
        <ele>232.9</ele>
        <time>2025-10-24T07:03:59.000Z</time>
      </trkpt>
      <trkpt lat="43.55956" lon="6.82498">
        <ele>233.1</ele>
        <time>2025-10-24T07:04:00.000Z</time>
      </trkpt>
      <trkpt lat="43.55958" lon="6.82501">
        <ele>233.3</ele>
        <time>2025-10-24T07:04:01.000Z</time>
      </trkpt>
      <trkpt lat="43.55961" lon="6.82503">
        <ele>233.5</ele>
        <time>2025-10-24T07:04:02.000Z</time>
      </trkpt>
      <trkpt lat="43.55963" lon="6.82507">
        <ele>233.7</ele>
        <time>2025-10-24T07:04:03.000Z</time>
      </trkpt>
      <trkpt lat="43.55966" lon="6.8251">
        <ele>233.9</ele>
        <time>2025-10-24T07:04:04.000Z</time>
      </trkpt>
      <trkpt lat="43.55969" lon="6.82513">
        <ele>234</ele>
        <time>2025-10-24T07:04:05.000Z</time>
      </trkpt>
      <trkpt lat="43.55971" lon="6.82516">
        <ele>234.2</ele>
        <time>2025-10-24T07:04:06.000Z</time>
      </trkpt>
      <trkpt lat="43.55974" lon="6.82518">
        <ele>234.3</ele>
        <time>2025-10-24T07:04:07.000Z</time>
      </trkpt>
      <trkpt lat="43.55977" lon="6.82521">
        <ele>234.4</ele>
        <time>2025-10-24T07:04:08.000Z</time>
      </trkpt>
      <trkpt lat="43.55979" lon="6.82523">
        <ele>234.5</ele>
        <time>2025-10-24T07:04:09.000Z</time>
      </trkpt>
      <trkpt lat="43.55981" lon="6.82525">
        <ele>234.7</ele>
        <time>2025-10-24T07:04:10.000Z</time>
      </trkpt>
      <trkpt lat="43.55984" lon="6.82527">
        <ele>234.8</ele>
        <time>2025-10-24T07:04:11.000Z</time>
      </trkpt>
      <trkpt lat="43.55987" lon="6.82529">
        <ele>234.9</ele>
        <time>2025-10-24T07:04:12.000Z</time>
      </trkpt>
      <trkpt lat="43.5599" lon="6.82531">
        <ele>235</ele>
        <time>2025-10-24T07:04:13.000Z</time>
      </trkpt>
      <trkpt lat="43.55993" lon="6.82533">
        <ele>235.1</ele>
        <time>2025-10-24T07:04:14.000Z</time>
      </trkpt>
      <trkpt lat="43.55996" lon="6.82535">
        <ele>235.2</ele>
        <time>2025-10-24T07:04:15.000Z</time>
      </trkpt>
      <trkpt lat="43.55999" lon="6.82537">
        <ele>235.3</ele>
        <time>2025-10-24T07:04:16.000Z</time>
      </trkpt>
      <trkpt lat="43.56002" lon="6.82538">
        <ele>235.3</ele>
        <time>2025-10-24T07:04:17.000Z</time>
      </trkpt>
      <trkpt lat="43.56005" lon="6.82539">
        <ele>235.4</ele>
        <time>2025-10-24T07:04:18.000Z</time>
      </trkpt>
      <trkpt lat="43.56008" lon="6.8254">
        <ele>235.5</ele>
        <time>2025-10-24T07:04:19.000Z</time>
      </trkpt>
      <trkpt lat="43.56011" lon="6.82541">
        <ele>235.5</ele>
        <time>2025-10-24T07:04:20.000Z</time>
      </trkpt>
      <trkpt lat="43.56014" lon="6.82541">
        <ele>235.6</ele>
        <time>2025-10-24T07:04:21.000Z</time>
      </trkpt>
      <trkpt lat="43.56016" lon="6.82541">
        <ele>235.7</ele>
        <time>2025-10-24T07:04:22.000Z</time>
      </trkpt>
      <trkpt lat="43.56019" lon="6.82541">
        <ele>235.7</ele>
        <time>2025-10-24T07:04:23.000Z</time>
      </trkpt>
      <trkpt lat="43.56022" lon="6.82541">
        <ele>235.8</ele>
        <time>2025-10-24T07:04:24.000Z</time>
      </trkpt>
      <trkpt lat="43.56025" lon="6.82541">
        <ele>235.8</ele>
        <time>2025-10-24T07:04:25.000Z</time>
      </trkpt>
      <trkpt lat="43.56028" lon="6.82541">
        <ele>235.9</ele>
        <time>2025-10-24T07:04:26.000Z</time>
      </trkpt>
      <trkpt lat="43.56031" lon="6.82541">
        <ele>236</ele>
        <time>2025-10-24T07:04:27.000Z</time>
      </trkpt>
      <trkpt lat="43.56033" lon="6.82541">
        <ele>236</ele>
        <time>2025-10-24T07:04:28.000Z</time>
      </trkpt>
      <trkpt lat="43.56037" lon="6.82541">
        <ele>236.1</ele>
        <time>2025-10-24T07:04:29.000Z</time>
      </trkpt>
      <trkpt lat="43.56039" lon="6.82541">
        <ele>236.1</ele>
        <time>2025-10-24T07:04:30.000Z</time>
      </trkpt>
      <trkpt lat="43.56042" lon="6.82542">
        <ele>236.2</ele>
        <time>2025-10-24T07:04:31.000Z</time>
      </trkpt>
      <trkpt lat="43.56044" lon="6.82542">
        <ele>236.2</ele>
        <time>2025-10-24T07:04:32.000Z</time>
      </trkpt>
      <trkpt lat="43.56047" lon="6.82542">
        <ele>236.3</ele>
        <time>2025-10-24T07:04:33.000Z</time>
      </trkpt>
      <trkpt lat="43.56049" lon="6.82541">
        <ele>236.3</ele>
        <time>2025-10-24T07:04:34.000Z</time>
      </trkpt>
      <trkpt lat="43.56052" lon="6.82539">
        <ele>236.4</ele>
        <time>2025-10-24T07:04:35.000Z</time>
      </trkpt>
      <trkpt lat="43.56054" lon="6.82538">
        <ele>236.4</ele>
        <time>2025-10-24T07:04:36.000Z</time>
      </trkpt>
      <trkpt lat="43.56057" lon="6.82535">
        <ele>236.4</ele>
        <time>2025-10-24T07:04:37.000Z</time>
      </trkpt>
      <trkpt lat="43.56058" lon="6.82533">
        <ele>236.5</ele>
        <time>2025-10-24T07:04:38.000Z</time>
      </trkpt>
      <trkpt lat="43.5606" lon="6.8253">
        <ele>236.5</ele>
        <time>2025-10-24T07:04:39.000Z</time>
      </trkpt>
      <trkpt lat="43.56061" lon="6.82528">
        <ele>236.5</ele>
        <time>2025-10-24T07:04:40.000Z</time>
      </trkpt>
      <trkpt lat="43.56063" lon="6.82525">
        <ele>236.5</ele>
        <time>2025-10-24T07:04:41.000Z</time>
      </trkpt>
      <trkpt lat="43.56064" lon="6.82522">
        <ele>236.6</ele>
        <time>2025-10-24T07:04:42.000Z</time>
      </trkpt>
      <trkpt lat="43.56066" lon="6.82518">
        <ele>236.6</ele>
        <time>2025-10-24T07:04:43.000Z</time>
      </trkpt>
      <trkpt lat="43.56068" lon="6.82514">
        <ele>236.7</ele>
        <time>2025-10-24T07:04:44.000Z</time>
      </trkpt>
      <trkpt lat="43.56071" lon="6.82509">
        <ele>236.7</ele>
        <time>2025-10-24T07:04:45.000Z</time>
      </trkpt>
      <trkpt lat="43.56075" lon="6.82503">
        <ele>236.9</ele>
        <time>2025-10-24T07:04:46.000Z</time>
      </trkpt>
      <trkpt lat="43.56078" lon="6.82498">
        <ele>237</ele>
        <time>2025-10-24T07:04:47.000Z</time>
      </trkpt>
      <trkpt lat="43.56082" lon="6.82492">
        <ele>237.2</ele>
        <time>2025-10-24T07:04:48.000Z</time>
      </trkpt>
      <trkpt lat="43.56084" lon="6.82488">
        <ele>237.3</ele>
        <time>2025-10-24T07:04:49.000Z</time>
      </trkpt>
      <trkpt lat="43.56087" lon="6.82483">
        <ele>237.4</ele>
        <time>2025-10-24T07:04:50.000Z</time>
      </trkpt>
      <trkpt lat="43.56088" lon="6.82479">
        <ele>237.5</ele>
        <time>2025-10-24T07:04:51.000Z</time>
      </trkpt>
      <trkpt lat="43.5609" lon="6.82476">
        <ele>237.6</ele>
        <time>2025-10-24T07:04:52.000Z</time>
      </trkpt>
      <trkpt lat="43.56092" lon="6.82472">
        <ele>237.7</ele>
        <time>2025-10-24T07:04:53.000Z</time>
      </trkpt>
      <trkpt lat="43.56094" lon="6.82469">
        <ele>237.8</ele>
        <time>2025-10-24T07:04:54.000Z</time>
      </trkpt>
      <trkpt lat="43.56096" lon="6.82466">
        <ele>237.9</ele>
        <time>2025-10-24T07:04:55.000Z</time>
      </trkpt>
      <trkpt lat="43.56099" lon="6.82463">
        <ele>238</ele>
        <time>2025-10-24T07:04:56.000Z</time>
      </trkpt>
      <trkpt lat="43.56102" lon="6.8246">
        <ele>238.1</ele>
        <time>2025-10-24T07:04:57.000Z</time>
      </trkpt>
      <trkpt lat="43.56105" lon="6.82456">
        <ele>238.2</ele>
        <time>2025-10-24T07:04:58.000Z</time>
      </trkpt>
      <trkpt lat="43.56108" lon="6.82454">
        <ele>238.3</ele>
        <time>2025-10-24T07:04:59.000Z</time>
      </trkpt>
      <trkpt lat="43.56111" lon="6.8245">
        <ele>238.5</ele>
        <time>2025-10-24T07:05:00.000Z</time>
      </trkpt>
      <trkpt lat="43.56115" lon="6.82447">
        <ele>238.6</ele>
        <time>2025-10-24T07:05:01.000Z</time>
      </trkpt>
      <trkpt lat="43.56118" lon="6.82443">
        <ele>238.7</ele>
        <time>2025-10-24T07:05:02.000Z</time>
      </trkpt>
      <trkpt lat="43.56121" lon="6.82441">
        <ele>238.9</ele>
        <time>2025-10-24T07:05:03.000Z</time>
      </trkpt>
      <trkpt lat="43.56125" lon="6.82438">
        <ele>239</ele>
        <time>2025-10-24T07:05:04.000Z</time>
      </trkpt>
      <trkpt lat="43.56129" lon="6.82437">
        <ele>239.2</ele>
        <time>2025-10-24T07:05:05.000Z</time>
      </trkpt>
      <trkpt lat="43.56132" lon="6.82437">
        <ele>239.2</ele>
        <time>2025-10-24T07:05:06.000Z</time>
      </trkpt>
      <trkpt lat="43.56136" lon="6.82437">
        <ele>239.4</ele>
        <time>2025-10-24T07:05:07.000Z</time>
      </trkpt>
      <trkpt lat="43.56141" lon="6.82437">
        <ele>239.5</ele>
        <time>2025-10-24T07:05:08.000Z</time>
      </trkpt>
      <trkpt lat="43.56144" lon="6.82436">
        <ele>239.6</ele>
        <time>2025-10-24T07:05:09.000Z</time>
      </trkpt>
      <trkpt lat="43.56149" lon="6.82436">
        <ele>239.8</ele>
        <time>2025-10-24T07:05:10.000Z</time>
      </trkpt>
      <trkpt lat="43.56152" lon="6.82435">
        <ele>239.9</ele>
        <time>2025-10-24T07:05:11.000Z</time>
      </trkpt>
      <trkpt lat="43.56156" lon="6.82433">
        <ele>240</ele>
        <time>2025-10-24T07:05:12.000Z</time>
      </trkpt>
      <trkpt lat="43.56159" lon="6.82431">
        <ele>240.1</ele>
        <time>2025-10-24T07:05:13.000Z</time>
      </trkpt>
      <trkpt lat="43.56163" lon="6.82428">
        <ele>240.2</ele>
        <time>2025-10-24T07:05:14.000Z</time>
      </trkpt>
      <trkpt lat="43.56166" lon="6.82426">
        <ele>240.3</ele>
        <time>2025-10-24T07:05:15.000Z</time>
      </trkpt>
      <trkpt lat="43.5617" lon="6.82423">
        <ele>240.4</ele>
        <time>2025-10-24T07:05:16.000Z</time>
      </trkpt>
      <trkpt lat="43.56173" lon="6.8242">
        <ele>240.4</ele>
        <time>2025-10-24T07:05:17.000Z</time>
      </trkpt>
      <trkpt lat="43.56177" lon="6.82418">
        <ele>240.5</ele>
        <time>2025-10-24T07:05:18.000Z</time>
      </trkpt>
      <trkpt lat="43.5618" lon="6.82415">
        <ele>240.6</ele>
        <time>2025-10-24T07:05:19.000Z</time>
      </trkpt>
      <trkpt lat="43.56184" lon="6.82411">
        <ele>240.6</ele>
        <time>2025-10-24T07:05:20.000Z</time>
      </trkpt>
      <trkpt lat="43.56187" lon="6.82409">
        <ele>240.7</ele>
        <time>2025-10-24T07:05:21.000Z</time>
      </trkpt>
      <trkpt lat="43.5619" lon="6.82405">
        <ele>240.7</ele>
        <time>2025-10-24T07:05:22.000Z</time>
      </trkpt>
      <trkpt lat="43.56193" lon="6.82402">
        <ele>240.7</ele>
        <time>2025-10-24T07:05:23.000Z</time>
      </trkpt>
      <trkpt lat="43.56195" lon="6.82398">
        <ele>240.8</ele>
        <time>2025-10-24T07:05:24.000Z</time>
      </trkpt>
      <trkpt lat="43.56199" lon="6.82394">
        <ele>240.8</ele>
        <time>2025-10-24T07:05:25.000Z</time>
      </trkpt>
      <trkpt lat="43.56201" lon="6.8239">
        <ele>240.8</ele>
        <time>2025-10-24T07:05:26.000Z</time>
      </trkpt>
      <trkpt lat="43.56204" lon="6.82387">
        <ele>240.8</ele>
        <time>2025-10-24T07:05:27.000Z</time>
      </trkpt>
      <trkpt lat="43.56207" lon="6.82383">
        <ele>240.8</ele>
        <time>2025-10-24T07:05:28.000Z</time>
      </trkpt>
      <trkpt lat="43.56211" lon="6.82379">
        <ele>240.8</ele>
        <time>2025-10-24T07:05:29.000Z</time>
      </trkpt>
      <trkpt lat="43.56214" lon="6.82377">
        <ele>240.8</ele>
        <time>2025-10-24T07:05:30.000Z</time>
      </trkpt>
      <trkpt lat="43.56217" lon="6.82375">
        <ele>240.8</ele>
        <time>2025-10-24T07:05:31.000Z</time>
      </trkpt>
      <trkpt lat="43.56221" lon="6.82372">
        <ele>240.8</ele>
        <time>2025-10-24T07:05:32.000Z</time>
      </trkpt>
      <trkpt lat="43.56225" lon="6.8237">
        <ele>240.9</ele>
        <time>2025-10-24T07:05:33.000Z</time>
      </trkpt>
      <trkpt lat="43.56229" lon="6.82369">
        <ele>240.9</ele>
        <time>2025-10-24T07:05:34.000Z</time>
      </trkpt>
      <trkpt lat="43.56233" lon="6.82368">
        <ele>241</ele>
        <time>2025-10-24T07:05:35.000Z</time>
      </trkpt>
      <trkpt lat="43.56237" lon="6.82368">
        <ele>241</ele>
        <time>2025-10-24T07:05:36.000Z</time>
      </trkpt>
      <trkpt lat="43.5624" lon="6.82368">
        <ele>241</ele>
        <time>2025-10-24T07:05:37.000Z</time>
      </trkpt>
      <trkpt lat="43.56245" lon="6.82368">
        <ele>241</ele>
        <time>2025-10-24T07:05:38.000Z</time>
      </trkpt>
      <trkpt lat="43.5625" lon="6.82368">
        <ele>241</ele>
        <time>2025-10-24T07:05:39.000Z</time>
      </trkpt>
      <trkpt lat="43.56254" lon="6.82367">
        <ele>241</ele>
        <time>2025-10-24T07:05:40.000Z</time>
      </trkpt>
      <trkpt lat="43.56257" lon="6.82367">
        <ele>241</ele>
        <time>2025-10-24T07:05:41.000Z</time>
      </trkpt>
      <trkpt lat="43.56261" lon="6.82366">
        <ele>241</ele>
        <time>2025-10-24T07:05:42.000Z</time>
      </trkpt>
      <trkpt lat="43.56265" lon="6.82366">
        <ele>240.9</ele>
        <time>2025-10-24T07:05:43.000Z</time>
      </trkpt>
      <trkpt lat="43.56269" lon="6.82365">
        <ele>240.9</ele>
        <time>2025-10-24T07:05:44.000Z</time>
      </trkpt>
      <trkpt lat="43.56273" lon="6.82364">
        <ele>240.8</ele>
        <time>2025-10-24T07:05:45.000Z</time>
      </trkpt>
      <trkpt lat="43.56279" lon="6.82363">
        <ele>240.7</ele>
        <time>2025-10-24T07:05:46.000Z</time>
      </trkpt>
      <trkpt lat="43.56282" lon="6.82362">
        <ele>240.6</ele>
        <time>2025-10-24T07:05:47.000Z</time>
      </trkpt>
      <trkpt lat="43.56287" lon="6.82361">
        <ele>240.5</ele>
        <time>2025-10-24T07:05:48.000Z</time>
      </trkpt>
      <trkpt lat="43.56293" lon="6.82359">
        <ele>240.3</ele>
        <time>2025-10-24T07:05:49.000Z</time>
      </trkpt>
      <trkpt lat="43.56298" lon="6.82358">
        <ele>240.1</ele>
        <time>2025-10-24T07:05:50.000Z</time>
      </trkpt>
      <trkpt lat="43.56302" lon="6.82356">
        <ele>239.9</ele>
        <time>2025-10-24T07:05:51.000Z</time>
      </trkpt>
      <trkpt lat="43.56307" lon="6.82355">
        <ele>239.7</ele>
        <time>2025-10-24T07:05:52.000Z</time>
      </trkpt>
      <trkpt lat="43.56313" lon="6.82353">
        <ele>239.5</ele>
        <time>2025-10-24T07:05:53.000Z</time>
      </trkpt>
      <trkpt lat="43.56319" lon="6.82352">
        <ele>239.2</ele>
        <time>2025-10-24T07:05:54.000Z</time>
      </trkpt>
      <trkpt lat="43.56324" lon="6.8235">
        <ele>239</ele>
        <time>2025-10-24T07:05:55.000Z</time>
      </trkpt>
      <trkpt lat="43.56328" lon="6.82348">
        <ele>238.9</ele>
        <time>2025-10-24T07:05:56.000Z</time>
      </trkpt>
      <trkpt lat="43.56334" lon="6.82347">
        <ele>238.6</ele>
        <time>2025-10-24T07:05:57.000Z</time>
      </trkpt>
      <trkpt lat="43.56339" lon="6.82345">
        <ele>238.4</ele>
        <time>2025-10-24T07:05:58.000Z</time>
      </trkpt>
      <trkpt lat="43.56345" lon="6.82343">
        <ele>238.1</ele>
        <time>2025-10-24T07:05:59.000Z</time>
      </trkpt>
      <trkpt lat="43.56351" lon="6.82341">
        <ele>237.8</ele>
        <time>2025-10-24T07:06:00.000Z</time>
      </trkpt>
      <trkpt lat="43.56355" lon="6.8234">
        <ele>237.6</ele>
        <time>2025-10-24T07:06:01.000Z</time>
      </trkpt>
      <trkpt lat="43.56361" lon="6.82339">
        <ele>237.3</ele>
        <time>2025-10-24T07:06:02.000Z</time>
      </trkpt>
      <trkpt lat="43.56367" lon="6.82338">
        <ele>237.1</ele>
        <time>2025-10-24T07:06:03.000Z</time>
      </trkpt>
      <trkpt lat="43.56374" lon="6.82338">
        <ele>236.8</ele>
        <time>2025-10-24T07:06:04.000Z</time>
      </trkpt>
      <trkpt lat="43.5638" lon="6.82337">
        <ele>236.6</ele>
        <time>2025-10-24T07:06:05.000Z</time>
      </trkpt>
      <trkpt lat="43.56386" lon="6.82338">
        <ele>236.4</ele>
        <time>2025-10-24T07:06:06.000Z</time>
      </trkpt>
      <trkpt lat="43.56391" lon="6.82338">
        <ele>236.3</ele>
        <time>2025-10-24T07:06:07.000Z</time>
      </trkpt>
      <trkpt lat="43.56397" lon="6.82338">
        <ele>236.1</ele>
        <time>2025-10-24T07:06:08.000Z</time>
      </trkpt>
      <trkpt lat="43.56404" lon="6.82339">
        <ele>235.8</ele>
        <time>2025-10-24T07:06:09.000Z</time>
      </trkpt>
      <trkpt lat="43.56409" lon="6.82339">
        <ele>235.7</ele>
        <time>2025-10-24T07:06:10.000Z</time>
      </trkpt>
      <trkpt lat="43.56416" lon="6.8234">
        <ele>235.5</ele>
        <time>2025-10-24T07:06:11.000Z</time>
      </trkpt>
      <trkpt lat="43.56421" lon="6.8234">
        <ele>235.3</ele>
        <time>2025-10-24T07:06:12.000Z</time>
      </trkpt>
      <trkpt lat="43.56427" lon="6.82341">
        <ele>235.1</ele>
        <time>2025-10-24T07:06:13.000Z</time>
      </trkpt>
      <trkpt lat="43.56432" lon="6.82341">
        <ele>235</ele>
        <time>2025-10-24T07:06:14.000Z</time>
      </trkpt>
      <trkpt lat="43.56438" lon="6.82342">
        <ele>234.8</ele>
        <time>2025-10-24T07:06:15.000Z</time>
      </trkpt>
      <trkpt lat="43.56444" lon="6.82342">
        <ele>234.7</ele>
        <time>2025-10-24T07:06:16.000Z</time>
      </trkpt>
      <trkpt lat="43.56449" lon="6.82342">
        <ele>234.6</ele>
        <time>2025-10-24T07:06:17.000Z</time>
      </trkpt>
      <trkpt lat="43.56455" lon="6.82341">
        <ele>234.5</ele>
        <time>2025-10-24T07:06:18.000Z</time>
      </trkpt>
      <trkpt lat="43.5646" lon="6.8234">
        <ele>234.4</ele>
        <time>2025-10-24T07:06:19.000Z</time>
      </trkpt>
      <trkpt lat="43.56465" lon="6.82339">
        <ele>234.3</ele>
        <time>2025-10-24T07:06:20.000Z</time>
      </trkpt>
      <trkpt lat="43.5647" lon="6.82338">
        <ele>234.2</ele>
        <time>2025-10-24T07:06:21.000Z</time>
      </trkpt>
      <trkpt lat="43.56475" lon="6.82337">
        <ele>234.2</ele>
        <time>2025-10-24T07:06:22.000Z</time>
      </trkpt>
      <trkpt lat="43.56479" lon="6.82336">
        <ele>234.1</ele>
        <time>2025-10-24T07:06:23.000Z</time>
      </trkpt>
      <trkpt lat="43.56484" lon="6.82335">
        <ele>234</ele>
        <time>2025-10-24T07:06:24.000Z</time>
      </trkpt>
      <trkpt lat="43.56489" lon="6.82333">
        <ele>234</ele>
        <time>2025-10-24T07:06:25.000Z</time>
      </trkpt>
      <trkpt lat="43.56493" lon="6.82332">
        <ele>234</ele>
        <time>2025-10-24T07:06:26.000Z</time>
      </trkpt>
      <trkpt lat="43.56497" lon="6.82331">
        <ele>233.9</ele>
        <time>2025-10-24T07:06:27.000Z</time>
      </trkpt>
      <trkpt lat="43.56501" lon="6.8233">
        <ele>233.9</ele>
        <time>2025-10-24T07:06:28.000Z</time>
      </trkpt>
      <trkpt lat="43.56506" lon="6.82331">
        <ele>233.8</ele>
        <time>2025-10-24T07:06:29.000Z</time>
      </trkpt>
      <trkpt lat="43.56509" lon="6.82333">
        <ele>233.8</ele>
        <time>2025-10-24T07:06:30.000Z</time>
      </trkpt>
      <trkpt lat="43.56513" lon="6.82336">
        <ele>233.6</ele>
        <time>2025-10-24T07:06:31.000Z</time>
      </trkpt>
      <trkpt lat="43.56515" lon="6.8234">
        <ele>233.4</ele>
        <time>2025-10-24T07:06:32.000Z</time>
      </trkpt>
      <trkpt lat="43.56517" lon="6.82346">
        <ele>233.2</ele>
        <time>2025-10-24T07:06:33.000Z</time>
      </trkpt>
      <trkpt lat="43.56519" lon="6.82352">
        <ele>233</ele>
        <time>2025-10-24T07:06:34.000Z</time>
      </trkpt>
      <trkpt lat="43.56521" lon="6.82358">
        <ele>232.8</ele>
        <time>2025-10-24T07:06:35.000Z</time>
      </trkpt>
      <trkpt lat="43.56524" lon="6.82365">
        <ele>232.7</ele>
        <time>2025-10-24T07:06:36.000Z</time>
      </trkpt>
      <trkpt lat="43.56526" lon="6.82372">
        <ele>232.5</ele>
        <time>2025-10-24T07:06:37.000Z</time>
      </trkpt>
      <trkpt lat="43.56529" lon="6.82379">
        <ele>232.3</ele>
        <time>2025-10-24T07:06:38.000Z</time>
      </trkpt>
      <trkpt lat="43.56532" lon="6.82385">
        <ele>232.2</ele>
        <time>2025-10-24T07:06:39.000Z</time>
      </trkpt>
      <trkpt lat="43.56535" lon="6.82392">
        <ele>232.1</ele>
        <time>2025-10-24T07:06:40.000Z</time>
      </trkpt>
      <trkpt lat="43.56539" lon="6.82397">
        <ele>231.9</ele>
        <time>2025-10-24T07:06:41.000Z</time>
      </trkpt>
      <trkpt lat="43.56542" lon="6.82403">
        <ele>231.8</ele>
        <time>2025-10-24T07:06:42.000Z</time>
      </trkpt>
      <trkpt lat="43.56545" lon="6.82409">
        <ele>231.6</ele>
        <time>2025-10-24T07:06:43.000Z</time>
      </trkpt>
      <trkpt lat="43.56548" lon="6.82415">
        <ele>231.5</ele>
        <time>2025-10-24T07:06:44.000Z</time>
      </trkpt>
      <trkpt lat="43.56551" lon="6.82421">
        <ele>231.3</ele>
        <time>2025-10-24T07:06:45.000Z</time>
      </trkpt>
      <trkpt lat="43.56554" lon="6.82426">
        <ele>231.1</ele>
        <time>2025-10-24T07:06:46.000Z</time>
      </trkpt>
      <trkpt lat="43.56558" lon="6.82433">
        <ele>230.9</ele>
        <time>2025-10-24T07:06:47.000Z</time>
      </trkpt>
      <trkpt lat="43.56561" lon="6.82438">
        <ele>230.7</ele>
        <time>2025-10-24T07:06:48.000Z</time>
      </trkpt>
      <trkpt lat="43.56565" lon="6.82443">
        <ele>230.5</ele>
        <time>2025-10-24T07:06:49.000Z</time>
      </trkpt>
      <trkpt lat="43.56568" lon="6.82449">
        <ele>230.3</ele>
        <time>2025-10-24T07:06:50.000Z</time>
      </trkpt>
      <trkpt lat="43.56572" lon="6.82456">
        <ele>230.1</ele>
        <time>2025-10-24T07:06:51.000Z</time>
      </trkpt>
      <trkpt lat="43.56575" lon="6.82463">
        <ele>229.8</ele>
        <time>2025-10-24T07:06:52.000Z</time>
      </trkpt>
      <trkpt lat="43.56578" lon="6.82468">
        <ele>229.6</ele>
        <time>2025-10-24T07:06:53.000Z</time>
      </trkpt>
      <trkpt lat="43.56581" lon="6.82475">
        <ele>229.4</ele>
        <time>2025-10-24T07:06:54.000Z</time>
      </trkpt>
      <trkpt lat="43.56585" lon="6.82482">
        <ele>229.1</ele>
        <time>2025-10-24T07:06:55.000Z</time>
      </trkpt>
      <trkpt lat="43.56588" lon="6.82488">
        <ele>228.9</ele>
        <time>2025-10-24T07:06:56.000Z</time>
      </trkpt>
      <trkpt lat="43.56592" lon="6.82495">
        <ele>228.8</ele>
        <time>2025-10-24T07:06:57.000Z</time>
      </trkpt>
      <trkpt lat="43.56596" lon="6.82501">
        <ele>228.6</ele>
        <time>2025-10-24T07:06:58.000Z</time>
      </trkpt>
      <trkpt lat="43.566" lon="6.82507">
        <ele>228.6</ele>
        <time>2025-10-24T07:06:59.000Z</time>
      </trkpt>
      <trkpt lat="43.56604" lon="6.82513">
        <ele>228.6</ele>
        <time>2025-10-24T07:07:00.000Z</time>
      </trkpt>
      <trkpt lat="43.56608" lon="6.82518">
        <ele>228.6</ele>
        <time>2025-10-24T07:07:01.000Z</time>
      </trkpt>
      <trkpt lat="43.56612" lon="6.82522">
        <ele>228.5</ele>
        <time>2025-10-24T07:07:02.000Z</time>
      </trkpt>
      <trkpt lat="43.56617" lon="6.82525">
        <ele>228.4</ele>
        <time>2025-10-24T07:07:03.000Z</time>
      </trkpt>
      <trkpt lat="43.56622" lon="6.82525">
        <ele>228.2</ele>
        <time>2025-10-24T07:07:04.000Z</time>
      </trkpt>
      <trkpt lat="43.56626" lon="6.82525">
        <ele>228.1</ele>
        <time>2025-10-24T07:07:05.000Z</time>
      </trkpt>
      <trkpt lat="43.56631" lon="6.82525">
        <ele>227.9</ele>
        <time>2025-10-24T07:07:06.000Z</time>
      </trkpt>
      <trkpt lat="43.56636" lon="6.82524">
        <ele>227.8</ele>
        <time>2025-10-24T07:07:07.000Z</time>
      </trkpt>
      <trkpt lat="43.5664" lon="6.82521">
        <ele>227.6</ele>
        <time>2025-10-24T07:07:08.000Z</time>
      </trkpt>
      <trkpt lat="43.56645" lon="6.82518">
        <ele>227.3</ele>
        <time>2025-10-24T07:07:09.000Z</time>
      </trkpt>
      <trkpt lat="43.5665" lon="6.82514">
        <ele>227.1</ele>
        <time>2025-10-24T07:07:10.000Z</time>
      </trkpt>
      <trkpt lat="43.56656" lon="6.8251">
        <ele>226.7</ele>
        <time>2025-10-24T07:07:11.000Z</time>
      </trkpt>
      <trkpt lat="43.56662" lon="6.82504">
        <ele>226.4</ele>
        <time>2025-10-24T07:07:12.000Z</time>
      </trkpt>
      <trkpt lat="43.56669" lon="6.82498">
        <ele>226.1</ele>
        <time>2025-10-24T07:07:13.000Z</time>
      </trkpt>
      <trkpt lat="43.56673" lon="6.82494">
        <ele>225.9</ele>
        <time>2025-10-24T07:07:14.000Z</time>
      </trkpt>
      <trkpt lat="43.56678" lon="6.82489">
        <ele>225.7</ele>
        <time>2025-10-24T07:07:15.000Z</time>
      </trkpt>
      <trkpt lat="43.56684" lon="6.82483">
        <ele>225.5</ele>
        <time>2025-10-24T07:07:16.000Z</time>
      </trkpt>
      <trkpt lat="43.5669" lon="6.82478">
        <ele>225.3</ele>
        <time>2025-10-24T07:07:17.000Z</time>
      </trkpt>
      <trkpt lat="43.56696" lon="6.82472">
        <ele>225.1</ele>
        <time>2025-10-24T07:07:18.000Z</time>
      </trkpt>
      <trkpt lat="43.56702" lon="6.82467">
        <ele>225</ele>
        <time>2025-10-24T07:07:19.000Z</time>
      </trkpt>
      <trkpt lat="43.56708" lon="6.82462">
        <ele>224.9</ele>
        <time>2025-10-24T07:07:20.000Z</time>
      </trkpt>
      <trkpt lat="43.56713" lon="6.82458">
        <ele>224.8</ele>
        <time>2025-10-24T07:07:21.000Z</time>
      </trkpt>
      <trkpt lat="43.56719" lon="6.82454">
        <ele>224.7</ele>
        <time>2025-10-24T07:07:22.000Z</time>
      </trkpt>
      <trkpt lat="43.56724" lon="6.82451">
        <ele>224.6</ele>
        <time>2025-10-24T07:07:23.000Z</time>
      </trkpt>
      <trkpt lat="43.56729" lon="6.82447">
        <ele>224.5</ele>
        <time>2025-10-24T07:07:24.000Z</time>
      </trkpt>
      <trkpt lat="43.56733" lon="6.82445">
        <ele>224.3</ele>
        <time>2025-10-24T07:07:25.000Z</time>
      </trkpt>
      <trkpt lat="43.56739" lon="6.82442">
        <ele>224.2</ele>
        <time>2025-10-24T07:07:26.000Z</time>
      </trkpt>
      <trkpt lat="43.56744" lon="6.82439">
        <ele>224</ele>
        <time>2025-10-24T07:07:27.000Z</time>
      </trkpt>
      <trkpt lat="43.56748" lon="6.82438">
        <ele>223.9</ele>
        <time>2025-10-24T07:07:28.000Z</time>
      </trkpt>
      <trkpt lat="43.56755" lon="6.82435">
        <ele>223.7</ele>
        <time>2025-10-24T07:07:29.000Z</time>
      </trkpt>
      <trkpt lat="43.56758" lon="6.82432">
        <ele>223.5</ele>
        <time>2025-10-24T07:07:30.000Z</time>
      </trkpt>
      <trkpt lat="43.56763" lon="6.82429">
        <ele>223.3</ele>
        <time>2025-10-24T07:07:31.000Z</time>
      </trkpt>
      <trkpt lat="43.56767" lon="6.82426">
        <ele>223.1</ele>
        <time>2025-10-24T07:07:32.000Z</time>
      </trkpt>
      <trkpt lat="43.56772" lon="6.82421">
        <ele>222.8</ele>
        <time>2025-10-24T07:07:33.000Z</time>
      </trkpt>
      <trkpt lat="43.56776" lon="6.82418">
        <ele>222.6</ele>
        <time>2025-10-24T07:07:34.000Z</time>
      </trkpt>
      <trkpt lat="43.5678" lon="6.82414">
        <ele>222.4</ele>
        <time>2025-10-24T07:07:35.000Z</time>
      </trkpt>
      <trkpt lat="43.56786" lon="6.82411">
        <ele>222.1</ele>
        <time>2025-10-24T07:07:36.000Z</time>
      </trkpt>
      <trkpt lat="43.5679" lon="6.82408">
        <ele>221.9</ele>
        <time>2025-10-24T07:07:37.000Z</time>
      </trkpt>
      <trkpt lat="43.56795" lon="6.82406">
        <ele>221.7</ele>
        <time>2025-10-24T07:07:38.000Z</time>
      </trkpt>
      <trkpt lat="43.568" lon="6.82403">
        <ele>221.5</ele>
        <time>2025-10-24T07:07:39.000Z</time>
      </trkpt>
      <trkpt lat="43.56805" lon="6.82401">
        <ele>221.5</ele>
        <time>2025-10-24T07:07:40.000Z</time>
      </trkpt>
      <trkpt lat="43.56811" lon="6.82399">
        <ele>221.4</ele>
        <time>2025-10-24T07:07:41.000Z</time>
      </trkpt>
      <trkpt lat="43.56816" lon="6.82397">
        <ele>221.4</ele>
        <time>2025-10-24T07:07:42.000Z</time>
      </trkpt>
      <trkpt lat="43.5682" lon="6.82397">
        <ele>221.5</ele>
        <time>2025-10-24T07:07:43.000Z</time>
      </trkpt>
      <trkpt lat="43.56826" lon="6.82396">
        <ele>221.5</ele>
        <time>2025-10-24T07:07:44.000Z</time>
      </trkpt>
      <trkpt lat="43.5683" lon="6.82396">
        <ele>221.6</ele>
        <time>2025-10-24T07:07:45.000Z</time>
      </trkpt>
      <trkpt lat="43.56836" lon="6.82396">
        <ele>221.6</ele>
        <time>2025-10-24T07:07:46.000Z</time>
      </trkpt>
      <trkpt lat="43.5684" lon="6.82397">
        <ele>221.7</ele>
        <time>2025-10-24T07:07:47.000Z</time>
      </trkpt>
      <trkpt lat="43.56845" lon="6.82398">
        <ele>221.8</ele>
        <time>2025-10-24T07:07:48.000Z</time>
      </trkpt>
      <trkpt lat="43.56849" lon="6.82399">
        <ele>221.9</ele>
        <time>2025-10-24T07:07:49.000Z</time>
      </trkpt>
      <trkpt lat="43.56853" lon="6.824">
        <ele>222</ele>
        <time>2025-10-24T07:07:50.000Z</time>
      </trkpt>
      <trkpt lat="43.56858" lon="6.82402">
        <ele>222.1</ele>
        <time>2025-10-24T07:07:51.000Z</time>
      </trkpt>
      <trkpt lat="43.56862" lon="6.82403">
        <ele>222.2</ele>
        <time>2025-10-24T07:07:52.000Z</time>
      </trkpt>
      <trkpt lat="43.56867" lon="6.82404">
        <ele>222.3</ele>
        <time>2025-10-24T07:07:53.000Z</time>
      </trkpt>
      <trkpt lat="43.5687" lon="6.82405">
        <ele>222.3</ele>
        <time>2025-10-24T07:07:54.000Z</time>
      </trkpt>
      <trkpt lat="43.56874" lon="6.82405">
        <ele>222.4</ele>
        <time>2025-10-24T07:07:55.000Z</time>
      </trkpt>
      <trkpt lat="43.56878" lon="6.82406">
        <ele>222.5</ele>
        <time>2025-10-24T07:07:56.000Z</time>
      </trkpt>
      <trkpt lat="43.56883" lon="6.82407">
        <ele>222.6</ele>
        <time>2025-10-24T07:07:57.000Z</time>
      </trkpt>
      <trkpt lat="43.56887" lon="6.82408">
        <ele>222.7</ele>
        <time>2025-10-24T07:07:58.000Z</time>
      </trkpt>
      <trkpt lat="43.56891" lon="6.8241">
        <ele>222.8</ele>
        <time>2025-10-24T07:07:59.000Z</time>
      </trkpt>
      <trkpt lat="43.56896" lon="6.82412">
        <ele>222.8</ele>
        <time>2025-10-24T07:08:00.000Z</time>
      </trkpt>
      <trkpt lat="43.569" lon="6.82415">
        <ele>222.9</ele>
        <time>2025-10-24T07:08:01.000Z</time>
      </trkpt>
      <trkpt lat="43.56905" lon="6.82419">
        <ele>223</ele>
        <time>2025-10-24T07:08:02.000Z</time>
      </trkpt>
      <trkpt lat="43.56908" lon="6.82422">
        <ele>223</ele>
        <time>2025-10-24T07:08:03.000Z</time>
      </trkpt>
      <trkpt lat="43.56912" lon="6.82426">
        <ele>223.1</ele>
        <time>2025-10-24T07:08:04.000Z</time>
      </trkpt>
      <trkpt lat="43.56916" lon="6.82431">
        <ele>223.2</ele>
        <time>2025-10-24T07:08:05.000Z</time>
      </trkpt>
      <trkpt lat="43.5692" lon="6.82436">
        <ele>223.2</ele>
        <time>2025-10-24T07:08:06.000Z</time>
      </trkpt>
      <trkpt lat="43.56923" lon="6.82441">
        <ele>223.3</ele>
        <time>2025-10-24T07:08:07.000Z</time>
      </trkpt>
      <trkpt lat="43.56925" lon="6.82447">
        <ele>223.4</ele>
        <time>2025-10-24T07:08:08.000Z</time>
      </trkpt>
      <trkpt lat="43.56928" lon="6.82453">
        <ele>223.6</ele>
        <time>2025-10-24T07:08:09.000Z</time>
      </trkpt>
      <trkpt lat="43.5693" lon="6.82458">
        <ele>223.7</ele>
        <time>2025-10-24T07:08:10.000Z</time>
      </trkpt>
      <trkpt lat="43.56933" lon="6.82464">
        <ele>223.9</ele>
        <time>2025-10-24T07:08:11.000Z</time>
      </trkpt>
      <trkpt lat="43.56935" lon="6.8247">
        <ele>224.1</ele>
        <time>2025-10-24T07:08:12.000Z</time>
      </trkpt>
      <trkpt lat="43.56937" lon="6.82476">
        <ele>224.3</ele>
        <time>2025-10-24T07:08:13.000Z</time>
      </trkpt>
      <trkpt lat="43.5694" lon="6.82481">
        <ele>224.5</ele>
        <time>2025-10-24T07:08:14.000Z</time>
      </trkpt>
      <trkpt lat="43.56942" lon="6.82486">
        <ele>224.7</ele>
        <time>2025-10-24T07:08:15.000Z</time>
      </trkpt>
      <trkpt lat="43.56945" lon="6.82492">
        <ele>224.9</ele>
        <time>2025-10-24T07:08:16.000Z</time>
      </trkpt>
      <trkpt lat="43.56948" lon="6.82496">
        <ele>225.2</ele>
        <time>2025-10-24T07:08:17.000Z</time>
      </trkpt>
      <trkpt lat="43.56952" lon="6.82501">
        <ele>225.4</ele>
        <time>2025-10-24T07:08:18.000Z</time>
      </trkpt>
      <trkpt lat="43.56956" lon="6.82506">
        <ele>225.7</ele>
        <time>2025-10-24T07:08:19.000Z</time>
      </trkpt>
      <trkpt lat="43.56959" lon="6.8251">
        <ele>225.9</ele>
        <time>2025-10-24T07:08:20.000Z</time>
      </trkpt>
      <trkpt lat="43.56964" lon="6.82514">
        <ele>226.3</ele>
        <time>2025-10-24T07:08:21.000Z</time>
      </trkpt>
      <trkpt lat="43.56968" lon="6.82518">
        <ele>226.6</ele>
        <time>2025-10-24T07:08:22.000Z</time>
      </trkpt>
      <trkpt lat="43.56971" lon="6.82521">
        <ele>226.8</ele>
        <time>2025-10-24T07:08:23.000Z</time>
      </trkpt>
      <trkpt lat="43.56975" lon="6.82525">
        <ele>227.1</ele>
        <time>2025-10-24T07:08:24.000Z</time>
      </trkpt>
      <trkpt lat="43.56979" lon="6.82528">
        <ele>227.4</ele>
        <time>2025-10-24T07:08:25.000Z</time>
      </trkpt>
      <trkpt lat="43.56983" lon="6.82532">
        <ele>227.7</ele>
        <time>2025-10-24T07:08:26.000Z</time>
      </trkpt>
      <trkpt lat="43.56987" lon="6.82536">
        <ele>228</ele>
        <time>2025-10-24T07:08:27.000Z</time>
      </trkpt>
      <trkpt lat="43.56991" lon="6.8254">
        <ele>228.3</ele>
        <time>2025-10-24T07:08:28.000Z</time>
      </trkpt>
      <trkpt lat="43.56995" lon="6.82543">
        <ele>228.6</ele>
        <time>2025-10-24T07:08:29.000Z</time>
      </trkpt>
      <trkpt lat="43.56999" lon="6.82547">
        <ele>228.9</ele>
        <time>2025-10-24T07:08:30.000Z</time>
      </trkpt>
      <trkpt lat="43.57003" lon="6.82551">
        <ele>229.1</ele>
        <time>2025-10-24T07:08:31.000Z</time>
      </trkpt>
      <trkpt lat="43.57006" lon="6.82554">
        <ele>229.4</ele>
        <time>2025-10-24T07:08:32.000Z</time>
      </trkpt>
      <trkpt lat="43.57009" lon="6.82556">
        <ele>229.6</ele>
        <time>2025-10-24T07:08:33.000Z</time>
      </trkpt>
      <trkpt lat="43.57012" lon="6.82559">
        <ele>229.8</ele>
        <time>2025-10-24T07:08:34.000Z</time>
      </trkpt>
      <trkpt lat="43.57016" lon="6.82563">
        <ele>230</ele>
        <time>2025-10-24T07:08:35.000Z</time>
      </trkpt>
      <trkpt lat="43.57019" lon="6.82566">
        <ele>230.3</ele>
        <time>2025-10-24T07:08:36.000Z</time>
      </trkpt>
      <trkpt lat="43.57023" lon="6.8257">
        <ele>230.5</ele>
        <time>2025-10-24T07:08:37.000Z</time>
      </trkpt>
      <trkpt lat="43.57026" lon="6.82573">
        <ele>230.7</ele>
        <time>2025-10-24T07:08:38.000Z</time>
      </trkpt>
      <trkpt lat="43.5703" lon="6.82576">
        <ele>231</ele>
        <time>2025-10-24T07:08:39.000Z</time>
      </trkpt>
      <trkpt lat="43.57034" lon="6.82579">
        <ele>231.2</ele>
        <time>2025-10-24T07:08:40.000Z</time>
      </trkpt>
      <trkpt lat="43.57038" lon="6.82581">
        <ele>231.4</ele>
        <time>2025-10-24T07:08:41.000Z</time>
      </trkpt>
      <trkpt lat="43.57042" lon="6.82583">
        <ele>231.5</ele>
        <time>2025-10-24T07:08:42.000Z</time>
      </trkpt>
      <trkpt lat="43.57046" lon="6.82585">
        <ele>231.6</ele>
        <time>2025-10-24T07:08:43.000Z</time>
      </trkpt>
      <trkpt lat="43.57051" lon="6.82587">
        <ele>231.7</ele>
        <time>2025-10-24T07:08:44.000Z</time>
      </trkpt>
      <trkpt lat="43.57055" lon="6.82589">
        <ele>231.7</ele>
        <time>2025-10-24T07:08:45.000Z</time>
      </trkpt>
      <trkpt lat="43.57058" lon="6.82593">
        <ele>231.7</ele>
        <time>2025-10-24T07:08:46.000Z</time>
      </trkpt>
      <trkpt lat="43.57061" lon="6.82597">
        <ele>231.7</ele>
        <time>2025-10-24T07:08:47.000Z</time>
      </trkpt>
      <trkpt lat="43.57064" lon="6.82602">
        <ele>231.7</ele>
        <time>2025-10-24T07:08:48.000Z</time>
      </trkpt>
      <trkpt lat="43.57066" lon="6.82607">
        <ele>231.6</ele>
        <time>2025-10-24T07:08:49.000Z</time>
      </trkpt>
      <trkpt lat="43.57068" lon="6.82612">
        <ele>231.5</ele>
        <time>2025-10-24T07:08:50.000Z</time>
      </trkpt>
      <trkpt lat="43.57071" lon="6.82618">
        <ele>231.4</ele>
        <time>2025-10-24T07:08:51.000Z</time>
      </trkpt>
      <trkpt lat="43.57074" lon="6.82624">
        <ele>231.3</ele>
        <time>2025-10-24T07:08:52.000Z</time>
      </trkpt>
      <trkpt lat="43.57076" lon="6.8263">
        <ele>231.2</ele>
        <time>2025-10-24T07:08:53.000Z</time>
      </trkpt>
      <trkpt lat="43.57079" lon="6.82636">
        <ele>231</ele>
        <time>2025-10-24T07:08:54.000Z</time>
      </trkpt>
      <trkpt lat="43.57082" lon="6.82643">
        <ele>230.9</ele>
        <time>2025-10-24T07:08:55.000Z</time>
      </trkpt>
      <trkpt lat="43.57083" lon="6.82648">
        <ele>230.8</ele>
        <time>2025-10-24T07:08:56.000Z</time>
      </trkpt>
      <trkpt lat="43.57086" lon="6.82654">
        <ele>230.7</ele>
        <time>2025-10-24T07:08:57.000Z</time>
      </trkpt>
      <trkpt lat="43.57088" lon="6.8266">
        <ele>230.6</ele>
        <time>2025-10-24T07:08:58.000Z</time>
      </trkpt>
      <trkpt lat="43.57091" lon="6.82666">
        <ele>230.5</ele>
        <time>2025-10-24T07:08:59.000Z</time>
      </trkpt>
      <trkpt lat="43.57094" lon="6.82673">
        <ele>230.5</ele>
        <time>2025-10-24T07:09:00.000Z</time>
      </trkpt>
      <trkpt lat="43.57096" lon="6.82678">
        <ele>230.5</ele>
        <time>2025-10-24T07:09:01.000Z</time>
      </trkpt>
      <trkpt lat="43.57099" lon="6.82684">
        <ele>230.5</ele>
        <time>2025-10-24T07:09:02.000Z</time>
      </trkpt>
      <trkpt lat="43.57101" lon="6.82688">
        <ele>230.5</ele>
        <time>2025-10-24T07:09:03.000Z</time>
      </trkpt>
      <trkpt lat="43.57104" lon="6.82693">
        <ele>230.5</ele>
        <time>2025-10-24T07:09:04.000Z</time>
      </trkpt>
      <trkpt lat="43.57107" lon="6.82698">
        <ele>230.5</ele>
        <time>2025-10-24T07:09:05.000Z</time>
      </trkpt>
      <trkpt lat="43.5711" lon="6.82702">
        <ele>230.5</ele>
        <time>2025-10-24T07:09:06.000Z</time>
      </trkpt>
      <trkpt lat="43.57113" lon="6.82708">
        <ele>230.6</ele>
        <time>2025-10-24T07:09:07.000Z</time>
      </trkpt>
      <trkpt lat="43.57116" lon="6.82711">
        <ele>230.6</ele>
        <time>2025-10-24T07:09:08.000Z</time>
      </trkpt>
      <trkpt lat="43.57119" lon="6.82716">
        <ele>230.7</ele>
        <time>2025-10-24T07:09:09.000Z</time>
      </trkpt>
      <trkpt lat="43.57123" lon="6.82723">
        <ele>230.7</ele>
        <time>2025-10-24T07:09:10.000Z</time>
      </trkpt>
      <trkpt lat="43.57126" lon="6.82727">
        <ele>230.8</ele>
        <time>2025-10-24T07:09:11.000Z</time>
      </trkpt>
      <trkpt lat="43.5713" lon="6.82732">
        <ele>230.9</ele>
        <time>2025-10-24T07:09:12.000Z</time>
      </trkpt>
      <trkpt lat="43.57133" lon="6.82735">
        <ele>231</ele>
        <time>2025-10-24T07:09:13.000Z</time>
      </trkpt>
      <trkpt lat="43.57137" lon="6.82738">
        <ele>231.1</ele>
        <time>2025-10-24T07:09:14.000Z</time>
      </trkpt>
      <trkpt lat="43.57142" lon="6.82742">
        <ele>231.2</ele>
        <time>2025-10-24T07:09:15.000Z</time>
      </trkpt>
      <trkpt lat="43.57146" lon="6.82744">
        <ele>231.3</ele>
        <time>2025-10-24T07:09:16.000Z</time>
      </trkpt>
      <trkpt lat="43.57149" lon="6.82746">
        <ele>231.4</ele>
        <time>2025-10-24T07:09:17.000Z</time>
      </trkpt>
      <trkpt lat="43.57152" lon="6.82748">
        <ele>231.5</ele>
        <time>2025-10-24T07:09:18.000Z</time>
      </trkpt>
      <trkpt lat="43.57154" lon="6.8275">
        <ele>231.6</ele>
        <time>2025-10-24T07:09:19.000Z</time>
      </trkpt>
      <trkpt lat="43.57158" lon="6.82752">
        <ele>231.7</ele>
        <time>2025-10-24T07:09:20.000Z</time>
      </trkpt>
      <trkpt lat="43.5716" lon="6.82754">
        <ele>231.8</ele>
        <time>2025-10-24T07:09:21.000Z</time>
      </trkpt>
      <trkpt lat="43.57161" lon="6.82755">
        <ele>231.8</ele>
        <time>2025-10-24T07:09:22.000Z</time>
      </trkpt>
      <trkpt lat="43.57161" lon="6.82755">
        <ele>231.8</ele>
        <time>2025-10-24T07:09:23.000Z</time>
      </trkpt>
      <trkpt lat="43.57162" lon="6.82755">
        <ele>231.8</ele>
        <time>2025-10-24T07:09:24.000Z</time>
      </trkpt>
      <trkpt lat="43.57162" lon="6.82755">
        <ele>231.8</ele>
        <time>2025-10-24T07:09:25.000Z</time>
      </trkpt>
      <trkpt lat="43.57163" lon="6.82755">
        <ele>231.8</ele>
        <time>2025-10-24T07:09:26.000Z</time>
      </trkpt>
      <trkpt lat="43.57164" lon="6.82756">
        <ele>231.8</ele>
        <time>2025-10-24T07:09:27.000Z</time>
      </trkpt>
      <trkpt lat="43.57165" lon="6.82756">
        <ele>231.8</ele>
        <time>2025-10-24T07:09:28.000Z</time>
      </trkpt>
      <trkpt lat="43.57165" lon="6.82756">
        <ele>231.8</ele>
        <time>2025-10-24T07:09:29.000Z</time>
      </trkpt>
      <trkpt lat="43.57166" lon="6.82757">
        <ele>231.7</ele>
        <time>2025-10-24T07:09:30.000Z</time>
      </trkpt>
      <trkpt lat="43.57167" lon="6.82757">
        <ele>231.7</ele>
        <time>2025-10-24T07:09:31.000Z</time>
      </trkpt>
      <trkpt lat="43.57167" lon="6.82757">
        <ele>231.7</ele>
        <time>2025-10-24T07:09:32.000Z</time>
      </trkpt>
      <trkpt lat="43.57168" lon="6.82757">
        <ele>231.7</ele>
        <time>2025-10-24T07:09:33.000Z</time>
      </trkpt>
      <trkpt lat="43.57169" lon="6.82758">
        <ele>231.7</ele>
        <time>2025-10-24T07:09:34.000Z</time>
      </trkpt>
      <trkpt lat="43.5717" lon="6.82758">
        <ele>231.7</ele>
        <time>2025-10-24T07:09:35.000Z</time>
      </trkpt>
      <trkpt lat="43.5717" lon="6.82758">
        <ele>231.7</ele>
        <time>2025-10-24T07:09:36.000Z</time>
      </trkpt>
      <trkpt lat="43.57171" lon="6.82759">
        <ele>231.7</ele>
        <time>2025-10-24T07:09:37.000Z</time>
      </trkpt>
      <trkpt lat="43.57172" lon="6.82759">
        <ele>231.7</ele>
        <time>2025-10-24T07:09:38.000Z</time>
      </trkpt>
      <trkpt lat="43.57172" lon="6.82759">
        <ele>231.7</ele>
        <time>2025-10-24T07:09:39.000Z</time>
      </trkpt>
      <trkpt lat="43.57173" lon="6.82759">
        <ele>231.7</ele>
        <time>2025-10-24T07:09:40.000Z</time>
      </trkpt>
      <trkpt lat="43.57174" lon="6.8276">
        <ele>231.7</ele>
        <time>2025-10-24T07:09:41.000Z</time>
      </trkpt>
      <trkpt lat="43.57175" lon="6.8276">
        <ele>231.7</ele>
        <time>2025-10-24T07:09:42.000Z</time>
      </trkpt>
      <trkpt lat="43.57175" lon="6.8276">
        <ele>231.7</ele>
        <time>2025-10-24T07:09:43.000Z</time>
      </trkpt>
      <trkpt lat="43.57176" lon="6.82761">
        <ele>231.7</ele>
        <time>2025-10-24T07:09:44.000Z</time>
      </trkpt>
      <trkpt lat="43.57177" lon="6.82761">
        <ele>231.7</ele>
        <time>2025-10-24T07:09:45.000Z</time>
      </trkpt>
      <trkpt lat="43.57177" lon="6.82761">
        <ele>231.7</ele>
        <time>2025-10-24T07:09:46.000Z</time>
      </trkpt>
      <trkpt lat="43.57178" lon="6.82762">
        <ele>231.6</ele>
        <time>2025-10-24T07:09:47.000Z</time>
      </trkpt>
      <trkpt lat="43.57179" lon="6.82762">
        <ele>231.6</ele>
        <time>2025-10-24T07:09:48.000Z</time>
      </trkpt>
      <trkpt lat="43.57179" lon="6.82762">
        <ele>231.6</ele>
        <time>2025-10-24T07:09:49.000Z</time>
      </trkpt>
      <trkpt lat="43.5718" lon="6.82762">
        <ele>231.6</ele>
        <time>2025-10-24T07:09:50.000Z</time>
      </trkpt>
      <trkpt lat="43.57181" lon="6.82763">
        <ele>231.6</ele>
        <time>2025-10-24T07:09:51.000Z</time>
      </trkpt>
      <trkpt lat="43.57182" lon="6.82763">
        <ele>231.6</ele>
        <time>2025-10-24T07:09:52.000Z</time>
      </trkpt>
      <trkpt lat="43.57182" lon="6.82763">
        <ele>231.6</ele>
        <time>2025-10-24T07:09:53.000Z</time>
      </trkpt>
      <trkpt lat="43.57183" lon="6.82764">
        <ele>231.6</ele>
        <time>2025-10-24T07:09:54.000Z</time>
      </trkpt>
      <trkpt lat="43.57184" lon="6.82764">
        <ele>231.6</ele>
        <time>2025-10-24T07:09:55.000Z</time>
      </trkpt>
      <trkpt lat="43.57184" lon="6.82764">
        <ele>231.5</ele>
        <time>2025-10-24T07:09:56.000Z</time>
      </trkpt>
      <trkpt lat="43.57185" lon="6.82764">
        <ele>231.5</ele>
        <time>2025-10-24T07:09:57.000Z</time>
      </trkpt>
      <trkpt lat="43.57186" lon="6.82765">
        <ele>231.5</ele>
        <time>2025-10-24T07:09:58.000Z</time>
      </trkpt>
      <trkpt lat="43.57187" lon="6.82765">
        <ele>231.5</ele>
        <time>2025-10-24T07:09:59.000Z</time>
      </trkpt>
      <trkpt lat="43.57191" lon="6.82767">
        <ele>231.4</ele>
        <time>2025-10-24T07:10:00.000Z</time>
      </trkpt>
      <trkpt lat="43.57195" lon="6.82769">
        <ele>231.3</ele>
        <time>2025-10-24T07:10:01.000Z</time>
      </trkpt>
      <trkpt lat="43.57198" lon="6.8277">
        <ele>231.2</ele>
        <time>2025-10-24T07:10:02.000Z</time>
      </trkpt>
      <trkpt lat="43.57201" lon="6.82772">
        <ele>231.1</ele>
        <time>2025-10-24T07:10:03.000Z</time>
      </trkpt>
      <trkpt lat="43.57203" lon="6.82773">
        <ele>231</ele>
        <time>2025-10-24T07:10:04.000Z</time>
      </trkpt>
      <trkpt lat="43.57204" lon="6.82773">
        <ele>231</ele>
        <time>2025-10-24T07:10:05.000Z</time>
      </trkpt>
      <trkpt lat="43.57204" lon="6.82774">
        <ele>230.9</ele>
        <time>2025-10-24T07:10:06.000Z</time>
      </trkpt>
      <trkpt lat="43.57204" lon="6.82774">
        <ele>230.9</ele>
        <time>2025-10-24T07:10:07.000Z</time>
      </trkpt>
      <trkpt lat="43.57204" lon="6.82774">
        <ele>230.9</ele>
        <time>2025-10-24T07:10:08.000Z</time>
      </trkpt>
      <trkpt lat="43.57204" lon="6.82774">
        <ele>230.9</ele>
        <time>2025-10-24T07:10:09.000Z</time>
      </trkpt>
      <trkpt lat="43.57204" lon="6.82773">
        <ele>230.9</ele>
        <time>2025-10-24T07:10:10.000Z</time>
      </trkpt>
      <trkpt lat="43.57204" lon="6.82773">
        <ele>230.9</ele>
        <time>2025-10-24T07:10:11.000Z</time>
      </trkpt>
      <trkpt lat="43.57204" lon="6.82773">
        <ele>230.9</ele>
        <time>2025-10-24T07:10:12.000Z</time>
      </trkpt>
      <trkpt lat="43.57204" lon="6.82773">
        <ele>230.9</ele>
        <time>2025-10-24T07:10:13.000Z</time>
      </trkpt>
      <trkpt lat="43.57204" lon="6.82773">
        <ele>230.9</ele>
        <time>2025-10-24T07:10:14.000Z</time>
      </trkpt>
      <trkpt lat="43.57204" lon="6.82773">
        <ele>230.9</ele>
        <time>2025-10-24T07:10:15.000Z</time>
      </trkpt>
      <trkpt lat="43.57204" lon="6.82773">
        <ele>230.9</ele>
        <time>2025-10-24T07:10:16.000Z</time>
      </trkpt>
      <trkpt lat="43.57205" lon="6.82773">
        <ele>230.9</ele>
        <time>2025-10-24T07:10:17.000Z</time>
      </trkpt>
      <trkpt lat="43.57205" lon="6.82773">
        <ele>230.9</ele>
        <time>2025-10-24T07:10:18.000Z</time>
      </trkpt>
      <trkpt lat="43.57205" lon="6.82773">
        <ele>230.9</ele>
        <time>2025-10-24T07:10:19.000Z</time>
      </trkpt>
      <trkpt lat="43.57205" lon="6.82773">
        <ele>230.9</ele>
        <time>2025-10-24T07:10:20.000Z</time>
      </trkpt>
      <trkpt lat="43.57205" lon="6.82773">
        <ele>230.9</ele>
        <time>2025-10-24T07:10:21.000Z</time>
      </trkpt>
      <trkpt lat="43.57205" lon="6.82773">
        <ele>230.9</ele>
        <time>2025-10-24T07:10:22.000Z</time>
      </trkpt>
      <trkpt lat="43.57205" lon="6.82773">
        <ele>230.9</ele>
        <time>2025-10-24T07:10:23.000Z</time>
      </trkpt>
      <trkpt lat="43.57205" lon="6.82773">
        <ele>230.9</ele>
        <time>2025-10-24T07:10:24.000Z</time>
      </trkpt>
      <trkpt lat="43.57205" lon="6.82773">
        <ele>230.9</ele>
        <time>2025-10-24T07:10:25.000Z</time>
      </trkpt>
      <trkpt lat="43.57205" lon="6.82773">
        <ele>230.9</ele>
        <time>2025-10-24T07:10:26.000Z</time>
      </trkpt>
      <trkpt lat="43.57205" lon="6.82773">
        <ele>230.9</ele>
        <time>2025-10-24T07:10:27.000Z</time>
      </trkpt>
      <trkpt lat="43.57205" lon="6.82773">
        <ele>230.8</ele>
        <time>2025-10-24T07:10:28.000Z</time>
      </trkpt>
      <trkpt lat="43.57208" lon="6.82775">
        <ele>230.7</ele>
        <time>2025-10-24T07:10:29.000Z</time>
      </trkpt>
      <trkpt lat="43.57211" lon="6.82778">
        <ele>230.5</ele>
        <time>2025-10-24T07:10:30.000Z</time>
      </trkpt>
      <trkpt lat="43.57215" lon="6.82781">
        <ele>230.2</ele>
        <time>2025-10-24T07:10:31.000Z</time>
      </trkpt>
      <trkpt lat="43.57219" lon="6.82786">
        <ele>229.9</ele>
        <time>2025-10-24T07:10:32.000Z</time>
      </trkpt>
      <trkpt lat="43.57222" lon="6.82791">
        <ele>229.6</ele>
        <time>2025-10-24T07:10:33.000Z</time>
      </trkpt>
      <trkpt lat="43.57226" lon="6.82797">
        <ele>229.2</ele>
        <time>2025-10-24T07:10:34.000Z</time>
      </trkpt>
      <trkpt lat="43.57231" lon="6.82802">
        <ele>228.8</ele>
        <time>2025-10-24T07:10:35.000Z</time>
      </trkpt>
      <trkpt lat="43.57236" lon="6.82808">
        <ele>228.4</ele>
        <time>2025-10-24T07:10:36.000Z</time>
      </trkpt>
      <trkpt lat="43.57241" lon="6.82813">
        <ele>228</ele>
        <time>2025-10-24T07:10:37.000Z</time>
      </trkpt>
      <trkpt lat="43.57247" lon="6.82817">
        <ele>227.6</ele>
        <time>2025-10-24T07:10:38.000Z</time>
      </trkpt>
      <trkpt lat="43.57252" lon="6.82822">
        <ele>227.1</ele>
        <time>2025-10-24T07:10:39.000Z</time>
      </trkpt>
      <trkpt lat="43.57257" lon="6.82828">
        <ele>226.6</ele>
        <time>2025-10-24T07:10:40.000Z</time>
      </trkpt>
      <trkpt lat="43.57262" lon="6.82835">
        <ele>226</ele>
        <time>2025-10-24T07:10:41.000Z</time>
      </trkpt>
      <trkpt lat="43.57266" lon="6.82843">
        <ele>225.5</ele>
        <time>2025-10-24T07:10:42.000Z</time>
      </trkpt>
      <trkpt lat="43.5727" lon="6.82852">
        <ele>224.9</ele>
        <time>2025-10-24T07:10:43.000Z</time>
      </trkpt>
      <trkpt lat="43.57274" lon="6.82861">
        <ele>224.3</ele>
        <time>2025-10-24T07:10:44.000Z</time>
      </trkpt>
      <trkpt lat="43.57278" lon="6.82871">
        <ele>223.7</ele>
        <time>2025-10-24T07:10:45.000Z</time>
      </trkpt>
      <trkpt lat="43.57282" lon="6.82881">
        <ele>223.1</ele>
        <time>2025-10-24T07:10:46.000Z</time>
      </trkpt>
      <trkpt lat="43.57286" lon="6.82891">
        <ele>222.6</ele>
        <time>2025-10-24T07:10:47.000Z</time>
      </trkpt>
      <trkpt lat="43.5729" lon="6.829">
        <ele>222.1</ele>
        <time>2025-10-24T07:10:48.000Z</time>
      </trkpt>
      <trkpt lat="43.57294" lon="6.82908">
        <ele>221.6</ele>
        <time>2025-10-24T07:10:49.000Z</time>
      </trkpt>
      <trkpt lat="43.57297" lon="6.82915">
        <ele>221.2</ele>
        <time>2025-10-24T07:10:50.000Z</time>
      </trkpt>
      <trkpt lat="43.573" lon="6.82922">
        <ele>220.8</ele>
        <time>2025-10-24T07:10:51.000Z</time>
      </trkpt>
      <trkpt lat="43.57303" lon="6.82928">
        <ele>220.4</ele>
        <time>2025-10-24T07:10:52.000Z</time>
      </trkpt>
      <trkpt lat="43.57304" lon="6.82933">
        <ele>220.1</ele>
        <time>2025-10-24T07:10:53.000Z</time>
      </trkpt>
      <trkpt lat="43.57306" lon="6.82937">
        <ele>219.9</ele>
        <time>2025-10-24T07:10:54.000Z</time>
      </trkpt>
      <trkpt lat="43.57306" lon="6.82939">
        <ele>219.8</ele>
        <time>2025-10-24T07:10:55.000Z</time>
      </trkpt>
      <trkpt lat="43.57307" lon="6.82939">
        <ele>219.7</ele>
        <time>2025-10-24T07:10:56.000Z</time>
      </trkpt>
      <trkpt lat="43.57307" lon="6.82938">
        <ele>219.7</ele>
        <time>2025-10-24T07:10:57.000Z</time>
      </trkpt>
      <trkpt lat="43.57307" lon="6.82938">
        <ele>219.7</ele>
        <time>2025-10-24T07:10:58.000Z</time>
      </trkpt>
      <trkpt lat="43.57307" lon="6.82938">
        <ele>219.7</ele>
        <time>2025-10-24T07:10:59.000Z</time>
      </trkpt>
      <trkpt lat="43.57307" lon="6.82938">
        <ele>219.6</ele>
        <time>2025-10-24T07:11:00.000Z</time>
      </trkpt>
      <trkpt lat="43.57307" lon="6.82938">
        <ele>219.6</ele>
        <time>2025-10-24T07:11:01.000Z</time>
      </trkpt>
      <trkpt lat="43.57307" lon="6.82937">
        <ele>219.6</ele>
        <time>2025-10-24T07:11:02.000Z</time>
      </trkpt>
      <trkpt lat="43.57306" lon="6.82937">
        <ele>219.6</ele>
        <time>2025-10-24T07:11:03.000Z</time>
      </trkpt>
      <trkpt lat="43.57306" lon="6.82937">
        <ele>219.5</ele>
        <time>2025-10-24T07:11:04.000Z</time>
      </trkpt>
      <trkpt lat="43.57306" lon="6.82937">
        <ele>219.5</ele>
        <time>2025-10-24T07:11:05.000Z</time>
      </trkpt>
      <trkpt lat="43.57306" lon="6.82937">
        <ele>219.5</ele>
        <time>2025-10-24T07:11:06.000Z</time>
      </trkpt>
      <trkpt lat="43.57306" lon="6.82936">
        <ele>219.5</ele>
        <time>2025-10-24T07:11:07.000Z</time>
      </trkpt>
      <trkpt lat="43.57306" lon="6.82936">
        <ele>219.5</ele>
        <time>2025-10-24T07:11:08.000Z</time>
      </trkpt>
      <trkpt lat="43.57306" lon="6.82935">
        <ele>219.4</ele>
        <time>2025-10-24T07:11:09.000Z</time>
      </trkpt>
      <trkpt lat="43.57306" lon="6.82935">
        <ele>219.4</ele>
        <time>2025-10-24T07:11:10.000Z</time>
      </trkpt>
      <trkpt lat="43.57306" lon="6.82935">
        <ele>219.4</ele>
        <time>2025-10-24T07:11:11.000Z</time>
      </trkpt>
      <trkpt lat="43.57306" lon="6.82935">
        <ele>219.4</ele>
        <time>2025-10-24T07:11:12.000Z</time>
      </trkpt>
      <trkpt lat="43.57306" lon="6.82935">
        <ele>219.4</ele>
        <time>2025-10-24T07:11:13.000Z</time>
      </trkpt>
      <trkpt lat="43.57306" lon="6.82935">
        <ele>219.4</ele>
        <time>2025-10-24T07:11:14.000Z</time>
      </trkpt>
      <trkpt lat="43.57306" lon="6.82935">
        <ele>219.4</ele>
        <time>2025-10-24T07:11:15.000Z</time>
      </trkpt>
      <trkpt lat="43.57306" lon="6.82935">
        <ele>219.4</ele>
        <time>2025-10-24T07:11:16.000Z</time>
      </trkpt>
      <trkpt lat="43.57306" lon="6.82935">
        <ele>219.4</ele>
        <time>2025-10-24T07:11:17.000Z</time>
      </trkpt>
      <trkpt lat="43.57306" lon="6.82935">
        <ele>219.4</ele>
        <time>2025-10-24T07:11:18.000Z</time>
      </trkpt>
      <trkpt lat="43.57306" lon="6.82935">
        <ele>219.4</ele>
        <time>2025-10-24T07:11:19.000Z</time>
      </trkpt>
      <trkpt lat="43.57306" lon="6.82935">
        <ele>219.4</ele>
        <time>2025-10-24T07:11:20.000Z</time>
      </trkpt>
      <trkpt lat="43.57306" lon="6.82935">
        <ele>219.4</ele>
        <time>2025-10-24T07:11:21.000Z</time>
      </trkpt>
      <trkpt lat="43.57306" lon="6.82935">
        <ele>219.4</ele>
        <time>2025-10-24T07:11:22.000Z</time>
      </trkpt>
      <trkpt lat="43.57306" lon="6.82935">
        <ele>219.4</ele>
        <time>2025-10-24T07:11:23.000Z</time>
      </trkpt>
      <trkpt lat="43.57306" lon="6.82935">
        <ele>219.3</ele>
        <time>2025-10-24T07:11:24.000Z</time>
      </trkpt>
      <trkpt lat="43.57306" lon="6.82935">
        <ele>219.3</ele>
        <time>2025-10-24T07:11:25.000Z</time>
      </trkpt>
      <trkpt lat="43.57306" lon="6.82935">
        <ele>219.3</ele>
        <time>2025-10-24T07:11:26.000Z</time>
      </trkpt>
      <trkpt lat="43.57306" lon="6.82936">
        <ele>219.3</ele>
        <time>2025-10-24T07:11:27.000Z</time>
      </trkpt>
      <trkpt lat="43.57306" lon="6.82936">
        <ele>219.3</ele>
        <time>2025-10-24T07:11:28.000Z</time>
      </trkpt>
      <trkpt lat="43.57307" lon="6.82936">
        <ele>219.3</ele>
        <time>2025-10-24T07:11:29.000Z</time>
      </trkpt>
      <trkpt lat="43.57308" lon="6.8294">
        <ele>219.1</ele>
        <time>2025-10-24T07:11:30.000Z</time>
      </trkpt>
      <trkpt lat="43.5731" lon="6.82944">
        <ele>218.7</ele>
        <time>2025-10-24T07:11:31.000Z</time>
      </trkpt>
      <trkpt lat="43.57312" lon="6.82949">
        <ele>218.4</ele>
        <time>2025-10-24T07:11:32.000Z</time>
      </trkpt>
      <trkpt lat="43.57315" lon="6.82955">
        <ele>218</ele>
        <time>2025-10-24T07:11:33.000Z</time>
      </trkpt>
      <trkpt lat="43.57318" lon="6.82961">
        <ele>217.5</ele>
        <time>2025-10-24T07:11:34.000Z</time>
      </trkpt>
      <trkpt lat="43.57321" lon="6.82967">
        <ele>217</ele>
        <time>2025-10-24T07:11:35.000Z</time>
      </trkpt>
      <trkpt lat="43.57325" lon="6.82973">
        <ele>216.5</ele>
        <time>2025-10-24T07:11:36.000Z</time>
      </trkpt>
      <trkpt lat="43.57328" lon="6.82978">
        <ele>216.1</ele>
        <time>2025-10-24T07:11:37.000Z</time>
      </trkpt>
      <trkpt lat="43.57331" lon="6.82984">
        <ele>215.6</ele>
        <time>2025-10-24T07:11:38.000Z</time>
      </trkpt>
      <trkpt lat="43.57337" lon="6.8299">
        <ele>214.8</ele>
        <time>2025-10-24T07:11:39.000Z</time>
      </trkpt>
      <trkpt lat="43.57342" lon="6.82992">
        <ele>214.5</ele>
        <time>2025-10-24T07:11:40.000Z</time>
      </trkpt>
      <trkpt lat="43.57347" lon="6.82993">
        <ele>214.1</ele>
        <time>2025-10-24T07:11:41.000Z</time>
      </trkpt>
      <trkpt lat="43.57353" lon="6.82991">
        <ele>213.8</ele>
        <time>2025-10-24T07:11:42.000Z</time>
      </trkpt>
      <trkpt lat="43.57359" lon="6.82986">
        <ele>213.4</ele>
        <time>2025-10-24T07:11:43.000Z</time>
      </trkpt>
      <trkpt lat="43.57364" lon="6.82981">
        <ele>213</ele>
        <time>2025-10-24T07:11:44.000Z</time>
      </trkpt>
      <trkpt lat="43.57369" lon="6.82977">
        <ele>212.7</ele>
        <time>2025-10-24T07:11:45.000Z</time>
      </trkpt>
      <trkpt lat="43.57376" lon="6.82973">
        <ele>212.4</ele>
        <time>2025-10-24T07:11:46.000Z</time>
      </trkpt>
      <trkpt lat="43.57381" lon="6.82972">
        <ele>212.2</ele>
        <time>2025-10-24T07:11:47.000Z</time>
      </trkpt>
      <trkpt lat="43.57385" lon="6.82971">
        <ele>212</ele>
        <time>2025-10-24T07:11:48.000Z</time>
      </trkpt>
      <trkpt lat="43.57387" lon="6.82971">
        <ele>212</ele>
        <time>2025-10-24T07:11:49.000Z</time>
      </trkpt>
      <trkpt lat="43.57388" lon="6.82971">
        <ele>211.9</ele>
        <time>2025-10-24T07:11:50.000Z</time>
      </trkpt>
      <trkpt lat="43.57388" lon="6.82971">
        <ele>211.9</ele>
        <time>2025-10-24T07:11:51.000Z</time>
      </trkpt>
      <trkpt lat="43.57388" lon="6.82971">
        <ele>211.9</ele>
        <time>2025-10-24T07:11:52.000Z</time>
      </trkpt>
      <trkpt lat="43.57389" lon="6.82972">
        <ele>211.9</ele>
        <time>2025-10-24T07:11:53.000Z</time>
      </trkpt>
      <trkpt lat="43.5739" lon="6.82972">
        <ele>211.9</ele>
        <time>2025-10-24T07:11:54.000Z</time>
      </trkpt>
      <trkpt lat="43.57391" lon="6.82973">
        <ele>211.8</ele>
        <time>2025-10-24T07:11:55.000Z</time>
      </trkpt>
      <trkpt lat="43.57393" lon="6.82972">
        <ele>211.8</ele>
        <time>2025-10-24T07:11:56.000Z</time>
      </trkpt>
      <trkpt lat="43.57393" lon="6.8297">
        <ele>211.7</ele>
        <time>2025-10-24T07:11:57.000Z</time>
      </trkpt>
      <trkpt lat="43.57392" lon="6.82969">
        <ele>211.7</ele>
        <time>2025-10-24T07:11:58.000Z</time>
      </trkpt>
      <trkpt lat="43.5739" lon="6.82968">
        <ele>211.7</ele>
        <time>2025-10-24T07:11:59.000Z</time>
      </trkpt>
      <trkpt lat="43.57387" lon="6.82969">
        <ele>211.6</ele>
        <time>2025-10-24T07:12:00.000Z</time>
      </trkpt>
      <trkpt lat="43.57384" lon="6.82969">
        <ele>211.5</ele>
        <time>2025-10-24T07:12:01.000Z</time>
      </trkpt>
      <trkpt lat="43.5738" lon="6.8297">
        <ele>211.5</ele>
        <time>2025-10-24T07:12:02.000Z</time>
      </trkpt>
      <trkpt lat="43.57376" lon="6.82971">
        <ele>211.4</ele>
        <time>2025-10-24T07:12:03.000Z</time>
      </trkpt>
      <trkpt lat="43.57371" lon="6.82972">
        <ele>211.5</ele>
        <time>2025-10-24T07:12:04.000Z</time>
      </trkpt>
      <trkpt lat="43.57367" lon="6.82975">
        <ele>211.7</ele>
        <time>2025-10-24T07:12:05.000Z</time>
      </trkpt>
      <trkpt lat="43.57363" lon="6.82979">
        <ele>211.9</ele>
        <time>2025-10-24T07:12:06.000Z</time>
      </trkpt>
      <trkpt lat="43.57359" lon="6.82982">
        <ele>212.2</ele>
        <time>2025-10-24T07:12:07.000Z</time>
      </trkpt>
      <trkpt lat="43.57355" lon="6.82986">
        <ele>212.6</ele>
        <time>2025-10-24T07:12:08.000Z</time>
      </trkpt>
      <trkpt lat="43.57351" lon="6.82989">
        <ele>213</ele>
        <time>2025-10-24T07:12:09.000Z</time>
      </trkpt>
      <trkpt lat="43.57347" lon="6.82991">
        <ele>213.4</ele>
        <time>2025-10-24T07:12:10.000Z</time>
      </trkpt>
      <trkpt lat="43.57343" lon="6.82993">
        <ele>213.9</ele>
        <time>2025-10-24T07:12:11.000Z</time>
      </trkpt>
      <trkpt lat="43.57338" lon="6.82994">
        <ele>214.4</ele>
        <time>2025-10-24T07:12:12.000Z</time>
      </trkpt>
      <trkpt lat="43.57334" lon="6.82995">
        <ele>214.8</ele>
        <time>2025-10-24T07:12:13.000Z</time>
      </trkpt>
      <trkpt lat="43.5733" lon="6.82996">
        <ele>215.2</ele>
        <time>2025-10-24T07:12:14.000Z</time>
      </trkpt>
      <trkpt lat="43.57327" lon="6.82997">
        <ele>215.5</ele>
        <time>2025-10-24T07:12:15.000Z</time>
      </trkpt>
      <trkpt lat="43.57324" lon="6.82998">
        <ele>215.2</ele>
        <time>2025-10-24T07:12:16.000Z</time>
      </trkpt>
      <trkpt lat="43.5732" lon="6.83001">
        <ele>214.8</ele>
        <time>2025-10-24T07:12:17.000Z</time>
      </trkpt>
      <trkpt lat="43.57318" lon="6.83004">
        <ele>214.4</ele>
        <time>2025-10-24T07:12:18.000Z</time>
      </trkpt>
      <trkpt lat="43.57315" lon="6.83007">
        <ele>214</ele>
        <time>2025-10-24T07:12:19.000Z</time>
      </trkpt>
      <trkpt lat="43.57313" lon="6.83011">
        <ele>213.6</ele>
        <time>2025-10-24T07:12:20.000Z</time>
      </trkpt>
      <trkpt lat="43.57311" lon="6.83015">
        <ele>213.2</ele>
        <time>2025-10-24T07:12:21.000Z</time>
      </trkpt>
      <trkpt lat="43.57309" lon="6.8302">
        <ele>212.8</ele>
        <time>2025-10-24T07:12:22.000Z</time>
      </trkpt>
      <trkpt lat="43.57307" lon="6.83025">
        <ele>212.5</ele>
        <time>2025-10-24T07:12:23.000Z</time>
      </trkpt>
      <trkpt lat="43.57306" lon="6.8303">
        <ele>212.3</ele>
        <time>2025-10-24T07:12:24.000Z</time>
      </trkpt>
      <trkpt lat="43.57306" lon="6.83036">
        <ele>212</ele>
        <time>2025-10-24T07:12:25.000Z</time>
      </trkpt>
      <trkpt lat="43.57306" lon="6.83042">
        <ele>211.9</ele>
        <time>2025-10-24T07:12:26.000Z</time>
      </trkpt>
      <trkpt lat="43.57306" lon="6.83048">
        <ele>211.8</ele>
        <time>2025-10-24T07:12:27.000Z</time>
      </trkpt>
      <trkpt lat="43.57305" lon="6.83053">
        <ele>211.8</ele>
        <time>2025-10-24T07:12:28.000Z</time>
      </trkpt>
      <trkpt lat="43.57304" lon="6.83058">
        <ele>211.8</ele>
        <time>2025-10-24T07:12:29.000Z</time>
      </trkpt>
      <trkpt lat="43.57302" lon="6.83064">
        <ele>212</ele>
        <time>2025-10-24T07:12:30.000Z</time>
      </trkpt>
      <trkpt lat="43.57301" lon="6.83068">
        <ele>212.3</ele>
        <time>2025-10-24T07:12:31.000Z</time>
      </trkpt>
      <trkpt lat="43.57299" lon="6.83072">
        <ele>212.6</ele>
        <time>2025-10-24T07:12:32.000Z</time>
      </trkpt>
      <trkpt lat="43.57297" lon="6.83077">
        <ele>212.9</ele>
        <time>2025-10-24T07:12:33.000Z</time>
      </trkpt>
      <trkpt lat="43.57296" lon="6.83081">
        <ele>213.2</ele>
        <time>2025-10-24T07:12:34.000Z</time>
      </trkpt>
      <trkpt lat="43.57295" lon="6.83086">
        <ele>213.6</ele>
        <time>2025-10-24T07:12:35.000Z</time>
      </trkpt>
      <trkpt lat="43.57294" lon="6.83091">
        <ele>214</ele>
        <time>2025-10-24T07:12:36.000Z</time>
      </trkpt>
      <trkpt lat="43.57292" lon="6.83096">
        <ele>214.4</ele>
        <time>2025-10-24T07:12:37.000Z</time>
      </trkpt>
      <trkpt lat="43.5729" lon="6.831">
        <ele>214.7</ele>
        <time>2025-10-24T07:12:38.000Z</time>
      </trkpt>
      <trkpt lat="43.57288" lon="6.83103">
        <ele>215.1</ele>
        <time>2025-10-24T07:12:39.000Z</time>
      </trkpt>
      <trkpt lat="43.57285" lon="6.83106">
        <ele>215.4</ele>
        <time>2025-10-24T07:12:40.000Z</time>
      </trkpt>
      <trkpt lat="43.57282" lon="6.83109">
        <ele>215.7</ele>
        <time>2025-10-24T07:12:41.000Z</time>
      </trkpt>
      <trkpt lat="43.5728" lon="6.83111">
        <ele>215.9</ele>
        <time>2025-10-24T07:12:42.000Z</time>
      </trkpt>
      <trkpt lat="43.57277" lon="6.83114">
        <ele>216.2</ele>
        <time>2025-10-24T07:12:43.000Z</time>
      </trkpt>
      <trkpt lat="43.57275" lon="6.83116">
        <ele>216.4</ele>
        <time>2025-10-24T07:12:44.000Z</time>
      </trkpt>
      <trkpt lat="43.57272" lon="6.83119">
        <ele>216.6</ele>
        <time>2025-10-24T07:12:45.000Z</time>
      </trkpt>
      <trkpt lat="43.57269" lon="6.83122">
        <ele>216.9</ele>
        <time>2025-10-24T07:12:46.000Z</time>
      </trkpt>
      <trkpt lat="43.57266" lon="6.83125">
        <ele>217.1</ele>
        <time>2025-10-24T07:12:47.000Z</time>
      </trkpt>
      <trkpt lat="43.57264" lon="6.83128">
        <ele>217.3</ele>
        <time>2025-10-24T07:12:48.000Z</time>
      </trkpt>
      <trkpt lat="43.57261" lon="6.83131">
        <ele>217.5</ele>
        <time>2025-10-24T07:12:49.000Z</time>
      </trkpt>
      <trkpt lat="43.57259" lon="6.83135">
        <ele>217.7</ele>
        <time>2025-10-24T07:12:50.000Z</time>
      </trkpt>
      <trkpt lat="43.57257" lon="6.83138">
        <ele>217.8</ele>
        <time>2025-10-24T07:12:51.000Z</time>
      </trkpt>
      <trkpt lat="43.57255" lon="6.83142">
        <ele>218</ele>
        <time>2025-10-24T07:12:52.000Z</time>
      </trkpt>
      <trkpt lat="43.57252" lon="6.83145">
        <ele>218.1</ele>
        <time>2025-10-24T07:12:53.000Z</time>
      </trkpt>
      <trkpt lat="43.5725" lon="6.83148">
        <ele>218.2</ele>
        <time>2025-10-24T07:12:54.000Z</time>
      </trkpt>
      <trkpt lat="43.57247" lon="6.8315">
        <ele>218.3</ele>
        <time>2025-10-24T07:12:55.000Z</time>
      </trkpt>
      <trkpt lat="43.57244" lon="6.83152">
        <ele>218.4</ele>
        <time>2025-10-24T07:12:56.000Z</time>
      </trkpt>
      <trkpt lat="43.57241" lon="6.83153">
        <ele>218.4</ele>
        <time>2025-10-24T07:12:57.000Z</time>
      </trkpt>
      <trkpt lat="43.57238" lon="6.83155">
        <ele>218.4</ele>
        <time>2025-10-24T07:12:58.000Z</time>
      </trkpt>
      <trkpt lat="43.57235" lon="6.83156">
        <ele>218.3</ele>
        <time>2025-10-24T07:12:59.000Z</time>
      </trkpt>
      <trkpt lat="43.57232" lon="6.83158">
        <ele>218.2</ele>
        <time>2025-10-24T07:13:00.000Z</time>
      </trkpt>
      <trkpt lat="43.57229" lon="6.8316">
        <ele>218.2</ele>
        <time>2025-10-24T07:13:01.000Z</time>
      </trkpt>
      <trkpt lat="43.57226" lon="6.83164">
        <ele>218</ele>
        <time>2025-10-24T07:13:02.000Z</time>
      </trkpt>
      <trkpt lat="43.57224" lon="6.83168">
        <ele>217.9</ele>
        <time>2025-10-24T07:13:03.000Z</time>
      </trkpt>
      <trkpt lat="43.57221" lon="6.83172">
        <ele>217.7</ele>
        <time>2025-10-24T07:13:04.000Z</time>
      </trkpt>
      <trkpt lat="43.57219" lon="6.83175">
        <ele>217.5</ele>
        <time>2025-10-24T07:13:05.000Z</time>
      </trkpt>
      <trkpt lat="43.57216" lon="6.83179">
        <ele>217.3</ele>
        <time>2025-10-24T07:13:06.000Z</time>
      </trkpt>
      <trkpt lat="43.57213" lon="6.83182">
        <ele>217.1</ele>
        <time>2025-10-24T07:13:07.000Z</time>
      </trkpt>
      <trkpt lat="43.5721" lon="6.83185">
        <ele>217</ele>
        <time>2025-10-24T07:13:08.000Z</time>
      </trkpt>
      <trkpt lat="43.57206" lon="6.83188">
        <ele>216.8</ele>
        <time>2025-10-24T07:13:09.000Z</time>
      </trkpt>
      <trkpt lat="43.57203" lon="6.8319">
        <ele>216.7</ele>
        <time>2025-10-24T07:13:10.000Z</time>
      </trkpt>
      <trkpt lat="43.57199" lon="6.83192">
        <ele>216.6</ele>
        <time>2025-10-24T07:13:11.000Z</time>
      </trkpt>
      <trkpt lat="43.57195" lon="6.83192">
        <ele>216.5</ele>
        <time>2025-10-24T07:13:12.000Z</time>
      </trkpt>
      <trkpt lat="43.57192" lon="6.83192">
        <ele>216.4</ele>
        <time>2025-10-24T07:13:13.000Z</time>
      </trkpt>
      <trkpt lat="43.57188" lon="6.83192">
        <ele>216.4</ele>
        <time>2025-10-24T07:13:14.000Z</time>
      </trkpt>
      <trkpt lat="43.57184" lon="6.83191">
        <ele>216.2</ele>
        <time>2025-10-24T07:13:15.000Z</time>
      </trkpt>
      <trkpt lat="43.5718" lon="6.83191">
        <ele>216.1</ele>
        <time>2025-10-24T07:13:16.000Z</time>
      </trkpt>
      <trkpt lat="43.57177" lon="6.83192">
        <ele>216</ele>
        <time>2025-10-24T07:13:17.000Z</time>
      </trkpt>
      <trkpt lat="43.57173" lon="6.83193">
        <ele>215.8</ele>
        <time>2025-10-24T07:13:18.000Z</time>
      </trkpt>
      <trkpt lat="43.5717" lon="6.83196">
        <ele>215.7</ele>
        <time>2025-10-24T07:13:19.000Z</time>
      </trkpt>
      <trkpt lat="43.57167" lon="6.832">
        <ele>215.6</ele>
        <time>2025-10-24T07:13:20.000Z</time>
      </trkpt>
      <trkpt lat="43.57164" lon="6.83205">
        <ele>215.5</ele>
        <time>2025-10-24T07:13:21.000Z</time>
      </trkpt>
      <trkpt lat="43.57161" lon="6.83209">
        <ele>215.6</ele>
        <time>2025-10-24T07:13:22.000Z</time>
      </trkpt>
      <trkpt lat="43.57158" lon="6.83214">
        <ele>215.6</ele>
        <time>2025-10-24T07:13:23.000Z</time>
      </trkpt>
      <trkpt lat="43.57156" lon="6.83218">
        <ele>215.7</ele>
        <time>2025-10-24T07:13:24.000Z</time>
      </trkpt>
      <trkpt lat="43.57154" lon="6.83222">
        <ele>215.8</ele>
        <time>2025-10-24T07:13:25.000Z</time>
      </trkpt>
      <trkpt lat="43.57152" lon="6.83226">
        <ele>215.9</ele>
        <time>2025-10-24T07:13:26.000Z</time>
      </trkpt>
      <trkpt lat="43.5715" lon="6.83229">
        <ele>216.1</ele>
        <time>2025-10-24T07:13:27.000Z</time>
      </trkpt>
      <trkpt lat="43.57148" lon="6.83232">
        <ele>216.2</ele>
        <time>2025-10-24T07:13:28.000Z</time>
      </trkpt>
      <trkpt lat="43.57146" lon="6.83234">
        <ele>216.3</ele>
        <time>2025-10-24T07:13:29.000Z</time>
      </trkpt>
      <trkpt lat="43.57144" lon="6.83237">
        <ele>216.4</ele>
        <time>2025-10-24T07:13:30.000Z</time>
      </trkpt>
      <trkpt lat="43.57142" lon="6.83239">
        <ele>216.5</ele>
        <time>2025-10-24T07:13:31.000Z</time>
      </trkpt>
      <trkpt lat="43.5714" lon="6.83241">
        <ele>216.7</ele>
        <time>2025-10-24T07:13:32.000Z</time>
      </trkpt>
      <trkpt lat="43.57138" lon="6.83244">
        <ele>216.8</ele>
        <time>2025-10-24T07:13:33.000Z</time>
      </trkpt>
      <trkpt lat="43.57135" lon="6.83246">
        <ele>217</ele>
        <time>2025-10-24T07:13:34.000Z</time>
      </trkpt>
      <trkpt lat="43.57132" lon="6.83249">
        <ele>217.2</ele>
        <time>2025-10-24T07:13:35.000Z</time>
      </trkpt>
      <trkpt lat="43.5713" lon="6.83252">
        <ele>217.3</ele>
        <time>2025-10-24T07:13:36.000Z</time>
      </trkpt>
      <trkpt lat="43.57128" lon="6.83255">
        <ele>217.4</ele>
        <time>2025-10-24T07:13:37.000Z</time>
      </trkpt>
      <trkpt lat="43.57125" lon="6.83257">
        <ele>217.6</ele>
        <time>2025-10-24T07:13:38.000Z</time>
      </trkpt>
      <trkpt lat="43.57122" lon="6.83258">
        <ele>217.7</ele>
        <time>2025-10-24T07:13:39.000Z</time>
      </trkpt>
      <trkpt lat="43.57119" lon="6.8326">
        <ele>217.8</ele>
        <time>2025-10-24T07:13:40.000Z</time>
      </trkpt>
      <trkpt lat="43.57116" lon="6.83261">
        <ele>217.9</ele>
        <time>2025-10-24T07:13:41.000Z</time>
      </trkpt>
      <trkpt lat="43.57113" lon="6.83262">
        <ele>218</ele>
        <time>2025-10-24T07:13:42.000Z</time>
      </trkpt>
      <trkpt lat="43.5711" lon="6.83263">
        <ele>218.1</ele>
        <time>2025-10-24T07:13:43.000Z</time>
      </trkpt>
      <trkpt lat="43.57107" lon="6.83263">
        <ele>218.2</ele>
        <time>2025-10-24T07:13:44.000Z</time>
      </trkpt>
      <trkpt lat="43.57103" lon="6.83264">
        <ele>218.4</ele>
        <time>2025-10-24T07:13:45.000Z</time>
      </trkpt>
      <trkpt lat="43.571" lon="6.83265">
        <ele>218.6</ele>
        <time>2025-10-24T07:13:46.000Z</time>
      </trkpt>
      <trkpt lat="43.57097" lon="6.83267">
        <ele>218.8</ele>
        <time>2025-10-24T07:13:47.000Z</time>
      </trkpt>
      <trkpt lat="43.57095" lon="6.83269">
        <ele>219.1</ele>
        <time>2025-10-24T07:13:48.000Z</time>
      </trkpt>
      <trkpt lat="43.57092" lon="6.83271">
        <ele>219.4</ele>
        <time>2025-10-24T07:13:49.000Z</time>
      </trkpt>
      <trkpt lat="43.57089" lon="6.83273">
        <ele>219.7</ele>
        <time>2025-10-24T07:13:50.000Z</time>
      </trkpt>
      <trkpt lat="43.57087" lon="6.83276">
        <ele>220.1</ele>
        <time>2025-10-24T07:13:51.000Z</time>
      </trkpt>
      <trkpt lat="43.57084" lon="6.83279">
        <ele>220.5</ele>
        <time>2025-10-24T07:13:52.000Z</time>
      </trkpt>
      <trkpt lat="43.57082" lon="6.83282">
        <ele>220.9</ele>
        <time>2025-10-24T07:13:53.000Z</time>
      </trkpt>
      <trkpt lat="43.57081" lon="6.83286">
        <ele>221.3</ele>
        <time>2025-10-24T07:13:54.000Z</time>
      </trkpt>
      <trkpt lat="43.5708" lon="6.83289">
        <ele>221.7</ele>
        <time>2025-10-24T07:13:55.000Z</time>
      </trkpt>
      <trkpt lat="43.5708" lon="6.83293">
        <ele>222.2</ele>
        <time>2025-10-24T07:13:56.000Z</time>
      </trkpt>
      <trkpt lat="43.57079" lon="6.83298">
        <ele>222.6</ele>
        <time>2025-10-24T07:13:57.000Z</time>
      </trkpt>
      <trkpt lat="43.57078" lon="6.83302">
        <ele>223.1</ele>
        <time>2025-10-24T07:13:58.000Z</time>
      </trkpt>
      <trkpt lat="43.57078" lon="6.83306">
        <ele>223.6</ele>
        <time>2025-10-24T07:13:59.000Z</time>
      </trkpt>
      <trkpt lat="43.57078" lon="6.8331">
        <ele>224.1</ele>
        <time>2025-10-24T07:14:00.000Z</time>
      </trkpt>
      <trkpt lat="43.57078" lon="6.83313">
        <ele>224.6</ele>
        <time>2025-10-24T07:14:01.000Z</time>
      </trkpt>
      <trkpt lat="43.57078" lon="6.83317">
        <ele>225.2</ele>
        <time>2025-10-24T07:14:02.000Z</time>
      </trkpt>
      <trkpt lat="43.57079" lon="6.8332">
        <ele>225.7</ele>
        <time>2025-10-24T07:14:03.000Z</time>
      </trkpt>
      <trkpt lat="43.57079" lon="6.83323">
        <ele>226.2</ele>
        <time>2025-10-24T07:14:04.000Z</time>
      </trkpt>
      <trkpt lat="43.5708" lon="6.83326">
        <ele>226.7</ele>
        <time>2025-10-24T07:14:05.000Z</time>
      </trkpt>
      <trkpt lat="43.57081" lon="6.8333">
        <ele>227.2</ele>
        <time>2025-10-24T07:14:06.000Z</time>
      </trkpt>
      <trkpt lat="43.57081" lon="6.83333">
        <ele>227.7</ele>
        <time>2025-10-24T07:14:07.000Z</time>
      </trkpt>
      <trkpt lat="43.57082" lon="6.83336">
        <ele>228.2</ele>
        <time>2025-10-24T07:14:08.000Z</time>
      </trkpt>
      <trkpt lat="43.57082" lon="6.83339">
        <ele>228.6</ele>
        <time>2025-10-24T07:14:09.000Z</time>
      </trkpt>
      <trkpt lat="43.57082" lon="6.83342">
        <ele>229</ele>
        <time>2025-10-24T07:14:10.000Z</time>
      </trkpt>
      <trkpt lat="43.57083" lon="6.83345">
        <ele>229.3</ele>
        <time>2025-10-24T07:14:11.000Z</time>
      </trkpt>
      <trkpt lat="43.57083" lon="6.83348">
        <ele>229.6</ele>
        <time>2025-10-24T07:14:12.000Z</time>
      </trkpt>
      <trkpt lat="43.57083" lon="6.83352">
        <ele>229.9</ele>
        <time>2025-10-24T07:14:13.000Z</time>
      </trkpt>
      <trkpt lat="43.57083" lon="6.83355">
        <ele>230.2</ele>
        <time>2025-10-24T07:14:14.000Z</time>
      </trkpt>
      <trkpt lat="43.57084" lon="6.83358">
        <ele>230.5</ele>
        <time>2025-10-24T07:14:15.000Z</time>
      </trkpt>
      <trkpt lat="43.57084" lon="6.83361">
        <ele>230.7</ele>
        <time>2025-10-24T07:14:16.000Z</time>
      </trkpt>
      <trkpt lat="43.57083" lon="6.83364">
        <ele>230.9</ele>
        <time>2025-10-24T07:14:17.000Z</time>
      </trkpt>
      <trkpt lat="43.57083" lon="6.83367">
        <ele>231.2</ele>
        <time>2025-10-24T07:14:18.000Z</time>
      </trkpt>
      <trkpt lat="43.57082" lon="6.83369">
        <ele>231.5</ele>
        <time>2025-10-24T07:14:19.000Z</time>
      </trkpt>
      <trkpt lat="43.57082" lon="6.83372">
        <ele>231.8</ele>
        <time>2025-10-24T07:14:20.000Z</time>
      </trkpt>
      <trkpt lat="43.57081" lon="6.83376">
        <ele>232.1</ele>
        <time>2025-10-24T07:14:21.000Z</time>
      </trkpt>
      <trkpt lat="43.57081" lon="6.83379">
        <ele>232.4</ele>
        <time>2025-10-24T07:14:22.000Z</time>
      </trkpt>
      <trkpt lat="43.57081" lon="6.83382">
        <ele>232.7</ele>
        <time>2025-10-24T07:14:23.000Z</time>
      </trkpt>
      <trkpt lat="43.57081" lon="6.83385">
        <ele>232.9</ele>
        <time>2025-10-24T07:14:24.000Z</time>
      </trkpt>
      <trkpt lat="43.57081" lon="6.83389">
        <ele>233.2</ele>
        <time>2025-10-24T07:14:25.000Z</time>
      </trkpt>
      <trkpt lat="43.57082" lon="6.83392">
        <ele>233.5</ele>
        <time>2025-10-24T07:14:26.000Z</time>
      </trkpt>
      <trkpt lat="43.57082" lon="6.83395">
        <ele>233.8</ele>
        <time>2025-10-24T07:14:27.000Z</time>
      </trkpt>
      <trkpt lat="43.57082" lon="6.83399">
        <ele>234</ele>
        <time>2025-10-24T07:14:28.000Z</time>
      </trkpt>
      <trkpt lat="43.57082" lon="6.83402">
        <ele>234.2</ele>
        <time>2025-10-24T07:14:29.000Z</time>
      </trkpt>
      <trkpt lat="43.57082" lon="6.83406">
        <ele>234.4</ele>
        <time>2025-10-24T07:14:30.000Z</time>
      </trkpt>
      <trkpt lat="43.57082" lon="6.83409">
        <ele>234.5</ele>
        <time>2025-10-24T07:14:31.000Z</time>
      </trkpt>
      <trkpt lat="43.57082" lon="6.83413">
        <ele>234.6</ele>
        <time>2025-10-24T07:14:32.000Z</time>
      </trkpt>
      <trkpt lat="43.57082" lon="6.83416">
        <ele>234.6</ele>
        <time>2025-10-24T07:14:33.000Z</time>
      </trkpt>
      <trkpt lat="43.57081" lon="6.83418">
        <ele>234.7</ele>
        <time>2025-10-24T07:14:34.000Z</time>
      </trkpt>
      <trkpt lat="43.57081" lon="6.8342">
        <ele>234.6</ele>
        <time>2025-10-24T07:14:35.000Z</time>
      </trkpt>
      <trkpt lat="43.5708" lon="6.83423">
        <ele>234.6</ele>
        <time>2025-10-24T07:14:36.000Z</time>
      </trkpt>
      <trkpt lat="43.57079" lon="6.83425">
        <ele>234.6</ele>
        <time>2025-10-24T07:14:37.000Z</time>
      </trkpt>
      <trkpt lat="43.57077" lon="6.83428">
        <ele>234.5</ele>
        <time>2025-10-24T07:14:38.000Z</time>
      </trkpt>
      <trkpt lat="43.57075" lon="6.83431">
        <ele>234.4</ele>
        <time>2025-10-24T07:14:39.000Z</time>
      </trkpt>
      <trkpt lat="43.57073" lon="6.83434">
        <ele>234.2</ele>
        <time>2025-10-24T07:14:40.000Z</time>
      </trkpt>
      <trkpt lat="43.57071" lon="6.83437">
        <ele>234.1</ele>
        <time>2025-10-24T07:14:41.000Z</time>
      </trkpt>
      <trkpt lat="43.5707" lon="6.83441">
        <ele>234</ele>
        <time>2025-10-24T07:14:42.000Z</time>
      </trkpt>
      <trkpt lat="43.57069" lon="6.83444">
        <ele>233.9</ele>
        <time>2025-10-24T07:14:43.000Z</time>
      </trkpt>
      <trkpt lat="43.57068" lon="6.83448">
        <ele>233.8</ele>
        <time>2025-10-24T07:14:44.000Z</time>
      </trkpt>
      <trkpt lat="43.57068" lon="6.83452">
        <ele>233.8</ele>
        <time>2025-10-24T07:14:45.000Z</time>
      </trkpt>
      <trkpt lat="43.57068" lon="6.83456">
        <ele>233.7</ele>
        <time>2025-10-24T07:14:46.000Z</time>
      </trkpt>
      <trkpt lat="43.57068" lon="6.8346">
        <ele>233.7</ele>
        <time>2025-10-24T07:14:47.000Z</time>
      </trkpt>
      <trkpt lat="43.57069" lon="6.83464">
        <ele>233.7</ele>
        <time>2025-10-24T07:14:48.000Z</time>
      </trkpt>
      <trkpt lat="43.57069" lon="6.83468">
        <ele>233.6</ele>
        <time>2025-10-24T07:14:49.000Z</time>
      </trkpt>
      <trkpt lat="43.57069" lon="6.83471">
        <ele>233.6</ele>
        <time>2025-10-24T07:14:50.000Z</time>
      </trkpt>
      <trkpt lat="43.57069" lon="6.83475">
        <ele>233.6</ele>
        <time>2025-10-24T07:14:51.000Z</time>
      </trkpt>
      <trkpt lat="43.57069" lon="6.83479">
        <ele>233.6</ele>
        <time>2025-10-24T07:14:52.000Z</time>
      </trkpt>
      <trkpt lat="43.57069" lon="6.83483">
        <ele>233.5</ele>
        <time>2025-10-24T07:14:53.000Z</time>
      </trkpt>
      <trkpt lat="43.5707" lon="6.83487">
        <ele>233.5</ele>
        <time>2025-10-24T07:14:54.000Z</time>
      </trkpt>
      <trkpt lat="43.5707" lon="6.83491">
        <ele>233.4</ele>
        <time>2025-10-24T07:14:55.000Z</time>
      </trkpt>
      <trkpt lat="43.57071" lon="6.83495">
        <ele>233.3</ele>
        <time>2025-10-24T07:14:56.000Z</time>
      </trkpt>
      <trkpt lat="43.57071" lon="6.835">
        <ele>233.1</ele>
        <time>2025-10-24T07:14:57.000Z</time>
      </trkpt>
      <trkpt lat="43.57072" lon="6.83504">
        <ele>232.9</ele>
        <time>2025-10-24T07:14:58.000Z</time>
      </trkpt>
      <trkpt lat="43.57071" lon="6.83508">
        <ele>232.7</ele>
        <time>2025-10-24T07:14:59.000Z</time>
      </trkpt>
      <trkpt lat="43.57071" lon="6.83512">
        <ele>232.7</ele>
        <time>2025-10-24T07:15:00.000Z</time>
      </trkpt>
      <trkpt lat="43.57071" lon="6.83517">
        <ele>232.8</ele>
        <time>2025-10-24T07:15:01.000Z</time>
      </trkpt>
      <trkpt lat="43.57071" lon="6.83521">
        <ele>232.8</ele>
        <time>2025-10-24T07:15:02.000Z</time>
      </trkpt>
      <trkpt lat="43.57072" lon="6.83525">
        <ele>232.9</ele>
        <time>2025-10-24T07:15:03.000Z</time>
      </trkpt>
      <trkpt lat="43.57073" lon="6.8353">
        <ele>233</ele>
        <time>2025-10-24T07:15:04.000Z</time>
      </trkpt>
      <trkpt lat="43.57074" lon="6.83534">
        <ele>233.1</ele>
        <time>2025-10-24T07:15:05.000Z</time>
      </trkpt>
      <trkpt lat="43.57075" lon="6.83537">
        <ele>233.2</ele>
        <time>2025-10-24T07:15:06.000Z</time>
      </trkpt>
      <trkpt lat="43.57075" lon="6.83541">
        <ele>233.3</ele>
        <time>2025-10-24T07:15:07.000Z</time>
      </trkpt>
      <trkpt lat="43.57076" lon="6.83545">
        <ele>233.4</ele>
        <time>2025-10-24T07:15:08.000Z</time>
      </trkpt>
      <trkpt lat="43.57076" lon="6.83549">
        <ele>233.5</ele>
        <time>2025-10-24T07:15:09.000Z</time>
      </trkpt>
      <trkpt lat="43.57076" lon="6.83552">
        <ele>233.6</ele>
        <time>2025-10-24T07:15:10.000Z</time>
      </trkpt>
      <trkpt lat="43.57076" lon="6.83556">
        <ele>233.6</ele>
        <time>2025-10-24T07:15:11.000Z</time>
      </trkpt>
      <trkpt lat="43.57076" lon="6.83559">
        <ele>233.7</ele>
        <time>2025-10-24T07:15:12.000Z</time>
      </trkpt>
      <trkpt lat="43.57076" lon="6.83561">
        <ele>233.7</ele>
        <time>2025-10-24T07:15:13.000Z</time>
      </trkpt>
      <trkpt lat="43.57076" lon="6.83562">
        <ele>233.7</ele>
        <time>2025-10-24T07:15:14.000Z</time>
      </trkpt>
      <trkpt lat="43.57076" lon="6.83562">
        <ele>233.7</ele>
        <time>2025-10-24T07:15:15.000Z</time>
      </trkpt>
      <trkpt lat="43.57076" lon="6.83562">
        <ele>233.7</ele>
        <time>2025-10-24T07:15:16.000Z</time>
      </trkpt>
      <trkpt lat="43.57077" lon="6.83563">
        <ele>233.7</ele>
        <time>2025-10-24T07:15:17.000Z</time>
      </trkpt>
      <trkpt lat="43.57076" lon="6.83563">
        <ele>233.7</ele>
        <time>2025-10-24T07:15:18.000Z</time>
      </trkpt>
      <trkpt lat="43.57076" lon="6.83562">
        <ele>233.7</ele>
        <time>2025-10-24T07:15:19.000Z</time>
      </trkpt>
      <trkpt lat="43.57076" lon="6.83562">
        <ele>233.7</ele>
        <time>2025-10-24T07:15:20.000Z</time>
      </trkpt>
      <trkpt lat="43.57076" lon="6.83562">
        <ele>233.7</ele>
        <time>2025-10-24T07:15:21.000Z</time>
      </trkpt>
      <trkpt lat="43.57076" lon="6.83562">
        <ele>233.7</ele>
        <time>2025-10-24T07:15:22.000Z</time>
      </trkpt>
      <trkpt lat="43.57076" lon="6.83563">
        <ele>233.7</ele>
        <time>2025-10-24T07:15:23.000Z</time>
      </trkpt>
      <trkpt lat="43.57078" lon="6.83564">
        <ele>233.8</ele>
        <time>2025-10-24T07:15:24.000Z</time>
      </trkpt>
      <trkpt lat="43.5708" lon="6.83567">
        <ele>233.9</ele>
        <time>2025-10-24T07:15:25.000Z</time>
      </trkpt>
      <trkpt lat="43.57082" lon="6.8357">
        <ele>234</ele>
        <time>2025-10-24T07:15:26.000Z</time>
      </trkpt>
      <trkpt lat="43.57084" lon="6.83573">
        <ele>234.1</ele>
        <time>2025-10-24T07:15:27.000Z</time>
      </trkpt>
      <trkpt lat="43.57087" lon="6.83574">
        <ele>234.2</ele>
        <time>2025-10-24T07:15:28.000Z</time>
      </trkpt>
      <trkpt lat="43.5709" lon="6.83576">
        <ele>234.2</ele>
        <time>2025-10-24T07:15:29.000Z</time>
      </trkpt>
      <trkpt lat="43.57092" lon="6.83578">
        <ele>234.2</ele>
        <time>2025-10-24T07:15:30.000Z</time>
      </trkpt>
      <trkpt lat="43.57095" lon="6.83579">
        <ele>234.2</ele>
        <time>2025-10-24T07:15:31.000Z</time>
      </trkpt>
      <trkpt lat="43.57098" lon="6.8358">
        <ele>234</ele>
        <time>2025-10-24T07:15:32.000Z</time>
      </trkpt>
      <trkpt lat="43.57101" lon="6.83581">
        <ele>233.8</ele>
        <time>2025-10-24T07:15:33.000Z</time>
      </trkpt>
      <trkpt lat="43.57104" lon="6.83581">
        <ele>233.5</ele>
        <time>2025-10-24T07:15:34.000Z</time>
      </trkpt>
      <trkpt lat="43.57106" lon="6.83581">
        <ele>233.1</ele>
        <time>2025-10-24T07:15:35.000Z</time>
      </trkpt>
      <trkpt lat="43.57109" lon="6.83582">
        <ele>232.7</ele>
        <time>2025-10-24T07:15:36.000Z</time>
      </trkpt>
      <trkpt lat="43.57112" lon="6.83583">
        <ele>232.2</ele>
        <time>2025-10-24T07:15:37.000Z</time>
      </trkpt>
      <trkpt lat="43.57117" lon="6.83584">
        <ele>231.5</ele>
        <time>2025-10-24T07:15:38.000Z</time>
      </trkpt>
      <trkpt lat="43.57121" lon="6.83586">
        <ele>230.8</ele>
        <time>2025-10-24T07:15:39.000Z</time>
      </trkpt>
      <trkpt lat="43.57125" lon="6.83588">
        <ele>230.4</ele>
        <time>2025-10-24T07:15:40.000Z</time>
      </trkpt>
      <trkpt lat="43.57128" lon="6.8359">
        <ele>230.2</ele>
        <time>2025-10-24T07:15:41.000Z</time>
      </trkpt>
      <trkpt lat="43.57129" lon="6.83592">
        <ele>230</ele>
        <time>2025-10-24T07:15:42.000Z</time>
      </trkpt>
      <trkpt lat="43.5713" lon="6.83594">
        <ele>230</ele>
        <time>2025-10-24T07:15:43.000Z</time>
      </trkpt>
      <trkpt lat="43.5713" lon="6.83595">
        <ele>230</ele>
        <time>2025-10-24T07:15:44.000Z</time>
      </trkpt>
      <trkpt lat="43.5713" lon="6.83595">
        <ele>230</ele>
        <time>2025-10-24T07:15:45.000Z</time>
      </trkpt>
      <trkpt lat="43.57129" lon="6.83595">
        <ele>230</ele>
        <time>2025-10-24T07:15:46.000Z</time>
      </trkpt>
      <trkpt lat="43.57129" lon="6.83596">
        <ele>229.9</ele>
        <time>2025-10-24T07:15:47.000Z</time>
      </trkpt>
      <trkpt lat="43.57129" lon="6.83596">
        <ele>229.9</ele>
        <time>2025-10-24T07:15:48.000Z</time>
      </trkpt>
      <trkpt lat="43.57129" lon="6.83597">
        <ele>229.9</ele>
        <time>2025-10-24T07:15:49.000Z</time>
      </trkpt>
      <trkpt lat="43.57129" lon="6.83598">
        <ele>229.9</ele>
        <time>2025-10-24T07:15:50.000Z</time>
      </trkpt>
      <trkpt lat="43.57128" lon="6.83598">
        <ele>229.9</ele>
        <time>2025-10-24T07:15:51.000Z</time>
      </trkpt>
      <trkpt lat="43.57129" lon="6.83598">
        <ele>229.9</ele>
        <time>2025-10-24T07:15:52.000Z</time>
      </trkpt>
      <trkpt lat="43.57129" lon="6.83598">
        <ele>229.9</ele>
        <time>2025-10-24T07:15:53.000Z</time>
      </trkpt>
      <trkpt lat="43.57129" lon="6.83598">
        <ele>229.9</ele>
        <time>2025-10-24T07:15:54.000Z</time>
      </trkpt>
      <trkpt lat="43.57128" lon="6.83598">
        <ele>229.9</ele>
        <time>2025-10-24T07:15:55.000Z</time>
      </trkpt>
      <trkpt lat="43.57128" lon="6.83598">
        <ele>229.9</ele>
        <time>2025-10-24T07:15:56.000Z</time>
      </trkpt>
      <trkpt lat="43.57128" lon="6.83598">
        <ele>230</ele>
        <time>2025-10-24T07:15:57.000Z</time>
      </trkpt>
      <trkpt lat="43.57128" lon="6.83598">
        <ele>230</ele>
        <time>2025-10-24T07:15:58.000Z</time>
      </trkpt>
      <trkpt lat="43.57128" lon="6.83598">
        <ele>230</ele>
        <time>2025-10-24T07:15:59.000Z</time>
      </trkpt>
      <trkpt lat="43.57128" lon="6.83598">
        <ele>230</ele>
        <time>2025-10-24T07:16:00.000Z</time>
      </trkpt>
      <trkpt lat="43.57129" lon="6.83603">
        <ele>230.1</ele>
        <time>2025-10-24T07:16:01.000Z</time>
      </trkpt>
      <trkpt lat="43.57131" lon="6.83607">
        <ele>230.6</ele>
        <time>2025-10-24T07:16:02.000Z</time>
      </trkpt>
      <trkpt lat="43.57132" lon="6.83611">
        <ele>231.3</ele>
        <time>2025-10-24T07:16:03.000Z</time>
      </trkpt>
      <trkpt lat="43.57132" lon="6.83615">
        <ele>231.9</ele>
        <time>2025-10-24T07:16:04.000Z</time>
      </trkpt>
      <trkpt lat="43.57133" lon="6.83617">
        <ele>232.5</ele>
        <time>2025-10-24T07:16:05.000Z</time>
      </trkpt>
      <trkpt lat="43.57134" lon="6.83619">
        <ele>232.8</ele>
        <time>2025-10-24T07:16:06.000Z</time>
      </trkpt>
      <trkpt lat="43.57134" lon="6.8362">
        <ele>233</ele>
        <time>2025-10-24T07:16:07.000Z</time>
      </trkpt>
      <trkpt lat="43.57134" lon="6.8362">
        <ele>233.1</ele>
        <time>2025-10-24T07:16:08.000Z</time>
      </trkpt>
      <trkpt lat="43.57134" lon="6.83621">
        <ele>233.3</ele>
        <time>2025-10-24T07:16:09.000Z</time>
      </trkpt>
      <trkpt lat="43.57134" lon="6.83621">
        <ele>233.3</ele>
        <time>2025-10-24T07:16:10.000Z</time>
      </trkpt>
      <trkpt lat="43.57134" lon="6.83621">
        <ele>233.4</ele>
        <time>2025-10-24T07:16:11.000Z</time>
      </trkpt>
      <trkpt lat="43.57134" lon="6.83621">
        <ele>233.4</ele>
        <time>2025-10-24T07:16:12.000Z</time>
      </trkpt>
      <trkpt lat="43.57134" lon="6.8362">
        <ele>233.5</ele>
        <time>2025-10-24T07:16:13.000Z</time>
      </trkpt>
      <trkpt lat="43.57134" lon="6.8362">
        <ele>233.5</ele>
        <time>2025-10-24T07:16:14.000Z</time>
      </trkpt>
      <trkpt lat="43.57134" lon="6.8362">
        <ele>233.5</ele>
        <time>2025-10-24T07:16:15.000Z</time>
      </trkpt>
      <trkpt lat="43.57134" lon="6.8362">
        <ele>233.5</ele>
        <time>2025-10-24T07:16:16.000Z</time>
      </trkpt>
      <trkpt lat="43.57134" lon="6.83621">
        <ele>233.6</ele>
        <time>2025-10-24T07:16:17.000Z</time>
      </trkpt>
      <trkpt lat="43.57134" lon="6.83621">
        <ele>233.6</ele>
        <time>2025-10-24T07:16:18.000Z</time>
      </trkpt>
      <trkpt lat="43.57134" lon="6.83622">
        <ele>233.7</ele>
        <time>2025-10-24T07:16:19.000Z</time>
      </trkpt>
      <trkpt lat="43.57134" lon="6.83622">
        <ele>233.8</ele>
        <time>2025-10-24T07:16:20.000Z</time>
      </trkpt>
      <trkpt lat="43.57134" lon="6.83623">
        <ele>234</ele>
        <time>2025-10-24T07:16:21.000Z</time>
      </trkpt>
      <trkpt lat="43.57134" lon="6.83623">
        <ele>234.2</ele>
        <time>2025-10-24T07:16:22.000Z</time>
      </trkpt>
      <trkpt lat="43.57135" lon="6.83624">
        <ele>234.3</ele>
        <time>2025-10-24T07:16:23.000Z</time>
      </trkpt>
      <trkpt lat="43.57135" lon="6.83624">
        <ele>234.4</ele>
        <time>2025-10-24T07:16:24.000Z</time>
      </trkpt>
      <trkpt lat="43.57135" lon="6.83625">
        <ele>234.6</ele>
        <time>2025-10-24T07:16:25.000Z</time>
      </trkpt>
      <trkpt lat="43.57135" lon="6.83626">
        <ele>234.7</ele>
        <time>2025-10-24T07:16:26.000Z</time>
      </trkpt>
      <trkpt lat="43.57135" lon="6.83627">
        <ele>234.9</ele>
        <time>2025-10-24T07:16:27.000Z</time>
      </trkpt>
      <trkpt lat="43.57135" lon="6.83628">
        <ele>235.1</ele>
        <time>2025-10-24T07:16:28.000Z</time>
      </trkpt>
      <trkpt lat="43.57135" lon="6.83629">
        <ele>235.4</ele>
        <time>2025-10-24T07:16:29.000Z</time>
      </trkpt>
      <trkpt lat="43.57136" lon="6.8363">
        <ele>235.6</ele>
        <time>2025-10-24T07:16:30.000Z</time>
      </trkpt>
      <trkpt lat="43.57136" lon="6.83631">
        <ele>235.7</ele>
        <time>2025-10-24T07:16:31.000Z</time>
      </trkpt>
      <trkpt lat="43.57137" lon="6.83632">
        <ele>235.9</ele>
        <time>2025-10-24T07:16:32.000Z</time>
      </trkpt>
      <trkpt lat="43.57137" lon="6.83633">
        <ele>236.1</ele>
        <time>2025-10-24T07:16:33.000Z</time>
      </trkpt>
      <trkpt lat="43.57137" lon="6.83634">
        <ele>236.3</ele>
        <time>2025-10-24T07:16:34.000Z</time>
      </trkpt>
      <trkpt lat="43.57138" lon="6.83635">
        <ele>236.4</ele>
        <time>2025-10-24T07:16:35.000Z</time>
      </trkpt>
      <trkpt lat="43.57138" lon="6.83636">
        <ele>236.6</ele>
        <time>2025-10-24T07:16:36.000Z</time>
      </trkpt>
      <trkpt lat="43.57138" lon="6.83637">
        <ele>236.8</ele>
        <time>2025-10-24T07:16:37.000Z</time>
      </trkpt>
      <trkpt lat="43.57139" lon="6.83638">
        <ele>236.9</ele>
        <time>2025-10-24T07:16:38.000Z</time>
      </trkpt>
      <trkpt lat="43.57139" lon="6.83639">
        <ele>237</ele>
        <time>2025-10-24T07:16:39.000Z</time>
      </trkpt>
      <trkpt lat="43.57139" lon="6.8364">
        <ele>237.1</ele>
        <time>2025-10-24T07:16:40.000Z</time>
      </trkpt>
      <trkpt lat="43.57139" lon="6.83641">
        <ele>237.2</ele>
        <time>2025-10-24T07:16:41.000Z</time>
      </trkpt>
      <trkpt lat="43.57139" lon="6.83642">
        <ele>237.3</ele>
        <time>2025-10-24T07:16:42.000Z</time>
      </trkpt>
      <trkpt lat="43.57139" lon="6.83643">
        <ele>237.4</ele>
        <time>2025-10-24T07:16:43.000Z</time>
      </trkpt>
      <trkpt lat="43.57139" lon="6.83643">
        <ele>237.4</ele>
        <time>2025-10-24T07:16:44.000Z</time>
      </trkpt>
      <trkpt lat="43.57139" lon="6.83643">
        <ele>237.4</ele>
        <time>2025-10-24T07:16:45.000Z</time>
      </trkpt>
      <trkpt lat="43.57139" lon="6.83643">
        <ele>237.4</ele>
        <time>2025-10-24T07:16:46.000Z</time>
      </trkpt>
      <trkpt lat="43.57139" lon="6.83643">
        <ele>237.4</ele>
        <time>2025-10-24T07:16:47.000Z</time>
      </trkpt>
      <trkpt lat="43.57139" lon="6.83643">
        <ele>237.4</ele>
        <time>2025-10-24T07:16:48.000Z</time>
      </trkpt>
      <trkpt lat="43.57139" lon="6.83643">
        <ele>237.4</ele>
        <time>2025-10-24T07:16:49.000Z</time>
      </trkpt>
      <trkpt lat="43.57139" lon="6.83643">
        <ele>237.5</ele>
        <time>2025-10-24T07:16:50.000Z</time>
      </trkpt>
      <trkpt lat="43.57139" lon="6.83643">
        <ele>237.5</ele>
        <time>2025-10-24T07:16:51.000Z</time>
      </trkpt>
      <trkpt lat="43.57139" lon="6.83643">
        <ele>237.5</ele>
        <time>2025-10-24T07:16:52.000Z</time>
      </trkpt>
      <trkpt lat="43.57139" lon="6.83644">
        <ele>237.5</ele>
        <time>2025-10-24T07:16:53.000Z</time>
      </trkpt>
      <trkpt lat="43.5714" lon="6.83644">
        <ele>237.5</ele>
        <time>2025-10-24T07:16:54.000Z</time>
      </trkpt>
      <trkpt lat="43.5714" lon="6.83644">
        <ele>237.5</ele>
        <time>2025-10-24T07:16:55.000Z</time>
      </trkpt>
      <trkpt lat="43.5714" lon="6.83644">
        <ele>237.6</ele>
        <time>2025-10-24T07:16:56.000Z</time>
      </trkpt>
      <trkpt lat="43.5714" lon="6.83644">
        <ele>237.6</ele>
        <time>2025-10-24T07:16:57.000Z</time>
      </trkpt>
      <trkpt lat="43.57141" lon="6.83644">
        <ele>237.7</ele>
        <time>2025-10-24T07:16:58.000Z</time>
      </trkpt>
      <trkpt lat="43.57142" lon="6.83643">
        <ele>237.7</ele>
        <time>2025-10-24T07:16:59.000Z</time>
      </trkpt>
      <trkpt lat="43.57144" lon="6.83643">
        <ele>237.8</ele>
        <time>2025-10-24T07:17:00.000Z</time>
      </trkpt>
      <trkpt lat="43.57146" lon="6.83642">
        <ele>237.8</ele>
        <time>2025-10-24T07:17:01.000Z</time>
      </trkpt>
      <trkpt lat="43.57148" lon="6.83642">
        <ele>237.8</ele>
        <time>2025-10-24T07:17:02.000Z</time>
      </trkpt>
      <trkpt lat="43.57151" lon="6.83641">
        <ele>237.7</ele>
        <time>2025-10-24T07:17:03.000Z</time>
      </trkpt>
      <trkpt lat="43.57153" lon="6.83639">
        <ele>237.5</ele>
        <time>2025-10-24T07:17:04.000Z</time>
      </trkpt>
      <trkpt lat="43.57156" lon="6.83638">
        <ele>237.4</ele>
        <time>2025-10-24T07:17:05.000Z</time>
      </trkpt>
      <trkpt lat="43.57158" lon="6.83636">
        <ele>237.2</ele>
        <time>2025-10-24T07:17:06.000Z</time>
      </trkpt>
      <trkpt lat="43.57161" lon="6.83635">
        <ele>237</ele>
        <time>2025-10-24T07:17:07.000Z</time>
      </trkpt>
      <trkpt lat="43.57163" lon="6.83634">
        <ele>236.9</ele>
        <time>2025-10-24T07:17:08.000Z</time>
      </trkpt>
      <trkpt lat="43.57165" lon="6.83633">
        <ele>236.8</ele>
        <time>2025-10-24T07:17:09.000Z</time>
      </trkpt>
      <trkpt lat="43.57166" lon="6.83632">
        <ele>236.8</ele>
        <time>2025-10-24T07:17:10.000Z</time>
      </trkpt>
      <trkpt lat="43.57166" lon="6.83631">
        <ele>236.7</ele>
        <time>2025-10-24T07:17:11.000Z</time>
      </trkpt>
      <trkpt lat="43.57167" lon="6.83631">
        <ele>236.7</ele>
        <time>2025-10-24T07:17:12.000Z</time>
      </trkpt>
      <trkpt lat="43.57167" lon="6.83631">
        <ele>236.7</ele>
        <time>2025-10-24T07:17:13.000Z</time>
      </trkpt>
      <trkpt lat="43.57167" lon="6.83631">
        <ele>236.7</ele>
        <time>2025-10-24T07:17:14.000Z</time>
      </trkpt>
      <trkpt lat="43.57167" lon="6.83631">
        <ele>236.7</ele>
        <time>2025-10-24T07:17:15.000Z</time>
      </trkpt>
      <trkpt lat="43.57167" lon="6.83631">
        <ele>236.7</ele>
        <time>2025-10-24T07:17:16.000Z</time>
      </trkpt>
      <trkpt lat="43.57167" lon="6.83631">
        <ele>236.7</ele>
        <time>2025-10-24T07:17:17.000Z</time>
      </trkpt>
      <trkpt lat="43.57167" lon="6.83631">
        <ele>236.7</ele>
        <time>2025-10-24T07:17:18.000Z</time>
      </trkpt>
      <trkpt lat="43.57167" lon="6.8363">
        <ele>236.7</ele>
        <time>2025-10-24T07:17:19.000Z</time>
      </trkpt>
      <trkpt lat="43.57167" lon="6.8363">
        <ele>236.7</ele>
        <time>2025-10-24T07:17:20.000Z</time>
      </trkpt>
      <trkpt lat="43.57167" lon="6.8363">
        <ele>236.7</ele>
        <time>2025-10-24T07:17:21.000Z</time>
      </trkpt>
      <trkpt lat="43.57167" lon="6.8363">
        <ele>236.6</ele>
        <time>2025-10-24T07:17:22.000Z</time>
      </trkpt>
      <trkpt lat="43.57167" lon="6.8363">
        <ele>236.6</ele>
        <time>2025-10-24T07:17:23.000Z</time>
      </trkpt>
      <trkpt lat="43.57168" lon="6.8363">
        <ele>236.6</ele>
        <time>2025-10-24T07:17:24.000Z</time>
      </trkpt>
      <trkpt lat="43.57168" lon="6.8363">
        <ele>236.6</ele>
        <time>2025-10-24T07:17:25.000Z</time>
      </trkpt>
      <trkpt lat="43.57168" lon="6.8363">
        <ele>236.6</ele>
        <time>2025-10-24T07:17:26.000Z</time>
      </trkpt>
      <trkpt lat="43.57168" lon="6.8363">
        <ele>236.6</ele>
        <time>2025-10-24T07:17:27.000Z</time>
      </trkpt>
      <trkpt lat="43.57168" lon="6.8363">
        <ele>236.6</ele>
        <time>2025-10-24T07:17:28.000Z</time>
      </trkpt>
      <trkpt lat="43.57168" lon="6.8363">
        <ele>236.6</ele>
        <time>2025-10-24T07:17:29.000Z</time>
      </trkpt>
      <trkpt lat="43.57168" lon="6.8363">
        <ele>236.6</ele>
        <time>2025-10-24T07:17:30.000Z</time>
      </trkpt>
      <trkpt lat="43.57168" lon="6.8363">
        <ele>236.6</ele>
        <time>2025-10-24T07:17:31.000Z</time>
      </trkpt>
      <trkpt lat="43.57168" lon="6.8363">
        <ele>236.6</ele>
        <time>2025-10-24T07:17:32.000Z</time>
      </trkpt>
      <trkpt lat="43.57168" lon="6.8363">
        <ele>236.6</ele>
        <time>2025-10-24T07:17:33.000Z</time>
      </trkpt>
      <trkpt lat="43.57168" lon="6.8363">
        <ele>236.6</ele>
        <time>2025-10-24T07:17:34.000Z</time>
      </trkpt>
      <trkpt lat="43.57168" lon="6.8363">
        <ele>236.6</ele>
        <time>2025-10-24T07:17:35.000Z</time>
      </trkpt>
      <trkpt lat="43.57168" lon="6.8363">
        <ele>236.6</ele>
        <time>2025-10-24T07:17:36.000Z</time>
      </trkpt>
      <trkpt lat="43.57168" lon="6.8363">
        <ele>236.6</ele>
        <time>2025-10-24T07:17:37.000Z</time>
      </trkpt>
      <trkpt lat="43.57167" lon="6.8363">
        <ele>236.6</ele>
        <time>2025-10-24T07:17:38.000Z</time>
      </trkpt>
      <trkpt lat="43.57167" lon="6.8363">
        <ele>236.6</ele>
        <time>2025-10-24T07:17:39.000Z</time>
      </trkpt>
      <trkpt lat="43.57167" lon="6.8363">
        <ele>236.6</ele>
        <time>2025-10-24T07:17:40.000Z</time>
      </trkpt>
      <trkpt lat="43.57167" lon="6.83631">
        <ele>236.6</ele>
        <time>2025-10-24T07:17:41.000Z</time>
      </trkpt>
      <trkpt lat="43.57167" lon="6.83631">
        <ele>236.6</ele>
        <time>2025-10-24T07:17:42.000Z</time>
      </trkpt>
      <trkpt lat="43.57167" lon="6.83631">
        <ele>236.6</ele>
        <time>2025-10-24T07:17:43.000Z</time>
      </trkpt>
      <trkpt lat="43.57167" lon="6.83631">
        <ele>236.6</ele>
        <time>2025-10-24T07:17:44.000Z</time>
      </trkpt>
      <trkpt lat="43.57167" lon="6.83631">
        <ele>236.6</ele>
        <time>2025-10-24T07:17:45.000Z</time>
      </trkpt>
      <trkpt lat="43.57167" lon="6.83631">
        <ele>236.6</ele>
        <time>2025-10-24T07:17:46.000Z</time>
      </trkpt>
      <trkpt lat="43.57167" lon="6.83631">
        <ele>236.6</ele>
        <time>2025-10-24T07:17:47.000Z</time>
      </trkpt>
      <trkpt lat="43.57167" lon="6.83631">
        <ele>236.6</ele>
        <time>2025-10-24T07:17:48.000Z</time>
      </trkpt>
      <trkpt lat="43.57167" lon="6.83631">
        <ele>236.6</ele>
        <time>2025-10-24T07:17:49.000Z</time>
      </trkpt>
      <trkpt lat="43.57167" lon="6.83631">
        <ele>236.6</ele>
        <time>2025-10-24T07:17:50.000Z</time>
      </trkpt>
      <trkpt lat="43.57168" lon="6.83631">
        <ele>236.5</ele>
        <time>2025-10-24T07:17:51.000Z</time>
      </trkpt>
      <trkpt lat="43.57169" lon="6.83631">
        <ele>236.5</ele>
        <time>2025-10-24T07:17:52.000Z</time>
      </trkpt>
      <trkpt lat="43.57171" lon="6.83631">
        <ele>236.4</ele>
        <time>2025-10-24T07:17:53.000Z</time>
      </trkpt>
      <trkpt lat="43.57172" lon="6.83631">
        <ele>236.3</ele>
        <time>2025-10-24T07:17:54.000Z</time>
      </trkpt>
      <trkpt lat="43.57174" lon="6.83631">
        <ele>236.2</ele>
        <time>2025-10-24T07:17:55.000Z</time>
      </trkpt>
      <trkpt lat="43.57175" lon="6.83631">
        <ele>236.1</ele>
        <time>2025-10-24T07:17:56.000Z</time>
      </trkpt>
      <trkpt lat="43.57177" lon="6.8363">
        <ele>235.9</ele>
        <time>2025-10-24T07:17:57.000Z</time>
      </trkpt>
      <trkpt lat="43.57179" lon="6.8363">
        <ele>235.6</ele>
        <time>2025-10-24T07:17:58.000Z</time>
      </trkpt>
      <trkpt lat="43.57182" lon="6.83629">
        <ele>235.3</ele>
        <time>2025-10-24T07:17:59.000Z</time>
      </trkpt>
      <trkpt lat="43.57184" lon="6.83629">
        <ele>235</ele>
        <time>2025-10-24T07:18:00.000Z</time>
      </trkpt>
      <trkpt lat="43.57186" lon="6.83628">
        <ele>234.7</ele>
        <time>2025-10-24T07:18:01.000Z</time>
      </trkpt>
      <trkpt lat="43.57188" lon="6.83628">
        <ele>234.4</ele>
        <time>2025-10-24T07:18:02.000Z</time>
      </trkpt>
      <trkpt lat="43.57189" lon="6.83628">
        <ele>234.1</ele>
        <time>2025-10-24T07:18:03.000Z</time>
      </trkpt>
      <trkpt lat="43.57192" lon="6.83628">
        <ele>233.7</ele>
        <time>2025-10-24T07:18:04.000Z</time>
      </trkpt>
      <trkpt lat="43.57194" lon="6.83628">
        <ele>233.4</ele>
        <time>2025-10-24T07:18:05.000Z</time>
      </trkpt>
      <trkpt lat="43.57197" lon="6.8363">
        <ele>233.1</ele>
        <time>2025-10-24T07:18:06.000Z</time>
      </trkpt>
      <trkpt lat="43.572" lon="6.83632">
        <ele>233</ele>
        <time>2025-10-24T07:18:07.000Z</time>
      </trkpt>
      <trkpt lat="43.57204" lon="6.83635">
        <ele>233</ele>
        <time>2025-10-24T07:18:08.000Z</time>
      </trkpt>
      <trkpt lat="43.57208" lon="6.83639">
        <ele>233.3</ele>
        <time>2025-10-24T07:18:09.000Z</time>
      </trkpt>
      <trkpt lat="43.57212" lon="6.83642">
        <ele>233.6</ele>
        <time>2025-10-24T07:18:10.000Z</time>
      </trkpt>
      <trkpt lat="43.57214" lon="6.83644">
        <ele>233.8</ele>
        <time>2025-10-24T07:18:11.000Z</time>
      </trkpt>
      <trkpt lat="43.57217" lon="6.83646">
        <ele>233.9</ele>
        <time>2025-10-24T07:18:12.000Z</time>
      </trkpt>
      <trkpt lat="43.5722" lon="6.83647">
        <ele>234</ele>
        <time>2025-10-24T07:18:13.000Z</time>
      </trkpt>
      <trkpt lat="43.57222" lon="6.83647">
        <ele>234</ele>
        <time>2025-10-24T07:18:14.000Z</time>
      </trkpt>
      <trkpt lat="43.57224" lon="6.83647">
        <ele>233.9</ele>
        <time>2025-10-24T07:18:15.000Z</time>
      </trkpt>
      <trkpt lat="43.57227" lon="6.83648">
        <ele>233.7</ele>
        <time>2025-10-24T07:18:16.000Z</time>
      </trkpt>
      <trkpt lat="43.57229" lon="6.83648">
        <ele>233.4</ele>
        <time>2025-10-24T07:18:17.000Z</time>
      </trkpt>
      <trkpt lat="43.57232" lon="6.83649">
        <ele>233.2</ele>
        <time>2025-10-24T07:18:18.000Z</time>
      </trkpt>
      <trkpt lat="43.57234" lon="6.83649">
        <ele>232.7</ele>
        <time>2025-10-24T07:18:19.000Z</time>
      </trkpt>
      <trkpt lat="43.57237" lon="6.8365">
        <ele>232.2</ele>
        <time>2025-10-24T07:18:20.000Z</time>
      </trkpt>
      <trkpt lat="43.57238" lon="6.83649">
        <ele>231.8</ele>
        <time>2025-10-24T07:18:21.000Z</time>
      </trkpt>
      <trkpt lat="43.57241" lon="6.83649">
        <ele>231.3</ele>
        <time>2025-10-24T07:18:22.000Z</time>
      </trkpt>
      <trkpt lat="43.57243" lon="6.83648">
        <ele>230.7</ele>
        <time>2025-10-24T07:18:23.000Z</time>
      </trkpt>
      <trkpt lat="43.57246" lon="6.83647">
        <ele>230</ele>
        <time>2025-10-24T07:18:24.000Z</time>
      </trkpt>
      <trkpt lat="43.57249" lon="6.83645">
        <ele>229</ele>
        <time>2025-10-24T07:18:25.000Z</time>
      </trkpt>
      <trkpt lat="43.57252" lon="6.83644">
        <ele>228.2</ele>
        <time>2025-10-24T07:18:26.000Z</time>
      </trkpt>
      <trkpt lat="43.57257" lon="6.83641">
        <ele>227.1</ele>
        <time>2025-10-24T07:18:27.000Z</time>
      </trkpt>
      <trkpt lat="43.57263" lon="6.83638">
        <ele>226</ele>
        <time>2025-10-24T07:18:28.000Z</time>
      </trkpt>
      <trkpt lat="43.57268" lon="6.83637">
        <ele>225.4</ele>
        <time>2025-10-24T07:18:29.000Z</time>
      </trkpt>
      <trkpt lat="43.57272" lon="6.83635">
        <ele>224.9</ele>
        <time>2025-10-24T07:18:30.000Z</time>
      </trkpt>
      <trkpt lat="43.57275" lon="6.83634">
        <ele>224.5</ele>
        <time>2025-10-24T07:18:31.000Z</time>
      </trkpt>
      <trkpt lat="43.57277" lon="6.83634">
        <ele>224.3</ele>
        <time>2025-10-24T07:18:32.000Z</time>
      </trkpt>
      <trkpt lat="43.57279" lon="6.83633">
        <ele>224.3</ele>
        <time>2025-10-24T07:18:33.000Z</time>
      </trkpt>
      <trkpt lat="43.57279" lon="6.83634">
        <ele>224.3</ele>
        <time>2025-10-24T07:18:34.000Z</time>
      </trkpt>
      <trkpt lat="43.57279" lon="6.83634">
        <ele>224.3</ele>
        <time>2025-10-24T07:18:35.000Z</time>
      </trkpt>
      <trkpt lat="43.57279" lon="6.83634">
        <ele>224.3</ele>
        <time>2025-10-24T07:18:36.000Z</time>
      </trkpt>
      <trkpt lat="43.57279" lon="6.83634">
        <ele>224.3</ele>
        <time>2025-10-24T07:18:37.000Z</time>
      </trkpt>
      <trkpt lat="43.57279" lon="6.83634">
        <ele>224.3</ele>
        <time>2025-10-24T07:18:38.000Z</time>
      </trkpt>
      <trkpt lat="43.57279" lon="6.83634">
        <ele>224.3</ele>
        <time>2025-10-24T07:18:39.000Z</time>
      </trkpt>
      <trkpt lat="43.57279" lon="6.83634">
        <ele>224.3</ele>
        <time>2025-10-24T07:18:40.000Z</time>
      </trkpt>
      <trkpt lat="43.57279" lon="6.83634">
        <ele>224.3</ele>
        <time>2025-10-24T07:18:41.000Z</time>
      </trkpt>
      <trkpt lat="43.57279" lon="6.83634">
        <ele>224.3</ele>
        <time>2025-10-24T07:18:42.000Z</time>
      </trkpt>
      <trkpt lat="43.57279" lon="6.83635">
        <ele>224.3</ele>
        <time>2025-10-24T07:18:43.000Z</time>
      </trkpt>
      <trkpt lat="43.57279" lon="6.83635">
        <ele>224.3</ele>
        <time>2025-10-24T07:18:44.000Z</time>
      </trkpt>
      <trkpt lat="43.5728" lon="6.83636">
        <ele>224.3</ele>
        <time>2025-10-24T07:18:45.000Z</time>
      </trkpt>
      <trkpt lat="43.57281" lon="6.83638">
        <ele>224.4</ele>
        <time>2025-10-24T07:18:46.000Z</time>
      </trkpt>
      <trkpt lat="43.57283" lon="6.8364">
        <ele>224.6</ele>
        <time>2025-10-24T07:18:47.000Z</time>
      </trkpt>
      <trkpt lat="43.57284" lon="6.83643">
        <ele>224.8</ele>
        <time>2025-10-24T07:18:48.000Z</time>
      </trkpt>
      <trkpt lat="43.57285" lon="6.83646">
        <ele>224.9</ele>
        <time>2025-10-24T07:18:49.000Z</time>
      </trkpt>
      <trkpt lat="43.57285" lon="6.83649">
        <ele>225.1</ele>
        <time>2025-10-24T07:18:50.000Z</time>
      </trkpt>
      <trkpt lat="43.57286" lon="6.83653">
        <ele>225.3</ele>
        <time>2025-10-24T07:18:51.000Z</time>
      </trkpt>
      <trkpt lat="43.57287" lon="6.83657">
        <ele>225.6</ele>
        <time>2025-10-24T07:18:52.000Z</time>
      </trkpt>
      <trkpt lat="43.57287" lon="6.83661">
        <ele>225.8</ele>
        <time>2025-10-24T07:18:53.000Z</time>
      </trkpt>
      <trkpt lat="43.57286" lon="6.83664">
        <ele>226.1</ele>
        <time>2025-10-24T07:18:54.000Z</time>
      </trkpt>
      <trkpt lat="43.57286" lon="6.83668">
        <ele>226.4</ele>
        <time>2025-10-24T07:18:55.000Z</time>
      </trkpt>
      <trkpt lat="43.57285" lon="6.83673">
        <ele>226.7</ele>
        <time>2025-10-24T07:18:56.000Z</time>
      </trkpt>
      <trkpt lat="43.57285" lon="6.83676">
        <ele>227</ele>
        <time>2025-10-24T07:18:57.000Z</time>
      </trkpt>
      <trkpt lat="43.57284" lon="6.8368">
        <ele>227.3</ele>
        <time>2025-10-24T07:18:58.000Z</time>
      </trkpt>
      <trkpt lat="43.57283" lon="6.83684">
        <ele>227.6</ele>
        <time>2025-10-24T07:18:59.000Z</time>
      </trkpt>
      <trkpt lat="43.57282" lon="6.83688">
        <ele>227.9</ele>
        <time>2025-10-24T07:19:00.000Z</time>
      </trkpt>
      <trkpt lat="43.57282" lon="6.83691">
        <ele>228.2</ele>
        <time>2025-10-24T07:19:01.000Z</time>
      </trkpt>
      <trkpt lat="43.57281" lon="6.83695">
        <ele>228.5</ele>
        <time>2025-10-24T07:19:02.000Z</time>
      </trkpt>
      <trkpt lat="43.57281" lon="6.83698">
        <ele>228.8</ele>
        <time>2025-10-24T07:19:03.000Z</time>
      </trkpt>
      <trkpt lat="43.57281" lon="6.83701">
        <ele>229</ele>
        <time>2025-10-24T07:19:04.000Z</time>
      </trkpt>
      <trkpt lat="43.5728" lon="6.83705">
        <ele>229.3</ele>
        <time>2025-10-24T07:19:05.000Z</time>
      </trkpt>
      <trkpt lat="43.5728" lon="6.83709">
        <ele>229.6</ele>
        <time>2025-10-24T07:19:06.000Z</time>
      </trkpt>
      <trkpt lat="43.57281" lon="6.83712">
        <ele>229.9</ele>
        <time>2025-10-24T07:19:07.000Z</time>
      </trkpt>
      <trkpt lat="43.57281" lon="6.83716">
        <ele>230.1</ele>
        <time>2025-10-24T07:19:08.000Z</time>
      </trkpt>
      <trkpt lat="43.57281" lon="6.83719">
        <ele>230.4</ele>
        <time>2025-10-24T07:19:09.000Z</time>
      </trkpt>
      <trkpt lat="43.57281" lon="6.83724">
        <ele>230.7</ele>
        <time>2025-10-24T07:19:10.000Z</time>
      </trkpt>
      <trkpt lat="43.5728" lon="6.83729">
        <ele>230.9</ele>
        <time>2025-10-24T07:19:11.000Z</time>
      </trkpt>
      <trkpt lat="43.57279" lon="6.83733">
        <ele>231.1</ele>
        <time>2025-10-24T07:19:12.000Z</time>
      </trkpt>
      <trkpt lat="43.57278" lon="6.83736">
        <ele>231.3</ele>
        <time>2025-10-24T07:19:13.000Z</time>
      </trkpt>
      <trkpt lat="43.57276" lon="6.8374">
        <ele>231.4</ele>
        <time>2025-10-24T07:19:14.000Z</time>
      </trkpt>
      <trkpt lat="43.57274" lon="6.83745">
        <ele>231.7</ele>
        <time>2025-10-24T07:19:15.000Z</time>
      </trkpt>
      <trkpt lat="43.57273" lon="6.8375">
        <ele>231.8</ele>
        <time>2025-10-24T07:19:16.000Z</time>
      </trkpt>
      <trkpt lat="43.57272" lon="6.83754">
        <ele>232</ele>
        <time>2025-10-24T07:19:17.000Z</time>
      </trkpt>
      <trkpt lat="43.5727" lon="6.83757">
        <ele>232.2</ele>
        <time>2025-10-24T07:19:18.000Z</time>
      </trkpt>
      <trkpt lat="43.57268" lon="6.83762">
        <ele>232.4</ele>
        <time>2025-10-24T07:19:19.000Z</time>
      </trkpt>
      <trkpt lat="43.57266" lon="6.83767">
        <ele>232.7</ele>
        <time>2025-10-24T07:19:20.000Z</time>
      </trkpt>
      <trkpt lat="43.57264" lon="6.83772">
        <ele>232.9</ele>
        <time>2025-10-24T07:19:21.000Z</time>
      </trkpt>
      <trkpt lat="43.57262" lon="6.83775">
        <ele>233.1</ele>
        <time>2025-10-24T07:19:22.000Z</time>
      </trkpt>
      <trkpt lat="43.5726" lon="6.83779">
        <ele>233.3</ele>
        <time>2025-10-24T07:19:23.000Z</time>
      </trkpt>
      <trkpt lat="43.57256" lon="6.83785">
        <ele>233.6</ele>
        <time>2025-10-24T07:19:24.000Z</time>
      </trkpt>
      <trkpt lat="43.57254" lon="6.83789">
        <ele>233.8</ele>
        <time>2025-10-24T07:19:25.000Z</time>
      </trkpt>
      <trkpt lat="43.57252" lon="6.83794">
        <ele>234</ele>
        <time>2025-10-24T07:19:26.000Z</time>
      </trkpt>
      <trkpt lat="43.57249" lon="6.83799">
        <ele>234.3</ele>
        <time>2025-10-24T07:19:27.000Z</time>
      </trkpt>
      <trkpt lat="43.57248" lon="6.83803">
        <ele>234.5</ele>
        <time>2025-10-24T07:19:28.000Z</time>
      </trkpt>
      <trkpt lat="43.57246" lon="6.83809">
        <ele>234.9</ele>
        <time>2025-10-24T07:19:29.000Z</time>
      </trkpt>
      <trkpt lat="43.57244" lon="6.83814">
        <ele>235.3</ele>
        <time>2025-10-24T07:19:30.000Z</time>
      </trkpt>
      <trkpt lat="43.57242" lon="6.83819">
        <ele>235.7</ele>
        <time>2025-10-24T07:19:31.000Z</time>
      </trkpt>
      <trkpt lat="43.57241" lon="6.83824">
        <ele>236.2</ele>
        <time>2025-10-24T07:19:32.000Z</time>
      </trkpt>
      <trkpt lat="43.57239" lon="6.83828">
        <ele>236.5</ele>
        <time>2025-10-24T07:19:33.000Z</time>
      </trkpt>
      <trkpt lat="43.57237" lon="6.83833">
        <ele>237</ele>
        <time>2025-10-24T07:19:34.000Z</time>
      </trkpt>
      <trkpt lat="43.57235" lon="6.83837">
        <ele>237.4</ele>
        <time>2025-10-24T07:19:35.000Z</time>
      </trkpt>
      <trkpt lat="43.57234" lon="6.83841">
        <ele>237.8</ele>
        <time>2025-10-24T07:19:36.000Z</time>
      </trkpt>
      <trkpt lat="43.57232" lon="6.83846">
        <ele>238.2</ele>
        <time>2025-10-24T07:19:37.000Z</time>
      </trkpt>
      <trkpt lat="43.57231" lon="6.83849">
        <ele>238.5</ele>
        <time>2025-10-24T07:19:38.000Z</time>
      </trkpt>
      <trkpt lat="43.57229" lon="6.83854">
        <ele>238.9</ele>
        <time>2025-10-24T07:19:39.000Z</time>
      </trkpt>
      <trkpt lat="43.57227" lon="6.83858">
        <ele>239.1</ele>
        <time>2025-10-24T07:19:40.000Z</time>
      </trkpt>
      <trkpt lat="43.57226" lon="6.83861">
        <ele>239.3</ele>
        <time>2025-10-24T07:19:41.000Z</time>
      </trkpt>
      <trkpt lat="43.57225" lon="6.83865">
        <ele>239.6</ele>
        <time>2025-10-24T07:19:42.000Z</time>
      </trkpt>
      <trkpt lat="43.57223" lon="6.83869">
        <ele>239.8</ele>
        <time>2025-10-24T07:19:43.000Z</time>
      </trkpt>
      <trkpt lat="43.57222" lon="6.83873">
        <ele>240.1</ele>
        <time>2025-10-24T07:19:44.000Z</time>
      </trkpt>
      <trkpt lat="43.57221" lon="6.83877">
        <ele>240.3</ele>
        <time>2025-10-24T07:19:45.000Z</time>
      </trkpt>
      <trkpt lat="43.5722" lon="6.83881">
        <ele>240.4</ele>
        <time>2025-10-24T07:19:46.000Z</time>
      </trkpt>
      <trkpt lat="43.57218" lon="6.83886">
        <ele>240.6</ele>
        <time>2025-10-24T07:19:47.000Z</time>
      </trkpt>
      <trkpt lat="43.57216" lon="6.8389">
        <ele>240.8</ele>
        <time>2025-10-24T07:19:48.000Z</time>
      </trkpt>
      <trkpt lat="43.57215" lon="6.83894">
        <ele>240.9</ele>
        <time>2025-10-24T07:19:49.000Z</time>
      </trkpt>
      <trkpt lat="43.57213" lon="6.83898">
        <ele>240.9</ele>
        <time>2025-10-24T07:19:50.000Z</time>
      </trkpt>
      <trkpt lat="43.57211" lon="6.83901">
        <ele>240.9</ele>
        <time>2025-10-24T07:19:51.000Z</time>
      </trkpt>
      <trkpt lat="43.57209" lon="6.83906">
        <ele>240.9</ele>
        <time>2025-10-24T07:19:52.000Z</time>
      </trkpt>
      <trkpt lat="43.57207" lon="6.83911">
        <ele>240.7</ele>
        <time>2025-10-24T07:19:53.000Z</time>
      </trkpt>
      <trkpt lat="43.57206" lon="6.83915">
        <ele>240.6</ele>
        <time>2025-10-24T07:19:54.000Z</time>
      </trkpt>
      <trkpt lat="43.57205" lon="6.8392">
        <ele>240.4</ele>
        <time>2025-10-24T07:19:55.000Z</time>
      </trkpt>
      <trkpt lat="43.57203" lon="6.83925">
        <ele>240.2</ele>
        <time>2025-10-24T07:19:56.000Z</time>
      </trkpt>
      <trkpt lat="43.57202" lon="6.8393">
        <ele>240</ele>
        <time>2025-10-24T07:19:57.000Z</time>
      </trkpt>
      <trkpt lat="43.57202" lon="6.83935">
        <ele>239.9</ele>
        <time>2025-10-24T07:19:58.000Z</time>
      </trkpt>
      <trkpt lat="43.57201" lon="6.83941">
        <ele>239.8</ele>
        <time>2025-10-24T07:19:59.000Z</time>
      </trkpt>
      <trkpt lat="43.572" lon="6.83946">
        <ele>239.8</ele>
        <time>2025-10-24T07:20:00.000Z</time>
      </trkpt>
      <trkpt lat="43.57199" lon="6.83952">
        <ele>239.8</ele>
        <time>2025-10-24T07:20:01.000Z</time>
      </trkpt>
      <trkpt lat="43.57198" lon="6.83957">
        <ele>239.8</ele>
        <time>2025-10-24T07:20:02.000Z</time>
      </trkpt>
      <trkpt lat="43.57198" lon="6.83962">
        <ele>239.9</ele>
        <time>2025-10-24T07:20:03.000Z</time>
      </trkpt>
      <trkpt lat="43.57197" lon="6.83967">
        <ele>239.8</ele>
        <time>2025-10-24T07:20:04.000Z</time>
      </trkpt>
      <trkpt lat="43.57196" lon="6.83972">
        <ele>239.8</ele>
        <time>2025-10-24T07:20:05.000Z</time>
      </trkpt>
      <trkpt lat="43.57196" lon="6.83978">
        <ele>239.8</ele>
        <time>2025-10-24T07:20:06.000Z</time>
      </trkpt>
      <trkpt lat="43.57195" lon="6.83983">
        <ele>239.8</ele>
        <time>2025-10-24T07:20:07.000Z</time>
      </trkpt>
      <trkpt lat="43.57194" lon="6.83987">
        <ele>239.7</ele>
        <time>2025-10-24T07:20:08.000Z</time>
      </trkpt>
      <trkpt lat="43.57193" lon="6.83992">
        <ele>239.7</ele>
        <time>2025-10-24T07:20:09.000Z</time>
      </trkpt>
      <trkpt lat="43.57192" lon="6.83997">
        <ele>239.7</ele>
        <time>2025-10-24T07:20:10.000Z</time>
      </trkpt>
      <trkpt lat="43.57192" lon="6.84002">
        <ele>239.7</ele>
        <time>2025-10-24T07:20:11.000Z</time>
      </trkpt>
      <trkpt lat="43.57192" lon="6.84007">
        <ele>239.7</ele>
        <time>2025-10-24T07:20:12.000Z</time>
      </trkpt>
      <trkpt lat="43.57193" lon="6.84013">
        <ele>239.7</ele>
        <time>2025-10-24T07:20:13.000Z</time>
      </trkpt>
      <trkpt lat="43.57193" lon="6.84017">
        <ele>239.6</ele>
        <time>2025-10-24T07:20:14.000Z</time>
      </trkpt>
      <trkpt lat="43.57193" lon="6.84021">
        <ele>239.5</ele>
        <time>2025-10-24T07:20:15.000Z</time>
      </trkpt>
      <trkpt lat="43.57193" lon="6.84026">
        <ele>239.4</ele>
        <time>2025-10-24T07:20:16.000Z</time>
      </trkpt>
      <trkpt lat="43.57193" lon="6.8403">
        <ele>239.3</ele>
        <time>2025-10-24T07:20:17.000Z</time>
      </trkpt>
      <trkpt lat="43.57193" lon="6.84034">
        <ele>239.1</ele>
        <time>2025-10-24T07:20:18.000Z</time>
      </trkpt>
      <trkpt lat="43.57193" lon="6.84037">
        <ele>238.9</ele>
        <time>2025-10-24T07:20:19.000Z</time>
      </trkpt>
      <trkpt lat="43.57194" lon="6.8404">
        <ele>238.8</ele>
        <time>2025-10-24T07:20:20.000Z</time>
      </trkpt>
      <trkpt lat="43.57194" lon="6.84041">
        <ele>238.7</ele>
        <time>2025-10-24T07:20:21.000Z</time>
      </trkpt>
      <trkpt lat="43.57194" lon="6.84042">
        <ele>238.6</ele>
        <time>2025-10-24T07:20:22.000Z</time>
      </trkpt>
      <trkpt lat="43.57194" lon="6.84042">
        <ele>238.6</ele>
        <time>2025-10-24T07:20:23.000Z</time>
      </trkpt>
      <trkpt lat="43.57195" lon="6.84042">
        <ele>238.6</ele>
        <time>2025-10-24T07:20:24.000Z</time>
      </trkpt>
      <trkpt lat="43.57194" lon="6.84042">
        <ele>238.6</ele>
        <time>2025-10-24T07:20:25.000Z</time>
      </trkpt>
      <trkpt lat="43.57195" lon="6.84043">
        <ele>238.5</ele>
        <time>2025-10-24T07:20:26.000Z</time>
      </trkpt>
      <trkpt lat="43.57195" lon="6.84044">
        <ele>238.4</ele>
        <time>2025-10-24T07:20:27.000Z</time>
      </trkpt>
      <trkpt lat="43.57195" lon="6.84047">
        <ele>238.3</ele>
        <time>2025-10-24T07:20:28.000Z</time>
      </trkpt>
      <trkpt lat="43.57196" lon="6.84049">
        <ele>238.2</ele>
        <time>2025-10-24T07:20:29.000Z</time>
      </trkpt>
      <trkpt lat="43.57196" lon="6.84053">
        <ele>238.1</ele>
        <time>2025-10-24T07:20:30.000Z</time>
      </trkpt>
      <trkpt lat="43.57196" lon="6.84056">
        <ele>238.1</ele>
        <time>2025-10-24T07:20:31.000Z</time>
      </trkpt>
      <trkpt lat="43.57196" lon="6.84059">
        <ele>238.1</ele>
        <time>2025-10-24T07:20:32.000Z</time>
      </trkpt>
      <trkpt lat="43.57195" lon="6.84062">
        <ele>238.1</ele>
        <time>2025-10-24T07:20:33.000Z</time>
      </trkpt>
      <trkpt lat="43.57195" lon="6.84065">
        <ele>238.1</ele>
        <time>2025-10-24T07:20:34.000Z</time>
      </trkpt>
      <trkpt lat="43.57194" lon="6.84069">
        <ele>238.2</ele>
        <time>2025-10-24T07:20:35.000Z</time>
      </trkpt>
      <trkpt lat="43.57194" lon="6.84072">
        <ele>238.4</ele>
        <time>2025-10-24T07:20:36.000Z</time>
      </trkpt>
      <trkpt lat="43.57194" lon="6.84075">
        <ele>238.6</ele>
        <time>2025-10-24T07:20:37.000Z</time>
      </trkpt>
      <trkpt lat="43.57194" lon="6.84079">
        <ele>238.8</ele>
        <time>2025-10-24T07:20:38.000Z</time>
      </trkpt>
      <trkpt lat="43.57194" lon="6.84083">
        <ele>239</ele>
        <time>2025-10-24T07:20:39.000Z</time>
      </trkpt>
      <trkpt lat="43.57195" lon="6.84085">
        <ele>239.2</ele>
        <time>2025-10-24T07:20:40.000Z</time>
      </trkpt>
      <trkpt lat="43.57195" lon="6.8409">
        <ele>239.6</ele>
        <time>2025-10-24T07:20:41.000Z</time>
      </trkpt>
      <trkpt lat="43.57196" lon="6.84094">
        <ele>239.9</ele>
        <time>2025-10-24T07:20:42.000Z</time>
      </trkpt>
      <trkpt lat="43.57196" lon="6.84097">
        <ele>240.2</ele>
        <time>2025-10-24T07:20:43.000Z</time>
      </trkpt>
      <trkpt lat="43.57196" lon="6.84101">
        <ele>240.6</ele>
        <time>2025-10-24T07:20:44.000Z</time>
      </trkpt>
      <trkpt lat="43.57196" lon="6.84105">
        <ele>241</ele>
        <time>2025-10-24T07:20:45.000Z</time>
      </trkpt>
      <trkpt lat="43.57197" lon="6.84109">
        <ele>241.4</ele>
        <time>2025-10-24T07:20:46.000Z</time>
      </trkpt>
      <trkpt lat="43.57197" lon="6.84112">
        <ele>241.7</ele>
        <time>2025-10-24T07:20:47.000Z</time>
      </trkpt>
      <trkpt lat="43.57197" lon="6.84115">
        <ele>242</ele>
        <time>2025-10-24T07:20:48.000Z</time>
      </trkpt>
      <trkpt lat="43.57198" lon="6.84118">
        <ele>242.3</ele>
        <time>2025-10-24T07:20:49.000Z</time>
      </trkpt>
      <trkpt lat="43.57198" lon="6.84122">
        <ele>242.6</ele>
        <time>2025-10-24T07:20:50.000Z</time>
      </trkpt>
      <trkpt lat="43.572" lon="6.84125">
        <ele>242.9</ele>
        <time>2025-10-24T07:20:51.000Z</time>
      </trkpt>
      <trkpt lat="43.57201" lon="6.84129">
        <ele>243</ele>
        <time>2025-10-24T07:20:52.000Z</time>
      </trkpt>
      <trkpt lat="43.57203" lon="6.84131">
        <ele>243.2</ele>
        <time>2025-10-24T07:20:53.000Z</time>
      </trkpt>
      <trkpt lat="43.57205" lon="6.84135">
        <ele>243.3</ele>
        <time>2025-10-24T07:20:54.000Z</time>
      </trkpt>
      <trkpt lat="43.57209" lon="6.84138">
        <ele>243.4</ele>
        <time>2025-10-24T07:20:55.000Z</time>
      </trkpt>
      <trkpt lat="43.57212" lon="6.84141">
        <ele>243.4</ele>
        <time>2025-10-24T07:20:56.000Z</time>
      </trkpt>
      <trkpt lat="43.57215" lon="6.84145">
        <ele>243.4</ele>
        <time>2025-10-24T07:20:57.000Z</time>
      </trkpt>
      <trkpt lat="43.57218" lon="6.84148">
        <ele>243.4</ele>
        <time>2025-10-24T07:20:58.000Z</time>
      </trkpt>
      <trkpt lat="43.57221" lon="6.8415">
        <ele>243.4</ele>
        <time>2025-10-24T07:20:59.000Z</time>
      </trkpt>
      <trkpt lat="43.57224" lon="6.84154">
        <ele>243.4</ele>
        <time>2025-10-24T07:21:00.000Z</time>
      </trkpt>
      <trkpt lat="43.57227" lon="6.84157">
        <ele>243.4</ele>
        <time>2025-10-24T07:21:01.000Z</time>
      </trkpt>
      <trkpt lat="43.5723" lon="6.8416">
        <ele>243.5</ele>
        <time>2025-10-24T07:21:02.000Z</time>
      </trkpt>
      <trkpt lat="43.57233" lon="6.84164">
        <ele>243.5</ele>
        <time>2025-10-24T07:21:03.000Z</time>
      </trkpt>
      <trkpt lat="43.57236" lon="6.84167">
        <ele>243.5</ele>
        <time>2025-10-24T07:21:04.000Z</time>
      </trkpt>
      <trkpt lat="43.57241" lon="6.84171">
        <ele>243.6</ele>
        <time>2025-10-24T07:21:05.000Z</time>
      </trkpt>
      <trkpt lat="43.57244" lon="6.84175">
        <ele>243.6</ele>
        <time>2025-10-24T07:21:06.000Z</time>
      </trkpt>
      <trkpt lat="43.57248" lon="6.84178">
        <ele>243.8</ele>
        <time>2025-10-24T07:21:07.000Z</time>
      </trkpt>
      <trkpt lat="43.57251" lon="6.84182">
        <ele>243.9</ele>
        <time>2025-10-24T07:21:08.000Z</time>
      </trkpt>
      <trkpt lat="43.57255" lon="6.84186">
        <ele>244.1</ele>
        <time>2025-10-24T07:21:09.000Z</time>
      </trkpt>
      <trkpt lat="43.57259" lon="6.84192">
        <ele>244.4</ele>
        <time>2025-10-24T07:21:10.000Z</time>
      </trkpt>
      <trkpt lat="43.57261" lon="6.84197">
        <ele>244.8</ele>
        <time>2025-10-24T07:21:11.000Z</time>
      </trkpt>
      <trkpt lat="43.57264" lon="6.84201">
        <ele>245.2</ele>
        <time>2025-10-24T07:21:12.000Z</time>
      </trkpt>
      <trkpt lat="43.57266" lon="6.84206">
        <ele>245.6</ele>
        <time>2025-10-24T07:21:13.000Z</time>
      </trkpt>
      <trkpt lat="43.57269" lon="6.84209">
        <ele>245.9</ele>
        <time>2025-10-24T07:21:14.000Z</time>
      </trkpt>
      <trkpt lat="43.57271" lon="6.84213">
        <ele>246.4</ele>
        <time>2025-10-24T07:21:15.000Z</time>
      </trkpt>
      <trkpt lat="43.57273" lon="6.84217">
        <ele>246.8</ele>
        <time>2025-10-24T07:21:16.000Z</time>
      </trkpt>
      <trkpt lat="43.57275" lon="6.8422">
        <ele>247.1</ele>
        <time>2025-10-24T07:21:17.000Z</time>
      </trkpt>
      <trkpt lat="43.57278" lon="6.84224">
        <ele>247.6</ele>
        <time>2025-10-24T07:21:18.000Z</time>
      </trkpt>
      <trkpt lat="43.57281" lon="6.84228">
        <ele>248.1</ele>
        <time>2025-10-24T07:21:19.000Z</time>
      </trkpt>
      <trkpt lat="43.57284" lon="6.84232">
        <ele>248.6</ele>
        <time>2025-10-24T07:21:20.000Z</time>
      </trkpt>
      <trkpt lat="43.57287" lon="6.84235">
        <ele>249</ele>
        <time>2025-10-24T07:21:21.000Z</time>
      </trkpt>
      <trkpt lat="43.57289" lon="6.84238">
        <ele>249.4</ele>
        <time>2025-10-24T07:21:22.000Z</time>
      </trkpt>
      <trkpt lat="43.57292" lon="6.84241">
        <ele>249.7</ele>
        <time>2025-10-24T07:21:23.000Z</time>
      </trkpt>
      <trkpt lat="43.57295" lon="6.84245">
        <ele>250.1</ele>
        <time>2025-10-24T07:21:24.000Z</time>
      </trkpt>
      <trkpt lat="43.57297" lon="6.84249">
        <ele>250.2</ele>
        <time>2025-10-24T07:21:25.000Z</time>
      </trkpt>
      <trkpt lat="43.57299" lon="6.84252">
        <ele>250.3</ele>
        <time>2025-10-24T07:21:26.000Z</time>
      </trkpt>
      <trkpt lat="43.57301" lon="6.84255">
        <ele>250.3</ele>
        <time>2025-10-24T07:21:27.000Z</time>
      </trkpt>
      <trkpt lat="43.57303" lon="6.84256">
        <ele>250.3</ele>
        <time>2025-10-24T07:21:28.000Z</time>
      </trkpt>
      <trkpt lat="43.57306" lon="6.84259">
        <ele>250.2</ele>
        <time>2025-10-24T07:21:29.000Z</time>
      </trkpt>
      <trkpt lat="43.57308" lon="6.84261">
        <ele>250</ele>
        <time>2025-10-24T07:21:30.000Z</time>
      </trkpt>
      <trkpt lat="43.57312" lon="6.84263">
        <ele>249.9</ele>
        <time>2025-10-24T07:21:31.000Z</time>
      </trkpt>
      <trkpt lat="43.57316" lon="6.84264">
        <ele>249.7</ele>
        <time>2025-10-24T07:21:32.000Z</time>
      </trkpt>
      <trkpt lat="43.5732" lon="6.84264">
        <ele>249.6</ele>
        <time>2025-10-24T07:21:33.000Z</time>
      </trkpt>
      <trkpt lat="43.57325" lon="6.84265">
        <ele>249.5</ele>
        <time>2025-10-24T07:21:34.000Z</time>
      </trkpt>
      <trkpt lat="43.5733" lon="6.84266">
        <ele>249.5</ele>
        <time>2025-10-24T07:21:35.000Z</time>
      </trkpt>
      <trkpt lat="43.57334" lon="6.84267">
        <ele>249.6</ele>
        <time>2025-10-24T07:21:36.000Z</time>
      </trkpt>
      <trkpt lat="43.57338" lon="6.84269">
        <ele>249.7</ele>
        <time>2025-10-24T07:21:37.000Z</time>
      </trkpt>
      <trkpt lat="43.57341" lon="6.84271">
        <ele>249.8</ele>
        <time>2025-10-24T07:21:38.000Z</time>
      </trkpt>
      <trkpt lat="43.57345" lon="6.84275">
        <ele>249.9</ele>
        <time>2025-10-24T07:21:39.000Z</time>
      </trkpt>
      <trkpt lat="43.57349" lon="6.84278">
        <ele>250</ele>
        <time>2025-10-24T07:21:40.000Z</time>
      </trkpt>
      <trkpt lat="43.57353" lon="6.84281">
        <ele>250.1</ele>
        <time>2025-10-24T07:21:41.000Z</time>
      </trkpt>
      <trkpt lat="43.57356" lon="6.84284">
        <ele>250.3</ele>
        <time>2025-10-24T07:21:42.000Z</time>
      </trkpt>
      <trkpt lat="43.57359" lon="6.84286">
        <ele>250.5</ele>
        <time>2025-10-24T07:21:43.000Z</time>
      </trkpt>
      <trkpt lat="43.57364" lon="6.8429">
        <ele>250.7</ele>
        <time>2025-10-24T07:21:44.000Z</time>
      </trkpt>
      <trkpt lat="43.57367" lon="6.84292">
        <ele>250.9</ele>
        <time>2025-10-24T07:21:45.000Z</time>
      </trkpt>
      <trkpt lat="43.57371" lon="6.84295">
        <ele>251.2</ele>
        <time>2025-10-24T07:21:46.000Z</time>
      </trkpt>
      <trkpt lat="43.57375" lon="6.84297">
        <ele>251.5</ele>
        <time>2025-10-24T07:21:47.000Z</time>
      </trkpt>
      <trkpt lat="43.57379" lon="6.84299">
        <ele>251.8</ele>
        <time>2025-10-24T07:21:48.000Z</time>
      </trkpt>
      <trkpt lat="43.57383" lon="6.84301">
        <ele>252.2</ele>
        <time>2025-10-24T07:21:49.000Z</time>
      </trkpt>
      <trkpt lat="43.57386" lon="6.84303">
        <ele>252.5</ele>
        <time>2025-10-24T07:21:50.000Z</time>
      </trkpt>
      <trkpt lat="43.5739" lon="6.84306">
        <ele>252.9</ele>
        <time>2025-10-24T07:21:51.000Z</time>
      </trkpt>
      <trkpt lat="43.57393" lon="6.8431">
        <ele>253.3</ele>
        <time>2025-10-24T07:21:52.000Z</time>
      </trkpt>
      <trkpt lat="43.57396" lon="6.84314">
        <ele>253.8</ele>
        <time>2025-10-24T07:21:53.000Z</time>
      </trkpt>
      <trkpt lat="43.57398" lon="6.84318">
        <ele>254.2</ele>
        <time>2025-10-24T07:21:54.000Z</time>
      </trkpt>
      <trkpt lat="43.57401" lon="6.84322">
        <ele>254.6</ele>
        <time>2025-10-24T07:21:55.000Z</time>
      </trkpt>
      <trkpt lat="43.57402" lon="6.84327">
        <ele>255.1</ele>
        <time>2025-10-24T07:21:56.000Z</time>
      </trkpt>
      <trkpt lat="43.57404" lon="6.84332">
        <ele>255.5</ele>
        <time>2025-10-24T07:21:57.000Z</time>
      </trkpt>
      <trkpt lat="43.57405" lon="6.84337">
        <ele>256</ele>
        <time>2025-10-24T07:21:58.000Z</time>
      </trkpt>
      <trkpt lat="43.57406" lon="6.84342">
        <ele>256.4</ele>
        <time>2025-10-24T07:21:59.000Z</time>
      </trkpt>
      <trkpt lat="43.57407" lon="6.84347">
        <ele>256.8</ele>
        <time>2025-10-24T07:22:00.000Z</time>
      </trkpt>
      <trkpt lat="43.57407" lon="6.84351">
        <ele>257.2</ele>
        <time>2025-10-24T07:22:01.000Z</time>
      </trkpt>
      <trkpt lat="43.57408" lon="6.84356">
        <ele>257.5</ele>
        <time>2025-10-24T07:22:02.000Z</time>
      </trkpt>
      <trkpt lat="43.57409" lon="6.8436">
        <ele>257.8</ele>
        <time>2025-10-24T07:22:03.000Z</time>
      </trkpt>
      <trkpt lat="43.57411" lon="6.84364">
        <ele>257.9</ele>
        <time>2025-10-24T07:22:04.000Z</time>
      </trkpt>
      <trkpt lat="43.57413" lon="6.84367">
        <ele>258</ele>
        <time>2025-10-24T07:22:05.000Z</time>
      </trkpt>
      <trkpt lat="43.57416" lon="6.84369">
        <ele>258.1</ele>
        <time>2025-10-24T07:22:06.000Z</time>
      </trkpt>
      <trkpt lat="43.57419" lon="6.8437">
        <ele>258</ele>
        <time>2025-10-24T07:22:07.000Z</time>
      </trkpt>
      <trkpt lat="43.57422" lon="6.8437">
        <ele>258</ele>
        <time>2025-10-24T07:22:08.000Z</time>
      </trkpt>
      <trkpt lat="43.57425" lon="6.8437">
        <ele>257.9</ele>
        <time>2025-10-24T07:22:09.000Z</time>
      </trkpt>
      <trkpt lat="43.57428" lon="6.84369">
        <ele>257.8</ele>
        <time>2025-10-24T07:22:10.000Z</time>
      </trkpt>
      <trkpt lat="43.57432" lon="6.84368">
        <ele>257.8</ele>
        <time>2025-10-24T07:22:11.000Z</time>
      </trkpt>
      <trkpt lat="43.57437" lon="6.84367">
        <ele>257.7</ele>
        <time>2025-10-24T07:22:12.000Z</time>
      </trkpt>
      <trkpt lat="43.57441" lon="6.84366">
        <ele>257.8</ele>
        <time>2025-10-24T07:22:13.000Z</time>
      </trkpt>
      <trkpt lat="43.57445" lon="6.84365">
        <ele>257.9</ele>
        <time>2025-10-24T07:22:14.000Z</time>
      </trkpt>
      <trkpt lat="43.57449" lon="6.84365">
        <ele>258</ele>
        <time>2025-10-24T07:22:15.000Z</time>
      </trkpt>
      <trkpt lat="43.57452" lon="6.84366">
        <ele>258.1</ele>
        <time>2025-10-24T07:22:16.000Z</time>
      </trkpt>
      <trkpt lat="43.57455" lon="6.84367">
        <ele>258.2</ele>
        <time>2025-10-24T07:22:17.000Z</time>
      </trkpt>
      <trkpt lat="43.57458" lon="6.84369">
        <ele>258.4</ele>
        <time>2025-10-24T07:22:18.000Z</time>
      </trkpt>
      <trkpt lat="43.57461" lon="6.84371">
        <ele>258.5</ele>
        <time>2025-10-24T07:22:19.000Z</time>
      </trkpt>
      <trkpt lat="43.57463" lon="6.84374">
        <ele>258.6</ele>
        <time>2025-10-24T07:22:20.000Z</time>
      </trkpt>
      <trkpt lat="43.57466" lon="6.84378">
        <ele>258.7</ele>
        <time>2025-10-24T07:22:21.000Z</time>
      </trkpt>
      <trkpt lat="43.57468" lon="6.84381">
        <ele>258.8</ele>
        <time>2025-10-24T07:22:22.000Z</time>
      </trkpt>
      <trkpt lat="43.57471" lon="6.84384">
        <ele>258.9</ele>
        <time>2025-10-24T07:22:23.000Z</time>
      </trkpt>
      <trkpt lat="43.57473" lon="6.84387">
        <ele>259.1</ele>
        <time>2025-10-24T07:22:24.000Z</time>
      </trkpt>
      <trkpt lat="43.57476" lon="6.8439">
        <ele>259.3</ele>
        <time>2025-10-24T07:22:25.000Z</time>
      </trkpt>
      <trkpt lat="43.57479" lon="6.84392">
        <ele>259.5</ele>
        <time>2025-10-24T07:22:26.000Z</time>
      </trkpt>
      <trkpt lat="43.57482" lon="6.84393">
        <ele>259.7</ele>
        <time>2025-10-24T07:22:27.000Z</time>
      </trkpt>
      <trkpt lat="43.57485" lon="6.84394">
        <ele>260</ele>
        <time>2025-10-24T07:22:28.000Z</time>
      </trkpt>
      <trkpt lat="43.57488" lon="6.84395">
        <ele>260.3</ele>
        <time>2025-10-24T07:22:29.000Z</time>
      </trkpt>
      <trkpt lat="43.57491" lon="6.84397">
        <ele>260.7</ele>
        <time>2025-10-24T07:22:30.000Z</time>
      </trkpt>
      <trkpt lat="43.57494" lon="6.84399">
        <ele>261</ele>
        <time>2025-10-24T07:22:31.000Z</time>
      </trkpt>
      <trkpt lat="43.57496" lon="6.84401">
        <ele>261.4</ele>
        <time>2025-10-24T07:22:32.000Z</time>
      </trkpt>
      <trkpt lat="43.57499" lon="6.84403">
        <ele>261.7</ele>
        <time>2025-10-24T07:22:33.000Z</time>
      </trkpt>
      <trkpt lat="43.57501" lon="6.84406">
        <ele>262.1</ele>
        <time>2025-10-24T07:22:34.000Z</time>
      </trkpt>
      <trkpt lat="43.57503" lon="6.84409">
        <ele>262.4</ele>
        <time>2025-10-24T07:22:35.000Z</time>
      </trkpt>
      <trkpt lat="43.57505" lon="6.84411">
        <ele>262.7</ele>
        <time>2025-10-24T07:22:36.000Z</time>
      </trkpt>
      <trkpt lat="43.57507" lon="6.84414">
        <ele>262.9</ele>
        <time>2025-10-24T07:22:37.000Z</time>
      </trkpt>
      <trkpt lat="43.5751" lon="6.84416">
        <ele>263.2</ele>
        <time>2025-10-24T07:22:38.000Z</time>
      </trkpt>
      <trkpt lat="43.57512" lon="6.84418">
        <ele>263.4</ele>
        <time>2025-10-24T07:22:39.000Z</time>
      </trkpt>
      <trkpt lat="43.57515" lon="6.8442">
        <ele>263.7</ele>
        <time>2025-10-24T07:22:40.000Z</time>
      </trkpt>
      <trkpt lat="43.57517" lon="6.84421">
        <ele>263.9</ele>
        <time>2025-10-24T07:22:41.000Z</time>
      </trkpt>
      <trkpt lat="43.5752" lon="6.84423">
        <ele>264.1</ele>
        <time>2025-10-24T07:22:42.000Z</time>
      </trkpt>
      <trkpt lat="43.57523" lon="6.84424">
        <ele>264.4</ele>
        <time>2025-10-24T07:22:43.000Z</time>
      </trkpt>
      <trkpt lat="43.57526" lon="6.84425">
        <ele>264.6</ele>
        <time>2025-10-24T07:22:44.000Z</time>
      </trkpt>
      <trkpt lat="43.57529" lon="6.84425">
        <ele>264.9</ele>
        <time>2025-10-24T07:22:45.000Z</time>
      </trkpt>
      <trkpt lat="43.57533" lon="6.84426">
        <ele>265.2</ele>
        <time>2025-10-24T07:22:46.000Z</time>
      </trkpt>
      <trkpt lat="43.57536" lon="6.84427">
        <ele>265.5</ele>
        <time>2025-10-24T07:22:47.000Z</time>
      </trkpt>
      <trkpt lat="43.5754" lon="6.84427">
        <ele>265.8</ele>
        <time>2025-10-24T07:22:48.000Z</time>
      </trkpt>
      <trkpt lat="43.57544" lon="6.84428">
        <ele>266.1</ele>
        <time>2025-10-24T07:22:49.000Z</time>
      </trkpt>
      <trkpt lat="43.57547" lon="6.84428">
        <ele>266.4</ele>
        <time>2025-10-24T07:22:50.000Z</time>
      </trkpt>
      <trkpt lat="43.57551" lon="6.84429">
        <ele>266.7</ele>
        <time>2025-10-24T07:22:51.000Z</time>
      </trkpt>
      <trkpt lat="43.57554" lon="6.84429">
        <ele>267</ele>
        <time>2025-10-24T07:22:52.000Z</time>
      </trkpt>
      <trkpt lat="43.57558" lon="6.8443">
        <ele>267.2</ele>
        <time>2025-10-24T07:22:53.000Z</time>
      </trkpt>
      <trkpt lat="43.57561" lon="6.8443">
        <ele>267.3</ele>
        <time>2025-10-24T07:22:54.000Z</time>
      </trkpt>
      <trkpt lat="43.57563" lon="6.8443">
        <ele>267.3</ele>
        <time>2025-10-24T07:22:55.000Z</time>
      </trkpt>
      <trkpt lat="43.57566" lon="6.8443">
        <ele>267.3</ele>
        <time>2025-10-24T07:22:56.000Z</time>
      </trkpt>
      <trkpt lat="43.57568" lon="6.8443">
        <ele>267.2</ele>
        <time>2025-10-24T07:22:57.000Z</time>
      </trkpt>
      <trkpt lat="43.5757" lon="6.8443">
        <ele>267.2</ele>
        <time>2025-10-24T07:22:58.000Z</time>
      </trkpt>
      <trkpt lat="43.57573" lon="6.84432">
        <ele>267.1</ele>
        <time>2025-10-24T07:22:59.000Z</time>
      </trkpt>
      <trkpt lat="43.57576" lon="6.84434">
        <ele>266.9</ele>
        <time>2025-10-24T07:23:00.000Z</time>
      </trkpt>
      <trkpt lat="43.57581" lon="6.84438">
        <ele>266.7</ele>
        <time>2025-10-24T07:23:01.000Z</time>
      </trkpt>
      <trkpt lat="43.57585" lon="6.84441">
        <ele>266.5</ele>
        <time>2025-10-24T07:23:02.000Z</time>
      </trkpt>
      <trkpt lat="43.57588" lon="6.84443">
        <ele>266.5</ele>
        <time>2025-10-24T07:23:03.000Z</time>
      </trkpt>
      <trkpt lat="43.57592" lon="6.84444">
        <ele>266.5</ele>
        <time>2025-10-24T07:23:04.000Z</time>
      </trkpt>
      <trkpt lat="43.57595" lon="6.84444">
        <ele>266.5</ele>
        <time>2025-10-24T07:23:05.000Z</time>
      </trkpt>
      <trkpt lat="43.57598" lon="6.84443">
        <ele>266.6</ele>
        <time>2025-10-24T07:23:06.000Z</time>
      </trkpt>
      <trkpt lat="43.57603" lon="6.84442">
        <ele>266.9</ele>
        <time>2025-10-24T07:23:07.000Z</time>
      </trkpt>
      <trkpt lat="43.57607" lon="6.84441">
        <ele>267.2</ele>
        <time>2025-10-24T07:23:08.000Z</time>
      </trkpt>
      <trkpt lat="43.5761" lon="6.84442">
        <ele>267.4</ele>
        <time>2025-10-24T07:23:09.000Z</time>
      </trkpt>
      <trkpt lat="43.57613" lon="6.84444">
        <ele>267.7</ele>
        <time>2025-10-24T07:23:10.000Z</time>
      </trkpt>
      <trkpt lat="43.57615" lon="6.84447">
        <ele>268</ele>
        <time>2025-10-24T07:23:11.000Z</time>
      </trkpt>
      <trkpt lat="43.57617" lon="6.84449">
        <ele>268.3</ele>
        <time>2025-10-24T07:23:12.000Z</time>
      </trkpt>
      <trkpt lat="43.57619" lon="6.84452">
        <ele>268.5</ele>
        <time>2025-10-24T07:23:13.000Z</time>
      </trkpt>
      <trkpt lat="43.57621" lon="6.84456">
        <ele>268.9</ele>
        <time>2025-10-24T07:23:14.000Z</time>
      </trkpt>
      <trkpt lat="43.57623" lon="6.8446">
        <ele>269.2</ele>
        <time>2025-10-24T07:23:15.000Z</time>
      </trkpt>
      <trkpt lat="43.57624" lon="6.84463">
        <ele>269.5</ele>
        <time>2025-10-24T07:23:16.000Z</time>
      </trkpt>
      <trkpt lat="43.57626" lon="6.84467">
        <ele>269.8</ele>
        <time>2025-10-24T07:23:17.000Z</time>
      </trkpt>
      <trkpt lat="43.57628" lon="6.8447">
        <ele>270.1</ele>
        <time>2025-10-24T07:23:18.000Z</time>
      </trkpt>
      <trkpt lat="43.57629" lon="6.84472">
        <ele>270.3</ele>
        <time>2025-10-24T07:23:19.000Z</time>
      </trkpt>
      <trkpt lat="43.57632" lon="6.84476">
        <ele>270.7</ele>
        <time>2025-10-24T07:23:20.000Z</time>
      </trkpt>
      <trkpt lat="43.57634" lon="6.84478">
        <ele>271</ele>
        <time>2025-10-24T07:23:21.000Z</time>
      </trkpt>
      <trkpt lat="43.57637" lon="6.84481">
        <ele>271.3</ele>
        <time>2025-10-24T07:23:22.000Z</time>
      </trkpt>
      <trkpt lat="43.5764" lon="6.84482">
        <ele>271.5</ele>
        <time>2025-10-24T07:23:23.000Z</time>
      </trkpt>
      <trkpt lat="43.57643" lon="6.84483">
        <ele>271.7</ele>
        <time>2025-10-24T07:23:24.000Z</time>
      </trkpt>
      <trkpt lat="43.57647" lon="6.84485">
        <ele>272</ele>
        <time>2025-10-24T07:23:25.000Z</time>
      </trkpt>
      <trkpt lat="43.5765" lon="6.84487">
        <ele>272.2</ele>
        <time>2025-10-24T07:23:26.000Z</time>
      </trkpt>
      <trkpt lat="43.57653" lon="6.84488">
        <ele>272.4</ele>
        <time>2025-10-24T07:23:27.000Z</time>
      </trkpt>
      <trkpt lat="43.57656" lon="6.84489">
        <ele>272.5</ele>
        <time>2025-10-24T07:23:28.000Z</time>
      </trkpt>
      <trkpt lat="43.57658" lon="6.84489">
        <ele>272.6</ele>
        <time>2025-10-24T07:23:29.000Z</time>
      </trkpt>
      <trkpt lat="43.57662" lon="6.8449">
        <ele>272.8</ele>
        <time>2025-10-24T07:23:30.000Z</time>
      </trkpt>
      <trkpt lat="43.57665" lon="6.8449">
        <ele>273</ele>
        <time>2025-10-24T07:23:31.000Z</time>
      </trkpt>
      <trkpt lat="43.57668" lon="6.84489">
        <ele>273.2</ele>
        <time>2025-10-24T07:23:32.000Z</time>
      </trkpt>
      <trkpt lat="43.57671" lon="6.84489">
        <ele>273.3</ele>
        <time>2025-10-24T07:23:33.000Z</time>
      </trkpt>
      <trkpt lat="43.57675" lon="6.84488">
        <ele>273.6</ele>
        <time>2025-10-24T07:23:34.000Z</time>
      </trkpt>
      <trkpt lat="43.57679" lon="6.84487">
        <ele>273.9</ele>
        <time>2025-10-24T07:23:35.000Z</time>
      </trkpt>
      <trkpt lat="43.57683" lon="6.84487">
        <ele>274.2</ele>
        <time>2025-10-24T07:23:36.000Z</time>
      </trkpt>
      <trkpt lat="43.57687" lon="6.84488">
        <ele>274.6</ele>
        <time>2025-10-24T07:23:37.000Z</time>
      </trkpt>
      <trkpt lat="43.57689" lon="6.84489">
        <ele>274.9</ele>
        <time>2025-10-24T07:23:38.000Z</time>
      </trkpt>
      <trkpt lat="43.57693" lon="6.84489">
        <ele>275.3</ele>
        <time>2025-10-24T07:23:39.000Z</time>
      </trkpt>
      <trkpt lat="43.57697" lon="6.8449">
        <ele>275.6</ele>
        <time>2025-10-24T07:23:40.000Z</time>
      </trkpt>
      <trkpt lat="43.577" lon="6.8449">
        <ele>276</ele>
        <time>2025-10-24T07:23:41.000Z</time>
      </trkpt>
      <trkpt lat="43.57704" lon="6.84491">
        <ele>276.3</ele>
        <time>2025-10-24T07:23:42.000Z</time>
      </trkpt>
      <trkpt lat="43.57706" lon="6.84491">
        <ele>276.6</ele>
        <time>2025-10-24T07:23:43.000Z</time>
      </trkpt>
      <trkpt lat="43.5771" lon="6.84492">
        <ele>276.9</ele>
        <time>2025-10-24T07:23:44.000Z</time>
      </trkpt>
      <trkpt lat="43.57714" lon="6.84493">
        <ele>277.2</ele>
        <time>2025-10-24T07:23:45.000Z</time>
      </trkpt>
      <trkpt lat="43.57717" lon="6.84494">
        <ele>277.5</ele>
        <time>2025-10-24T07:23:46.000Z</time>
      </trkpt>
      <trkpt lat="43.57721" lon="6.84495">
        <ele>277.9</ele>
        <time>2025-10-24T07:23:47.000Z</time>
      </trkpt>
      <trkpt lat="43.57724" lon="6.84495">
        <ele>278.2</ele>
        <time>2025-10-24T07:23:48.000Z</time>
      </trkpt>
      <trkpt lat="43.57728" lon="6.84495">
        <ele>278.6</ele>
        <time>2025-10-24T07:23:49.000Z</time>
      </trkpt>
      <trkpt lat="43.57732" lon="6.84494">
        <ele>279.1</ele>
        <time>2025-10-24T07:23:50.000Z</time>
      </trkpt>
      <trkpt lat="43.57735" lon="6.84494">
        <ele>279.5</ele>
        <time>2025-10-24T07:23:51.000Z</time>
      </trkpt>
      <trkpt lat="43.57737" lon="6.84494">
        <ele>279.7</ele>
        <time>2025-10-24T07:23:52.000Z</time>
      </trkpt>
      <trkpt lat="43.57741" lon="6.84495">
        <ele>280.1</ele>
        <time>2025-10-24T07:23:53.000Z</time>
      </trkpt>
      <trkpt lat="43.57744" lon="6.84494">
        <ele>280.4</ele>
        <time>2025-10-24T07:23:54.000Z</time>
      </trkpt>
      <trkpt lat="43.57746" lon="6.84493">
        <ele>280.6</ele>
        <time>2025-10-24T07:23:55.000Z</time>
      </trkpt>
      <trkpt lat="43.57749" lon="6.84491">
        <ele>280.9</ele>
        <time>2025-10-24T07:23:56.000Z</time>
      </trkpt>
      <trkpt lat="43.57752" lon="6.8449">
        <ele>281.1</ele>
        <time>2025-10-24T07:23:57.000Z</time>
      </trkpt>
      <trkpt lat="43.57755" lon="6.84489">
        <ele>281.3</ele>
        <time>2025-10-24T07:23:58.000Z</time>
      </trkpt>
      <trkpt lat="43.57758" lon="6.84488">
        <ele>281.6</ele>
        <time>2025-10-24T07:23:59.000Z</time>
      </trkpt>
      <trkpt lat="43.57761" lon="6.84487">
        <ele>281.8</ele>
        <time>2025-10-24T07:24:00.000Z</time>
      </trkpt>
      <trkpt lat="43.57763" lon="6.84487">
        <ele>281.9</ele>
        <time>2025-10-24T07:24:01.000Z</time>
      </trkpt>
      <trkpt lat="43.57765" lon="6.84488">
        <ele>282.1</ele>
        <time>2025-10-24T07:24:02.000Z</time>
      </trkpt>
      <trkpt lat="43.57767" lon="6.84488">
        <ele>282.2</ele>
        <time>2025-10-24T07:24:03.000Z</time>
      </trkpt>
      <trkpt lat="43.5777" lon="6.84488">
        <ele>282.4</ele>
        <time>2025-10-24T07:24:04.000Z</time>
      </trkpt>
      <trkpt lat="43.57772" lon="6.84488">
        <ele>282.6</ele>
        <time>2025-10-24T07:24:05.000Z</time>
      </trkpt>
      <trkpt lat="43.57775" lon="6.84488">
        <ele>282.7</ele>
        <time>2025-10-24T07:24:06.000Z</time>
      </trkpt>
      <trkpt lat="43.57777" lon="6.84488">
        <ele>282.9</ele>
        <time>2025-10-24T07:24:07.000Z</time>
      </trkpt>
      <trkpt lat="43.57779" lon="6.84487">
        <ele>283</ele>
        <time>2025-10-24T07:24:08.000Z</time>
      </trkpt>
      <trkpt lat="43.57782" lon="6.84486">
        <ele>283.1</ele>
        <time>2025-10-24T07:24:09.000Z</time>
      </trkpt>
      <trkpt lat="43.57785" lon="6.84485">
        <ele>283.2</ele>
        <time>2025-10-24T07:24:10.000Z</time>
      </trkpt>
      <trkpt lat="43.57787" lon="6.84483">
        <ele>283.4</ele>
        <time>2025-10-24T07:24:11.000Z</time>
      </trkpt>
      <trkpt lat="43.57789" lon="6.84481">
        <ele>283.4</ele>
        <time>2025-10-24T07:24:12.000Z</time>
      </trkpt>
      <trkpt lat="43.57792" lon="6.84479">
        <ele>283.6</ele>
        <time>2025-10-24T07:24:13.000Z</time>
      </trkpt>
      <trkpt lat="43.57795" lon="6.84477">
        <ele>283.7</ele>
        <time>2025-10-24T07:24:14.000Z</time>
      </trkpt>
      <trkpt lat="43.57797" lon="6.84475">
        <ele>283.8</ele>
        <time>2025-10-24T07:24:15.000Z</time>
      </trkpt>
      <trkpt lat="43.578" lon="6.84473">
        <ele>283.9</ele>
        <time>2025-10-24T07:24:16.000Z</time>
      </trkpt>
      <trkpt lat="43.57802" lon="6.84472">
        <ele>283.9</ele>
        <time>2025-10-24T07:24:17.000Z</time>
      </trkpt>
      <trkpt lat="43.57806" lon="6.84471">
        <ele>283.8</ele>
        <time>2025-10-24T07:24:18.000Z</time>
      </trkpt>
      <trkpt lat="43.57809" lon="6.84472">
        <ele>283.8</ele>
        <time>2025-10-24T07:24:19.000Z</time>
      </trkpt>
      <trkpt lat="43.57812" lon="6.84473">
        <ele>283.8</ele>
        <time>2025-10-24T07:24:20.000Z</time>
      </trkpt>
      <trkpt lat="43.57814" lon="6.84475">
        <ele>283.9</ele>
        <time>2025-10-24T07:24:21.000Z</time>
      </trkpt>
      <trkpt lat="43.57817" lon="6.84476">
        <ele>284</ele>
        <time>2025-10-24T07:24:22.000Z</time>
      </trkpt>
      <trkpt lat="43.57821" lon="6.84478">
        <ele>284.1</ele>
        <time>2025-10-24T07:24:23.000Z</time>
      </trkpt>
      <trkpt lat="43.57824" lon="6.8448">
        <ele>284.1</ele>
        <time>2025-10-24T07:24:24.000Z</time>
      </trkpt>
      <trkpt lat="43.57826" lon="6.84481">
        <ele>284.2</ele>
        <time>2025-10-24T07:24:25.000Z</time>
      </trkpt>
      <trkpt lat="43.57829" lon="6.84482">
        <ele>284.3</ele>
        <time>2025-10-24T07:24:26.000Z</time>
      </trkpt>
      <trkpt lat="43.57832" lon="6.84483">
        <ele>284.3</ele>
        <time>2025-10-24T07:24:27.000Z</time>
      </trkpt>
      <trkpt lat="43.57835" lon="6.84483">
        <ele>284.3</ele>
        <time>2025-10-24T07:24:28.000Z</time>
      </trkpt>
      <trkpt lat="43.57838" lon="6.84482">
        <ele>284.3</ele>
        <time>2025-10-24T07:24:29.000Z</time>
      </trkpt>
      <trkpt lat="43.57842" lon="6.84482">
        <ele>284.3</ele>
        <time>2025-10-24T07:24:30.000Z</time>
      </trkpt>
      <trkpt lat="43.57844" lon="6.84481">
        <ele>284.3</ele>
        <time>2025-10-24T07:24:31.000Z</time>
      </trkpt>
      <trkpt lat="43.57847" lon="6.84481">
        <ele>284.3</ele>
        <time>2025-10-24T07:24:32.000Z</time>
      </trkpt>
      <trkpt lat="43.57851" lon="6.84481">
        <ele>284.3</ele>
        <time>2025-10-24T07:24:33.000Z</time>
      </trkpt>
      <trkpt lat="43.57854" lon="6.84482">
        <ele>284.3</ele>
        <time>2025-10-24T07:24:34.000Z</time>
      </trkpt>
      <trkpt lat="43.57857" lon="6.84482">
        <ele>284.3</ele>
        <time>2025-10-24T07:24:35.000Z</time>
      </trkpt>
      <trkpt lat="43.57859" lon="6.84483">
        <ele>284.3</ele>
        <time>2025-10-24T07:24:36.000Z</time>
      </trkpt>
      <trkpt lat="43.57862" lon="6.84484">
        <ele>284.3</ele>
        <time>2025-10-24T07:24:37.000Z</time>
      </trkpt>
      <trkpt lat="43.57865" lon="6.84485">
        <ele>284.4</ele>
        <time>2025-10-24T07:24:38.000Z</time>
      </trkpt>
      <trkpt lat="43.57868" lon="6.84486">
        <ele>284.5</ele>
        <time>2025-10-24T07:24:39.000Z</time>
      </trkpt>
      <trkpt lat="43.57871" lon="6.84486">
        <ele>284.5</ele>
        <time>2025-10-24T07:24:40.000Z</time>
      </trkpt>
      <trkpt lat="43.57874" lon="6.84487">
        <ele>284.6</ele>
        <time>2025-10-24T07:24:41.000Z</time>
      </trkpt>
      <trkpt lat="43.57877" lon="6.84487">
        <ele>284.8</ele>
        <time>2025-10-24T07:24:42.000Z</time>
      </trkpt>
      <trkpt lat="43.57879" lon="6.84488">
        <ele>284.9</ele>
        <time>2025-10-24T07:24:43.000Z</time>
      </trkpt>
      <trkpt lat="43.57882" lon="6.84489">
        <ele>285.1</ele>
        <time>2025-10-24T07:24:44.000Z</time>
      </trkpt>
      <trkpt lat="43.57885" lon="6.8449">
        <ele>285.2</ele>
        <time>2025-10-24T07:24:45.000Z</time>
      </trkpt>
      <trkpt lat="43.57887" lon="6.84491">
        <ele>285.4</ele>
        <time>2025-10-24T07:24:46.000Z</time>
      </trkpt>
      <trkpt lat="43.5789" lon="6.84492">
        <ele>285.6</ele>
        <time>2025-10-24T07:24:47.000Z</time>
      </trkpt>
      <trkpt lat="43.57893" lon="6.84493">
        <ele>285.8</ele>
        <time>2025-10-24T07:24:48.000Z</time>
      </trkpt>
      <trkpt lat="43.57895" lon="6.84494">
        <ele>286.1</ele>
        <time>2025-10-24T07:24:49.000Z</time>
      </trkpt>
      <trkpt lat="43.57898" lon="6.84495">
        <ele>286.3</ele>
        <time>2025-10-24T07:24:50.000Z</time>
      </trkpt>
      <trkpt lat="43.579" lon="6.84496">
        <ele>286.5</ele>
        <time>2025-10-24T07:24:51.000Z</time>
      </trkpt>
      <trkpt lat="43.57904" lon="6.84497">
        <ele>286.8</ele>
        <time>2025-10-24T07:24:52.000Z</time>
      </trkpt>
      <trkpt lat="43.57906" lon="6.84498">
        <ele>287</ele>
        <time>2025-10-24T07:24:53.000Z</time>
      </trkpt>
      <trkpt lat="43.57909" lon="6.84498">
        <ele>287.2</ele>
        <time>2025-10-24T07:24:54.000Z</time>
      </trkpt>
      <trkpt lat="43.57911" lon="6.845">
        <ele>287.4</ele>
        <time>2025-10-24T07:24:55.000Z</time>
      </trkpt>
      <trkpt lat="43.57913" lon="6.845">
        <ele>287.5</ele>
        <time>2025-10-24T07:24:56.000Z</time>
      </trkpt>
      <trkpt lat="43.57917" lon="6.84502">
        <ele>287.8</ele>
        <time>2025-10-24T07:24:57.000Z</time>
      </trkpt>
      <trkpt lat="43.57919" lon="6.84503">
        <ele>288</ele>
        <time>2025-10-24T07:24:58.000Z</time>
      </trkpt>
      <trkpt lat="43.57922" lon="6.84504">
        <ele>288.1</ele>
        <time>2025-10-24T07:24:59.000Z</time>
      </trkpt>
      <trkpt lat="43.57924" lon="6.84505">
        <ele>288.3</ele>
        <time>2025-10-24T07:25:00.000Z</time>
      </trkpt>
      <trkpt lat="43.57927" lon="6.84507">
        <ele>288.5</ele>
        <time>2025-10-24T07:25:01.000Z</time>
      </trkpt>
      <trkpt lat="43.5793" lon="6.84509">
        <ele>288.7</ele>
        <time>2025-10-24T07:25:02.000Z</time>
      </trkpt>
      <trkpt lat="43.57932" lon="6.84511">
        <ele>288.8</ele>
        <time>2025-10-24T07:25:03.000Z</time>
      </trkpt>
      <trkpt lat="43.57934" lon="6.84512">
        <ele>288.9</ele>
        <time>2025-10-24T07:25:04.000Z</time>
      </trkpt>
      <trkpt lat="43.57937" lon="6.84514">
        <ele>289</ele>
        <time>2025-10-24T07:25:05.000Z</time>
      </trkpt>
      <trkpt lat="43.57939" lon="6.84515">
        <ele>289.1</ele>
        <time>2025-10-24T07:25:06.000Z</time>
      </trkpt>
      <trkpt lat="43.57941" lon="6.84517">
        <ele>289.2</ele>
        <time>2025-10-24T07:25:07.000Z</time>
      </trkpt>
      <trkpt lat="43.57944" lon="6.84519">
        <ele>289.2</ele>
        <time>2025-10-24T07:25:08.000Z</time>
      </trkpt>
      <trkpt lat="43.57946" lon="6.84521">
        <ele>289.3</ele>
        <time>2025-10-24T07:25:09.000Z</time>
      </trkpt>
      <trkpt lat="43.57949" lon="6.84523">
        <ele>289.3</ele>
        <time>2025-10-24T07:25:10.000Z</time>
      </trkpt>
      <trkpt lat="43.5795" lon="6.84524">
        <ele>289.3</ele>
        <time>2025-10-24T07:25:11.000Z</time>
      </trkpt>
      <trkpt lat="43.57953" lon="6.84525">
        <ele>289.3</ele>
        <time>2025-10-24T07:25:12.000Z</time>
      </trkpt>
      <trkpt lat="43.57956" lon="6.84527">
        <ele>289.4</ele>
        <time>2025-10-24T07:25:13.000Z</time>
      </trkpt>
      <trkpt lat="43.57958" lon="6.84528">
        <ele>289.4</ele>
        <time>2025-10-24T07:25:14.000Z</time>
      </trkpt>
      <trkpt lat="43.5796" lon="6.84529">
        <ele>289.5</ele>
        <time>2025-10-24T07:25:15.000Z</time>
      </trkpt>
      <trkpt lat="43.57963" lon="6.84532">
        <ele>289.6</ele>
        <time>2025-10-24T07:25:16.000Z</time>
      </trkpt>
      <trkpt lat="43.57965" lon="6.84533">
        <ele>289.7</ele>
        <time>2025-10-24T07:25:17.000Z</time>
      </trkpt>
      <trkpt lat="43.57968" lon="6.84535">
        <ele>289.8</ele>
        <time>2025-10-24T07:25:18.000Z</time>
      </trkpt>
      <trkpt lat="43.5797" lon="6.84537">
        <ele>289.9</ele>
        <time>2025-10-24T07:25:19.000Z</time>
      </trkpt>
      <trkpt lat="43.57973" lon="6.84539">
        <ele>290</ele>
        <time>2025-10-24T07:25:20.000Z</time>
      </trkpt>
      <trkpt lat="43.57975" lon="6.8454">
        <ele>290.2</ele>
        <time>2025-10-24T07:25:21.000Z</time>
      </trkpt>
      <trkpt lat="43.57977" lon="6.84542">
        <ele>290.3</ele>
        <time>2025-10-24T07:25:22.000Z</time>
      </trkpt>
      <trkpt lat="43.5798" lon="6.84544">
        <ele>290.5</ele>
        <time>2025-10-24T07:25:23.000Z</time>
      </trkpt>
      <trkpt lat="43.57981" lon="6.84545">
        <ele>290.6</ele>
        <time>2025-10-24T07:25:24.000Z</time>
      </trkpt>
      <trkpt lat="43.57984" lon="6.84547">
        <ele>290.7</ele>
        <time>2025-10-24T07:25:25.000Z</time>
      </trkpt>
      <trkpt lat="43.57986" lon="6.84548">
        <ele>291</ele>
        <time>2025-10-24T07:25:26.000Z</time>
      </trkpt>
      <trkpt lat="43.57988" lon="6.84549">
        <ele>291.2</ele>
        <time>2025-10-24T07:25:27.000Z</time>
      </trkpt>
      <trkpt lat="43.5799" lon="6.84551">
        <ele>291.3</ele>
        <time>2025-10-24T07:25:28.000Z</time>
      </trkpt>
      <trkpt lat="43.57992" lon="6.84551">
        <ele>291.5</ele>
        <time>2025-10-24T07:25:29.000Z</time>
      </trkpt>
      <trkpt lat="43.57993" lon="6.84552">
        <ele>291.6</ele>
        <time>2025-10-24T07:25:30.000Z</time>
      </trkpt>
      <trkpt lat="43.57993" lon="6.84552">
        <ele>291.7</ele>
        <time>2025-10-24T07:25:31.000Z</time>
      </trkpt>
      <trkpt lat="43.57993" lon="6.84552">
        <ele>291.7</ele>
        <time>2025-10-24T07:25:32.000Z</time>
      </trkpt>
      <trkpt lat="43.57993" lon="6.84552">
        <ele>291.7</ele>
        <time>2025-10-24T07:25:33.000Z</time>
      </trkpt>
      <trkpt lat="43.57993" lon="6.84552">
        <ele>291.7</ele>
        <time>2025-10-24T07:25:34.000Z</time>
      </trkpt>
      <trkpt lat="43.57994" lon="6.84552">
        <ele>291.7</ele>
        <time>2025-10-24T07:25:35.000Z</time>
      </trkpt>
      <trkpt lat="43.57994" lon="6.84552">
        <ele>291.7</ele>
        <time>2025-10-24T07:25:36.000Z</time>
      </trkpt>
      <trkpt lat="43.57994" lon="6.84552">
        <ele>291.7</ele>
        <time>2025-10-24T07:25:37.000Z</time>
      </trkpt>
      <trkpt lat="43.57994" lon="6.84553">
        <ele>291.7</ele>
        <time>2025-10-24T07:25:38.000Z</time>
      </trkpt>
      <trkpt lat="43.57994" lon="6.84553">
        <ele>291.8</ele>
        <time>2025-10-24T07:25:39.000Z</time>
      </trkpt>
      <trkpt lat="43.57994" lon="6.84553">
        <ele>291.8</ele>
        <time>2025-10-24T07:25:40.000Z</time>
      </trkpt>
      <trkpt lat="43.57994" lon="6.84554">
        <ele>291.8</ele>
        <time>2025-10-24T07:25:41.000Z</time>
      </trkpt>
      <trkpt lat="43.57994" lon="6.84554">
        <ele>291.8</ele>
        <time>2025-10-24T07:25:42.000Z</time>
      </trkpt>
      <trkpt lat="43.57994" lon="6.84554">
        <ele>291.9</ele>
        <time>2025-10-24T07:25:43.000Z</time>
      </trkpt>
      <trkpt lat="43.57994" lon="6.84554">
        <ele>291.9</ele>
        <time>2025-10-24T07:25:44.000Z</time>
      </trkpt>
      <trkpt lat="43.57994" lon="6.84554">
        <ele>291.9</ele>
        <time>2025-10-24T07:25:45.000Z</time>
      </trkpt>
      <trkpt lat="43.57994" lon="6.84554">
        <ele>291.9</ele>
        <time>2025-10-24T07:25:46.000Z</time>
      </trkpt>
      <trkpt lat="43.57994" lon="6.84554">
        <ele>291.9</ele>
        <time>2025-10-24T07:25:47.000Z</time>
      </trkpt>
      <trkpt lat="43.57994" lon="6.84554">
        <ele>291.9</ele>
        <time>2025-10-24T07:25:48.000Z</time>
      </trkpt>
      <trkpt lat="43.57994" lon="6.84554">
        <ele>291.9</ele>
        <time>2025-10-24T07:25:49.000Z</time>
      </trkpt>
      <trkpt lat="43.57994" lon="6.84554">
        <ele>291.9</ele>
        <time>2025-10-24T07:25:50.000Z</time>
      </trkpt>
      <trkpt lat="43.57994" lon="6.84554">
        <ele>291.9</ele>
        <time>2025-10-24T07:25:51.000Z</time>
      </trkpt>
      <trkpt lat="43.57994" lon="6.84554">
        <ele>291.9</ele>
        <time>2025-10-24T07:25:52.000Z</time>
      </trkpt>
      <trkpt lat="43.57994" lon="6.84554">
        <ele>291.9</ele>
        <time>2025-10-24T07:25:53.000Z</time>
      </trkpt>
      <trkpt lat="43.57994" lon="6.84554">
        <ele>291.9</ele>
        <time>2025-10-24T07:25:54.000Z</time>
      </trkpt>
      <trkpt lat="43.57994" lon="6.84554">
        <ele>291.9</ele>
        <time>2025-10-24T07:25:55.000Z</time>
      </trkpt>
      <trkpt lat="43.57994" lon="6.84554">
        <ele>291.9</ele>
        <time>2025-10-24T07:25:56.000Z</time>
      </trkpt>
      <trkpt lat="43.57994" lon="6.84554">
        <ele>291.9</ele>
        <time>2025-10-24T07:25:57.000Z</time>
      </trkpt>
      <trkpt lat="43.57994" lon="6.84554">
        <ele>291.9</ele>
        <time>2025-10-24T07:25:58.000Z</time>
      </trkpt>
      <trkpt lat="43.57994" lon="6.84554">
        <ele>291.9</ele>
        <time>2025-10-24T07:25:59.000Z</time>
      </trkpt>
      <trkpt lat="43.57994" lon="6.84554">
        <ele>291.9</ele>
        <time>2025-10-24T07:26:00.000Z</time>
      </trkpt>
      <trkpt lat="43.57994" lon="6.84554">
        <ele>292</ele>
        <time>2025-10-24T07:26:01.000Z</time>
      </trkpt>
      <trkpt lat="43.57994" lon="6.84554">
        <ele>292</ele>
        <time>2025-10-24T07:26:02.000Z</time>
      </trkpt>
      <trkpt lat="43.57994" lon="6.84554">
        <ele>292</ele>
        <time>2025-10-24T07:26:03.000Z</time>
      </trkpt>
      <trkpt lat="43.57994" lon="6.84554">
        <ele>292</ele>
        <time>2025-10-24T07:26:04.000Z</time>
      </trkpt>
      <trkpt lat="43.57994" lon="6.84554">
        <ele>292</ele>
        <time>2025-10-24T07:26:05.000Z</time>
      </trkpt>
      <trkpt lat="43.57994" lon="6.84554">
        <ele>292</ele>
        <time>2025-10-24T07:26:06.000Z</time>
      </trkpt>
      <trkpt lat="43.57994" lon="6.84554">
        <ele>292</ele>
        <time>2025-10-24T07:26:07.000Z</time>
      </trkpt>
      <trkpt lat="43.57995" lon="6.84554">
        <ele>292.1</ele>
        <time>2025-10-24T07:26:08.000Z</time>
      </trkpt>
      <trkpt lat="43.57995" lon="6.84554">
        <ele>292.1</ele>
        <time>2025-10-24T07:26:09.000Z</time>
      </trkpt>
      <trkpt lat="43.57995" lon="6.84554">
        <ele>292.1</ele>
        <time>2025-10-24T07:26:10.000Z</time>
      </trkpt>
      <trkpt lat="43.57995" lon="6.84554">
        <ele>292.1</ele>
        <time>2025-10-24T07:26:11.000Z</time>
      </trkpt>
      <trkpt lat="43.57995" lon="6.84554">
        <ele>292.1</ele>
        <time>2025-10-24T07:26:12.000Z</time>
      </trkpt>
      <trkpt lat="43.57995" lon="6.84554">
        <ele>292.1</ele>
        <time>2025-10-24T07:26:13.000Z</time>
      </trkpt>
      <trkpt lat="43.57995" lon="6.84554">
        <ele>292.1</ele>
        <time>2025-10-24T07:26:14.000Z</time>
      </trkpt>
      <trkpt lat="43.57995" lon="6.84554">
        <ele>292.1</ele>
        <time>2025-10-24T07:26:15.000Z</time>
      </trkpt>
      <trkpt lat="43.57995" lon="6.84554">
        <ele>292.1</ele>
        <time>2025-10-24T07:26:16.000Z</time>
      </trkpt>
      <trkpt lat="43.57995" lon="6.84554">
        <ele>292.1</ele>
        <time>2025-10-24T07:26:17.000Z</time>
      </trkpt>
      <trkpt lat="43.57995" lon="6.84553">
        <ele>292.1</ele>
        <time>2025-10-24T07:26:18.000Z</time>
      </trkpt>
      <trkpt lat="43.57995" lon="6.84553">
        <ele>292.2</ele>
        <time>2025-10-24T07:26:19.000Z</time>
      </trkpt>
      <trkpt lat="43.57995" lon="6.84552">
        <ele>292.2</ele>
        <time>2025-10-24T07:26:20.000Z</time>
      </trkpt>
      <trkpt lat="43.57995" lon="6.8455">
        <ele>292.3</ele>
        <time>2025-10-24T07:26:21.000Z</time>
      </trkpt>
      <trkpt lat="43.57995" lon="6.8455">
        <ele>292.4</ele>
        <time>2025-10-24T07:26:22.000Z</time>
      </trkpt>
      <trkpt lat="43.57995" lon="6.84549">
        <ele>292.4</ele>
        <time>2025-10-24T07:26:23.000Z</time>
      </trkpt>
      <trkpt lat="43.57995" lon="6.84549">
        <ele>292.4</ele>
        <time>2025-10-24T07:26:24.000Z</time>
      </trkpt>
      <trkpt lat="43.57995" lon="6.84549">
        <ele>292.4</ele>
        <time>2025-10-24T07:26:25.000Z</time>
      </trkpt>
      <trkpt lat="43.57995" lon="6.84549">
        <ele>292.4</ele>
        <time>2025-10-24T07:26:26.000Z</time>
      </trkpt>
      <trkpt lat="43.57995" lon="6.84549">
        <ele>292.4</ele>
        <time>2025-10-24T07:26:27.000Z</time>
      </trkpt>
      <trkpt lat="43.57995" lon="6.84549">
        <ele>292.4</ele>
        <time>2025-10-24T07:26:28.000Z</time>
      </trkpt>
      <trkpt lat="43.57995" lon="6.84549">
        <ele>292.5</ele>
        <time>2025-10-24T07:26:29.000Z</time>
      </trkpt>
      <trkpt lat="43.57995" lon="6.84549">
        <ele>292.5</ele>
        <time>2025-10-24T07:26:30.000Z</time>
      </trkpt>
      <trkpt lat="43.57994" lon="6.84549">
        <ele>292.5</ele>
        <time>2025-10-24T07:26:31.000Z</time>
      </trkpt>
      <trkpt lat="43.57994" lon="6.84549">
        <ele>292.5</ele>
        <time>2025-10-24T07:26:32.000Z</time>
      </trkpt>
      <trkpt lat="43.57994" lon="6.84549">
        <ele>292.5</ele>
        <time>2025-10-24T07:26:33.000Z</time>
      </trkpt>
      <trkpt lat="43.57994" lon="6.84549">
        <ele>292.5</ele>
        <time>2025-10-24T07:26:34.000Z</time>
      </trkpt>
      <trkpt lat="43.57994" lon="6.84549">
        <ele>292.5</ele>
        <time>2025-10-24T07:26:35.000Z</time>
      </trkpt>
      <trkpt lat="43.57994" lon="6.84549">
        <ele>292.5</ele>
        <time>2025-10-24T07:26:36.000Z</time>
      </trkpt>
      <trkpt lat="43.57994" lon="6.84549">
        <ele>292.5</ele>
        <time>2025-10-24T07:26:37.000Z</time>
      </trkpt>
      <trkpt lat="43.57994" lon="6.84549">
        <ele>292.5</ele>
        <time>2025-10-24T07:26:38.000Z</time>
      </trkpt>
      <trkpt lat="43.57994" lon="6.84549">
        <ele>292.5</ele>
        <time>2025-10-24T07:26:39.000Z</time>
      </trkpt>
      <trkpt lat="43.57994" lon="6.8455">
        <ele>292.5</ele>
        <time>2025-10-24T07:26:40.000Z</time>
      </trkpt>
      <trkpt lat="43.57994" lon="6.8455">
        <ele>292.5</ele>
        <time>2025-10-24T07:26:41.000Z</time>
      </trkpt>
      <trkpt lat="43.57994" lon="6.8455">
        <ele>292.5</ele>
        <time>2025-10-24T07:26:42.000Z</time>
      </trkpt>
      <trkpt lat="43.57994" lon="6.8455">
        <ele>292.6</ele>
        <time>2025-10-24T07:26:43.000Z</time>
      </trkpt>
      <trkpt lat="43.57994" lon="6.8455">
        <ele>292.6</ele>
        <time>2025-10-24T07:26:44.000Z</time>
      </trkpt>
      <trkpt lat="43.57994" lon="6.8455">
        <ele>292.6</ele>
        <time>2025-10-24T07:26:45.000Z</time>
      </trkpt>
      <trkpt lat="43.57994" lon="6.8455">
        <ele>292.6</ele>
        <time>2025-10-24T07:26:46.000Z</time>
      </trkpt>
      <trkpt lat="43.57994" lon="6.8455">
        <ele>292.6</ele>
        <time>2025-10-24T07:26:47.000Z</time>
      </trkpt>
      <trkpt lat="43.57994" lon="6.8455">
        <ele>292.6</ele>
        <time>2025-10-24T07:26:48.000Z</time>
      </trkpt>
      <trkpt lat="43.57994" lon="6.8455">
        <ele>292.6</ele>
        <time>2025-10-24T07:26:49.000Z</time>
      </trkpt>
      <trkpt lat="43.57994" lon="6.8455">
        <ele>292.6</ele>
        <time>2025-10-24T07:26:50.000Z</time>
      </trkpt>
      <trkpt lat="43.57994" lon="6.8455">
        <ele>292.6</ele>
        <time>2025-10-24T07:26:51.000Z</time>
      </trkpt>
      <trkpt lat="43.57993" lon="6.8455">
        <ele>292.6</ele>
        <time>2025-10-24T07:26:52.000Z</time>
      </trkpt>
      <trkpt lat="43.57993" lon="6.8455">
        <ele>292.7</ele>
        <time>2025-10-24T07:26:53.000Z</time>
      </trkpt>
      <trkpt lat="43.57993" lon="6.8455">
        <ele>292.7</ele>
        <time>2025-10-24T07:26:54.000Z</time>
      </trkpt>
      <trkpt lat="43.57992" lon="6.8455">
        <ele>292.8</ele>
        <time>2025-10-24T07:26:55.000Z</time>
      </trkpt>
      <trkpt lat="43.57992" lon="6.8455">
        <ele>292.8</ele>
        <time>2025-10-24T07:26:56.000Z</time>
      </trkpt>
      <trkpt lat="43.57991" lon="6.8455">
        <ele>292.8</ele>
        <time>2025-10-24T07:26:57.000Z</time>
      </trkpt>
      <trkpt lat="43.57991" lon="6.8455">
        <ele>292.8</ele>
        <time>2025-10-24T07:26:58.000Z</time>
      </trkpt>
      <trkpt lat="43.57991" lon="6.8455">
        <ele>292.8</ele>
        <time>2025-10-24T07:26:59.000Z</time>
      </trkpt>
      <trkpt lat="43.57991" lon="6.8455">
        <ele>292.8</ele>
        <time>2025-10-24T07:27:00.000Z</time>
      </trkpt>
      <trkpt lat="43.57991" lon="6.8455">
        <ele>292.8</ele>
        <time>2025-10-24T07:27:01.000Z</time>
      </trkpt>
      <trkpt lat="43.57991" lon="6.8455">
        <ele>292.8</ele>
        <time>2025-10-24T07:27:02.000Z</time>
      </trkpt>
      <trkpt lat="43.57991" lon="6.8455">
        <ele>292.8</ele>
        <time>2025-10-24T07:27:03.000Z</time>
      </trkpt>
      <trkpt lat="43.57991" lon="6.8455">
        <ele>292.8</ele>
        <time>2025-10-24T07:27:04.000Z</time>
      </trkpt>
      <trkpt lat="43.57991" lon="6.8455">
        <ele>292.8</ele>
        <time>2025-10-24T07:27:05.000Z</time>
      </trkpt>
      <trkpt lat="43.57991" lon="6.8455">
        <ele>292.9</ele>
        <time>2025-10-24T07:27:06.000Z</time>
      </trkpt>
      <trkpt lat="43.57991" lon="6.8455">
        <ele>292.9</ele>
        <time>2025-10-24T07:27:07.000Z</time>
      </trkpt>
      <trkpt lat="43.57991" lon="6.8455">
        <ele>292.9</ele>
        <time>2025-10-24T07:27:08.000Z</time>
      </trkpt>
      <trkpt lat="43.57991" lon="6.84551">
        <ele>292.9</ele>
        <time>2025-10-24T07:27:09.000Z</time>
      </trkpt>
      <trkpt lat="43.57991" lon="6.84551">
        <ele>292.9</ele>
        <time>2025-10-24T07:27:10.000Z</time>
      </trkpt>
      <trkpt lat="43.57991" lon="6.84551">
        <ele>292.9</ele>
        <time>2025-10-24T07:27:11.000Z</time>
      </trkpt>
      <trkpt lat="43.57991" lon="6.84551">
        <ele>292.9</ele>
        <time>2025-10-24T07:27:12.000Z</time>
      </trkpt>
      <trkpt lat="43.57991" lon="6.84551">
        <ele>292.9</ele>
        <time>2025-10-24T07:27:13.000Z</time>
      </trkpt>
      <trkpt lat="43.57991" lon="6.84551">
        <ele>292.9</ele>
        <time>2025-10-24T07:27:14.000Z</time>
      </trkpt>
      <trkpt lat="43.57991" lon="6.84551">
        <ele>293</ele>
        <time>2025-10-24T07:27:15.000Z</time>
      </trkpt>
      <trkpt lat="43.57991" lon="6.84551">
        <ele>293</ele>
        <time>2025-10-24T07:27:16.000Z</time>
      </trkpt>
      <trkpt lat="43.57991" lon="6.84551">
        <ele>293</ele>
        <time>2025-10-24T07:27:17.000Z</time>
      </trkpt>
      <trkpt lat="43.57991" lon="6.84551">
        <ele>293</ele>
        <time>2025-10-24T07:27:18.000Z</time>
      </trkpt>
      <trkpt lat="43.57991" lon="6.84551">
        <ele>293</ele>
        <time>2025-10-24T07:27:19.000Z</time>
      </trkpt>
      <trkpt lat="43.57992" lon="6.84552">
        <ele>293</ele>
        <time>2025-10-24T07:27:20.000Z</time>
      </trkpt>
      <trkpt lat="43.57992" lon="6.84552">
        <ele>293</ele>
        <time>2025-10-24T07:27:21.000Z</time>
      </trkpt>
      <trkpt lat="43.57992" lon="6.84552">
        <ele>293</ele>
        <time>2025-10-24T07:27:22.000Z</time>
      </trkpt>
      <trkpt lat="43.57992" lon="6.84552">
        <ele>293</ele>
        <time>2025-10-24T07:27:23.000Z</time>
      </trkpt>
      <trkpt lat="43.57992" lon="6.84552">
        <ele>293</ele>
        <time>2025-10-24T07:27:24.000Z</time>
      </trkpt>
      <trkpt lat="43.57992" lon="6.84552">
        <ele>293.1</ele>
        <time>2025-10-24T07:27:25.000Z</time>
      </trkpt>
      <trkpt lat="43.57992" lon="6.84552">
        <ele>293.1</ele>
        <time>2025-10-24T07:27:26.000Z</time>
      </trkpt>
      <trkpt lat="43.57992" lon="6.84553">
        <ele>293.1</ele>
        <time>2025-10-24T07:27:27.000Z</time>
      </trkpt>
      <trkpt lat="43.57992" lon="6.84553">
        <ele>293.1</ele>
        <time>2025-10-24T07:27:28.000Z</time>
      </trkpt>
      <trkpt lat="43.57992" lon="6.84553">
        <ele>293.1</ele>
        <time>2025-10-24T07:27:29.000Z</time>
      </trkpt>
      <trkpt lat="43.57992" lon="6.84553">
        <ele>293.1</ele>
        <time>2025-10-24T07:27:30.000Z</time>
      </trkpt>
      <trkpt lat="43.57993" lon="6.84553">
        <ele>293.2</ele>
        <time>2025-10-24T07:27:31.000Z</time>
      </trkpt>
      <trkpt lat="43.57996" lon="6.84554">
        <ele>293.5</ele>
        <time>2025-10-24T07:27:32.000Z</time>
      </trkpt>
      <trkpt lat="43.57999" lon="6.84556">
        <ele>293.8</ele>
        <time>2025-10-24T07:27:33.000Z</time>
      </trkpt>
      <trkpt lat="43.58002" lon="6.84557">
        <ele>294.1</ele>
        <time>2025-10-24T07:27:34.000Z</time>
      </trkpt>
      <trkpt lat="43.58005" lon="6.84558">
        <ele>294.3</ele>
        <time>2025-10-24T07:27:35.000Z</time>
      </trkpt>
      <trkpt lat="43.58009" lon="6.84559">
        <ele>294.6</ele>
        <time>2025-10-24T07:27:36.000Z</time>
      </trkpt>
      <trkpt lat="43.58013" lon="6.84559">
        <ele>294.8</ele>
        <time>2025-10-24T07:27:37.000Z</time>
      </trkpt>
      <trkpt lat="43.58017" lon="6.8456">
        <ele>294.9</ele>
        <time>2025-10-24T07:27:38.000Z</time>
      </trkpt>
      <trkpt lat="43.58021" lon="6.8456">
        <ele>295.1</ele>
        <time>2025-10-24T07:27:39.000Z</time>
      </trkpt>
      <trkpt lat="43.58025" lon="6.84561">
        <ele>295.2</ele>
        <time>2025-10-24T07:27:40.000Z</time>
      </trkpt>
      <trkpt lat="43.58028" lon="6.84562">
        <ele>295.3</ele>
        <time>2025-10-24T07:27:41.000Z</time>
      </trkpt>
      <trkpt lat="43.58031" lon="6.84562">
        <ele>295.4</ele>
        <time>2025-10-24T07:27:42.000Z</time>
      </trkpt>
      <trkpt lat="43.58034" lon="6.84562">
        <ele>295.5</ele>
        <time>2025-10-24T07:27:43.000Z</time>
      </trkpt>
      <trkpt lat="43.58037" lon="6.84561">
        <ele>295.6</ele>
        <time>2025-10-24T07:27:44.000Z</time>
      </trkpt>
      <trkpt lat="43.5804" lon="6.84561">
        <ele>295.8</ele>
        <time>2025-10-24T07:27:45.000Z</time>
      </trkpt>
      <trkpt lat="43.58043" lon="6.8456">
        <ele>296</ele>
        <time>2025-10-24T07:27:46.000Z</time>
      </trkpt>
      <trkpt lat="43.58045" lon="6.84558">
        <ele>296.1</ele>
        <time>2025-10-24T07:27:47.000Z</time>
      </trkpt>
      <trkpt lat="43.58047" lon="6.84557">
        <ele>296.3</ele>
        <time>2025-10-24T07:27:48.000Z</time>
      </trkpt>
      <trkpt lat="43.58049" lon="6.84555">
        <ele>296.5</ele>
        <time>2025-10-24T07:27:49.000Z</time>
      </trkpt>
      <trkpt lat="43.58052" lon="6.84554">
        <ele>296.7</ele>
        <time>2025-10-24T07:27:50.000Z</time>
      </trkpt>
      <trkpt lat="43.58055" lon="6.84554">
        <ele>297</ele>
        <time>2025-10-24T07:27:51.000Z</time>
      </trkpt>
      <trkpt lat="43.58058" lon="6.84553">
        <ele>297.2</ele>
        <time>2025-10-24T07:27:52.000Z</time>
      </trkpt>
      <trkpt lat="43.5806" lon="6.84553">
        <ele>297.4</ele>
        <time>2025-10-24T07:27:53.000Z</time>
      </trkpt>
      <trkpt lat="43.58063" lon="6.84553">
        <ele>297.7</ele>
        <time>2025-10-24T07:27:54.000Z</time>
      </trkpt>
      <trkpt lat="43.58066" lon="6.84552">
        <ele>297.9</ele>
        <time>2025-10-24T07:27:55.000Z</time>
      </trkpt>
      <trkpt lat="43.58068" lon="6.84551">
        <ele>298</ele>
        <time>2025-10-24T07:27:56.000Z</time>
      </trkpt>
      <trkpt lat="43.58069" lon="6.84549">
        <ele>298.2</ele>
        <time>2025-10-24T07:27:57.000Z</time>
      </trkpt>
      <trkpt lat="43.5807" lon="6.84546">
        <ele>298.4</ele>
        <time>2025-10-24T07:27:58.000Z</time>
      </trkpt>
      <trkpt lat="43.58071" lon="6.84542">
        <ele>298.6</ele>
        <time>2025-10-24T07:27:59.000Z</time>
      </trkpt>
      <trkpt lat="43.58072" lon="6.84539">
        <ele>298.8</ele>
        <time>2025-10-24T07:28:00.000Z</time>
      </trkpt>
      <trkpt lat="43.58072" lon="6.84536">
        <ele>299</ele>
        <time>2025-10-24T07:28:01.000Z</time>
      </trkpt>
      <trkpt lat="43.58073" lon="6.84533">
        <ele>299.2</ele>
        <time>2025-10-24T07:28:02.000Z</time>
      </trkpt>
      <trkpt lat="43.58073" lon="6.8453">
        <ele>299.4</ele>
        <time>2025-10-24T07:28:03.000Z</time>
      </trkpt>
      <trkpt lat="43.58072" lon="6.84526">
        <ele>299.6</ele>
        <time>2025-10-24T07:28:04.000Z</time>
      </trkpt>
      <trkpt lat="43.58071" lon="6.84523">
        <ele>299.9</ele>
        <time>2025-10-24T07:28:05.000Z</time>
      </trkpt>
      <trkpt lat="43.5807" lon="6.84519">
        <ele>300.1</ele>
        <time>2025-10-24T07:28:06.000Z</time>
      </trkpt>
      <trkpt lat="43.58069" lon="6.84515">
        <ele>300.3</ele>
        <time>2025-10-24T07:28:07.000Z</time>
      </trkpt>
      <trkpt lat="43.58067" lon="6.84511">
        <ele>300.6</ele>
        <time>2025-10-24T07:28:08.000Z</time>
      </trkpt>
      <trkpt lat="43.58065" lon="6.84507">
        <ele>300.9</ele>
        <time>2025-10-24T07:28:09.000Z</time>
      </trkpt>
      <trkpt lat="43.58063" lon="6.84504">
        <ele>301.1</ele>
        <time>2025-10-24T07:28:10.000Z</time>
      </trkpt>
      <trkpt lat="43.58061" lon="6.84501">
        <ele>301.3</ele>
        <time>2025-10-24T07:28:11.000Z</time>
      </trkpt>
      <trkpt lat="43.58059" lon="6.84497">
        <ele>301.6</ele>
        <time>2025-10-24T07:28:12.000Z</time>
      </trkpt>
      <trkpt lat="43.58058" lon="6.84494">
        <ele>301.8</ele>
        <time>2025-10-24T07:28:13.000Z</time>
      </trkpt>
      <trkpt lat="43.58056" lon="6.84491">
        <ele>302.1</ele>
        <time>2025-10-24T07:28:14.000Z</time>
      </trkpt>
      <trkpt lat="43.58053" lon="6.84488">
        <ele>302.3</ele>
        <time>2025-10-24T07:28:15.000Z</time>
      </trkpt>
      <trkpt lat="43.58052" lon="6.84484">
        <ele>302.6</ele>
        <time>2025-10-24T07:28:16.000Z</time>
      </trkpt>
      <trkpt lat="43.5805" lon="6.84481">
        <ele>302.9</ele>
        <time>2025-10-24T07:28:17.000Z</time>
      </trkpt>
      <trkpt lat="43.58048" lon="6.84477">
        <ele>303.1</ele>
        <time>2025-10-24T07:28:18.000Z</time>
      </trkpt>
      <trkpt lat="43.58047" lon="6.84474">
        <ele>303.4</ele>
        <time>2025-10-24T07:28:19.000Z</time>
      </trkpt>
      <trkpt lat="43.58045" lon="6.8447">
        <ele>303.7</ele>
        <time>2025-10-24T07:28:20.000Z</time>
      </trkpt>
      <trkpt lat="43.58044" lon="6.84466">
        <ele>304</ele>
        <time>2025-10-24T07:28:21.000Z</time>
      </trkpt>
      <trkpt lat="43.58043" lon="6.84463">
        <ele>304.3</ele>
        <time>2025-10-24T07:28:22.000Z</time>
      </trkpt>
      <trkpt lat="43.58042" lon="6.84459">
        <ele>304.5</ele>
        <time>2025-10-24T07:28:23.000Z</time>
      </trkpt>
      <trkpt lat="43.58041" lon="6.84455">
        <ele>304.8</ele>
        <time>2025-10-24T07:28:24.000Z</time>
      </trkpt>
      <trkpt lat="43.5804" lon="6.84451">
        <ele>305.1</ele>
        <time>2025-10-24T07:28:25.000Z</time>
      </trkpt>
      <trkpt lat="43.5804" lon="6.84447">
        <ele>305.4</ele>
        <time>2025-10-24T07:28:26.000Z</time>
      </trkpt>
      <trkpt lat="43.58039" lon="6.84442">
        <ele>305.7</ele>
        <time>2025-10-24T07:28:27.000Z</time>
      </trkpt>
      <trkpt lat="43.58039" lon="6.84438">
        <ele>305.9</ele>
        <time>2025-10-24T07:28:28.000Z</time>
      </trkpt>
      <trkpt lat="43.58039" lon="6.84434">
        <ele>306.2</ele>
        <time>2025-10-24T07:28:29.000Z</time>
      </trkpt>
      <trkpt lat="43.58039" lon="6.8443">
        <ele>306.4</ele>
        <time>2025-10-24T07:28:30.000Z</time>
      </trkpt>
      <trkpt lat="43.5804" lon="6.84426">
        <ele>306.6</ele>
        <time>2025-10-24T07:28:31.000Z</time>
      </trkpt>
      <trkpt lat="43.58041" lon="6.84421">
        <ele>306.8</ele>
        <time>2025-10-24T07:28:32.000Z</time>
      </trkpt>
      <trkpt lat="43.58042" lon="6.84417">
        <ele>307</ele>
        <time>2025-10-24T07:28:33.000Z</time>
      </trkpt>
      <trkpt lat="43.58044" lon="6.84412">
        <ele>307.2</ele>
        <time>2025-10-24T07:28:34.000Z</time>
      </trkpt>
      <trkpt lat="43.58045" lon="6.84408">
        <ele>307.4</ele>
        <time>2025-10-24T07:28:35.000Z</time>
      </trkpt>
      <trkpt lat="43.58046" lon="6.84404">
        <ele>307.6</ele>
        <time>2025-10-24T07:28:36.000Z</time>
      </trkpt>
      <trkpt lat="43.58048" lon="6.84401">
        <ele>307.7</ele>
        <time>2025-10-24T07:28:37.000Z</time>
      </trkpt>
      <trkpt lat="43.58049" lon="6.84397">
        <ele>307.9</ele>
        <time>2025-10-24T07:28:38.000Z</time>
      </trkpt>
      <trkpt lat="43.58051" lon="6.84394">
        <ele>308.1</ele>
        <time>2025-10-24T07:28:39.000Z</time>
      </trkpt>
      <trkpt lat="43.58053" lon="6.8439">
        <ele>308.3</ele>
        <time>2025-10-24T07:28:40.000Z</time>
      </trkpt>
      <trkpt lat="43.58055" lon="6.84387">
        <ele>308.6</ele>
        <time>2025-10-24T07:28:41.000Z</time>
      </trkpt>
      <trkpt lat="43.58057" lon="6.84383">
        <ele>308.8</ele>
        <time>2025-10-24T07:28:42.000Z</time>
      </trkpt>
      <trkpt lat="43.58059" lon="6.8438">
        <ele>309.1</ele>
        <time>2025-10-24T07:28:43.000Z</time>
      </trkpt>
      <trkpt lat="43.58061" lon="6.84377">
        <ele>309.3</ele>
        <time>2025-10-24T07:28:44.000Z</time>
      </trkpt>
      <trkpt lat="43.58063" lon="6.84374">
        <ele>309.6</ele>
        <time>2025-10-24T07:28:45.000Z</time>
      </trkpt>
      <trkpt lat="43.58066" lon="6.84372">
        <ele>309.8</ele>
        <time>2025-10-24T07:28:46.000Z</time>
      </trkpt>
      <trkpt lat="43.58068" lon="6.8437">
        <ele>310.1</ele>
        <time>2025-10-24T07:28:47.000Z</time>
      </trkpt>
      <trkpt lat="43.58071" lon="6.84368">
        <ele>310.3</ele>
        <time>2025-10-24T07:28:48.000Z</time>
      </trkpt>
      <trkpt lat="43.58074" lon="6.84366">
        <ele>310.6</ele>
        <time>2025-10-24T07:28:49.000Z</time>
      </trkpt>
      <trkpt lat="43.58077" lon="6.84364">
        <ele>310.9</ele>
        <time>2025-10-24T07:28:50.000Z</time>
      </trkpt>
      <trkpt lat="43.5808" lon="6.84362">
        <ele>311.1</ele>
        <time>2025-10-24T07:28:51.000Z</time>
      </trkpt>
      <trkpt lat="43.58082" lon="6.84361">
        <ele>311.4</ele>
        <time>2025-10-24T07:28:52.000Z</time>
      </trkpt>
      <trkpt lat="43.58085" lon="6.8436">
        <ele>311.6</ele>
        <time>2025-10-24T07:28:53.000Z</time>
      </trkpt>
      <trkpt lat="43.58088" lon="6.84358">
        <ele>311.8</ele>
        <time>2025-10-24T07:28:54.000Z</time>
      </trkpt>
      <trkpt lat="43.58091" lon="6.84357">
        <ele>312.1</ele>
        <time>2025-10-24T07:28:55.000Z</time>
      </trkpt>
      <trkpt lat="43.58094" lon="6.84356">
        <ele>312.3</ele>
        <time>2025-10-24T07:28:56.000Z</time>
      </trkpt>
      <trkpt lat="43.58097" lon="6.84354">
        <ele>312.5</ele>
        <time>2025-10-24T07:28:57.000Z</time>
      </trkpt>
      <trkpt lat="43.581" lon="6.84353">
        <ele>312.6</ele>
        <time>2025-10-24T07:28:58.000Z</time>
      </trkpt>
      <trkpt lat="43.58104" lon="6.84351">
        <ele>312.8</ele>
        <time>2025-10-24T07:28:59.000Z</time>
      </trkpt>
      <trkpt lat="43.58107" lon="6.84348">
        <ele>312.9</ele>
        <time>2025-10-24T07:29:00.000Z</time>
      </trkpt>
      <trkpt lat="43.58109" lon="6.84344">
        <ele>313</ele>
        <time>2025-10-24T07:29:01.000Z</time>
      </trkpt>
      <trkpt lat="43.58111" lon="6.8434">
        <ele>313.1</ele>
        <time>2025-10-24T07:29:02.000Z</time>
      </trkpt>
      <trkpt lat="43.58112" lon="6.84334">
        <ele>313.2</ele>
        <time>2025-10-24T07:29:03.000Z</time>
      </trkpt>
      <trkpt lat="43.58112" lon="6.84329">
        <ele>313.4</ele>
        <time>2025-10-24T07:29:04.000Z</time>
      </trkpt>
      <trkpt lat="43.58112" lon="6.84323">
        <ele>313.6</ele>
        <time>2025-10-24T07:29:05.000Z</time>
      </trkpt>
      <trkpt lat="43.58112" lon="6.84317">
        <ele>313.8</ele>
        <time>2025-10-24T07:29:06.000Z</time>
      </trkpt>
      <trkpt lat="43.58111" lon="6.84312">
        <ele>314</ele>
        <time>2025-10-24T07:29:07.000Z</time>
      </trkpt>
      <trkpt lat="43.58111" lon="6.84307">
        <ele>314.2</ele>
        <time>2025-10-24T07:29:08.000Z</time>
      </trkpt>
      <trkpt lat="43.5811" lon="6.84302">
        <ele>314.4</ele>
        <time>2025-10-24T07:29:09.000Z</time>
      </trkpt>
      <trkpt lat="43.5811" lon="6.84298">
        <ele>314.6</ele>
        <time>2025-10-24T07:29:10.000Z</time>
      </trkpt>
      <trkpt lat="43.5811" lon="6.84294">
        <ele>314.7</ele>
        <time>2025-10-24T07:29:11.000Z</time>
      </trkpt>
      <trkpt lat="43.58111" lon="6.84289">
        <ele>314.9</ele>
        <time>2025-10-24T07:29:12.000Z</time>
      </trkpt>
      <trkpt lat="43.58112" lon="6.84285">
        <ele>315</ele>
        <time>2025-10-24T07:29:13.000Z</time>
      </trkpt>
      <trkpt lat="43.58113" lon="6.84282">
        <ele>315.1</ele>
        <time>2025-10-24T07:29:14.000Z</time>
      </trkpt>
      <trkpt lat="43.58115" lon="6.84278">
        <ele>315.2</ele>
        <time>2025-10-24T07:29:15.000Z</time>
      </trkpt>
      <trkpt lat="43.58117" lon="6.84275">
        <ele>315.3</ele>
        <time>2025-10-24T07:29:16.000Z</time>
      </trkpt>
      <trkpt lat="43.58119" lon="6.84272">
        <ele>315.3</ele>
        <time>2025-10-24T07:29:17.000Z</time>
      </trkpt>
      <trkpt lat="43.58121" lon="6.84271">
        <ele>315.4</ele>
        <time>2025-10-24T07:29:18.000Z</time>
      </trkpt>
      <trkpt lat="43.58123" lon="6.8427">
        <ele>315.4</ele>
        <time>2025-10-24T07:29:19.000Z</time>
      </trkpt>
      <trkpt lat="43.58124" lon="6.84269">
        <ele>315.5</ele>
        <time>2025-10-24T07:29:20.000Z</time>
      </trkpt>
      <trkpt lat="43.58125" lon="6.84269">
        <ele>315.5</ele>
        <time>2025-10-24T07:29:21.000Z</time>
      </trkpt>
      <trkpt lat="43.58126" lon="6.84269">
        <ele>315.5</ele>
        <time>2025-10-24T07:29:22.000Z</time>
      </trkpt>
      <trkpt lat="43.58127" lon="6.84269">
        <ele>315.5</ele>
        <time>2025-10-24T07:29:23.000Z</time>
      </trkpt>
      <trkpt lat="43.58127" lon="6.84269">
        <ele>315.5</ele>
        <time>2025-10-24T07:29:24.000Z</time>
      </trkpt>
      <trkpt lat="43.58127" lon="6.84269">
        <ele>315.5</ele>
        <time>2025-10-24T07:29:25.000Z</time>
      </trkpt>
      <trkpt lat="43.58128" lon="6.84269">
        <ele>315.5</ele>
        <time>2025-10-24T07:29:26.000Z</time>
      </trkpt>
      <trkpt lat="43.58128" lon="6.84269">
        <ele>315.5</ele>
        <time>2025-10-24T07:29:27.000Z</time>
      </trkpt>
      <trkpt lat="43.58128" lon="6.84269">
        <ele>315.5</ele>
        <time>2025-10-24T07:29:28.000Z</time>
      </trkpt>
      <trkpt lat="43.58128" lon="6.84269">
        <ele>315.5</ele>
        <time>2025-10-24T07:29:29.000Z</time>
      </trkpt>
      <trkpt lat="43.58128" lon="6.84269">
        <ele>315.5</ele>
        <time>2025-10-24T07:29:30.000Z</time>
      </trkpt>
      <trkpt lat="43.58128" lon="6.84269">
        <ele>315.5</ele>
        <time>2025-10-24T07:29:31.000Z</time>
      </trkpt>
      <trkpt lat="43.58128" lon="6.84269">
        <ele>315.5</ele>
        <time>2025-10-24T07:29:32.000Z</time>
      </trkpt>
      <trkpt lat="43.58128" lon="6.8427">
        <ele>315.5</ele>
        <time>2025-10-24T07:29:33.000Z</time>
      </trkpt>
      <trkpt lat="43.58129" lon="6.84271">
        <ele>315.5</ele>
        <time>2025-10-24T07:29:34.000Z</time>
      </trkpt>
      <trkpt lat="43.5813" lon="6.84272">
        <ele>315.5</ele>
        <time>2025-10-24T07:29:35.000Z</time>
      </trkpt>
      <trkpt lat="43.5813" lon="6.84272">
        <ele>315.5</ele>
        <time>2025-10-24T07:29:36.000Z</time>
      </trkpt>
      <trkpt lat="43.5813" lon="6.84272">
        <ele>315.5</ele>
        <time>2025-10-24T07:29:37.000Z</time>
      </trkpt>
      <trkpt lat="43.5813" lon="6.84272">
        <ele>315.5</ele>
        <time>2025-10-24T07:29:38.000Z</time>
      </trkpt>
      <trkpt lat="43.5813" lon="6.84272">
        <ele>315.5</ele>
        <time>2025-10-24T07:29:39.000Z</time>
      </trkpt>
      <trkpt lat="43.5813" lon="6.84272">
        <ele>315.5</ele>
        <time>2025-10-24T07:29:40.000Z</time>
      </trkpt>
      <trkpt lat="43.5813" lon="6.84272">
        <ele>315.5</ele>
        <time>2025-10-24T07:29:41.000Z</time>
      </trkpt>
      <trkpt lat="43.5813" lon="6.84272">
        <ele>315.5</ele>
        <time>2025-10-24T07:29:42.000Z</time>
      </trkpt>
      <trkpt lat="43.5813" lon="6.84272">
        <ele>315.5</ele>
        <time>2025-10-24T07:29:43.000Z</time>
      </trkpt>
      <trkpt lat="43.5813" lon="6.84272">
        <ele>315.5</ele>
        <time>2025-10-24T07:29:44.000Z</time>
      </trkpt>
      <trkpt lat="43.5813" lon="6.84272">
        <ele>315.5</ele>
        <time>2025-10-24T07:29:45.000Z</time>
      </trkpt>
      <trkpt lat="43.58129" lon="6.84272">
        <ele>315.5</ele>
        <time>2025-10-24T07:29:46.000Z</time>
      </trkpt>
      <trkpt lat="43.58129" lon="6.84272">
        <ele>315.5</ele>
        <time>2025-10-24T07:29:47.000Z</time>
      </trkpt>
      <trkpt lat="43.5813" lon="6.84271">
        <ele>315.5</ele>
        <time>2025-10-24T07:29:48.000Z</time>
      </trkpt>
      <trkpt lat="43.58132" lon="6.8427">
        <ele>315.6</ele>
        <time>2025-10-24T07:29:49.000Z</time>
      </trkpt>
      <trkpt lat="43.58135" lon="6.84268">
        <ele>315.6</ele>
        <time>2025-10-24T07:29:50.000Z</time>
      </trkpt>
      <trkpt lat="43.58138" lon="6.84266">
        <ele>315.6</ele>
        <time>2025-10-24T07:29:51.000Z</time>
      </trkpt>
      <trkpt lat="43.58141" lon="6.84265">
        <ele>315.6</ele>
        <time>2025-10-24T07:29:52.000Z</time>
      </trkpt>
      <trkpt lat="43.58144" lon="6.84263">
        <ele>315.6</ele>
        <time>2025-10-24T07:29:53.000Z</time>
      </trkpt>
      <trkpt lat="43.58148" lon="6.84261">
        <ele>315.6</ele>
        <time>2025-10-24T07:29:54.000Z</time>
      </trkpt>
      <trkpt lat="43.58152" lon="6.84259">
        <ele>315.6</ele>
        <time>2025-10-24T07:29:55.000Z</time>
      </trkpt>
      <trkpt lat="43.58156" lon="6.84257">
        <ele>315.6</ele>
        <time>2025-10-24T07:29:56.000Z</time>
      </trkpt>
      <trkpt lat="43.5816" lon="6.84255">
        <ele>315.6</ele>
        <time>2025-10-24T07:29:57.000Z</time>
      </trkpt>
      <trkpt lat="43.58165" lon="6.84253">
        <ele>315.5</ele>
        <time>2025-10-24T07:29:58.000Z</time>
      </trkpt>
      <trkpt lat="43.58169" lon="6.84251">
        <ele>315.5</ele>
        <time>2025-10-24T07:29:59.000Z</time>
      </trkpt>
      <trkpt lat="43.58174" lon="6.84248">
        <ele>315.4</ele>
        <time>2025-10-24T07:30:00.000Z</time>
      </trkpt>
      <trkpt lat="43.58178" lon="6.84246">
        <ele>315.4</ele>
        <time>2025-10-24T07:30:01.000Z</time>
      </trkpt>
      <trkpt lat="43.58183" lon="6.84243">
        <ele>315.3</ele>
        <time>2025-10-24T07:30:02.000Z</time>
      </trkpt>
      <trkpt lat="43.58187" lon="6.84241">
        <ele>315.2</ele>
        <time>2025-10-24T07:30:03.000Z</time>
      </trkpt>
      <trkpt lat="43.58192" lon="6.84238">
        <ele>315.1</ele>
        <time>2025-10-24T07:30:04.000Z</time>
      </trkpt>
      <trkpt lat="43.58196" lon="6.84235">
        <ele>315</ele>
        <time>2025-10-24T07:30:05.000Z</time>
      </trkpt>
      <trkpt lat="43.58201" lon="6.84233">
        <ele>315</ele>
        <time>2025-10-24T07:30:06.000Z</time>
      </trkpt>
      <trkpt lat="43.58205" lon="6.8423">
        <ele>314.9</ele>
        <time>2025-10-24T07:30:07.000Z</time>
      </trkpt>
      <trkpt lat="43.5821" lon="6.84227">
        <ele>314.8</ele>
        <time>2025-10-24T07:30:08.000Z</time>
      </trkpt>
      <trkpt lat="43.58214" lon="6.84225">
        <ele>314.8</ele>
        <time>2025-10-24T07:30:09.000Z</time>
      </trkpt>
      <trkpt lat="43.58219" lon="6.84223">
        <ele>314.7</ele>
        <time>2025-10-24T07:30:10.000Z</time>
      </trkpt>
      <trkpt lat="43.58223" lon="6.84221">
        <ele>314.8</ele>
        <time>2025-10-24T07:30:11.000Z</time>
      </trkpt>
      <trkpt lat="43.58227" lon="6.84218">
        <ele>314.8</ele>
        <time>2025-10-24T07:30:12.000Z</time>
      </trkpt>
      <trkpt lat="43.58232" lon="6.84216">
        <ele>314.8</ele>
        <time>2025-10-24T07:30:13.000Z</time>
      </trkpt>
      <trkpt lat="43.58236" lon="6.84214">
        <ele>314.9</ele>
        <time>2025-10-24T07:30:14.000Z</time>
      </trkpt>
      <trkpt lat="43.58241" lon="6.84212">
        <ele>315</ele>
        <time>2025-10-24T07:30:15.000Z</time>
      </trkpt>
      <trkpt lat="43.58245" lon="6.8421">
        <ele>315.1</ele>
        <time>2025-10-24T07:30:16.000Z</time>
      </trkpt>
      <trkpt lat="43.58249" lon="6.84208">
        <ele>315.2</ele>
        <time>2025-10-24T07:30:17.000Z</time>
      </trkpt>
      <trkpt lat="43.58253" lon="6.84205">
        <ele>315.3</ele>
        <time>2025-10-24T07:30:18.000Z</time>
      </trkpt>
      <trkpt lat="43.58258" lon="6.84203">
        <ele>315.4</ele>
        <time>2025-10-24T07:30:19.000Z</time>
      </trkpt>
      <trkpt lat="43.58262" lon="6.842">
        <ele>315.6</ele>
        <time>2025-10-24T07:30:20.000Z</time>
      </trkpt>
      <trkpt lat="43.58266" lon="6.84198">
        <ele>315.9</ele>
        <time>2025-10-24T07:30:21.000Z</time>
      </trkpt>
      <trkpt lat="43.5827" lon="6.84197">
        <ele>316.1</ele>
        <time>2025-10-24T07:30:22.000Z</time>
      </trkpt>
      <trkpt lat="43.58274" lon="6.84196">
        <ele>316.4</ele>
        <time>2025-10-24T07:30:23.000Z</time>
      </trkpt>
      <trkpt lat="43.58278" lon="6.84197">
        <ele>316.7</ele>
        <time>2025-10-24T07:30:24.000Z</time>
      </trkpt>
      <trkpt lat="43.58282" lon="6.84198">
        <ele>317</ele>
        <time>2025-10-24T07:30:25.000Z</time>
      </trkpt>
      <trkpt lat="43.58285" lon="6.84199">
        <ele>317.3</ele>
        <time>2025-10-24T07:30:26.000Z</time>
      </trkpt>
      <trkpt lat="43.58289" lon="6.84201">
        <ele>317.6</ele>
        <time>2025-10-24T07:30:27.000Z</time>
      </trkpt>
      <trkpt lat="43.58293" lon="6.84203">
        <ele>318</ele>
        <time>2025-10-24T07:30:28.000Z</time>
      </trkpt>
      <trkpt lat="43.58296" lon="6.84206">
        <ele>318.2</ele>
        <time>2025-10-24T07:30:29.000Z</time>
      </trkpt>
      <trkpt lat="43.58299" lon="6.8421">
        <ele>318.5</ele>
        <time>2025-10-24T07:30:30.000Z</time>
      </trkpt>
      <trkpt lat="43.58302" lon="6.84213">
        <ele>318.8</ele>
        <time>2025-10-24T07:30:31.000Z</time>
      </trkpt>
      <trkpt lat="43.58304" lon="6.84218">
        <ele>319</ele>
        <time>2025-10-24T07:30:32.000Z</time>
      </trkpt>
      <trkpt lat="43.58307" lon="6.84223">
        <ele>319.2</ele>
        <time>2025-10-24T07:30:33.000Z</time>
      </trkpt>
      <trkpt lat="43.58309" lon="6.84228">
        <ele>319.4</ele>
        <time>2025-10-24T07:30:34.000Z</time>
      </trkpt>
      <trkpt lat="43.58311" lon="6.84234">
        <ele>319.6</ele>
        <time>2025-10-24T07:30:35.000Z</time>
      </trkpt>
      <trkpt lat="43.58312" lon="6.84241">
        <ele>319.8</ele>
        <time>2025-10-24T07:30:36.000Z</time>
      </trkpt>
      <trkpt lat="43.58314" lon="6.84247">
        <ele>319.9</ele>
        <time>2025-10-24T07:30:37.000Z</time>
      </trkpt>
      <trkpt lat="43.58314" lon="6.84253">
        <ele>320</ele>
        <time>2025-10-24T07:30:38.000Z</time>
      </trkpt>
      <trkpt lat="43.58315" lon="6.8426">
        <ele>320.2</ele>
        <time>2025-10-24T07:30:39.000Z</time>
      </trkpt>
      <trkpt lat="43.58316" lon="6.84267">
        <ele>320.3</ele>
        <time>2025-10-24T07:30:40.000Z</time>
      </trkpt>
      <trkpt lat="43.58316" lon="6.84273">
        <ele>320.4</ele>
        <time>2025-10-24T07:30:41.000Z</time>
      </trkpt>
      <trkpt lat="43.58317" lon="6.8428">
        <ele>320.5</ele>
        <time>2025-10-24T07:30:42.000Z</time>
      </trkpt>
      <trkpt lat="43.58318" lon="6.84287">
        <ele>320.6</ele>
        <time>2025-10-24T07:30:43.000Z</time>
      </trkpt>
      <trkpt lat="43.58319" lon="6.84294">
        <ele>320.7</ele>
        <time>2025-10-24T07:30:44.000Z</time>
      </trkpt>
      <trkpt lat="43.5832" lon="6.843">
        <ele>320.9</ele>
        <time>2025-10-24T07:30:45.000Z</time>
      </trkpt>
      <trkpt lat="43.58321" lon="6.84307">
        <ele>321</ele>
        <time>2025-10-24T07:30:46.000Z</time>
      </trkpt>
      <trkpt lat="43.58323" lon="6.84313">
        <ele>321.1</ele>
        <time>2025-10-24T07:30:47.000Z</time>
      </trkpt>
      <trkpt lat="43.58324" lon="6.84318">
        <ele>321.3</ele>
        <time>2025-10-24T07:30:48.000Z</time>
      </trkpt>
      <trkpt lat="43.58326" lon="6.84324">
        <ele>321.4</ele>
        <time>2025-10-24T07:30:49.000Z</time>
      </trkpt>
      <trkpt lat="43.58327" lon="6.84329">
        <ele>321.5</ele>
        <time>2025-10-24T07:30:50.000Z</time>
      </trkpt>
      <trkpt lat="43.58329" lon="6.84334">
        <ele>321.6</ele>
        <time>2025-10-24T07:30:51.000Z</time>
      </trkpt>
      <trkpt lat="43.5833" lon="6.8434">
        <ele>321.8</ele>
        <time>2025-10-24T07:30:52.000Z</time>
      </trkpt>
      <trkpt lat="43.58331" lon="6.84346">
        <ele>321.9</ele>
        <time>2025-10-24T07:30:53.000Z</time>
      </trkpt>
      <trkpt lat="43.58333" lon="6.84352">
        <ele>322.1</ele>
        <time>2025-10-24T07:30:54.000Z</time>
      </trkpt>
      <trkpt lat="43.58336" lon="6.84357">
        <ele>322.3</ele>
        <time>2025-10-24T07:30:55.000Z</time>
      </trkpt>
      <trkpt lat="43.58339" lon="6.84362">
        <ele>322.4</ele>
        <time>2025-10-24T07:30:56.000Z</time>
      </trkpt>
      <trkpt lat="43.58342" lon="6.84366">
        <ele>322.6</ele>
        <time>2025-10-24T07:30:57.000Z</time>
      </trkpt>
      <trkpt lat="43.58345" lon="6.8437">
        <ele>322.7</ele>
        <time>2025-10-24T07:30:58.000Z</time>
      </trkpt>
      <trkpt lat="43.58349" lon="6.84373">
        <ele>322.8</ele>
        <time>2025-10-24T07:30:59.000Z</time>
      </trkpt>
      <trkpt lat="43.58353" lon="6.84375">
        <ele>323</ele>
        <time>2025-10-24T07:31:00.000Z</time>
      </trkpt>
      <trkpt lat="43.58358" lon="6.84376">
        <ele>323.1</ele>
        <time>2025-10-24T07:31:01.000Z</time>
      </trkpt>
      <trkpt lat="43.58362" lon="6.84377">
        <ele>323.3</ele>
        <time>2025-10-24T07:31:02.000Z</time>
      </trkpt>
      <trkpt lat="43.58367" lon="6.84377">
        <ele>323.5</ele>
        <time>2025-10-24T07:31:03.000Z</time>
      </trkpt>
      <trkpt lat="43.58372" lon="6.84377">
        <ele>323.7</ele>
        <time>2025-10-24T07:31:04.000Z</time>
      </trkpt>
      <trkpt lat="43.58377" lon="6.84377">
        <ele>323.9</ele>
        <time>2025-10-24T07:31:05.000Z</time>
      </trkpt>
      <trkpt lat="43.58381" lon="6.84377">
        <ele>324.1</ele>
        <time>2025-10-24T07:31:06.000Z</time>
      </trkpt>
      <trkpt lat="43.58386" lon="6.84377">
        <ele>324.4</ele>
        <time>2025-10-24T07:31:07.000Z</time>
      </trkpt>
      <trkpt lat="43.5839" lon="6.84377">
        <ele>324.6</ele>
        <time>2025-10-24T07:31:08.000Z</time>
      </trkpt>
      <trkpt lat="43.58395" lon="6.84377">
        <ele>324.9</ele>
        <time>2025-10-24T07:31:09.000Z</time>
      </trkpt>
      <trkpt lat="43.58399" lon="6.84378">
        <ele>325.1</ele>
        <time>2025-10-24T07:31:10.000Z</time>
      </trkpt>
      <trkpt lat="43.58404" lon="6.84378">
        <ele>325.3</ele>
        <time>2025-10-24T07:31:11.000Z</time>
      </trkpt>
      <trkpt lat="43.58408" lon="6.84379">
        <ele>325.6</ele>
        <time>2025-10-24T07:31:12.000Z</time>
      </trkpt>
      <trkpt lat="43.58412" lon="6.84381">
        <ele>325.8</ele>
        <time>2025-10-24T07:31:13.000Z</time>
      </trkpt>
      <trkpt lat="43.58416" lon="6.84383">
        <ele>326</ele>
        <time>2025-10-24T07:31:14.000Z</time>
      </trkpt>
      <trkpt lat="43.5842" lon="6.84386">
        <ele>326.2</ele>
        <time>2025-10-24T07:31:15.000Z</time>
      </trkpt>
      <trkpt lat="43.58424" lon="6.84389">
        <ele>326.4</ele>
        <time>2025-10-24T07:31:16.000Z</time>
      </trkpt>
      <trkpt lat="43.58427" lon="6.84392">
        <ele>326.6</ele>
        <time>2025-10-24T07:31:17.000Z</time>
      </trkpt>
      <trkpt lat="43.58431" lon="6.84395">
        <ele>326.7</ele>
        <time>2025-10-24T07:31:18.000Z</time>
      </trkpt>
      <trkpt lat="43.58434" lon="6.84398">
        <ele>326.9</ele>
        <time>2025-10-24T07:31:19.000Z</time>
      </trkpt>
      <trkpt lat="43.58437" lon="6.84402">
        <ele>327</ele>
        <time>2025-10-24T07:31:20.000Z</time>
      </trkpt>
      <trkpt lat="43.5844" lon="6.84406">
        <ele>327.1</ele>
        <time>2025-10-24T07:31:21.000Z</time>
      </trkpt>
      <trkpt lat="43.58444" lon="6.8441">
        <ele>327.3</ele>
        <time>2025-10-24T07:31:22.000Z</time>
      </trkpt>
      <trkpt lat="43.58447" lon="6.84413">
        <ele>327.3</ele>
        <time>2025-10-24T07:31:23.000Z</time>
      </trkpt>
      <trkpt lat="43.58451" lon="6.84417">
        <ele>327.4</ele>
        <time>2025-10-24T07:31:24.000Z</time>
      </trkpt>
      <trkpt lat="43.58455" lon="6.8442">
        <ele>327.5</ele>
        <time>2025-10-24T07:31:25.000Z</time>
      </trkpt>
      <trkpt lat="43.5846" lon="6.84422">
        <ele>327.6</ele>
        <time>2025-10-24T07:31:26.000Z</time>
      </trkpt>
      <trkpt lat="43.58464" lon="6.84425">
        <ele>327.7</ele>
        <time>2025-10-24T07:31:27.000Z</time>
      </trkpt>
      <trkpt lat="43.58469" lon="6.84427">
        <ele>327.8</ele>
        <time>2025-10-24T07:31:28.000Z</time>
      </trkpt>
      <trkpt lat="43.58473" lon="6.84429">
        <ele>327.8</ele>
        <time>2025-10-24T07:31:29.000Z</time>
      </trkpt>
      <trkpt lat="43.58477" lon="6.84431">
        <ele>327.9</ele>
        <time>2025-10-24T07:31:30.000Z</time>
      </trkpt>
      <trkpt lat="43.58481" lon="6.84433">
        <ele>328</ele>
        <time>2025-10-24T07:31:31.000Z</time>
      </trkpt>
      <trkpt lat="43.58485" lon="6.84433">
        <ele>328</ele>
        <time>2025-10-24T07:31:32.000Z</time>
      </trkpt>
      <trkpt lat="43.58489" lon="6.84433">
        <ele>328.1</ele>
        <time>2025-10-24T07:31:33.000Z</time>
      </trkpt>
      <trkpt lat="43.58494" lon="6.84432">
        <ele>328.1</ele>
        <time>2025-10-24T07:31:34.000Z</time>
      </trkpt>
      <trkpt lat="43.58498" lon="6.8443">
        <ele>328.1</ele>
        <time>2025-10-24T07:31:35.000Z</time>
      </trkpt>
      <trkpt lat="43.58503" lon="6.84428">
        <ele>328.1</ele>
        <time>2025-10-24T07:31:36.000Z</time>
      </trkpt>
      <trkpt lat="43.58507" lon="6.84425">
        <ele>328.1</ele>
        <time>2025-10-24T07:31:37.000Z</time>
      </trkpt>
      <trkpt lat="43.58512" lon="6.84423">
        <ele>328.1</ele>
        <time>2025-10-24T07:31:38.000Z</time>
      </trkpt>
      <trkpt lat="43.58517" lon="6.8442">
        <ele>328</ele>
        <time>2025-10-24T07:31:39.000Z</time>
      </trkpt>
      <trkpt lat="43.58521" lon="6.84418">
        <ele>328</ele>
        <time>2025-10-24T07:31:40.000Z</time>
      </trkpt>
      <trkpt lat="43.58526" lon="6.84416">
        <ele>328.1</ele>
        <time>2025-10-24T07:31:41.000Z</time>
      </trkpt>
      <trkpt lat="43.58531" lon="6.84413">
        <ele>328.1</ele>
        <time>2025-10-24T07:31:42.000Z</time>
      </trkpt>
      <trkpt lat="43.58535" lon="6.84411">
        <ele>328.1</ele>
        <time>2025-10-24T07:31:43.000Z</time>
      </trkpt>
      <trkpt lat="43.58539" lon="6.84408">
        <ele>328.1</ele>
        <time>2025-10-24T07:31:44.000Z</time>
      </trkpt>
      <trkpt lat="43.58543" lon="6.84405">
        <ele>328.1</ele>
        <time>2025-10-24T07:31:45.000Z</time>
      </trkpt>
      <trkpt lat="43.58546" lon="6.844">
        <ele>328.1</ele>
        <time>2025-10-24T07:31:46.000Z</time>
      </trkpt>
      <trkpt lat="43.58548" lon="6.84394">
        <ele>328.1</ele>
        <time>2025-10-24T07:31:47.000Z</time>
      </trkpt>
      <trkpt lat="43.58549" lon="6.84388">
        <ele>328.1</ele>
        <time>2025-10-24T07:31:48.000Z</time>
      </trkpt>
      <trkpt lat="43.58549" lon="6.84381">
        <ele>328.1</ele>
        <time>2025-10-24T07:31:49.000Z</time>
      </trkpt>
      <trkpt lat="43.58548" lon="6.84375">
        <ele>328.1</ele>
        <time>2025-10-24T07:31:50.000Z</time>
      </trkpt>
      <trkpt lat="43.58547" lon="6.84368">
        <ele>328.2</ele>
        <time>2025-10-24T07:31:51.000Z</time>
      </trkpt>
      <trkpt lat="43.58547" lon="6.84361">
        <ele>328.3</ele>
        <time>2025-10-24T07:31:52.000Z</time>
      </trkpt>
      <trkpt lat="43.58547" lon="6.84355">
        <ele>328.4</ele>
        <time>2025-10-24T07:31:53.000Z</time>
      </trkpt>
      <trkpt lat="43.58546" lon="6.84348">
        <ele>328.5</ele>
        <time>2025-10-24T07:31:54.000Z</time>
      </trkpt>
      <trkpt lat="43.58546" lon="6.84342">
        <ele>328.7</ele>
        <time>2025-10-24T07:31:55.000Z</time>
      </trkpt>
      <trkpt lat="43.58547" lon="6.84335">
        <ele>328.8</ele>
        <time>2025-10-24T07:31:56.000Z</time>
      </trkpt>
      <trkpt lat="43.58547" lon="6.84329">
        <ele>329</ele>
        <time>2025-10-24T07:31:57.000Z</time>
      </trkpt>
      <trkpt lat="43.58548" lon="6.84323">
        <ele>329.1</ele>
        <time>2025-10-24T07:31:58.000Z</time>
      </trkpt>
      <trkpt lat="43.5855" lon="6.84317">
        <ele>329.3</ele>
        <time>2025-10-24T07:31:59.000Z</time>
      </trkpt>
      <trkpt lat="43.58552" lon="6.84312">
        <ele>329.4</ele>
        <time>2025-10-24T07:32:00.000Z</time>
      </trkpt>
      <trkpt lat="43.58554" lon="6.84308">
        <ele>329.6</ele>
        <time>2025-10-24T07:32:01.000Z</time>
      </trkpt>
      <trkpt lat="43.58557" lon="6.84304">
        <ele>329.7</ele>
        <time>2025-10-24T07:32:02.000Z</time>
      </trkpt>
      <trkpt lat="43.58561" lon="6.84301">
        <ele>329.9</ele>
        <time>2025-10-24T07:32:03.000Z</time>
      </trkpt>
      <trkpt lat="43.58565" lon="6.84299">
        <ele>330</ele>
        <time>2025-10-24T07:32:04.000Z</time>
      </trkpt>
      <trkpt lat="43.58569" lon="6.84297">
        <ele>330.1</ele>
        <time>2025-10-24T07:32:05.000Z</time>
      </trkpt>
      <trkpt lat="43.58573" lon="6.84295">
        <ele>330.2</ele>
        <time>2025-10-24T07:32:06.000Z</time>
      </trkpt>
      <trkpt lat="43.58578" lon="6.84295">
        <ele>330.4</ele>
        <time>2025-10-24T07:32:07.000Z</time>
      </trkpt>
      <trkpt lat="43.58582" lon="6.84294">
        <ele>330.5</ele>
        <time>2025-10-24T07:32:08.000Z</time>
      </trkpt>
      <trkpt lat="43.58587" lon="6.84295">
        <ele>330.7</ele>
        <time>2025-10-24T07:32:09.000Z</time>
      </trkpt>
      <trkpt lat="43.58592" lon="6.84296">
        <ele>330.8</ele>
        <time>2025-10-24T07:32:10.000Z</time>
      </trkpt>
      <trkpt lat="43.58596" lon="6.84297">
        <ele>331</ele>
        <time>2025-10-24T07:32:11.000Z</time>
      </trkpt>
      <trkpt lat="43.58601" lon="6.84298">
        <ele>331.2</ele>
        <time>2025-10-24T07:32:12.000Z</time>
      </trkpt>
      <trkpt lat="43.58606" lon="6.843">
        <ele>331.4</ele>
        <time>2025-10-24T07:32:13.000Z</time>
      </trkpt>
      <trkpt lat="43.5861" lon="6.84302">
        <ele>331.7</ele>
        <time>2025-10-24T07:32:14.000Z</time>
      </trkpt>
      <trkpt lat="43.58614" lon="6.84305">
        <ele>331.9</ele>
        <time>2025-10-24T07:32:15.000Z</time>
      </trkpt>
      <trkpt lat="43.58618" lon="6.84308">
        <ele>332.2</ele>
        <time>2025-10-24T07:32:16.000Z</time>
      </trkpt>
      <trkpt lat="43.58621" lon="6.84311">
        <ele>332.5</ele>
        <time>2025-10-24T07:32:17.000Z</time>
      </trkpt>
      <trkpt lat="43.58624" lon="6.84314">
        <ele>332.8</ele>
        <time>2025-10-24T07:32:18.000Z</time>
      </trkpt>
      <trkpt lat="43.58627" lon="6.84318">
        <ele>333</ele>
        <time>2025-10-24T07:32:19.000Z</time>
      </trkpt>
      <trkpt lat="43.5863" lon="6.84321">
        <ele>333.3</ele>
        <time>2025-10-24T07:32:20.000Z</time>
      </trkpt>
      <trkpt lat="43.58633" lon="6.84325">
        <ele>333.6</ele>
        <time>2025-10-24T07:32:21.000Z</time>
      </trkpt>
      <trkpt lat="43.58636" lon="6.84328">
        <ele>333.8</ele>
        <time>2025-10-24T07:32:22.000Z</time>
      </trkpt>
      <trkpt lat="43.5864" lon="6.84332">
        <ele>334</ele>
        <time>2025-10-24T07:32:23.000Z</time>
      </trkpt>
      <trkpt lat="43.58643" lon="6.84335">
        <ele>334.2</ele>
        <time>2025-10-24T07:32:24.000Z</time>
      </trkpt>
      <trkpt lat="43.58645" lon="6.84339">
        <ele>334.3</ele>
        <time>2025-10-24T07:32:25.000Z</time>
      </trkpt>
      <trkpt lat="43.58648" lon="6.84343">
        <ele>334.4</ele>
        <time>2025-10-24T07:32:26.000Z</time>
      </trkpt>
      <trkpt lat="43.5865" lon="6.84347">
        <ele>334.5</ele>
        <time>2025-10-24T07:32:27.000Z</time>
      </trkpt>
      <trkpt lat="43.58653" lon="6.84351">
        <ele>334.5</ele>
        <time>2025-10-24T07:32:28.000Z</time>
      </trkpt>
      <trkpt lat="43.58656" lon="6.84355">
        <ele>334.6</ele>
        <time>2025-10-24T07:32:29.000Z</time>
      </trkpt>
      <trkpt lat="43.58659" lon="6.84358">
        <ele>334.6</ele>
        <time>2025-10-24T07:32:30.000Z</time>
      </trkpt>
      <trkpt lat="43.58662" lon="6.84361">
        <ele>334.6</ele>
        <time>2025-10-24T07:32:31.000Z</time>
      </trkpt>
      <trkpt lat="43.58666" lon="6.84364">
        <ele>334.7</ele>
        <time>2025-10-24T07:32:32.000Z</time>
      </trkpt>
      <trkpt lat="43.5867" lon="6.84365">
        <ele>334.7</ele>
        <time>2025-10-24T07:32:33.000Z</time>
      </trkpt>
      <trkpt lat="43.58673" lon="6.84365">
        <ele>334.7</ele>
        <time>2025-10-24T07:32:34.000Z</time>
      </trkpt>
      <trkpt lat="43.58677" lon="6.84365">
        <ele>334.7</ele>
        <time>2025-10-24T07:32:35.000Z</time>
      </trkpt>
      <trkpt lat="43.58681" lon="6.84364">
        <ele>334.7</ele>
        <time>2025-10-24T07:32:36.000Z</time>
      </trkpt>
      <trkpt lat="43.58685" lon="6.84362">
        <ele>334.6</ele>
        <time>2025-10-24T07:32:37.000Z</time>
      </trkpt>
      <trkpt lat="43.58689" lon="6.84361">
        <ele>334.5</ele>
        <time>2025-10-24T07:32:38.000Z</time>
      </trkpt>
      <trkpt lat="43.58694" lon="6.8436">
        <ele>334.4</ele>
        <time>2025-10-24T07:32:39.000Z</time>
      </trkpt>
      <trkpt lat="43.58698" lon="6.84359">
        <ele>334.2</ele>
        <time>2025-10-24T07:32:40.000Z</time>
      </trkpt>
      <trkpt lat="43.58703" lon="6.84358">
        <ele>333.9</ele>
        <time>2025-10-24T07:32:41.000Z</time>
      </trkpt>
      <trkpt lat="43.58708" lon="6.84357">
        <ele>333.7</ele>
        <time>2025-10-24T07:32:42.000Z</time>
      </trkpt>
      <trkpt lat="43.58714" lon="6.84356">
        <ele>333.4</ele>
        <time>2025-10-24T07:32:43.000Z</time>
      </trkpt>
      <trkpt lat="43.5872" lon="6.84357">
        <ele>333.1</ele>
        <time>2025-10-24T07:32:44.000Z</time>
      </trkpt>
      <trkpt lat="43.58726" lon="6.84357">
        <ele>332.8</ele>
        <time>2025-10-24T07:32:45.000Z</time>
      </trkpt>
      <trkpt lat="43.58731" lon="6.84358">
        <ele>332.5</ele>
        <time>2025-10-24T07:32:46.000Z</time>
      </trkpt>
      <trkpt lat="43.58737" lon="6.84357">
        <ele>332.1</ele>
        <time>2025-10-24T07:32:47.000Z</time>
      </trkpt>
      <trkpt lat="43.58742" lon="6.84357">
        <ele>331.8</ele>
        <time>2025-10-24T07:32:48.000Z</time>
      </trkpt>
      <trkpt lat="43.58747" lon="6.84356">
        <ele>331.4</ele>
        <time>2025-10-24T07:32:49.000Z</time>
      </trkpt>
      <trkpt lat="43.58751" lon="6.84356">
        <ele>330.9</ele>
        <time>2025-10-24T07:32:50.000Z</time>
      </trkpt>
      <trkpt lat="43.58756" lon="6.84355">
        <ele>330.4</ele>
        <time>2025-10-24T07:32:51.000Z</time>
      </trkpt>
      <trkpt lat="43.58761" lon="6.84352">
        <ele>329.8</ele>
        <time>2025-10-24T07:32:52.000Z</time>
      </trkpt>
      <trkpt lat="43.58767" lon="6.84349">
        <ele>329.2</ele>
        <time>2025-10-24T07:32:53.000Z</time>
      </trkpt>
      <trkpt lat="43.58772" lon="6.84344">
        <ele>328.5</ele>
        <time>2025-10-24T07:32:54.000Z</time>
      </trkpt>
      <trkpt lat="43.58778" lon="6.84339">
        <ele>327.9</ele>
        <time>2025-10-24T07:32:55.000Z</time>
      </trkpt>
      <trkpt lat="43.58784" lon="6.84333">
        <ele>327.3</ele>
        <time>2025-10-24T07:32:56.000Z</time>
      </trkpt>
      <trkpt lat="43.5879" lon="6.84327">
        <ele>326.7</ele>
        <time>2025-10-24T07:32:57.000Z</time>
      </trkpt>
      <trkpt lat="43.58795" lon="6.8432">
        <ele>326.1</ele>
        <time>2025-10-24T07:32:58.000Z</time>
      </trkpt>
      <trkpt lat="43.58799" lon="6.84313">
        <ele>325.7</ele>
        <time>2025-10-24T07:32:59.000Z</time>
      </trkpt>
      <trkpt lat="43.58802" lon="6.84306">
        <ele>325.2</ele>
        <time>2025-10-24T07:33:00.000Z</time>
      </trkpt>
      <trkpt lat="43.58805" lon="6.843">
        <ele>325</ele>
        <time>2025-10-24T07:33:01.000Z</time>
      </trkpt>
      <trkpt lat="43.58808" lon="6.84295">
        <ele>324.9</ele>
        <time>2025-10-24T07:33:02.000Z</time>
      </trkpt>
      <trkpt lat="43.5881" lon="6.8429">
        <ele>324.8</ele>
        <time>2025-10-24T07:33:03.000Z</time>
      </trkpt>
      <trkpt lat="43.58813" lon="6.84286">
        <ele>324.9</ele>
        <time>2025-10-24T07:33:04.000Z</time>
      </trkpt>
      <trkpt lat="43.58816" lon="6.84282">
        <ele>325.1</ele>
        <time>2025-10-24T07:33:05.000Z</time>
      </trkpt>
      <trkpt lat="43.58818" lon="6.84278">
        <ele>325.3</ele>
        <time>2025-10-24T07:33:06.000Z</time>
      </trkpt>
      <trkpt lat="43.5882" lon="6.84274">
        <ele>325.5</ele>
        <time>2025-10-24T07:33:07.000Z</time>
      </trkpt>
      <trkpt lat="43.58822" lon="6.84269">
        <ele>325.7</ele>
        <time>2025-10-24T07:33:08.000Z</time>
      </trkpt>
      <trkpt lat="43.58824" lon="6.84264">
        <ele>325.9</ele>
        <time>2025-10-24T07:33:09.000Z</time>
      </trkpt>
      <trkpt lat="43.58826" lon="6.8426">
        <ele>326.1</ele>
        <time>2025-10-24T07:33:10.000Z</time>
      </trkpt>
      <trkpt lat="43.58828" lon="6.84255">
        <ele>326.3</ele>
        <time>2025-10-24T07:33:11.000Z</time>
      </trkpt>
      <trkpt lat="43.5883" lon="6.8425">
        <ele>326.5</ele>
        <time>2025-10-24T07:33:12.000Z</time>
      </trkpt>
      <trkpt lat="43.58832" lon="6.84245">
        <ele>326.7</ele>
        <time>2025-10-24T07:33:13.000Z</time>
      </trkpt>
      <trkpt lat="43.58834" lon="6.8424">
        <ele>326.8</ele>
        <time>2025-10-24T07:33:14.000Z</time>
      </trkpt>
      <trkpt lat="43.58836" lon="6.84236">
        <ele>327</ele>
        <time>2025-10-24T07:33:15.000Z</time>
      </trkpt>
      <trkpt lat="43.58839" lon="6.84231">
        <ele>327.2</ele>
        <time>2025-10-24T07:33:16.000Z</time>
      </trkpt>
      <trkpt lat="43.58841" lon="6.84226">
        <ele>327.4</ele>
        <time>2025-10-24T07:33:17.000Z</time>
      </trkpt>
      <trkpt lat="43.58844" lon="6.84221">
        <ele>327.6</ele>
        <time>2025-10-24T07:33:18.000Z</time>
      </trkpt>
      <trkpt lat="43.58846" lon="6.84217">
        <ele>327.9</ele>
        <time>2025-10-24T07:33:19.000Z</time>
      </trkpt>
      <trkpt lat="43.58849" lon="6.84213">
        <ele>328</ele>
        <time>2025-10-24T07:33:20.000Z</time>
      </trkpt>
      <trkpt lat="43.58851" lon="6.84209">
        <ele>328.2</ele>
        <time>2025-10-24T07:33:21.000Z</time>
      </trkpt>
      <trkpt lat="43.58853" lon="6.84205">
        <ele>328.3</ele>
        <time>2025-10-24T07:33:22.000Z</time>
      </trkpt>
      <trkpt lat="43.58855" lon="6.84201">
        <ele>328.4</ele>
        <time>2025-10-24T07:33:23.000Z</time>
      </trkpt>
      <trkpt lat="43.58858" lon="6.84197">
        <ele>328.6</ele>
        <time>2025-10-24T07:33:24.000Z</time>
      </trkpt>
      <trkpt lat="43.5886" lon="6.84193">
        <ele>328.7</ele>
        <time>2025-10-24T07:33:25.000Z</time>
      </trkpt>
      <trkpt lat="43.58863" lon="6.84189">
        <ele>328.8</ele>
        <time>2025-10-24T07:33:26.000Z</time>
      </trkpt>
      <trkpt lat="43.58865" lon="6.84185">
        <ele>329</ele>
        <time>2025-10-24T07:33:27.000Z</time>
      </trkpt>
      <trkpt lat="43.58868" lon="6.84181">
        <ele>329.1</ele>
        <time>2025-10-24T07:33:28.000Z</time>
      </trkpt>
      <trkpt lat="43.5887" lon="6.84177">
        <ele>329.2</ele>
        <time>2025-10-24T07:33:29.000Z</time>
      </trkpt>
      <trkpt lat="43.58873" lon="6.84173">
        <ele>329.3</ele>
        <time>2025-10-24T07:33:30.000Z</time>
      </trkpt>
      <trkpt lat="43.58875" lon="6.84169">
        <ele>329.5</ele>
        <time>2025-10-24T07:33:31.000Z</time>
      </trkpt>
      <trkpt lat="43.58878" lon="6.84165">
        <ele>329.6</ele>
        <time>2025-10-24T07:33:32.000Z</time>
      </trkpt>
      <trkpt lat="43.5888" lon="6.84161">
        <ele>329.8</ele>
        <time>2025-10-24T07:33:33.000Z</time>
      </trkpt>
      <trkpt lat="43.58882" lon="6.84157">
        <ele>330</ele>
        <time>2025-10-24T07:33:34.000Z</time>
      </trkpt>
      <trkpt lat="43.58885" lon="6.84154">
        <ele>330.2</ele>
        <time>2025-10-24T07:33:35.000Z</time>
      </trkpt>
      <trkpt lat="43.58888" lon="6.8415">
        <ele>330.4</ele>
        <time>2025-10-24T07:33:36.000Z</time>
      </trkpt>
      <trkpt lat="43.5889" lon="6.84147">
        <ele>330.6</ele>
        <time>2025-10-24T07:33:37.000Z</time>
      </trkpt>
      <trkpt lat="43.58892" lon="6.84144">
        <ele>330.8</ele>
        <time>2025-10-24T07:33:38.000Z</time>
      </trkpt>
      <trkpt lat="43.58894" lon="6.8414">
        <ele>330.9</ele>
        <time>2025-10-24T07:33:39.000Z</time>
      </trkpt>
      <trkpt lat="43.58895" lon="6.84137">
        <ele>331</ele>
        <time>2025-10-24T07:33:40.000Z</time>
      </trkpt>
      <trkpt lat="43.58894" lon="6.84135">
        <ele>331</ele>
        <time>2025-10-24T07:33:41.000Z</time>
      </trkpt>
      <trkpt lat="43.58893" lon="6.84134">
        <ele>330.9</ele>
        <time>2025-10-24T07:33:42.000Z</time>
      </trkpt>
      <trkpt lat="43.58891" lon="6.84133">
        <ele>330.9</ele>
        <time>2025-10-24T07:33:43.000Z</time>
      </trkpt>
      <trkpt lat="43.58889" lon="6.84133">
        <ele>330.9</ele>
        <time>2025-10-24T07:33:44.000Z</time>
      </trkpt>
      <trkpt lat="43.58887" lon="6.84133">
        <ele>330.8</ele>
        <time>2025-10-24T07:33:45.000Z</time>
      </trkpt>
      <trkpt lat="43.58884" lon="6.84133">
        <ele>330.7</ele>
        <time>2025-10-24T07:33:46.000Z</time>
      </trkpt>
      <trkpt lat="43.58881" lon="6.84132">
        <ele>330.6</ele>
        <time>2025-10-24T07:33:47.000Z</time>
      </trkpt>
      <trkpt lat="43.58879" lon="6.84131">
        <ele>330.5</ele>
        <time>2025-10-24T07:33:48.000Z</time>
      </trkpt>
      <trkpt lat="43.58876" lon="6.84131">
        <ele>330.4</ele>
        <time>2025-10-24T07:33:49.000Z</time>
      </trkpt>
      <trkpt lat="43.58875" lon="6.8413">
        <ele>330.4</ele>
        <time>2025-10-24T07:33:50.000Z</time>
      </trkpt>
      <trkpt lat="43.58874" lon="6.8413">
        <ele>330.3</ele>
        <time>2025-10-24T07:33:51.000Z</time>
      </trkpt>
      <trkpt lat="43.58874" lon="6.84131">
        <ele>330.3</ele>
        <time>2025-10-24T07:33:52.000Z</time>
      </trkpt>
      <trkpt lat="43.58873" lon="6.84131">
        <ele>330.3</ele>
        <time>2025-10-24T07:33:53.000Z</time>
      </trkpt>
      <trkpt lat="43.58873" lon="6.84131">
        <ele>330.3</ele>
        <time>2025-10-24T07:33:54.000Z</time>
      </trkpt>
      <trkpt lat="43.58873" lon="6.84131">
        <ele>330.3</ele>
        <time>2025-10-24T07:33:55.000Z</time>
      </trkpt>
      <trkpt lat="43.58873" lon="6.8413">
        <ele>330.2</ele>
        <time>2025-10-24T07:33:56.000Z</time>
      </trkpt>
      <trkpt lat="43.58873" lon="6.8413">
        <ele>330.2</ele>
        <time>2025-10-24T07:33:57.000Z</time>
      </trkpt>
      <trkpt lat="43.58872" lon="6.8413">
        <ele>330.2</ele>
        <time>2025-10-24T07:33:58.000Z</time>
      </trkpt>
      <trkpt lat="43.58872" lon="6.8413">
        <ele>330.2</ele>
        <time>2025-10-24T07:33:59.000Z</time>
      </trkpt>
      <trkpt lat="43.58872" lon="6.8413">
        <ele>330.2</ele>
        <time>2025-10-24T07:34:00.000Z</time>
      </trkpt>
      <trkpt lat="43.58871" lon="6.84129">
        <ele>330.1</ele>
        <time>2025-10-24T07:34:01.000Z</time>
      </trkpt>
      <trkpt lat="43.58869" lon="6.84128">
        <ele>330</ele>
        <time>2025-10-24T07:34:02.000Z</time>
      </trkpt>
      <trkpt lat="43.58867" lon="6.84126">
        <ele>329.8</ele>
        <time>2025-10-24T07:34:03.000Z</time>
      </trkpt>
      <trkpt lat="43.58864" lon="6.84123">
        <ele>329.6</ele>
        <time>2025-10-24T07:34:04.000Z</time>
      </trkpt>
      <trkpt lat="43.58861" lon="6.8412">
        <ele>329.4</ele>
        <time>2025-10-24T07:34:05.000Z</time>
      </trkpt>
      <trkpt lat="43.58858" lon="6.84117">
        <ele>329.1</ele>
        <time>2025-10-24T07:34:06.000Z</time>
      </trkpt>
      <trkpt lat="43.58856" lon="6.84112">
        <ele>328.9</ele>
        <time>2025-10-24T07:34:07.000Z</time>
      </trkpt>
      <trkpt lat="43.58853" lon="6.84107">
        <ele>328.6</ele>
        <time>2025-10-24T07:34:08.000Z</time>
      </trkpt>
      <trkpt lat="43.58852" lon="6.84102">
        <ele>328.4</ele>
        <time>2025-10-24T07:34:09.000Z</time>
      </trkpt>
      <trkpt lat="43.58851" lon="6.84098">
        <ele>328.2</ele>
        <time>2025-10-24T07:34:10.000Z</time>
      </trkpt>
      <trkpt lat="43.58851" lon="6.84094">
        <ele>328.1</ele>
        <time>2025-10-24T07:34:11.000Z</time>
      </trkpt>
      <trkpt lat="43.5885" lon="6.8409">
        <ele>327.9</ele>
        <time>2025-10-24T07:34:12.000Z</time>
      </trkpt>
      <trkpt lat="43.5885" lon="6.84086">
        <ele>327.7</ele>
        <time>2025-10-24T07:34:13.000Z</time>
      </trkpt>
      <trkpt lat="43.5885" lon="6.84081">
        <ele>327.5</ele>
        <time>2025-10-24T07:34:14.000Z</time>
      </trkpt>
      <trkpt lat="43.5885" lon="6.84076">
        <ele>327.3</ele>
        <time>2025-10-24T07:34:15.000Z</time>
      </trkpt>
      <trkpt lat="43.5885" lon="6.8407">
        <ele>327</ele>
        <time>2025-10-24T07:34:16.000Z</time>
      </trkpt>
      <trkpt lat="43.5885" lon="6.84065">
        <ele>326.8</ele>
        <time>2025-10-24T07:34:17.000Z</time>
      </trkpt>
      <trkpt lat="43.58849" lon="6.8406">
        <ele>326.7</ele>
        <time>2025-10-24T07:34:18.000Z</time>
      </trkpt>
      <trkpt lat="43.58849" lon="6.84055">
        <ele>326.7</ele>
        <time>2025-10-24T07:34:19.000Z</time>
      </trkpt>
      <trkpt lat="43.58849" lon="6.8405">
        <ele>326.6</ele>
        <time>2025-10-24T07:34:20.000Z</time>
      </trkpt>
      <trkpt lat="43.5885" lon="6.84045">
        <ele>326.6</ele>
        <time>2025-10-24T07:34:21.000Z</time>
      </trkpt>
      <trkpt lat="43.5885" lon="6.8404">
        <ele>326.5</ele>
        <time>2025-10-24T07:34:22.000Z</time>
      </trkpt>
      <trkpt lat="43.58851" lon="6.84035">
        <ele>326.4</ele>
        <time>2025-10-24T07:34:23.000Z</time>
      </trkpt>
      <trkpt lat="43.58853" lon="6.8403">
        <ele>326.3</ele>
        <time>2025-10-24T07:34:24.000Z</time>
      </trkpt>
      <trkpt lat="43.58854" lon="6.84024">
        <ele>326.2</ele>
        <time>2025-10-24T07:34:25.000Z</time>
      </trkpt>
      <trkpt lat="43.58856" lon="6.84019">
        <ele>326</ele>
        <time>2025-10-24T07:34:26.000Z</time>
      </trkpt>
      <trkpt lat="43.58858" lon="6.84014">
        <ele>325.9</ele>
        <time>2025-10-24T07:34:27.000Z</time>
      </trkpt>
      <trkpt lat="43.5886" lon="6.84008">
        <ele>325.7</ele>
        <time>2025-10-24T07:34:28.000Z</time>
      </trkpt>
      <trkpt lat="43.58862" lon="6.84002">
        <ele>325.5</ele>
        <time>2025-10-24T07:34:29.000Z</time>
      </trkpt>
      <trkpt lat="43.58863" lon="6.83996">
        <ele>325.3</ele>
        <time>2025-10-24T07:34:30.000Z</time>
      </trkpt>
      <trkpt lat="43.58864" lon="6.83989">
        <ele>325.1</ele>
        <time>2025-10-24T07:34:31.000Z</time>
      </trkpt>
      <trkpt lat="43.58865" lon="6.83982">
        <ele>325</ele>
        <time>2025-10-24T07:34:32.000Z</time>
      </trkpt>
      <trkpt lat="43.58865" lon="6.83975">
        <ele>324.8</ele>
        <time>2025-10-24T07:34:33.000Z</time>
      </trkpt>
      <trkpt lat="43.58865" lon="6.83968">
        <ele>324.9</ele>
        <time>2025-10-24T07:34:34.000Z</time>
      </trkpt>
      <trkpt lat="43.58866" lon="6.83961">
        <ele>325</ele>
        <time>2025-10-24T07:34:35.000Z</time>
      </trkpt>
      <trkpt lat="43.58865" lon="6.83955">
        <ele>325.1</ele>
        <time>2025-10-24T07:34:36.000Z</time>
      </trkpt>
      <trkpt lat="43.58864" lon="6.8395">
        <ele>325.2</ele>
        <time>2025-10-24T07:34:37.000Z</time>
      </trkpt>
      <trkpt lat="43.58862" lon="6.83945">
        <ele>325.3</ele>
        <time>2025-10-24T07:34:38.000Z</time>
      </trkpt>
      <trkpt lat="43.5886" lon="6.83941">
        <ele>325.5</ele>
        <time>2025-10-24T07:34:39.000Z</time>
      </trkpt>
      <trkpt lat="43.58857" lon="6.83937">
        <ele>325.6</ele>
        <time>2025-10-24T07:34:40.000Z</time>
      </trkpt>
      <trkpt lat="43.58855" lon="6.83933">
        <ele>325.8</ele>
        <time>2025-10-24T07:34:41.000Z</time>
      </trkpt>
      <trkpt lat="43.58852" lon="6.8393">
        <ele>326</ele>
        <time>2025-10-24T07:34:42.000Z</time>
      </trkpt>
      <trkpt lat="43.58849" lon="6.83926">
        <ele>326.2</ele>
        <time>2025-10-24T07:34:43.000Z</time>
      </trkpt>
      <trkpt lat="43.58846" lon="6.83922">
        <ele>326.4</ele>
        <time>2025-10-24T07:34:44.000Z</time>
      </trkpt>
      <trkpt lat="43.58843" lon="6.83918">
        <ele>326.6</ele>
        <time>2025-10-24T07:34:45.000Z</time>
      </trkpt>
      <trkpt lat="43.5884" lon="6.83915">
        <ele>326.8</ele>
        <time>2025-10-24T07:34:46.000Z</time>
      </trkpt>
      <trkpt lat="43.58837" lon="6.83912">
        <ele>327</ele>
        <time>2025-10-24T07:34:47.000Z</time>
      </trkpt>
      <trkpt lat="43.58834" lon="6.83908">
        <ele>327.2</ele>
        <time>2025-10-24T07:34:48.000Z</time>
      </trkpt>
      <trkpt lat="43.58831" lon="6.83904">
        <ele>327.4</ele>
        <time>2025-10-24T07:34:49.000Z</time>
      </trkpt>
      <trkpt lat="43.58828" lon="6.839">
        <ele>327.6</ele>
        <time>2025-10-24T07:34:50.000Z</time>
      </trkpt>
      <trkpt lat="43.58825" lon="6.83896">
        <ele>327.8</ele>
        <time>2025-10-24T07:34:51.000Z</time>
      </trkpt>
      <trkpt lat="43.58821" lon="6.83892">
        <ele>328</ele>
        <time>2025-10-24T07:34:52.000Z</time>
      </trkpt>
      <trkpt lat="43.58818" lon="6.83889">
        <ele>328.2</ele>
        <time>2025-10-24T07:34:53.000Z</time>
      </trkpt>
      <trkpt lat="43.58815" lon="6.83886">
        <ele>328.4</ele>
        <time>2025-10-24T07:34:54.000Z</time>
      </trkpt>
      <trkpt lat="43.58812" lon="6.83883">
        <ele>328.6</ele>
        <time>2025-10-24T07:34:55.000Z</time>
      </trkpt>
      <trkpt lat="43.58809" lon="6.83879">
        <ele>328.8</ele>
        <time>2025-10-24T07:34:56.000Z</time>
      </trkpt>
      <trkpt lat="43.58807" lon="6.83875">
        <ele>329</ele>
        <time>2025-10-24T07:34:57.000Z</time>
      </trkpt>
      <trkpt lat="43.58804" lon="6.83871">
        <ele>329.2</ele>
        <time>2025-10-24T07:34:58.000Z</time>
      </trkpt>
      <trkpt lat="43.58801" lon="6.83867">
        <ele>329.4</ele>
        <time>2025-10-24T07:34:59.000Z</time>
      </trkpt>
      <trkpt lat="43.58799" lon="6.83863">
        <ele>329.5</ele>
        <time>2025-10-24T07:35:00.000Z</time>
      </trkpt>
      <trkpt lat="43.58797" lon="6.83859">
        <ele>329.6</ele>
        <time>2025-10-24T07:35:01.000Z</time>
      </trkpt>
      <trkpt lat="43.58795" lon="6.83854">
        <ele>329.6</ele>
        <time>2025-10-24T07:35:02.000Z</time>
      </trkpt>
      <trkpt lat="43.58794" lon="6.8385">
        <ele>329.5</ele>
        <time>2025-10-24T07:35:03.000Z</time>
      </trkpt>
      <trkpt lat="43.58792" lon="6.83846">
        <ele>329.4</ele>
        <time>2025-10-24T07:35:04.000Z</time>
      </trkpt>
      <trkpt lat="43.58791" lon="6.83841">
        <ele>329.2</ele>
        <time>2025-10-24T07:35:05.000Z</time>
      </trkpt>
      <trkpt lat="43.5879" lon="6.83837">
        <ele>329</ele>
        <time>2025-10-24T07:35:06.000Z</time>
      </trkpt>
      <trkpt lat="43.58789" lon="6.83833">
        <ele>328.8</ele>
        <time>2025-10-24T07:35:07.000Z</time>
      </trkpt>
      <trkpt lat="43.58789" lon="6.83828">
        <ele>328.5</ele>
        <time>2025-10-24T07:35:08.000Z</time>
      </trkpt>
      <trkpt lat="43.58789" lon="6.83823">
        <ele>328.2</ele>
        <time>2025-10-24T07:35:09.000Z</time>
      </trkpt>
      <trkpt lat="43.5879" lon="6.83817">
        <ele>328</ele>
        <time>2025-10-24T07:35:10.000Z</time>
      </trkpt>
      <trkpt lat="43.58791" lon="6.83811">
        <ele>327.7</ele>
        <time>2025-10-24T07:35:11.000Z</time>
      </trkpt>
      <trkpt lat="43.58792" lon="6.83806">
        <ele>327.4</ele>
        <time>2025-10-24T07:35:12.000Z</time>
      </trkpt>
      <trkpt lat="43.58793" lon="6.838">
        <ele>327.2</ele>
        <time>2025-10-24T07:35:13.000Z</time>
      </trkpt>
      <trkpt lat="43.58794" lon="6.83794">
        <ele>326.9</ele>
        <time>2025-10-24T07:35:14.000Z</time>
      </trkpt>
      <trkpt lat="43.58796" lon="6.83788">
        <ele>326.7</ele>
        <time>2025-10-24T07:35:15.000Z</time>
      </trkpt>
      <trkpt lat="43.58797" lon="6.83783">
        <ele>326.5</ele>
        <time>2025-10-24T07:35:16.000Z</time>
      </trkpt>
      <trkpt lat="43.58799" lon="6.83779">
        <ele>326.3</ele>
        <time>2025-10-24T07:35:17.000Z</time>
      </trkpt>
      <trkpt lat="43.588" lon="6.83774">
        <ele>326.3</ele>
        <time>2025-10-24T07:35:18.000Z</time>
      </trkpt>
      <trkpt lat="43.58802" lon="6.8377">
        <ele>326.3</ele>
        <time>2025-10-24T07:35:19.000Z</time>
      </trkpt>
      <trkpt lat="43.58804" lon="6.83765">
        <ele>326.2</ele>
        <time>2025-10-24T07:35:20.000Z</time>
      </trkpt>
      <trkpt lat="43.58807" lon="6.83759">
        <ele>326.2</ele>
        <time>2025-10-24T07:35:21.000Z</time>
      </trkpt>
      <trkpt lat="43.58809" lon="6.83752">
        <ele>325.8</ele>
        <time>2025-10-24T07:35:22.000Z</time>
      </trkpt>
      <trkpt lat="43.5881" lon="6.83745">
        <ele>325.4</ele>
        <time>2025-10-24T07:35:23.000Z</time>
      </trkpt>
      <trkpt lat="43.58812" lon="6.83738">
        <ele>325</ele>
        <time>2025-10-24T07:35:24.000Z</time>
      </trkpt>
      <trkpt lat="43.58813" lon="6.8373">
        <ele>324.5</ele>
        <time>2025-10-24T07:35:25.000Z</time>
      </trkpt>
      <trkpt lat="43.58815" lon="6.83721">
        <ele>324.1</ele>
        <time>2025-10-24T07:35:26.000Z</time>
      </trkpt>
      <trkpt lat="43.58816" lon="6.83712">
        <ele>323.7</ele>
        <time>2025-10-24T07:35:27.000Z</time>
      </trkpt>
      <trkpt lat="43.58817" lon="6.83702">
        <ele>323.3</ele>
        <time>2025-10-24T07:35:28.000Z</time>
      </trkpt>
      <trkpt lat="43.58818" lon="6.83692">
        <ele>322.8</ele>
        <time>2025-10-24T07:35:29.000Z</time>
      </trkpt>
      <trkpt lat="43.58818" lon="6.83682">
        <ele>322.4</ele>
        <time>2025-10-24T07:35:30.000Z</time>
      </trkpt>
      <trkpt lat="43.58817" lon="6.83672">
        <ele>322</ele>
        <time>2025-10-24T07:35:31.000Z</time>
      </trkpt>
      <trkpt lat="43.58816" lon="6.83662">
        <ele>321.6</ele>
        <time>2025-10-24T07:35:32.000Z</time>
      </trkpt>
      <trkpt lat="43.58814" lon="6.83653">
        <ele>321.2</ele>
        <time>2025-10-24T07:35:33.000Z</time>
      </trkpt>
      <trkpt lat="43.58812" lon="6.83643">
        <ele>320.8</ele>
        <time>2025-10-24T07:35:34.000Z</time>
      </trkpt>
      <trkpt lat="43.58808" lon="6.83634">
        <ele>320.3</ele>
        <time>2025-10-24T07:35:35.000Z</time>
      </trkpt>
      <trkpt lat="43.58805" lon="6.83624">
        <ele>319.9</ele>
        <time>2025-10-24T07:35:36.000Z</time>
      </trkpt>
      <trkpt lat="43.58802" lon="6.83615">
        <ele>319.5</ele>
        <time>2025-10-24T07:35:37.000Z</time>
      </trkpt>
      <trkpt lat="43.58797" lon="6.83607">
        <ele>319.3</ele>
        <time>2025-10-24T07:35:38.000Z</time>
      </trkpt>
      <trkpt lat="43.58791" lon="6.83599">
        <ele>319</ele>
        <time>2025-10-24T07:35:39.000Z</time>
      </trkpt>
      <trkpt lat="43.58784" lon="6.83594">
        <ele>318.9</ele>
        <time>2025-10-24T07:35:40.000Z</time>
      </trkpt>
      <trkpt lat="43.58778" lon="6.8359">
        <ele>318.8</ele>
        <time>2025-10-24T07:35:41.000Z</time>
      </trkpt>
      <trkpt lat="43.58774" lon="6.83586">
        <ele>318.8</ele>
        <time>2025-10-24T07:35:42.000Z</time>
      </trkpt>
      <trkpt lat="43.58769" lon="6.83581">
        <ele>318.7</ele>
        <time>2025-10-24T07:35:43.000Z</time>
      </trkpt>
      <trkpt lat="43.58765" lon="6.83575">
        <ele>318.7</ele>
        <time>2025-10-24T07:35:44.000Z</time>
      </trkpt>
      <trkpt lat="43.58762" lon="6.83569">
        <ele>318.7</ele>
        <time>2025-10-24T07:35:45.000Z</time>
      </trkpt>
      <trkpt lat="43.5876" lon="6.83562">
        <ele>318.7</ele>
        <time>2025-10-24T07:35:46.000Z</time>
      </trkpt>
      <trkpt lat="43.58758" lon="6.83555">
        <ele>318.7</ele>
        <time>2025-10-24T07:35:47.000Z</time>
      </trkpt>
      <trkpt lat="43.58757" lon="6.83548">
        <ele>318.7</ele>
        <time>2025-10-24T07:35:48.000Z</time>
      </trkpt>
      <trkpt lat="43.58755" lon="6.83542">
        <ele>318.8</ele>
        <time>2025-10-24T07:35:49.000Z</time>
      </trkpt>
      <trkpt lat="43.58753" lon="6.83535">
        <ele>318.8</ele>
        <time>2025-10-24T07:35:50.000Z</time>
      </trkpt>
      <trkpt lat="43.58751" lon="6.8353">
        <ele>319</ele>
        <time>2025-10-24T07:35:51.000Z</time>
      </trkpt>
      <trkpt lat="43.58749" lon="6.83524">
        <ele>319.1</ele>
        <time>2025-10-24T07:35:52.000Z</time>
      </trkpt>
      <trkpt lat="43.58746" lon="6.8352">
        <ele>319.3</ele>
        <time>2025-10-24T07:35:53.000Z</time>
      </trkpt>
      <trkpt lat="43.58743" lon="6.83515">
        <ele>319.5</ele>
        <time>2025-10-24T07:35:54.000Z</time>
      </trkpt>
      <trkpt lat="43.5874" lon="6.8351">
        <ele>319.7</ele>
        <time>2025-10-24T07:35:55.000Z</time>
      </trkpt>
      <trkpt lat="43.58738" lon="6.83506">
        <ele>319.9</ele>
        <time>2025-10-24T07:35:56.000Z</time>
      </trkpt>
      <trkpt lat="43.58735" lon="6.83501">
        <ele>320.2</ele>
        <time>2025-10-24T07:35:57.000Z</time>
      </trkpt>
      <trkpt lat="43.58732" lon="6.83496">
        <ele>320.4</ele>
        <time>2025-10-24T07:35:58.000Z</time>
      </trkpt>
      <trkpt lat="43.5873" lon="6.83491">
        <ele>320.6</ele>
        <time>2025-10-24T07:35:59.000Z</time>
      </trkpt>
      <trkpt lat="43.58728" lon="6.83486">
        <ele>320.8</ele>
        <time>2025-10-24T07:36:00.000Z</time>
      </trkpt>
      <trkpt lat="43.58727" lon="6.83481">
        <ele>321</ele>
        <time>2025-10-24T07:36:01.000Z</time>
      </trkpt>
      <trkpt lat="43.58726" lon="6.83476">
        <ele>321.1</ele>
        <time>2025-10-24T07:36:02.000Z</time>
      </trkpt>
      <trkpt lat="43.58725" lon="6.8347">
        <ele>321.2</ele>
        <time>2025-10-24T07:36:03.000Z</time>
      </trkpt>
      <trkpt lat="43.58724" lon="6.83464">
        <ele>321.2</ele>
        <time>2025-10-24T07:36:04.000Z</time>
      </trkpt>
      <trkpt lat="43.58724" lon="6.83458">
        <ele>321.1</ele>
        <time>2025-10-24T07:36:05.000Z</time>
      </trkpt>
      <trkpt lat="43.58723" lon="6.83452">
        <ele>321.1</ele>
        <time>2025-10-24T07:36:06.000Z</time>
      </trkpt>
      <trkpt lat="43.58723" lon="6.83446">
        <ele>320.9</ele>
        <time>2025-10-24T07:36:07.000Z</time>
      </trkpt>
      <trkpt lat="43.58722" lon="6.8344">
        <ele>320.7</ele>
        <time>2025-10-24T07:36:08.000Z</time>
      </trkpt>
      <trkpt lat="43.58721" lon="6.83435">
        <ele>320.5</ele>
        <time>2025-10-24T07:36:09.000Z</time>
      </trkpt>
      <trkpt lat="43.58721" lon="6.83429">
        <ele>320.3</ele>
        <time>2025-10-24T07:36:10.000Z</time>
      </trkpt>
      <trkpt lat="43.5872" lon="6.83424">
        <ele>320</ele>
        <time>2025-10-24T07:36:11.000Z</time>
      </trkpt>
      <trkpt lat="43.5872" lon="6.83418">
        <ele>319.6</ele>
        <time>2025-10-24T07:36:12.000Z</time>
      </trkpt>
      <trkpt lat="43.58719" lon="6.83412">
        <ele>319.2</ele>
        <time>2025-10-24T07:36:13.000Z</time>
      </trkpt>
      <trkpt lat="43.58718" lon="6.83405">
        <ele>318.7</ele>
        <time>2025-10-24T07:36:14.000Z</time>
      </trkpt>
      <trkpt lat="43.58717" lon="6.83399">
        <ele>318.2</ele>
        <time>2025-10-24T07:36:15.000Z</time>
      </trkpt>
      <trkpt lat="43.58716" lon="6.83392">
        <ele>317.6</ele>
        <time>2025-10-24T07:36:16.000Z</time>
      </trkpt>
      <trkpt lat="43.58715" lon="6.83385">
        <ele>317</ele>
        <time>2025-10-24T07:36:17.000Z</time>
      </trkpt>
      <trkpt lat="43.58715" lon="6.83378">
        <ele>316.4</ele>
        <time>2025-10-24T07:36:18.000Z</time>
      </trkpt>
      <trkpt lat="43.58715" lon="6.83369">
        <ele>315.6</ele>
        <time>2025-10-24T07:36:19.000Z</time>
      </trkpt>
      <trkpt lat="43.58714" lon="6.8336">
        <ele>314.8</ele>
        <time>2025-10-24T07:36:20.000Z</time>
      </trkpt>
      <trkpt lat="43.58712" lon="6.83352">
        <ele>314.1</ele>
        <time>2025-10-24T07:36:21.000Z</time>
      </trkpt>
      <trkpt lat="43.58709" lon="6.83343">
        <ele>313.3</ele>
        <time>2025-10-24T07:36:22.000Z</time>
      </trkpt>
      <trkpt lat="43.58706" lon="6.83334">
        <ele>312.6</ele>
        <time>2025-10-24T07:36:23.000Z</time>
      </trkpt>
      <trkpt lat="43.58702" lon="6.83325">
        <ele>311.9</ele>
        <time>2025-10-24T07:36:24.000Z</time>
      </trkpt>
      <trkpt lat="43.587" lon="6.83315">
        <ele>311.3</ele>
        <time>2025-10-24T07:36:25.000Z</time>
      </trkpt>
      <trkpt lat="43.58698" lon="6.83305">
        <ele>310.8</ele>
        <time>2025-10-24T07:36:26.000Z</time>
      </trkpt>
      <trkpt lat="43.58697" lon="6.83296">
        <ele>310.2</ele>
        <time>2025-10-24T07:36:27.000Z</time>
      </trkpt>
      <trkpt lat="43.58696" lon="6.83287">
        <ele>309.7</ele>
        <time>2025-10-24T07:36:28.000Z</time>
      </trkpt>
      <trkpt lat="43.58695" lon="6.83279">
        <ele>309.1</ele>
        <time>2025-10-24T07:36:29.000Z</time>
      </trkpt>
      <trkpt lat="43.58695" lon="6.83272">
        <ele>308.5</ele>
        <time>2025-10-24T07:36:30.000Z</time>
      </trkpt>
      <trkpt lat="43.58694" lon="6.83265">
        <ele>307.8</ele>
        <time>2025-10-24T07:36:31.000Z</time>
      </trkpt>
      <trkpt lat="43.58693" lon="6.83258">
        <ele>307.1</ele>
        <time>2025-10-24T07:36:32.000Z</time>
      </trkpt>
      <trkpt lat="43.58691" lon="6.83251">
        <ele>306.2</ele>
        <time>2025-10-24T07:36:33.000Z</time>
      </trkpt>
      <trkpt lat="43.58689" lon="6.83243">
        <ele>305.2</ele>
        <time>2025-10-24T07:36:34.000Z</time>
      </trkpt>
      <trkpt lat="43.58687" lon="6.83235">
        <ele>304.1</ele>
        <time>2025-10-24T07:36:35.000Z</time>
      </trkpt>
      <trkpt lat="43.58685" lon="6.83227">
        <ele>303</ele>
        <time>2025-10-24T07:36:36.000Z</time>
      </trkpt>
      <trkpt lat="43.58683" lon="6.83218">
        <ele>302</ele>
        <time>2025-10-24T07:36:37.000Z</time>
      </trkpt>
      <trkpt lat="43.58682" lon="6.83211">
        <ele>301</ele>
        <time>2025-10-24T07:36:38.000Z</time>
      </trkpt>
      <trkpt lat="43.58681" lon="6.83204">
        <ele>300.1</ele>
        <time>2025-10-24T07:36:39.000Z</time>
      </trkpt>
      <trkpt lat="43.5868" lon="6.83197">
        <ele>299.1</ele>
        <time>2025-10-24T07:36:40.000Z</time>
      </trkpt>
      <trkpt lat="43.5868" lon="6.83191">
        <ele>298.4</ele>
        <time>2025-10-24T07:36:41.000Z</time>
      </trkpt>
      <trkpt lat="43.58681" lon="6.83184">
        <ele>297.5</ele>
        <time>2025-10-24T07:36:42.000Z</time>
      </trkpt>
      <trkpt lat="43.58681" lon="6.83176">
        <ele>296.6</ele>
        <time>2025-10-24T07:36:43.000Z</time>
      </trkpt>
      <trkpt lat="43.58682" lon="6.83169">
        <ele>295.8</ele>
        <time>2025-10-24T07:36:44.000Z</time>
      </trkpt>
      <trkpt lat="43.58683" lon="6.83159">
        <ele>294.9</ele>
        <time>2025-10-24T07:36:45.000Z</time>
      </trkpt>
      <trkpt lat="43.58684" lon="6.83151">
        <ele>294.2</ele>
        <time>2025-10-24T07:36:46.000Z</time>
      </trkpt>
      <trkpt lat="43.58684" lon="6.83142">
        <ele>293.4</ele>
        <time>2025-10-24T07:36:47.000Z</time>
      </trkpt>
      <trkpt lat="43.58683" lon="6.83136">
        <ele>292.7</ele>
        <time>2025-10-24T07:36:48.000Z</time>
      </trkpt>
      <trkpt lat="43.58681" lon="6.83127">
        <ele>291.7</ele>
        <time>2025-10-24T07:36:49.000Z</time>
      </trkpt>
      <trkpt lat="43.58678" lon="6.8312">
        <ele>290.6</ele>
        <time>2025-10-24T07:36:50.000Z</time>
      </trkpt>
      <trkpt lat="43.58675" lon="6.83111">
        <ele>289.1</ele>
        <time>2025-10-24T07:36:51.000Z</time>
      </trkpt>
      <trkpt lat="43.58672" lon="6.83104">
        <ele>287.9</ele>
        <time>2025-10-24T07:36:52.000Z</time>
      </trkpt>
      <trkpt lat="43.5867" lon="6.83098">
        <ele>287</ele>
        <time>2025-10-24T07:36:53.000Z</time>
      </trkpt>
      <trkpt lat="43.58668" lon="6.83092">
        <ele>285.9</ele>
        <time>2025-10-24T07:36:54.000Z</time>
      </trkpt>
      <trkpt lat="43.58666" lon="6.83085">
        <ele>284.9</ele>
        <time>2025-10-24T07:36:55.000Z</time>
      </trkpt>
      <trkpt lat="43.58663" lon="6.83077">
        <ele>283.7</ele>
        <time>2025-10-24T07:36:56.000Z</time>
      </trkpt>
      <trkpt lat="43.58661" lon="6.83069">
        <ele>282.8</ele>
        <time>2025-10-24T07:36:57.000Z</time>
      </trkpt>
      <trkpt lat="43.5866" lon="6.83064">
        <ele>282.1</ele>
        <time>2025-10-24T07:36:58.000Z</time>
      </trkpt>
      <trkpt lat="43.58659" lon="6.83057">
        <ele>281.2</ele>
        <time>2025-10-24T07:36:59.000Z</time>
      </trkpt>
      <trkpt lat="43.58659" lon="6.83052">
        <ele>280.4</ele>
        <time>2025-10-24T07:37:00.000Z</time>
      </trkpt>
      <trkpt lat="43.5866" lon="6.83045">
        <ele>279.5</ele>
        <time>2025-10-24T07:37:01.000Z</time>
      </trkpt>
      <trkpt lat="43.58662" lon="6.8304">
        <ele>278.7</ele>
        <time>2025-10-24T07:37:02.000Z</time>
      </trkpt>
      <trkpt lat="43.58662" lon="6.83036">
        <ele>278.1</ele>
        <time>2025-10-24T07:37:03.000Z</time>
      </trkpt>
      <trkpt lat="43.58662" lon="6.83031">
        <ele>277.3</ele>
        <time>2025-10-24T07:37:04.000Z</time>
      </trkpt>
      <trkpt lat="43.58661" lon="6.83027">
        <ele>276.6</ele>
        <time>2025-10-24T07:37:05.000Z</time>
      </trkpt>
      <trkpt lat="43.58658" lon="6.83022">
        <ele>275.8</ele>
        <time>2025-10-24T07:37:06.000Z</time>
      </trkpt>
      <trkpt lat="43.58656" lon="6.83021">
        <ele>275.1</ele>
        <time>2025-10-24T07:37:07.000Z</time>
      </trkpt>
      <trkpt lat="43.58651" lon="6.83019">
        <ele>274.2</ele>
        <time>2025-10-24T07:37:08.000Z</time>
      </trkpt>
      <trkpt lat="43.58647" lon="6.83017">
        <ele>273.2</ele>
        <time>2025-10-24T07:37:09.000Z</time>
      </trkpt>
      <trkpt lat="43.58642" lon="6.83017">
        <ele>272.2</ele>
        <time>2025-10-24T07:37:10.000Z</time>
      </trkpt>
      <trkpt lat="43.58636" lon="6.83017">
        <ele>271.1</ele>
        <time>2025-10-24T07:37:11.000Z</time>
      </trkpt>
      <trkpt lat="43.58631" lon="6.83018">
        <ele>270.3</ele>
        <time>2025-10-24T07:37:12.000Z</time>
      </trkpt>
      <trkpt lat="43.58627" lon="6.83018">
        <ele>269.6</ele>
        <time>2025-10-24T07:37:13.000Z</time>
      </trkpt>
      <trkpt lat="43.58625" lon="6.83017">
        <ele>269.1</ele>
        <time>2025-10-24T07:37:14.000Z</time>
      </trkpt>
      <trkpt lat="43.58622" lon="6.83016">
        <ele>268.7</ele>
        <time>2025-10-24T07:37:15.000Z</time>
      </trkpt>
      <trkpt lat="43.5862" lon="6.83016">
        <ele>268.4</ele>
        <time>2025-10-24T07:37:16.000Z</time>
      </trkpt>
      <trkpt lat="43.5862" lon="6.83015">
        <ele>268.3</ele>
        <time>2025-10-24T07:37:17.000Z</time>
      </trkpt>
      <trkpt lat="43.58619" lon="6.83015">
        <ele>268.2</ele>
        <time>2025-10-24T07:37:18.000Z</time>
      </trkpt>
      <trkpt lat="43.58617" lon="6.83016">
        <ele>267.9</ele>
        <time>2025-10-24T07:37:19.000Z</time>
      </trkpt>
      <trkpt lat="43.58615" lon="6.83017">
        <ele>267.6</ele>
        <time>2025-10-24T07:37:20.000Z</time>
      </trkpt>
      <trkpt lat="43.58612" lon="6.83017">
        <ele>267.3</ele>
        <time>2025-10-24T07:37:21.000Z</time>
      </trkpt>
      <trkpt lat="43.5861" lon="6.83018">
        <ele>267</ele>
        <time>2025-10-24T07:37:22.000Z</time>
      </trkpt>
      <trkpt lat="43.58608" lon="6.83018">
        <ele>266.8</ele>
        <time>2025-10-24T07:37:23.000Z</time>
      </trkpt>
      <trkpt lat="43.58605" lon="6.83019">
        <ele>266.5</ele>
        <time>2025-10-24T07:37:24.000Z</time>
      </trkpt>
      <trkpt lat="43.58603" lon="6.8302">
        <ele>266.3</ele>
        <time>2025-10-24T07:37:25.000Z</time>
      </trkpt>
      <trkpt lat="43.586" lon="6.8302">
        <ele>266.1</ele>
        <time>2025-10-24T07:37:26.000Z</time>
      </trkpt>
      <trkpt lat="43.58598" lon="6.83021">
        <ele>265.9</ele>
        <time>2025-10-24T07:37:27.000Z</time>
      </trkpt>
      <trkpt lat="43.58596" lon="6.83022">
        <ele>265.7</ele>
        <time>2025-10-24T07:37:28.000Z</time>
      </trkpt>
      <trkpt lat="43.58593" lon="6.83022">
        <ele>265.5</ele>
        <time>2025-10-24T07:37:29.000Z</time>
      </trkpt>
      <trkpt lat="43.58591" lon="6.83023">
        <ele>265.3</ele>
        <time>2025-10-24T07:37:30.000Z</time>
      </trkpt>
      <trkpt lat="43.58586" lon="6.83025">
        <ele>264.9</ele>
        <time>2025-10-24T07:37:31.000Z</time>
      </trkpt>
      <trkpt lat="43.58582" lon="6.83025">
        <ele>264.6</ele>
        <time>2025-10-24T07:37:32.000Z</time>
      </trkpt>
      <trkpt lat="43.58577" lon="6.83025">
        <ele>264.3</ele>
        <time>2025-10-24T07:37:33.000Z</time>
      </trkpt>
      <trkpt lat="43.58573" lon="6.83025">
        <ele>264.1</ele>
        <time>2025-10-24T07:37:34.000Z</time>
      </trkpt>
      <trkpt lat="43.58567" lon="6.83024">
        <ele>263.8</ele>
        <time>2025-10-24T07:37:35.000Z</time>
      </trkpt>
      <trkpt lat="43.58561" lon="6.83023">
        <ele>263.4</ele>
        <time>2025-10-24T07:37:36.000Z</time>
      </trkpt>
      <trkpt lat="43.58555" lon="6.83021">
        <ele>263</ele>
        <time>2025-10-24T07:37:37.000Z</time>
      </trkpt>
      <trkpt lat="43.5855" lon="6.83019">
        <ele>262.6</ele>
        <time>2025-10-24T07:37:38.000Z</time>
      </trkpt>
      <trkpt lat="43.58544" lon="6.83018">
        <ele>262.1</ele>
        <time>2025-10-24T07:37:39.000Z</time>
      </trkpt>
      <trkpt lat="43.58539" lon="6.83016">
        <ele>261.5</ele>
        <time>2025-10-24T07:37:40.000Z</time>
      </trkpt>
      <trkpt lat="43.58534" lon="6.83014">
        <ele>260.9</ele>
        <time>2025-10-24T07:37:41.000Z</time>
      </trkpt>
      <trkpt lat="43.58528" lon="6.83013">
        <ele>260.2</ele>
        <time>2025-10-24T07:37:42.000Z</time>
      </trkpt>
      <trkpt lat="43.58523" lon="6.83013">
        <ele>259.5</ele>
        <time>2025-10-24T07:37:43.000Z</time>
      </trkpt>
      <trkpt lat="43.58518" lon="6.83014">
        <ele>258.8</ele>
        <time>2025-10-24T07:37:44.000Z</time>
      </trkpt>
      <trkpt lat="43.58513" lon="6.83016">
        <ele>258.2</ele>
        <time>2025-10-24T07:37:45.000Z</time>
      </trkpt>
      <trkpt lat="43.5851" lon="6.83017">
        <ele>257.6</ele>
        <time>2025-10-24T07:37:46.000Z</time>
      </trkpt>
      <trkpt lat="43.58506" lon="6.83018">
        <ele>257.1</ele>
        <time>2025-10-24T07:37:47.000Z</time>
      </trkpt>
      <trkpt lat="43.58503" lon="6.83018">
        <ele>256.5</ele>
        <time>2025-10-24T07:37:48.000Z</time>
      </trkpt>
      <trkpt lat="43.585" lon="6.83018">
        <ele>256</ele>
        <time>2025-10-24T07:37:49.000Z</time>
      </trkpt>
      <trkpt lat="43.58498" lon="6.83017">
        <ele>255.7</ele>
        <time>2025-10-24T07:37:50.000Z</time>
      </trkpt>
      <trkpt lat="43.58497" lon="6.83017">
        <ele>255.6</ele>
        <time>2025-10-24T07:37:51.000Z</time>
      </trkpt>
      <trkpt lat="43.58496" lon="6.83017">
        <ele>255.4</ele>
        <time>2025-10-24T07:37:52.000Z</time>
      </trkpt>
      <trkpt lat="43.58495" lon="6.83017">
        <ele>255.3</ele>
        <time>2025-10-24T07:37:53.000Z</time>
      </trkpt>
      <trkpt lat="43.58495" lon="6.83017">
        <ele>255.2</ele>
        <time>2025-10-24T07:37:54.000Z</time>
      </trkpt>
      <trkpt lat="43.58495" lon="6.83017">
        <ele>255.2</ele>
        <time>2025-10-24T07:37:55.000Z</time>
      </trkpt>
      <trkpt lat="43.58495" lon="6.83017">
        <ele>255.2</ele>
        <time>2025-10-24T07:37:56.000Z</time>
      </trkpt>
      <trkpt lat="43.58494" lon="6.83016">
        <ele>255.1</ele>
        <time>2025-10-24T07:37:57.000Z</time>
      </trkpt>
      <trkpt lat="43.58494" lon="6.83016">
        <ele>255</ele>
        <time>2025-10-24T07:37:58.000Z</time>
      </trkpt>
      <trkpt lat="43.58495" lon="6.83016">
        <ele>254.9</ele>
        <time>2025-10-24T07:37:59.000Z</time>
      </trkpt>
      <trkpt lat="43.58495" lon="6.83015">
        <ele>254.8</ele>
        <time>2025-10-24T07:38:00.000Z</time>
      </trkpt>
      <trkpt lat="43.58495" lon="6.83014">
        <ele>254.6</ele>
        <time>2025-10-24T07:38:01.000Z</time>
      </trkpt>
      <trkpt lat="43.58494" lon="6.83012">
        <ele>254.4</ele>
        <time>2025-10-24T07:38:02.000Z</time>
      </trkpt>
      <trkpt lat="43.58493" lon="6.83009">
        <ele>254</ele>
        <time>2025-10-24T07:38:03.000Z</time>
      </trkpt>
      <trkpt lat="43.58492" lon="6.83005">
        <ele>253.7</ele>
        <time>2025-10-24T07:38:04.000Z</time>
      </trkpt>
      <trkpt lat="43.58491" lon="6.83001">
        <ele>253.2</ele>
        <time>2025-10-24T07:38:05.000Z</time>
      </trkpt>
      <trkpt lat="43.58491" lon="6.82995">
        <ele>252.8</ele>
        <time>2025-10-24T07:38:06.000Z</time>
      </trkpt>
      <trkpt lat="43.58492" lon="6.82988">
        <ele>252.4</ele>
        <time>2025-10-24T07:38:07.000Z</time>
      </trkpt>
      <trkpt lat="43.58495" lon="6.82981">
        <ele>251.9</ele>
        <time>2025-10-24T07:38:08.000Z</time>
      </trkpt>
      <trkpt lat="43.58499" lon="6.82974">
        <ele>251.6</ele>
        <time>2025-10-24T07:38:09.000Z</time>
      </trkpt>
      <trkpt lat="43.58503" lon="6.82968">
        <ele>251.2</ele>
        <time>2025-10-24T07:38:10.000Z</time>
      </trkpt>
      <trkpt lat="43.58508" lon="6.82962">
        <ele>250.9</ele>
        <time>2025-10-24T07:38:11.000Z</time>
      </trkpt>
      <trkpt lat="43.58514" lon="6.82958">
        <ele>250.7</ele>
        <time>2025-10-24T07:38:12.000Z</time>
      </trkpt>
      <trkpt lat="43.58519" lon="6.82954">
        <ele>250.5</ele>
        <time>2025-10-24T07:38:13.000Z</time>
      </trkpt>
      <trkpt lat="43.58525" lon="6.82951">
        <ele>250.4</ele>
        <time>2025-10-24T07:38:14.000Z</time>
      </trkpt>
      <trkpt lat="43.58531" lon="6.82949">
        <ele>250.3</ele>
        <time>2025-10-24T07:38:15.000Z</time>
      </trkpt>
      <trkpt lat="43.58537" lon="6.82947">
        <ele>250.2</ele>
        <time>2025-10-24T07:38:16.000Z</time>
      </trkpt>
      <trkpt lat="43.58543" lon="6.82945">
        <ele>250.1</ele>
        <time>2025-10-24T07:38:17.000Z</time>
      </trkpt>
      <trkpt lat="43.58549" lon="6.82944">
        <ele>250.1</ele>
        <time>2025-10-24T07:38:18.000Z</time>
      </trkpt>
      <trkpt lat="43.58555" lon="6.82942">
        <ele>250</ele>
        <time>2025-10-24T07:38:19.000Z</time>
      </trkpt>
      <trkpt lat="43.58561" lon="6.82941">
        <ele>249.9</ele>
        <time>2025-10-24T07:38:20.000Z</time>
      </trkpt>
      <trkpt lat="43.58566" lon="6.82939">
        <ele>249.9</ele>
        <time>2025-10-24T07:38:21.000Z</time>
      </trkpt>
      <trkpt lat="43.58572" lon="6.82937">
        <ele>249.8</ele>
        <time>2025-10-24T07:38:22.000Z</time>
      </trkpt>
      <trkpt lat="43.58578" lon="6.82936">
        <ele>249.8</ele>
        <time>2025-10-24T07:38:23.000Z</time>
      </trkpt>
      <trkpt lat="43.58583" lon="6.82935">
        <ele>249.9</ele>
        <time>2025-10-24T07:38:24.000Z</time>
      </trkpt>
      <trkpt lat="43.58588" lon="6.82934">
        <ele>249.9</ele>
        <time>2025-10-24T07:38:25.000Z</time>
      </trkpt>
      <trkpt lat="43.58594" lon="6.82933">
        <ele>249.9</ele>
        <time>2025-10-24T07:38:26.000Z</time>
      </trkpt>
      <trkpt lat="43.58599" lon="6.82932">
        <ele>250</ele>
        <time>2025-10-24T07:38:27.000Z</time>
      </trkpt>
      <trkpt lat="43.58605" lon="6.82931">
        <ele>250</ele>
        <time>2025-10-24T07:38:28.000Z</time>
      </trkpt>
      <trkpt lat="43.5861" lon="6.82929">
        <ele>250.1</ele>
        <time>2025-10-24T07:38:29.000Z</time>
      </trkpt>
      <trkpt lat="43.58614" lon="6.82927">
        <ele>249.8</ele>
        <time>2025-10-24T07:38:30.000Z</time>
      </trkpt>
      <trkpt lat="43.58619" lon="6.82925">
        <ele>249.5</ele>
        <time>2025-10-24T07:38:31.000Z</time>
      </trkpt>
      <trkpt lat="43.58623" lon="6.82922">
        <ele>249.2</ele>
        <time>2025-10-24T07:38:32.000Z</time>
      </trkpt>
      <trkpt lat="43.58627" lon="6.8292">
        <ele>248.8</ele>
        <time>2025-10-24T07:38:33.000Z</time>
      </trkpt>
      <trkpt lat="43.5863" lon="6.82917">
        <ele>248.5</ele>
        <time>2025-10-24T07:38:34.000Z</time>
      </trkpt>
      <trkpt lat="43.58634" lon="6.82913">
        <ele>248</ele>
        <time>2025-10-24T07:38:35.000Z</time>
      </trkpt>
      <trkpt lat="43.58638" lon="6.82909">
        <ele>247.6</ele>
        <time>2025-10-24T07:38:36.000Z</time>
      </trkpt>
      <trkpt lat="43.58642" lon="6.82904">
        <ele>247.1</ele>
        <time>2025-10-24T07:38:37.000Z</time>
      </trkpt>
      <trkpt lat="43.58646" lon="6.829">
        <ele>246.6</ele>
        <time>2025-10-24T07:38:38.000Z</time>
      </trkpt>
      <trkpt lat="43.58649" lon="6.82895">
        <ele>246.2</ele>
        <time>2025-10-24T07:38:39.000Z</time>
      </trkpt>
      <trkpt lat="43.58653" lon="6.82891">
        <ele>245.7</ele>
        <time>2025-10-24T07:38:40.000Z</time>
      </trkpt>
      <trkpt lat="43.58657" lon="6.82887">
        <ele>245.3</ele>
        <time>2025-10-24T07:38:41.000Z</time>
      </trkpt>
      <trkpt lat="43.58661" lon="6.82883">
        <ele>245</ele>
        <time>2025-10-24T07:38:42.000Z</time>
      </trkpt>
      <trkpt lat="43.58664" lon="6.82879">
        <ele>244.7</ele>
        <time>2025-10-24T07:38:43.000Z</time>
      </trkpt>
      <trkpt lat="43.58667" lon="6.82875">
        <ele>244.4</ele>
        <time>2025-10-24T07:38:44.000Z</time>
      </trkpt>
      <trkpt lat="43.58671" lon="6.82872">
        <ele>244.1</ele>
        <time>2025-10-24T07:38:45.000Z</time>
      </trkpt>
      <trkpt lat="43.58675" lon="6.82869">
        <ele>243.8</ele>
        <time>2025-10-24T07:38:46.000Z</time>
      </trkpt>
      <trkpt lat="43.5868" lon="6.82867">
        <ele>243.5</ele>
        <time>2025-10-24T07:38:47.000Z</time>
      </trkpt>
      <trkpt lat="43.58684" lon="6.82864">
        <ele>243.2</ele>
        <time>2025-10-24T07:38:48.000Z</time>
      </trkpt>
      <trkpt lat="43.58689" lon="6.82862">
        <ele>242.9</ele>
        <time>2025-10-24T07:38:49.000Z</time>
      </trkpt>
      <trkpt lat="43.58693" lon="6.8286">
        <ele>242.5</ele>
        <time>2025-10-24T07:38:50.000Z</time>
      </trkpt>
      <trkpt lat="43.58698" lon="6.82857">
        <ele>242.1</ele>
        <time>2025-10-24T07:38:51.000Z</time>
      </trkpt>
      <trkpt lat="43.58702" lon="6.82856">
        <ele>241.7</ele>
        <time>2025-10-24T07:38:52.000Z</time>
      </trkpt>
      <trkpt lat="43.58707" lon="6.82854">
        <ele>241.1</ele>
        <time>2025-10-24T07:38:53.000Z</time>
      </trkpt>
      <trkpt lat="43.58712" lon="6.82854">
        <ele>240.5</ele>
        <time>2025-10-24T07:38:54.000Z</time>
      </trkpt>
      <trkpt lat="43.58717" lon="6.82853">
        <ele>239.9</ele>
        <time>2025-10-24T07:38:55.000Z</time>
      </trkpt>
      <trkpt lat="43.58722" lon="6.82853">
        <ele>239.3</ele>
        <time>2025-10-24T07:38:56.000Z</time>
      </trkpt>
      <trkpt lat="43.58726" lon="6.82853">
        <ele>238.7</ele>
        <time>2025-10-24T07:38:57.000Z</time>
      </trkpt>
      <trkpt lat="43.58732" lon="6.82854">
        <ele>237.9</ele>
        <time>2025-10-24T07:38:58.000Z</time>
      </trkpt>
      <trkpt lat="43.58737" lon="6.82855">
        <ele>237.3</ele>
        <time>2025-10-24T07:38:59.000Z</time>
      </trkpt>
      <trkpt lat="43.58742" lon="6.82856">
        <ele>236.5</ele>
        <time>2025-10-24T07:39:00.000Z</time>
      </trkpt>
      <trkpt lat="43.58749" lon="6.82859">
        <ele>235.6</ele>
        <time>2025-10-24T07:39:01.000Z</time>
      </trkpt>
      <trkpt lat="43.58754" lon="6.82863">
        <ele>235</ele>
        <time>2025-10-24T07:39:02.000Z</time>
      </trkpt>
      <trkpt lat="43.58757" lon="6.82867">
        <ele>234.5</ele>
        <time>2025-10-24T07:39:03.000Z</time>
      </trkpt>
      <trkpt lat="43.58761" lon="6.82872">
        <ele>233.9</ele>
        <time>2025-10-24T07:39:04.000Z</time>
      </trkpt>
      <trkpt lat="43.58764" lon="6.82878">
        <ele>233.5</ele>
        <time>2025-10-24T07:39:05.000Z</time>
      </trkpt>
      <trkpt lat="43.58765" lon="6.82884">
        <ele>233.2</ele>
        <time>2025-10-24T07:39:06.000Z</time>
      </trkpt>
      <trkpt lat="43.58766" lon="6.82891">
        <ele>233</ele>
        <time>2025-10-24T07:39:07.000Z</time>
      </trkpt>
      <trkpt lat="43.58766" lon="6.829">
        <ele>232.7</ele>
        <time>2025-10-24T07:39:08.000Z</time>
      </trkpt>
      <trkpt lat="43.58767" lon="6.82908">
        <ele>232.6</ele>
        <time>2025-10-24T07:39:09.000Z</time>
      </trkpt>
      <trkpt lat="43.58768" lon="6.82914">
        <ele>232.5</ele>
        <time>2025-10-24T07:39:10.000Z</time>
      </trkpt>
      <trkpt lat="43.5877" lon="6.8292">
        <ele>232.5</ele>
        <time>2025-10-24T07:39:11.000Z</time>
      </trkpt>
      <trkpt lat="43.58772" lon="6.82923">
        <ele>232.5</ele>
        <time>2025-10-24T07:39:12.000Z</time>
      </trkpt>
      <trkpt lat="43.58775" lon="6.82926">
        <ele>232.6</ele>
        <time>2025-10-24T07:39:13.000Z</time>
      </trkpt>
      <trkpt lat="43.58779" lon="6.82928">
        <ele>232.7</ele>
        <time>2025-10-24T07:39:14.000Z</time>
      </trkpt>
      <trkpt lat="43.58782" lon="6.82931">
        <ele>232.7</ele>
        <time>2025-10-24T07:39:15.000Z</time>
      </trkpt>
      <trkpt lat="43.58784" lon="6.82934">
        <ele>232.8</ele>
        <time>2025-10-24T07:39:16.000Z</time>
      </trkpt>
      <trkpt lat="43.58787" lon="6.82936">
        <ele>232.8</ele>
        <time>2025-10-24T07:39:17.000Z</time>
      </trkpt>
      <trkpt lat="43.58791" lon="6.82938">
        <ele>232.8</ele>
        <time>2025-10-24T07:39:18.000Z</time>
      </trkpt>
      <trkpt lat="43.58795" lon="6.8294">
        <ele>232.7</ele>
        <time>2025-10-24T07:39:19.000Z</time>
      </trkpt>
      <trkpt lat="43.58799" lon="6.82941">
        <ele>232.5</ele>
        <time>2025-10-24T07:39:20.000Z</time>
      </trkpt>
      <trkpt lat="43.58802" lon="6.82942">
        <ele>232.3</ele>
        <time>2025-10-24T07:39:21.000Z</time>
      </trkpt>
      <trkpt lat="43.58807" lon="6.82943">
        <ele>232</ele>
        <time>2025-10-24T07:39:22.000Z</time>
      </trkpt>
      <trkpt lat="43.58812" lon="6.82944">
        <ele>231.5</ele>
        <time>2025-10-24T07:39:23.000Z</time>
      </trkpt>
      <trkpt lat="43.58817" lon="6.82945">
        <ele>231</ele>
        <time>2025-10-24T07:39:24.000Z</time>
      </trkpt>
      <trkpt lat="43.58821" lon="6.82945">
        <ele>230.5</ele>
        <time>2025-10-24T07:39:25.000Z</time>
      </trkpt>
      <trkpt lat="43.58826" lon="6.82946">
        <ele>229.7</ele>
        <time>2025-10-24T07:39:26.000Z</time>
      </trkpt>
      <trkpt lat="43.58832" lon="6.82947">
        <ele>229</ele>
        <time>2025-10-24T07:39:27.000Z</time>
      </trkpt>
      <trkpt lat="43.58837" lon="6.82947">
        <ele>228.3</ele>
        <time>2025-10-24T07:39:28.000Z</time>
      </trkpt>
      <trkpt lat="43.58844" lon="6.82948">
        <ele>227.4</ele>
        <time>2025-10-24T07:39:29.000Z</time>
      </trkpt>
      <trkpt lat="43.58849" lon="6.82949">
        <ele>226.9</ele>
        <time>2025-10-24T07:39:30.000Z</time>
      </trkpt>
      <trkpt lat="43.58854" lon="6.82949">
        <ele>226.3</ele>
        <time>2025-10-24T07:39:31.000Z</time>
      </trkpt>
      <trkpt lat="43.58859" lon="6.8295">
        <ele>225.8</ele>
        <time>2025-10-24T07:39:32.000Z</time>
      </trkpt>
      <trkpt lat="43.58865" lon="6.82951">
        <ele>225.3</ele>
        <time>2025-10-24T07:39:33.000Z</time>
      </trkpt>
      <trkpt lat="43.58868" lon="6.82951">
        <ele>225</ele>
        <time>2025-10-24T07:39:34.000Z</time>
      </trkpt>
      <trkpt lat="43.58871" lon="6.82952">
        <ele>224.7</ele>
        <time>2025-10-24T07:39:35.000Z</time>
      </trkpt>
      <trkpt lat="43.58874" lon="6.82953">
        <ele>224.4</ele>
        <time>2025-10-24T07:39:36.000Z</time>
      </trkpt>
      <trkpt lat="43.58877" lon="6.82954">
        <ele>224.1</ele>
        <time>2025-10-24T07:39:37.000Z</time>
      </trkpt>
      <trkpt lat="43.5888" lon="6.82955">
        <ele>223.8</ele>
        <time>2025-10-24T07:39:38.000Z</time>
      </trkpt>
      <trkpt lat="43.58882" lon="6.82956">
        <ele>223.6</ele>
        <time>2025-10-24T07:39:39.000Z</time>
      </trkpt>
      <trkpt lat="43.58885" lon="6.82957">
        <ele>223.4</ele>
        <time>2025-10-24T07:39:40.000Z</time>
      </trkpt>
      <trkpt lat="43.58887" lon="6.82959">
        <ele>223.2</ele>
        <time>2025-10-24T07:39:41.000Z</time>
      </trkpt>
      <trkpt lat="43.58889" lon="6.8296">
        <ele>223</ele>
        <time>2025-10-24T07:39:42.000Z</time>
      </trkpt>
      <trkpt lat="43.5889" lon="6.8296">
        <ele>223</ele>
        <time>2025-10-24T07:39:43.000Z</time>
      </trkpt>
      <trkpt lat="43.5889" lon="6.82961">
        <ele>223</ele>
        <time>2025-10-24T07:39:44.000Z</time>
      </trkpt>
      <trkpt lat="43.58889" lon="6.8296">
        <ele>223</ele>
        <time>2025-10-24T07:39:45.000Z</time>
      </trkpt>
      <trkpt lat="43.58889" lon="6.8296">
        <ele>223.1</ele>
        <time>2025-10-24T07:39:46.000Z</time>
      </trkpt>
      <trkpt lat="43.58889" lon="6.82961">
        <ele>223.1</ele>
        <time>2025-10-24T07:39:47.000Z</time>
      </trkpt>
      <trkpt lat="43.58888" lon="6.82961">
        <ele>223.2</ele>
        <time>2025-10-24T07:39:48.000Z</time>
      </trkpt>
      <trkpt lat="43.58887" lon="6.82962">
        <ele>223.2</ele>
        <time>2025-10-24T07:39:49.000Z</time>
      </trkpt>
      <trkpt lat="43.58887" lon="6.82963">
        <ele>223.3</ele>
        <time>2025-10-24T07:39:50.000Z</time>
      </trkpt>
      <trkpt lat="43.58886" lon="6.82964">
        <ele>223.3</ele>
        <time>2025-10-24T07:39:51.000Z</time>
      </trkpt>
      <trkpt lat="43.58886" lon="6.82964">
        <ele>223.4</ele>
        <time>2025-10-24T07:39:52.000Z</time>
      </trkpt>
      <trkpt lat="43.58884" lon="6.82963">
        <ele>223.5</ele>
        <time>2025-10-24T07:39:53.000Z</time>
      </trkpt>
      <trkpt lat="43.58885" lon="6.82962">
        <ele>223.5</ele>
        <time>2025-10-24T07:39:54.000Z</time>
      </trkpt>
      <trkpt lat="43.58885" lon="6.82964">
        <ele>223.5</ele>
        <time>2025-10-24T07:39:55.000Z</time>
      </trkpt>
      <trkpt lat="43.58886" lon="6.82965">
        <ele>223.6</ele>
        <time>2025-10-24T07:39:56.000Z</time>
      </trkpt>
      <trkpt lat="43.58887" lon="6.82967">
        <ele>223.6</ele>
        <time>2025-10-24T07:39:57.000Z</time>
      </trkpt>
      <trkpt lat="43.58888" lon="6.8297">
        <ele>223.6</ele>
        <time>2025-10-24T07:39:58.000Z</time>
      </trkpt>
      <trkpt lat="43.58888" lon="6.82974">
        <ele>223.7</ele>
        <time>2025-10-24T07:39:59.000Z</time>
      </trkpt>
      <trkpt lat="43.58888" lon="6.82979">
        <ele>223.6</ele>
        <time>2025-10-24T07:40:00.000Z</time>
      </trkpt>
      <trkpt lat="43.58888" lon="6.82984">
        <ele>223.5</ele>
        <time>2025-10-24T07:40:01.000Z</time>
      </trkpt>
      <trkpt lat="43.58888" lon="6.82989">
        <ele>223.4</ele>
        <time>2025-10-24T07:40:02.000Z</time>
      </trkpt>
      <trkpt lat="43.58888" lon="6.82993">
        <ele>223.3</ele>
        <time>2025-10-24T07:40:03.000Z</time>
      </trkpt>
      <trkpt lat="43.58888" lon="6.82998">
        <ele>223.1</ele>
        <time>2025-10-24T07:40:04.000Z</time>
      </trkpt>
      <trkpt lat="43.58888" lon="6.83003">
        <ele>222.9</ele>
        <time>2025-10-24T07:40:05.000Z</time>
      </trkpt>
      <trkpt lat="43.58888" lon="6.83009">
        <ele>222.7</ele>
        <time>2025-10-24T07:40:06.000Z</time>
      </trkpt>
      <trkpt lat="43.58887" lon="6.83015">
        <ele>222.4</ele>
        <time>2025-10-24T07:40:07.000Z</time>
      </trkpt>
      <trkpt lat="43.58887" lon="6.83022">
        <ele>222.1</ele>
        <time>2025-10-24T07:40:08.000Z</time>
      </trkpt>
      <trkpt lat="43.58888" lon="6.83028">
        <ele>221.9</ele>
        <time>2025-10-24T07:40:09.000Z</time>
      </trkpt>
      <trkpt lat="43.58888" lon="6.83035">
        <ele>221.6</ele>
        <time>2025-10-24T07:40:10.000Z</time>
      </trkpt>
      <trkpt lat="43.58888" lon="6.83042">
        <ele>221.3</ele>
        <time>2025-10-24T07:40:11.000Z</time>
      </trkpt>
      <trkpt lat="43.58889" lon="6.83049">
        <ele>221</ele>
        <time>2025-10-24T07:40:12.000Z</time>
      </trkpt>
      <trkpt lat="43.58891" lon="6.83056">
        <ele>220.7</ele>
        <time>2025-10-24T07:40:13.000Z</time>
      </trkpt>
      <trkpt lat="43.58893" lon="6.83064">
        <ele>220.4</ele>
        <time>2025-10-24T07:40:14.000Z</time>
      </trkpt>
      <trkpt lat="43.58896" lon="6.83071">
        <ele>220.2</ele>
        <time>2025-10-24T07:40:15.000Z</time>
      </trkpt>
      <trkpt lat="43.58898" lon="6.83077">
        <ele>220</ele>
        <time>2025-10-24T07:40:16.000Z</time>
      </trkpt>
      <trkpt lat="43.589" lon="6.83084">
        <ele>219.8</ele>
        <time>2025-10-24T07:40:17.000Z</time>
      </trkpt>
      <trkpt lat="43.58901" lon="6.83091">
        <ele>219.7</ele>
        <time>2025-10-24T07:40:18.000Z</time>
      </trkpt>
      <trkpt lat="43.58901" lon="6.831">
        <ele>219.6</ele>
        <time>2025-10-24T07:40:19.000Z</time>
      </trkpt>
      <trkpt lat="43.58902" lon="6.83107">
        <ele>219.5</ele>
        <time>2025-10-24T07:40:20.000Z</time>
      </trkpt>
      <trkpt lat="43.58904" lon="6.83112">
        <ele>219.5</ele>
        <time>2025-10-24T07:40:21.000Z</time>
      </trkpt>
      <trkpt lat="43.58906" lon="6.83118">
        <ele>219.5</ele>
        <time>2025-10-24T07:40:22.000Z</time>
      </trkpt>
      <trkpt lat="43.58909" lon="6.83119">
        <ele>219.5</ele>
        <time>2025-10-24T07:40:23.000Z</time>
      </trkpt>
      <trkpt lat="43.58912" lon="6.83119">
        <ele>219.5</ele>
        <time>2025-10-24T07:40:24.000Z</time>
      </trkpt>
      <trkpt lat="43.58916" lon="6.83118">
        <ele>219.5</ele>
        <time>2025-10-24T07:40:25.000Z</time>
      </trkpt>
      <trkpt lat="43.5892" lon="6.83116">
        <ele>219.5</ele>
        <time>2025-10-24T07:40:26.000Z</time>
      </trkpt>
      <trkpt lat="43.58925" lon="6.83114">
        <ele>219.5</ele>
        <time>2025-10-24T07:40:27.000Z</time>
      </trkpt>
      <trkpt lat="43.58929" lon="6.83112">
        <ele>219.4</ele>
        <time>2025-10-24T07:40:28.000Z</time>
      </trkpt>
      <trkpt lat="43.58934" lon="6.8311">
        <ele>219.3</ele>
        <time>2025-10-24T07:40:29.000Z</time>
      </trkpt>
      <trkpt lat="43.58939" lon="6.83108">
        <ele>219.3</ele>
        <time>2025-10-24T07:40:30.000Z</time>
      </trkpt>
      <trkpt lat="43.58944" lon="6.83107">
        <ele>219.2</ele>
        <time>2025-10-24T07:40:31.000Z</time>
      </trkpt>
      <trkpt lat="43.5895" lon="6.83106">
        <ele>219.2</ele>
        <time>2025-10-24T07:40:32.000Z</time>
      </trkpt>
      <trkpt lat="43.58954" lon="6.83105">
        <ele>219.3</ele>
        <time>2025-10-24T07:40:33.000Z</time>
      </trkpt>
      <trkpt lat="43.5896" lon="6.83105">
        <ele>219.3</ele>
        <time>2025-10-24T07:40:34.000Z</time>
      </trkpt>
      <trkpt lat="43.58965" lon="6.83106">
        <ele>219.3</ele>
        <time>2025-10-24T07:40:35.000Z</time>
      </trkpt>
      <trkpt lat="43.5897" lon="6.83107">
        <ele>219.3</ele>
        <time>2025-10-24T07:40:36.000Z</time>
      </trkpt>
      <trkpt lat="43.58973" lon="6.83109">
        <ele>219.3</ele>
        <time>2025-10-24T07:40:37.000Z</time>
      </trkpt>
      <trkpt lat="43.58975" lon="6.83113">
        <ele>219.2</ele>
        <time>2025-10-24T07:40:38.000Z</time>
      </trkpt>
      <trkpt lat="43.58978" lon="6.83119">
        <ele>219.1</ele>
        <time>2025-10-24T07:40:39.000Z</time>
      </trkpt>
      <trkpt lat="43.58979" lon="6.83124">
        <ele>219</ele>
        <time>2025-10-24T07:40:40.000Z</time>
      </trkpt>
      <trkpt lat="43.58979" lon="6.8313">
        <ele>218.9</ele>
        <time>2025-10-24T07:40:41.000Z</time>
      </trkpt>
      <trkpt lat="43.5898" lon="6.83136">
        <ele>218.8</ele>
        <time>2025-10-24T07:40:42.000Z</time>
      </trkpt>
      <trkpt lat="43.58981" lon="6.83143">
        <ele>218.6</ele>
        <time>2025-10-24T07:40:43.000Z</time>
      </trkpt>
      <trkpt lat="43.58983" lon="6.83148">
        <ele>218.4</ele>
        <time>2025-10-24T07:40:44.000Z</time>
      </trkpt>
      <trkpt lat="43.58985" lon="6.83153">
        <ele>218.3</ele>
        <time>2025-10-24T07:40:45.000Z</time>
      </trkpt>
      <trkpt lat="43.58988" lon="6.83154">
        <ele>218.2</ele>
        <time>2025-10-24T07:40:46.000Z</time>
      </trkpt>
      <trkpt lat="43.58992" lon="6.83154">
        <ele>218</ele>
        <time>2025-10-24T07:40:47.000Z</time>
      </trkpt>
      <trkpt lat="43.58996" lon="6.83152">
        <ele>217.8</ele>
        <time>2025-10-24T07:40:48.000Z</time>
      </trkpt>
      <trkpt lat="43.59002" lon="6.8315">
        <ele>217.6</ele>
        <time>2025-10-24T07:40:49.000Z</time>
      </trkpt>
      <trkpt lat="43.59009" lon="6.8315">
        <ele>217.3</ele>
        <time>2025-10-24T07:40:50.000Z</time>
      </trkpt>
      <trkpt lat="43.59014" lon="6.83152">
        <ele>217.1</ele>
        <time>2025-10-24T07:40:51.000Z</time>
      </trkpt>
      <trkpt lat="43.59018" lon="6.83153">
        <ele>217</ele>
        <time>2025-10-24T07:40:52.000Z</time>
      </trkpt>
      <trkpt lat="43.59023" lon="6.83157">
        <ele>216.9</ele>
        <time>2025-10-24T07:40:53.000Z</time>
      </trkpt>
      <trkpt lat="43.59028" lon="6.83161">
        <ele>216.8</ele>
        <time>2025-10-24T07:40:54.000Z</time>
      </trkpt>
      <trkpt lat="43.59033" lon="6.83163">
        <ele>216.7</ele>
        <time>2025-10-24T07:40:55.000Z</time>
      </trkpt>
      <trkpt lat="43.59036" lon="6.83164">
        <ele>216.7</ele>
        <time>2025-10-24T07:40:56.000Z</time>
      </trkpt>
      <trkpt lat="43.59041" lon="6.83167">
        <ele>216.6</ele>
        <time>2025-10-24T07:40:57.000Z</time>
      </trkpt>
      <trkpt lat="43.59045" lon="6.8317">
        <ele>216.6</ele>
        <time>2025-10-24T07:40:58.000Z</time>
      </trkpt>
      <trkpt lat="43.5905" lon="6.83173">
        <ele>216.6</ele>
        <time>2025-10-24T07:40:59.000Z</time>
      </trkpt>
      <trkpt lat="43.59056" lon="6.83176">
        <ele>216.6</ele>
        <time>2025-10-24T07:41:00.000Z</time>
      </trkpt>
      <trkpt lat="43.59061" lon="6.83179">
        <ele>216.8</ele>
        <time>2025-10-24T07:41:01.000Z</time>
      </trkpt>
      <trkpt lat="43.59064" lon="6.8318">
        <ele>217</ele>
        <time>2025-10-24T07:41:02.000Z</time>
      </trkpt>
      <trkpt lat="43.59069" lon="6.83181">
        <ele>217.3</ele>
        <time>2025-10-24T07:41:03.000Z</time>
      </trkpt>
      <trkpt lat="43.59073" lon="6.83181">
        <ele>217.6</ele>
        <time>2025-10-24T07:41:04.000Z</time>
      </trkpt>
      <trkpt lat="43.59077" lon="6.83183">
        <ele>217.9</ele>
        <time>2025-10-24T07:41:05.000Z</time>
      </trkpt>
      <trkpt lat="43.59082" lon="6.83184">
        <ele>218.3</ele>
        <time>2025-10-24T07:41:06.000Z</time>
      </trkpt>
      <trkpt lat="43.59085" lon="6.83186">
        <ele>218.5</ele>
        <time>2025-10-24T07:41:07.000Z</time>
      </trkpt>
      <trkpt lat="43.59088" lon="6.83189">
        <ele>218.8</ele>
        <time>2025-10-24T07:41:08.000Z</time>
      </trkpt>
      <trkpt lat="43.59092" lon="6.83192">
        <ele>219</ele>
        <time>2025-10-24T07:41:09.000Z</time>
      </trkpt>
      <trkpt lat="43.59097" lon="6.83196">
        <ele>219.2</ele>
        <time>2025-10-24T07:41:10.000Z</time>
      </trkpt>
      <trkpt lat="43.59102" lon="6.832">
        <ele>219.3</ele>
        <time>2025-10-24T07:41:11.000Z</time>
      </trkpt>
      <trkpt lat="43.59105" lon="6.83203">
        <ele>219.3</ele>
        <time>2025-10-24T07:41:12.000Z</time>
      </trkpt>
      <trkpt lat="43.5911" lon="6.83208">
        <ele>219.4</ele>
        <time>2025-10-24T07:41:13.000Z</time>
      </trkpt>
      <trkpt lat="43.59114" lon="6.83212">
        <ele>219.5</ele>
        <time>2025-10-24T07:41:14.000Z</time>
      </trkpt>
      <trkpt lat="43.5912" lon="6.83217">
        <ele>219.7</ele>
        <time>2025-10-24T07:41:15.000Z</time>
      </trkpt>
      <trkpt lat="43.59125" lon="6.8322">
        <ele>219.9</ele>
        <time>2025-10-24T07:41:16.000Z</time>
      </trkpt>
      <trkpt lat="43.59129" lon="6.83223">
        <ele>220</ele>
        <time>2025-10-24T07:41:17.000Z</time>
      </trkpt>
      <trkpt lat="43.59133" lon="6.83226">
        <ele>220.2</ele>
        <time>2025-10-24T07:41:18.000Z</time>
      </trkpt>
      <trkpt lat="43.59139" lon="6.8323">
        <ele>220.4</ele>
        <time>2025-10-24T07:41:19.000Z</time>
      </trkpt>
      <trkpt lat="43.59143" lon="6.83234">
        <ele>220.5</ele>
        <time>2025-10-24T07:41:20.000Z</time>
      </trkpt>
      <trkpt lat="43.59147" lon="6.83238">
        <ele>220.6</ele>
        <time>2025-10-24T07:41:21.000Z</time>
      </trkpt>
      <trkpt lat="43.59151" lon="6.83242">
        <ele>220.8</ele>
        <time>2025-10-24T07:41:22.000Z</time>
      </trkpt>
      <trkpt lat="43.59155" lon="6.83245">
        <ele>220.9</ele>
        <time>2025-10-24T07:41:23.000Z</time>
      </trkpt>
      <trkpt lat="43.59159" lon="6.83248">
        <ele>221</ele>
        <time>2025-10-24T07:41:24.000Z</time>
      </trkpt>
      <trkpt lat="43.59164" lon="6.83252">
        <ele>221.2</ele>
        <time>2025-10-24T07:41:25.000Z</time>
      </trkpt>
      <trkpt lat="43.59168" lon="6.83255">
        <ele>221.4</ele>
        <time>2025-10-24T07:41:26.000Z</time>
      </trkpt>
      <trkpt lat="43.59171" lon="6.83259">
        <ele>221.6</ele>
        <time>2025-10-24T07:41:27.000Z</time>
      </trkpt>
      <trkpt lat="43.59175" lon="6.83262">
        <ele>221.7</ele>
        <time>2025-10-24T07:41:28.000Z</time>
      </trkpt>
      <trkpt lat="43.59179" lon="6.83265">
        <ele>221.9</ele>
        <time>2025-10-24T07:41:29.000Z</time>
      </trkpt>
      <trkpt lat="43.59184" lon="6.8327">
        <ele>222.1</ele>
        <time>2025-10-24T07:41:30.000Z</time>
      </trkpt>
      <trkpt lat="43.59187" lon="6.83273">
        <ele>222.3</ele>
        <time>2025-10-24T07:41:31.000Z</time>
      </trkpt>
      <trkpt lat="43.59191" lon="6.83277">
        <ele>222.4</ele>
        <time>2025-10-24T07:41:32.000Z</time>
      </trkpt>
      <trkpt lat="43.59194" lon="6.83279">
        <ele>222.5</ele>
        <time>2025-10-24T07:41:33.000Z</time>
      </trkpt>
      <trkpt lat="43.59198" lon="6.83282">
        <ele>222.7</ele>
        <time>2025-10-24T07:41:34.000Z</time>
      </trkpt>
      <trkpt lat="43.59203" lon="6.83285">
        <ele>222.8</ele>
        <time>2025-10-24T07:41:35.000Z</time>
      </trkpt>
      <trkpt lat="43.59208" lon="6.83288">
        <ele>222.9</ele>
        <time>2025-10-24T07:41:36.000Z</time>
      </trkpt>
      <trkpt lat="43.59212" lon="6.8329">
        <ele>223</ele>
        <time>2025-10-24T07:41:37.000Z</time>
      </trkpt>
      <trkpt lat="43.59214" lon="6.83292">
        <ele>223.1</ele>
        <time>2025-10-24T07:41:38.000Z</time>
      </trkpt>
      <trkpt lat="43.59218" lon="6.83294">
        <ele>223.2</ele>
        <time>2025-10-24T07:41:39.000Z</time>
      </trkpt>
      <trkpt lat="43.59222" lon="6.83296">
        <ele>223.2</ele>
        <time>2025-10-24T07:41:40.000Z</time>
      </trkpt>
      <trkpt lat="43.59226" lon="6.83298">
        <ele>223.3</ele>
        <time>2025-10-24T07:41:41.000Z</time>
      </trkpt>
      <trkpt lat="43.59229" lon="6.83299">
        <ele>223.4</ele>
        <time>2025-10-24T07:41:42.000Z</time>
      </trkpt>
      <trkpt lat="43.59231" lon="6.83302">
        <ele>223.5</ele>
        <time>2025-10-24T07:41:43.000Z</time>
      </trkpt>
      <trkpt lat="43.59234" lon="6.83305">
        <ele>223.5</ele>
        <time>2025-10-24T07:41:44.000Z</time>
      </trkpt>
      <trkpt lat="43.59237" lon="6.83308">
        <ele>223.7</ele>
        <time>2025-10-24T07:41:45.000Z</time>
      </trkpt>
      <trkpt lat="43.59238" lon="6.83313">
        <ele>223.8</ele>
        <time>2025-10-24T07:41:46.000Z</time>
      </trkpt>
      <trkpt lat="43.5924" lon="6.83318">
        <ele>223.9</ele>
        <time>2025-10-24T07:41:47.000Z</time>
      </trkpt>
      <trkpt lat="43.59241" lon="6.83322">
        <ele>224.1</ele>
        <time>2025-10-24T07:41:48.000Z</time>
      </trkpt>
      <trkpt lat="43.59242" lon="6.83327">
        <ele>224.3</ele>
        <time>2025-10-24T07:41:49.000Z</time>
      </trkpt>
      <trkpt lat="43.59242" lon="6.83332">
        <ele>224.5</ele>
        <time>2025-10-24T07:41:50.000Z</time>
      </trkpt>
      <trkpt lat="43.59243" lon="6.83336">
        <ele>224.7</ele>
        <time>2025-10-24T07:41:51.000Z</time>
      </trkpt>
      <trkpt lat="43.59242" lon="6.83341">
        <ele>224.9</ele>
        <time>2025-10-24T07:41:52.000Z</time>
      </trkpt>
      <trkpt lat="43.59243" lon="6.83343">
        <ele>225.1</ele>
        <time>2025-10-24T07:41:53.000Z</time>
      </trkpt>
      <trkpt lat="43.59242" lon="6.83346">
        <ele>225.2</ele>
        <time>2025-10-24T07:41:54.000Z</time>
      </trkpt>
      <trkpt lat="43.59242" lon="6.83347">
        <ele>225.3</ele>
        <time>2025-10-24T07:41:55.000Z</time>
      </trkpt>
      <trkpt lat="43.59242" lon="6.83348">
        <ele>225.3</ele>
        <time>2025-10-24T07:41:56.000Z</time>
      </trkpt>
      <trkpt lat="43.59242" lon="6.83348">
        <ele>225.3</ele>
        <time>2025-10-24T07:41:57.000Z</time>
      </trkpt>
      <trkpt lat="43.59242" lon="6.83347">
        <ele>225.3</ele>
        <time>2025-10-24T07:41:58.000Z</time>
      </trkpt>
      <trkpt lat="43.59242" lon="6.83347">
        <ele>225.4</ele>
        <time>2025-10-24T07:41:59.000Z</time>
      </trkpt>
      <trkpt lat="43.59242" lon="6.83347">
        <ele>225.4</ele>
        <time>2025-10-24T07:42:00.000Z</time>
      </trkpt>
      <trkpt lat="43.59241" lon="6.83347">
        <ele>225.4</ele>
        <time>2025-10-24T07:42:01.000Z</time>
      </trkpt>
      <trkpt lat="43.59241" lon="6.83347">
        <ele>225.4</ele>
        <time>2025-10-24T07:42:02.000Z</time>
      </trkpt>
      <trkpt lat="43.59241" lon="6.83347">
        <ele>225.4</ele>
        <time>2025-10-24T07:42:03.000Z</time>
      </trkpt>
      <trkpt lat="43.59241" lon="6.83347">
        <ele>225.4</ele>
        <time>2025-10-24T07:42:04.000Z</time>
      </trkpt>
      <trkpt lat="43.59242" lon="6.83346">
        <ele>225.1</ele>
        <time>2025-10-24T07:42:05.000Z</time>
      </trkpt>
      <trkpt lat="43.59243" lon="6.83346">
        <ele>224.8</ele>
        <time>2025-10-24T07:42:06.000Z</time>
      </trkpt>
      <trkpt lat="43.59243" lon="6.83345">
        <ele>224.6</ele>
        <time>2025-10-24T07:42:07.000Z</time>
      </trkpt>
      <trkpt lat="43.59243" lon="6.83345">
        <ele>224.6</ele>
        <time>2025-10-24T07:42:08.000Z</time>
      </trkpt>
      <trkpt lat="43.59243" lon="6.83345">
        <ele>224.6</ele>
        <time>2025-10-24T07:42:09.000Z</time>
      </trkpt>
      <trkpt lat="43.59243" lon="6.83345">
        <ele>224.6</ele>
        <time>2025-10-24T07:42:10.000Z</time>
      </trkpt>
      <trkpt lat="43.59243" lon="6.83345">
        <ele>224.6</ele>
        <time>2025-10-24T07:42:11.000Z</time>
      </trkpt>
      <trkpt lat="43.59243" lon="6.83345">
        <ele>224.6</ele>
        <time>2025-10-24T07:42:12.000Z</time>
      </trkpt>
      <trkpt lat="43.59243" lon="6.83345">
        <ele>224.6</ele>
        <time>2025-10-24T07:42:13.000Z</time>
      </trkpt>
      <trkpt lat="43.59243" lon="6.83345">
        <ele>224.6</ele>
        <time>2025-10-24T07:42:14.000Z</time>
      </trkpt>
      <trkpt lat="43.59243" lon="6.83345">
        <ele>224.6</ele>
        <time>2025-10-24T07:42:15.000Z</time>
      </trkpt>
      <trkpt lat="43.59243" lon="6.83345">
        <ele>224.6</ele>
        <time>2025-10-24T07:42:16.000Z</time>
      </trkpt>
      <trkpt lat="43.59243" lon="6.83345">
        <ele>224.6</ele>
        <time>2025-10-24T07:42:17.000Z</time>
      </trkpt>
      <trkpt lat="43.59243" lon="6.83345">
        <ele>224.6</ele>
        <time>2025-10-24T07:42:18.000Z</time>
      </trkpt>
      <trkpt lat="43.59243" lon="6.83345">
        <ele>224.6</ele>
        <time>2025-10-24T07:42:19.000Z</time>
      </trkpt>
      <trkpt lat="43.59243" lon="6.83345">
        <ele>224.6</ele>
        <time>2025-10-24T07:42:20.000Z</time>
      </trkpt>
      <trkpt lat="43.59243" lon="6.83345">
        <ele>224.6</ele>
        <time>2025-10-24T07:42:21.000Z</time>
      </trkpt>
      <trkpt lat="43.59243" lon="6.83345">
        <ele>224.6</ele>
        <time>2025-10-24T07:42:22.000Z</time>
      </trkpt>
      <trkpt lat="43.59244" lon="6.83345">
        <ele>224.4</ele>
        <time>2025-10-24T07:42:23.000Z</time>
      </trkpt>
      <trkpt lat="43.59244" lon="6.83345">
        <ele>224.3</ele>
        <time>2025-10-24T07:42:24.000Z</time>
      </trkpt>
      <trkpt lat="43.59244" lon="6.83345">
        <ele>224.2</ele>
        <time>2025-10-24T07:42:25.000Z</time>
      </trkpt>
      <trkpt lat="43.59244" lon="6.83345">
        <ele>224.2</ele>
        <time>2025-10-24T07:42:26.000Z</time>
      </trkpt>
      <trkpt lat="43.59245" lon="6.83345">
        <ele>224.1</ele>
        <time>2025-10-24T07:42:27.000Z</time>
      </trkpt>
      <trkpt lat="43.59246" lon="6.83345">
        <ele>223.9</ele>
        <time>2025-10-24T07:42:28.000Z</time>
      </trkpt>
      <trkpt lat="43.59246" lon="6.83345">
        <ele>223.8</ele>
        <time>2025-10-24T07:42:29.000Z</time>
      </trkpt>
      <trkpt lat="43.59246" lon="6.83345">
        <ele>223.8</ele>
        <time>2025-10-24T07:42:30.000Z</time>
      </trkpt>
      <trkpt lat="43.59246" lon="6.83345">
        <ele>223.8</ele>
        <time>2025-10-24T07:42:31.000Z</time>
      </trkpt>
      <trkpt lat="43.59246" lon="6.83345">
        <ele>223.7</ele>
        <time>2025-10-24T07:42:32.000Z</time>
      </trkpt>
      <trkpt lat="43.59246" lon="6.83345">
        <ele>223.7</ele>
        <time>2025-10-24T07:42:33.000Z</time>
      </trkpt>
      <trkpt lat="43.59246" lon="6.83345">
        <ele>223.7</ele>
        <time>2025-10-24T07:42:34.000Z</time>
      </trkpt>
      <trkpt lat="43.59246" lon="6.83345">
        <ele>223.7</ele>
        <time>2025-10-24T07:42:35.000Z</time>
      </trkpt>
      <trkpt lat="43.59246" lon="6.83345">
        <ele>223.6</ele>
        <time>2025-10-24T07:42:36.000Z</time>
      </trkpt>
      <trkpt lat="43.59246" lon="6.83345">
        <ele>223.6</ele>
        <time>2025-10-24T07:42:37.000Z</time>
      </trkpt>
      <trkpt lat="43.59246" lon="6.83345">
        <ele>223.6</ele>
        <time>2025-10-24T07:42:38.000Z</time>
      </trkpt>
      <trkpt lat="43.59247" lon="6.83345">
        <ele>223.6</ele>
        <time>2025-10-24T07:42:39.000Z</time>
      </trkpt>
      <trkpt lat="43.59247" lon="6.83345">
        <ele>223.5</ele>
        <time>2025-10-24T07:42:40.000Z</time>
      </trkpt>
      <trkpt lat="43.59247" lon="6.83346">
        <ele>223.4</ele>
        <time>2025-10-24T07:42:41.000Z</time>
      </trkpt>
      <trkpt lat="43.59247" lon="6.83346">
        <ele>223.2</ele>
        <time>2025-10-24T07:42:42.000Z</time>
      </trkpt>
      <trkpt lat="43.59247" lon="6.83347">
        <ele>223.1</ele>
        <time>2025-10-24T07:42:43.000Z</time>
      </trkpt>
      <trkpt lat="43.59247" lon="6.83347">
        <ele>223</ele>
        <time>2025-10-24T07:42:44.000Z</time>
      </trkpt>
      <trkpt lat="43.59247" lon="6.83348">
        <ele>223</ele>
        <time>2025-10-24T07:42:45.000Z</time>
      </trkpt>
      <trkpt lat="43.59247" lon="6.83348">
        <ele>222.9</ele>
        <time>2025-10-24T07:42:46.000Z</time>
      </trkpt>
      <trkpt lat="43.59247" lon="6.83348">
        <ele>222.9</ele>
        <time>2025-10-24T07:42:47.000Z</time>
      </trkpt>
      <trkpt lat="43.59247" lon="6.83348">
        <ele>222.9</ele>
        <time>2025-10-24T07:42:48.000Z</time>
      </trkpt>
      <trkpt lat="43.59247" lon="6.83348">
        <ele>222.9</ele>
        <time>2025-10-24T07:42:49.000Z</time>
      </trkpt>
      <trkpt lat="43.59247" lon="6.83348">
        <ele>222.8</ele>
        <time>2025-10-24T07:42:50.000Z</time>
      </trkpt>
      <trkpt lat="43.59247" lon="6.83348">
        <ele>222.8</ele>
        <time>2025-10-24T07:42:51.000Z</time>
      </trkpt>
      <trkpt lat="43.59247" lon="6.83349">
        <ele>222.7</ele>
        <time>2025-10-24T07:42:52.000Z</time>
      </trkpt>
      <trkpt lat="43.59247" lon="6.83349">
        <ele>222.7</ele>
        <time>2025-10-24T07:42:53.000Z</time>
      </trkpt>
      <trkpt lat="43.59247" lon="6.83349">
        <ele>222.6</ele>
        <time>2025-10-24T07:42:54.000Z</time>
      </trkpt>
      <trkpt lat="43.59247" lon="6.83349">
        <ele>222.6</ele>
        <time>2025-10-24T07:42:55.000Z</time>
      </trkpt>
      <trkpt lat="43.59247" lon="6.8335">
        <ele>222.4</ele>
        <time>2025-10-24T07:42:56.000Z</time>
      </trkpt>
      <trkpt lat="43.59247" lon="6.8335">
        <ele>222.3</ele>
        <time>2025-10-24T07:42:57.000Z</time>
      </trkpt>
      <trkpt lat="43.59247" lon="6.83351">
        <ele>222.2</ele>
        <time>2025-10-24T07:42:58.000Z</time>
      </trkpt>
      <trkpt lat="43.59247" lon="6.83351">
        <ele>222.1</ele>
        <time>2025-10-24T07:42:59.000Z</time>
      </trkpt>
      <trkpt lat="43.59247" lon="6.83352">
        <ele>222</ele>
        <time>2025-10-24T07:43:00.000Z</time>
      </trkpt>
      <trkpt lat="43.59247" lon="6.83352">
        <ele>222</ele>
        <time>2025-10-24T07:43:01.000Z</time>
      </trkpt>
      <trkpt lat="43.59247" lon="6.83352">
        <ele>222</ele>
        <time>2025-10-24T07:43:02.000Z</time>
      </trkpt>
      <trkpt lat="43.59247" lon="6.83352">
        <ele>221.9</ele>
        <time>2025-10-24T07:43:03.000Z</time>
      </trkpt>
      <trkpt lat="43.59247" lon="6.83352">
        <ele>221.9</ele>
        <time>2025-10-24T07:43:04.000Z</time>
      </trkpt>
      <trkpt lat="43.59247" lon="6.83352">
        <ele>221.9</ele>
        <time>2025-10-24T07:43:05.000Z</time>
      </trkpt>
      <trkpt lat="43.59247" lon="6.83352">
        <ele>221.9</ele>
        <time>2025-10-24T07:43:06.000Z</time>
      </trkpt>
      <trkpt lat="43.59248" lon="6.83352">
        <ele>221.8</ele>
        <time>2025-10-24T07:43:07.000Z</time>
      </trkpt>
      <trkpt lat="43.59248" lon="6.83352">
        <ele>221.8</ele>
        <time>2025-10-24T07:43:08.000Z</time>
      </trkpt>
      <trkpt lat="43.59248" lon="6.83352">
        <ele>221.8</ele>
        <time>2025-10-24T07:43:09.000Z</time>
      </trkpt>
      <trkpt lat="43.59248" lon="6.83352">
        <ele>221.8</ele>
        <time>2025-10-24T07:43:10.000Z</time>
      </trkpt>
      <trkpt lat="43.59248" lon="6.83352">
        <ele>221.8</ele>
        <time>2025-10-24T07:43:11.000Z</time>
      </trkpt>
      <trkpt lat="43.59248" lon="6.83353">
        <ele>221.7</ele>
        <time>2025-10-24T07:43:12.000Z</time>
      </trkpt>
      <trkpt lat="43.59248" lon="6.83353">
        <ele>221.7</ele>
        <time>2025-10-24T07:43:13.000Z</time>
      </trkpt>
      <trkpt lat="43.59248" lon="6.83353">
        <ele>221.7</ele>
        <time>2025-10-24T07:43:14.000Z</time>
      </trkpt>
      <trkpt lat="43.59248" lon="6.83353">
        <ele>221.7</ele>
        <time>2025-10-24T07:43:15.000Z</time>
      </trkpt>
      <trkpt lat="43.59248" lon="6.83353">
        <ele>221.7</ele>
        <time>2025-10-24T07:43:16.000Z</time>
      </trkpt>
      <trkpt lat="43.59248" lon="6.83353">
        <ele>221.7</ele>
        <time>2025-10-24T07:43:17.000Z</time>
      </trkpt>
      <trkpt lat="43.59248" lon="6.83353">
        <ele>221.6</ele>
        <time>2025-10-24T07:43:18.000Z</time>
      </trkpt>
      <trkpt lat="43.59247" lon="6.83353">
        <ele>221.6</ele>
        <time>2025-10-24T07:43:19.000Z</time>
      </trkpt>
      <trkpt lat="43.59247" lon="6.83353">
        <ele>221.6</ele>
        <time>2025-10-24T07:43:20.000Z</time>
      </trkpt>
      <trkpt lat="43.59247" lon="6.83353">
        <ele>221.5</ele>
        <time>2025-10-24T07:43:21.000Z</time>
      </trkpt>
      <trkpt lat="43.59247" lon="6.83354">
        <ele>221.3</ele>
        <time>2025-10-24T07:43:22.000Z</time>
      </trkpt>
      <trkpt lat="43.59247" lon="6.83355">
        <ele>221.2</ele>
        <time>2025-10-24T07:43:23.000Z</time>
      </trkpt>
      <trkpt lat="43.59246" lon="6.83355">
        <ele>221.1</ele>
        <time>2025-10-24T07:43:24.000Z</time>
      </trkpt>
      <trkpt lat="43.59246" lon="6.83355">
        <ele>221.1</ele>
        <time>2025-10-24T07:43:25.000Z</time>
      </trkpt>
      <trkpt lat="43.59246" lon="6.83355">
        <ele>221</ele>
        <time>2025-10-24T07:43:26.000Z</time>
      </trkpt>
      <trkpt lat="43.59246" lon="6.83356">
        <ele>220.9</ele>
        <time>2025-10-24T07:43:27.000Z</time>
      </trkpt>
      <trkpt lat="43.59246" lon="6.83356">
        <ele>220.8</ele>
        <time>2025-10-24T07:43:28.000Z</time>
      </trkpt>
      <trkpt lat="43.59246" lon="6.83356">
        <ele>220.7</ele>
        <time>2025-10-24T07:43:29.000Z</time>
      </trkpt>
      <trkpt lat="43.59246" lon="6.83356">
        <ele>220.7</ele>
        <time>2025-10-24T07:43:30.000Z</time>
      </trkpt>
      <trkpt lat="43.59246" lon="6.83356">
        <ele>220.7</ele>
        <time>2025-10-24T07:43:31.000Z</time>
      </trkpt>
      <trkpt lat="43.59246" lon="6.83356">
        <ele>220.7</ele>
        <time>2025-10-24T07:43:32.000Z</time>
      </trkpt>
      <trkpt lat="43.59246" lon="6.83356">
        <ele>220.7</ele>
        <time>2025-10-24T07:43:33.000Z</time>
      </trkpt>
      <trkpt lat="43.59246" lon="6.83356">
        <ele>220.7</ele>
        <time>2025-10-24T07:43:34.000Z</time>
      </trkpt>
      <trkpt lat="43.59246" lon="6.83356">
        <ele>220.7</ele>
        <time>2025-10-24T07:43:35.000Z</time>
      </trkpt>
      <trkpt lat="43.59246" lon="6.83356">
        <ele>220.7</ele>
        <time>2025-10-24T07:43:36.000Z</time>
      </trkpt>
      <trkpt lat="43.59246" lon="6.83356">
        <ele>220.7</ele>
        <time>2025-10-24T07:43:37.000Z</time>
      </trkpt>
      <trkpt lat="43.59246" lon="6.83356">
        <ele>220.7</ele>
        <time>2025-10-24T07:43:38.000Z</time>
      </trkpt>
      <trkpt lat="43.59246" lon="6.83356">
        <ele>220.7</ele>
        <time>2025-10-24T07:43:39.000Z</time>
      </trkpt>
      <trkpt lat="43.59246" lon="6.83356">
        <ele>220.7</ele>
        <time>2025-10-24T07:43:40.000Z</time>
      </trkpt>
      <trkpt lat="43.59246" lon="6.83356">
        <ele>220.7</ele>
        <time>2025-10-24T07:43:41.000Z</time>
      </trkpt>
      <trkpt lat="43.59246" lon="6.83356">
        <ele>220.7</ele>
        <time>2025-10-24T07:43:42.000Z</time>
      </trkpt>
      <trkpt lat="43.59246" lon="6.83356">
        <ele>220.6</ele>
        <time>2025-10-24T07:43:43.000Z</time>
      </trkpt>
      <trkpt lat="43.59246" lon="6.83356">
        <ele>220.6</ele>
        <time>2025-10-24T07:43:44.000Z</time>
      </trkpt>
      <trkpt lat="43.59246" lon="6.83355">
        <ele>220.5</ele>
        <time>2025-10-24T07:43:45.000Z</time>
      </trkpt>
      <trkpt lat="43.59246" lon="6.83355">
        <ele>220.4</ele>
        <time>2025-10-24T07:43:46.000Z</time>
      </trkpt>
      <trkpt lat="43.59246" lon="6.83355">
        <ele>220.4</ele>
        <time>2025-10-24T07:43:47.000Z</time>
      </trkpt>
      <trkpt lat="43.59246" lon="6.83355">
        <ele>220.4</ele>
        <time>2025-10-24T07:43:48.000Z</time>
      </trkpt>
      <trkpt lat="43.59246" lon="6.83355">
        <ele>220.4</ele>
        <time>2025-10-24T07:43:49.000Z</time>
      </trkpt>
      <trkpt lat="43.59246" lon="6.83354">
        <ele>220.3</ele>
        <time>2025-10-24T07:43:50.000Z</time>
      </trkpt>
      <trkpt lat="43.59246" lon="6.83354">
        <ele>220.2</ele>
        <time>2025-10-24T07:43:51.000Z</time>
      </trkpt>
      <trkpt lat="43.59246" lon="6.83353">
        <ele>220.1</ele>
        <time>2025-10-24T07:43:52.000Z</time>
      </trkpt>
      <trkpt lat="43.59246" lon="6.83353">
        <ele>220</ele>
        <time>2025-10-24T07:43:53.000Z</time>
      </trkpt>
      <trkpt lat="43.59246" lon="6.83353">
        <ele>220</ele>
        <time>2025-10-24T07:43:54.000Z</time>
      </trkpt>
      <trkpt lat="43.59246" lon="6.83353">
        <ele>220</ele>
        <time>2025-10-24T07:43:55.000Z</time>
      </trkpt>
      <trkpt lat="43.59246" lon="6.83353">
        <ele>219.9</ele>
        <time>2025-10-24T07:43:56.000Z</time>
      </trkpt>
      <trkpt lat="43.59246" lon="6.83352">
        <ele>219.9</ele>
        <time>2025-10-24T07:43:57.000Z</time>
      </trkpt>
      <trkpt lat="43.59246" lon="6.83352">
        <ele>219.9</ele>
        <time>2025-10-24T07:43:58.000Z</time>
      </trkpt>
      <trkpt lat="43.59246" lon="6.83352">
        <ele>219.8</ele>
        <time>2025-10-24T07:43:59.000Z</time>
      </trkpt>
      <trkpt lat="43.59246" lon="6.83352">
        <ele>219.7</ele>
        <time>2025-10-24T07:44:00.000Z</time>
      </trkpt>
      <trkpt lat="43.59246" lon="6.83351">
        <ele>219.6</ele>
        <time>2025-10-24T07:44:01.000Z</time>
      </trkpt>
      <trkpt lat="43.59246" lon="6.83351">
        <ele>219.6</ele>
        <time>2025-10-24T07:44:02.000Z</time>
      </trkpt>
      <trkpt lat="43.59246" lon="6.8335">
        <ele>219.5</ele>
        <time>2025-10-24T07:44:03.000Z</time>
      </trkpt>
      <trkpt lat="43.59245" lon="6.8335">
        <ele>219.4</ele>
        <time>2025-10-24T07:44:04.000Z</time>
      </trkpt>
      <trkpt lat="43.59245" lon="6.8335">
        <ele>219.3</ele>
        <time>2025-10-24T07:44:05.000Z</time>
      </trkpt>
      <trkpt lat="43.59245" lon="6.8335">
        <ele>219.3</ele>
        <time>2025-10-24T07:44:06.000Z</time>
      </trkpt>
      <trkpt lat="43.59245" lon="6.8335">
        <ele>219.3</ele>
        <time>2025-10-24T07:44:07.000Z</time>
      </trkpt>
      <trkpt lat="43.59245" lon="6.83349">
        <ele>219.2</ele>
        <time>2025-10-24T07:44:08.000Z</time>
      </trkpt>
      <trkpt lat="43.59245" lon="6.83349">
        <ele>219.2</ele>
        <time>2025-10-24T07:44:09.000Z</time>
      </trkpt>
      <trkpt lat="43.59245" lon="6.83349">
        <ele>219.1</ele>
        <time>2025-10-24T07:44:10.000Z</time>
      </trkpt>
      <trkpt lat="43.59245" lon="6.83349">
        <ele>219</ele>
        <time>2025-10-24T07:44:11.000Z</time>
      </trkpt>
      <trkpt lat="43.59245" lon="6.83349">
        <ele>219</ele>
        <time>2025-10-24T07:44:12.000Z</time>
      </trkpt>
      <trkpt lat="43.59244" lon="6.83349">
        <ele>219</ele>
        <time>2025-10-24T07:44:13.000Z</time>
      </trkpt>
      <trkpt lat="43.59244" lon="6.83349">
        <ele>218.9</ele>
        <time>2025-10-24T07:44:14.000Z</time>
      </trkpt>
      <trkpt lat="43.59244" lon="6.83349">
        <ele>218.9</ele>
        <time>2025-10-24T07:44:15.000Z</time>
      </trkpt>
      <trkpt lat="43.59244" lon="6.83349">
        <ele>218.9</ele>
        <time>2025-10-24T07:44:16.000Z</time>
      </trkpt>
      <trkpt lat="43.59244" lon="6.83348">
        <ele>218.8</ele>
        <time>2025-10-24T07:44:17.000Z</time>
      </trkpt>
      <trkpt lat="43.59244" lon="6.83348">
        <ele>218.8</ele>
        <time>2025-10-24T07:44:18.000Z</time>
      </trkpt>
      <trkpt lat="43.59244" lon="6.83348">
        <ele>218.7</ele>
        <time>2025-10-24T07:44:19.000Z</time>
      </trkpt>
      <trkpt lat="43.59244" lon="6.83348">
        <ele>218.7</ele>
        <time>2025-10-24T07:44:20.000Z</time>
      </trkpt>
      <trkpt lat="43.59244" lon="6.83348">
        <ele>218.7</ele>
        <time>2025-10-24T07:44:21.000Z</time>
      </trkpt>
      <trkpt lat="43.59244" lon="6.83348">
        <ele>218.7</ele>
        <time>2025-10-24T07:44:22.000Z</time>
      </trkpt>
      <trkpt lat="43.59244" lon="6.83347">
        <ele>218.6</ele>
        <time>2025-10-24T07:44:23.000Z</time>
      </trkpt>
      <trkpt lat="43.59244" lon="6.83347">
        <ele>218.6</ele>
        <time>2025-10-24T07:44:24.000Z</time>
      </trkpt>
      <trkpt lat="43.59244" lon="6.83347">
        <ele>218.6</ele>
        <time>2025-10-24T07:44:25.000Z</time>
      </trkpt>
      <trkpt lat="43.59244" lon="6.83347">
        <ele>218.6</ele>
        <time>2025-10-24T07:44:26.000Z</time>
      </trkpt>
      <trkpt lat="43.59244" lon="6.83347">
        <ele>218.5</ele>
        <time>2025-10-24T07:44:27.000Z</time>
      </trkpt>
      <trkpt lat="43.59244" lon="6.83347">
        <ele>218.5</ele>
        <time>2025-10-24T07:44:28.000Z</time>
      </trkpt>
      <trkpt lat="43.59244" lon="6.83347">
        <ele>218.5</ele>
        <time>2025-10-24T07:44:29.000Z</time>
      </trkpt>
      <trkpt lat="43.59244" lon="6.83347">
        <ele>218.4</ele>
        <time>2025-10-24T07:44:30.000Z</time>
      </trkpt>
      <trkpt lat="43.59244" lon="6.83346">
        <ele>218.4</ele>
        <time>2025-10-24T07:44:31.000Z</time>
      </trkpt>
      <trkpt lat="43.59244" lon="6.83346">
        <ele>218.4</ele>
        <time>2025-10-24T07:44:32.000Z</time>
      </trkpt>
      <trkpt lat="43.59244" lon="6.83346">
        <ele>218.4</ele>
        <time>2025-10-24T07:44:33.000Z</time>
      </trkpt>
      <trkpt lat="43.59244" lon="6.83346">
        <ele>218.4</ele>
        <time>2025-10-24T07:44:34.000Z</time>
      </trkpt>
      <trkpt lat="43.59244" lon="6.83346">
        <ele>218.3</ele>
        <time>2025-10-24T07:44:35.000Z</time>
      </trkpt>
      <trkpt lat="43.59244" lon="6.83346">
        <ele>218.3</ele>
        <time>2025-10-24T07:44:36.000Z</time>
      </trkpt>
      <trkpt lat="43.59244" lon="6.83346">
        <ele>218.3</ele>
        <time>2025-10-24T07:44:37.000Z</time>
      </trkpt>
      <trkpt lat="43.59244" lon="6.83346">
        <ele>218.3</ele>
        <time>2025-10-24T07:44:38.000Z</time>
      </trkpt>
      <trkpt lat="43.59245" lon="6.83346">
        <ele>218.2</ele>
        <time>2025-10-24T07:44:39.000Z</time>
      </trkpt>
      <trkpt lat="43.59245" lon="6.83346">
        <ele>218.2</ele>
        <time>2025-10-24T07:44:40.000Z</time>
      </trkpt>
      <trkpt lat="43.59245" lon="6.83346">
        <ele>218.1</ele>
        <time>2025-10-24T07:44:41.000Z</time>
      </trkpt>
      <trkpt lat="43.59245" lon="6.83345">
        <ele>218.1</ele>
        <time>2025-10-24T07:44:42.000Z</time>
      </trkpt>
      <trkpt lat="43.59245" lon="6.83345">
        <ele>218.1</ele>
        <time>2025-10-24T07:44:43.000Z</time>
      </trkpt>
      <trkpt lat="43.59245" lon="6.83345">
        <ele>218</ele>
        <time>2025-10-24T07:44:44.000Z</time>
      </trkpt>
      <trkpt lat="43.59245" lon="6.83345">
        <ele>218</ele>
        <time>2025-10-24T07:44:45.000Z</time>
      </trkpt>
      <trkpt lat="43.59245" lon="6.83345">
        <ele>218</ele>
        <time>2025-10-24T07:44:46.000Z</time>
      </trkpt>
      <trkpt lat="43.59245" lon="6.83345">
        <ele>217.9</ele>
        <time>2025-10-24T07:44:47.000Z</time>
      </trkpt>
      <trkpt lat="43.59245" lon="6.83345">
        <ele>217.9</ele>
        <time>2025-10-24T07:44:48.000Z</time>
      </trkpt>
      <trkpt lat="43.59245" lon="6.83345">
        <ele>217.9</ele>
        <time>2025-10-24T07:44:49.000Z</time>
      </trkpt>
      <trkpt lat="43.59245" lon="6.83345">
        <ele>217.9</ele>
        <time>2025-10-24T07:44:50.000Z</time>
      </trkpt>
      <trkpt lat="43.59245" lon="6.83345">
        <ele>217.8</ele>
        <time>2025-10-24T07:44:51.000Z</time>
      </trkpt>
      <trkpt lat="43.59245" lon="6.83344">
        <ele>217.8</ele>
        <time>2025-10-24T07:44:52.000Z</time>
      </trkpt>
      <trkpt lat="43.59245" lon="6.83344">
        <ele>217.7</ele>
        <time>2025-10-24T07:44:53.000Z</time>
      </trkpt>
      <trkpt lat="43.59246" lon="6.8334">
        <ele>216.9</ele>
        <time>2025-10-24T07:44:54.000Z</time>
      </trkpt>
      <trkpt lat="43.59247" lon="6.83335">
        <ele>215.9</ele>
        <time>2025-10-24T07:44:55.000Z</time>
      </trkpt>
      <trkpt lat="43.59248" lon="6.8333">
        <ele>214.8</ele>
        <time>2025-10-24T07:44:56.000Z</time>
      </trkpt>
      <trkpt lat="43.59249" lon="6.83324">
        <ele>213.5</ele>
        <time>2025-10-24T07:44:57.000Z</time>
      </trkpt>
      <trkpt lat="43.5925" lon="6.83319">
        <ele>212.2</ele>
        <time>2025-10-24T07:44:58.000Z</time>
      </trkpt>
      <trkpt lat="43.5925" lon="6.83313">
        <ele>210.9</ele>
        <time>2025-10-24T07:44:59.000Z</time>
      </trkpt>
      <trkpt lat="43.59251" lon="6.83307">
        <ele>209.6</ele>
        <time>2025-10-24T07:45:00.000Z</time>
      </trkpt>
      <trkpt lat="43.59252" lon="6.83301">
        <ele>208.2</ele>
        <time>2025-10-24T07:45:01.000Z</time>
      </trkpt>
      <trkpt lat="43.59253" lon="6.83294">
        <ele>206.6</ele>
        <time>2025-10-24T07:45:02.000Z</time>
      </trkpt>
      <trkpt lat="43.59255" lon="6.83289">
        <ele>205.4</ele>
        <time>2025-10-24T07:45:03.000Z</time>
      </trkpt>
      <trkpt lat="43.59256" lon="6.83285">
        <ele>204.4</ele>
        <time>2025-10-24T07:45:04.000Z</time>
      </trkpt>
      <trkpt lat="43.59257" lon="6.83279">
        <ele>203.2</ele>
        <time>2025-10-24T07:45:05.000Z</time>
      </trkpt>
      <trkpt lat="43.59259" lon="6.83272">
        <ele>201.6</ele>
        <time>2025-10-24T07:45:06.000Z</time>
      </trkpt>
      <trkpt lat="43.59262" lon="6.83266">
        <ele>200.2</ele>
        <time>2025-10-24T07:45:07.000Z</time>
      </trkpt>
      <trkpt lat="43.59265" lon="6.83261">
        <ele>198.9</ele>
        <time>2025-10-24T07:45:08.000Z</time>
        <extensions>
          <visugpx:TrkExtension xmlns:visugpx="https://www.visugpx.com/editgpx/">
            <visugpx:node>1</visugpx:node>
            </visugpx:TrkExtension>
        </extensions>
      </trkpt>
    </trkseg>
  </trk>
</gpx>